<?xml version='1.0' encoding='UTF-8'?><gpx version="1.1" creator="JPX - https://github.com/jenetics/jpx" xmlns="http://www.topografix.com/GPX/1/1"><trk><trkseg><trkpt lat="45.7190318" lon="9.8789474"><ele>383.0</ele><time>2026-05-01T06:30:54.634Z</time></trkpt><trkpt lat="45.7185983" lon="9.8779854"><ele>368.5</ele><time>2026-05-01T06:30:55.627Z</time></trkpt><trkpt lat="45.7184171" lon="9.8776052"><ele>354.0</ele><time>2026-05-01T06:30:56.636Z</time></trkpt><trkpt lat="45.71834" lon="9.8773587"><ele>348.0</ele><time>2026-05-01T06:30:57.634Z</time></trkpt><trkpt lat="45.7180689" lon="9.8768207"><ele>348.0</ele><time>2026-05-01T06:30:58.63Z</time></trkpt><trkpt lat="45.7180471" lon="9.8767291"><ele>348.0</ele><time>2026-05-01T06:30:59.638Z</time></trkpt><trkpt lat="45.7179959" lon="9.876809"><ele>348.0</ele><time>2026-05-01T06:31:43.968Z</time></trkpt><trkpt lat="45.7179646" lon="9.876926"><ele>348.0</ele><time>2026-05-01T06:31:47.967Z</time></trkpt><trkpt lat="45.7179569" lon="9.8770299"><ele>348.0</ele><time>2026-05-01T06:31:50.971Z</time></trkpt><trkpt lat="45.717949" lon="9.8771526"><ele>348.0</ele><time>2026-05-01T06:31:53.975Z</time></trkpt><trkpt lat="45.7179217" lon="9.8772649"><ele>348.0</ele><time>2026-05-01T06:31:56.968Z</time></trkpt><trkpt lat="45.7178749" lon="9.8773696"><ele>348.0</ele><time>2026-05-01T06:31:59.968Z</time></trkpt><trkpt lat="45.7178353" lon="9.8774623"><ele>348.0</ele><time>2026-05-01T06:32:02.964Z</time></trkpt><trkpt lat="45.7177908" lon="9.8775314"><ele>348.0</ele><time>2026-05-01T06:32:04.969Z</time></trkpt><trkpt lat="45.7177193" lon="9.877619"><ele>348.0</ele><time>2026-05-01T06:32:06.969Z</time></trkpt><trkpt lat="45.7176387" lon="9.8777372"><ele>348.0</ele><time>2026-05-01T06:32:08.967Z</time></trkpt><trkpt lat="45.7175677" lon="9.877876"><ele>346.2857142857143</ele><time>2026-05-01T06:32:11.028Z</time></trkpt><trkpt lat="45.7175275" lon="9.8779556"><ele>344.57142857142856</ele><time>2026-05-01T06:32:11.962Z</time></trkpt><trkpt lat="45.7174876" lon="9.8780282"><ele>342.8571428571429</ele><time>2026-05-01T06:32:12.966Z</time></trkpt><trkpt lat="45.7174438" lon="9.8780974"><ele>341.1428571428571</ele><time>2026-05-01T06:32:13.951Z</time></trkpt><trkpt lat="45.7173957" lon="9.8781706"><ele>339.42857142857144</ele><time>2026-05-01T06:32:14.962Z</time></trkpt><trkpt lat="45.7173456" lon="9.8782611"><ele>337.7142857142857</ele><time>2026-05-01T06:32:15.963Z</time></trkpt><trkpt lat="45.7173121" lon="9.8783507"><ele>336.0</ele><time>2026-05-01T06:32:16.959Z</time></trkpt><trkpt lat="45.7172813" lon="9.8784413"><ele>336.0</ele><time>2026-05-01T06:32:17.957Z</time></trkpt><trkpt lat="45.7172502" lon="9.8785333"><ele>336.0</ele><time>2026-05-01T06:32:18.963Z</time></trkpt><trkpt lat="45.7172236" lon="9.8786185"><ele>336.0</ele><time>2026-05-01T06:32:19.961Z</time></trkpt><trkpt lat="45.7171983" lon="9.8787018"><ele>336.0</ele><time>2026-05-01T06:32:20.961Z</time></trkpt><trkpt lat="45.717175" lon="9.878789"><ele>336.0</ele><time>2026-05-01T06:32:22.033Z</time></trkpt><trkpt lat="45.7171438" lon="9.8788796"><ele>336.0</ele><time>2026-05-01T06:32:22.965Z</time></trkpt><trkpt lat="45.7171155" lon="9.8789641"><ele>336.0</ele><time>2026-05-01T06:32:23.961Z</time></trkpt><trkpt lat="45.7170855" lon="9.8790485"><ele>336.0</ele><time>2026-05-01T06:32:24.969Z</time></trkpt><trkpt lat="45.7170595" lon="9.879136"><ele>336.0</ele><time>2026-05-01T06:32:26.031Z</time></trkpt><trkpt lat="45.7170305" lon="9.8792251"><ele>336.0</ele><time>2026-05-01T06:32:27.027Z</time></trkpt><trkpt lat="45.7169995" lon="9.8793113"><ele>336.0</ele><time>2026-05-01T06:32:27.962Z</time></trkpt><trkpt lat="45.7169665" lon="9.8793908"><ele>336.0</ele><time>2026-05-01T06:32:28.965Z</time></trkpt><trkpt lat="45.7169309" lon="9.8794739"><ele>336.0</ele><time>2026-05-01T06:32:29.967Z</time></trkpt><trkpt lat="45.7168893" lon="9.8795515"><ele>336.0</ele><time>2026-05-01T06:32:31.034Z</time></trkpt><trkpt lat="45.7168456" lon="9.879625"><ele>333.42857142857144</ele><time>2026-05-01T06:32:32.029Z</time></trkpt><trkpt lat="45.716804" lon="9.8797108"><ele>330.8571428571429</ele><time>2026-05-01T06:32:33.01Z</time></trkpt><trkpt lat="45.7167714" lon="9.8798049"><ele>328.2857142857143</ele><time>2026-05-01T06:32:33.969Z</time></trkpt><trkpt lat="45.7167456" lon="9.8799011"><ele>325.7142857142857</ele><time>2026-05-01T06:32:35.033Z</time></trkpt><trkpt lat="45.7167158" lon="9.8799844"><ele>323.14285714285717</ele><time>2026-05-01T06:32:36.035Z</time></trkpt><trkpt lat="45.7166873" lon="9.8800654"><ele>320.57142857142856</ele><time>2026-05-01T06:32:37.026Z</time></trkpt><trkpt lat="45.7166457" lon="9.8801763"><ele>318.0</ele><time>2026-05-01T06:32:38.97Z</time></trkpt><trkpt lat="45.7166546" lon="9.8803066"><ele>318.0</ele><time>2026-05-01T06:32:40.97Z</time></trkpt><trkpt lat="45.7166937" lon="9.8804068"><ele>318.0</ele><time>2026-05-01T06:32:42.958Z</time></trkpt><trkpt lat="45.716715" lon="9.8805199"><ele>318.0</ele><time>2026-05-01T06:32:44.959Z</time></trkpt><trkpt lat="45.7167333" lon="9.8806264"><ele>318.0</ele><time>2026-05-01T06:32:46.963Z</time></trkpt><trkpt lat="45.7167514" lon="9.8807498"><ele>318.0</ele><time>2026-05-01T06:32:48.961Z</time></trkpt><trkpt lat="45.716767" lon="9.8808729"><ele>318.0</ele><time>2026-05-01T06:32:51.036Z</time></trkpt><trkpt lat="45.7167805" lon="9.8810132"><ele>317.4</ele><time>2026-05-01T06:32:52.973Z</time></trkpt><trkpt lat="45.716804" lon="9.8811657"><ele>316.8</ele><time>2026-05-01T06:32:54.969Z</time></trkpt><trkpt lat="45.7168145" lon="9.8813127"><ele>316.2</ele><time>2026-05-01T06:32:56.965Z</time></trkpt><trkpt lat="45.71683" lon="9.8814623"><ele>315.6</ele><time>2026-05-01T06:32:59.028Z</time></trkpt><trkpt lat="45.7168432" lon="9.8816354"><ele>315.0</ele><time>2026-05-01T06:33:01.037Z</time></trkpt><trkpt lat="45.7168549" lon="9.8817991"><ele>314.2</ele><time>2026-05-01T06:33:02.97Z</time></trkpt><trkpt lat="45.7168669" lon="9.8819654"><ele>313.4</ele><time>2026-05-01T06:33:04.952Z</time></trkpt><trkpt lat="45.716888" lon="9.8821321"><ele>312.6</ele><time>2026-05-01T06:33:06.948Z</time></trkpt><trkpt lat="45.7168949" lon="9.882226"><ele>311.8</ele><time>2026-05-01T06:33:07.965Z</time></trkpt><trkpt lat="45.7169114" lon="9.8823704"><ele>311.0</ele><time>2026-05-01T06:33:10.043Z</time></trkpt><trkpt lat="45.7169396" lon="9.882512"><ele>313.6</ele><time>2026-05-01T06:33:12.033Z</time></trkpt><trkpt lat="45.7169704" lon="9.8826424"><ele>316.20000000000005</ele><time>2026-05-01T06:33:13.967Z</time></trkpt><trkpt lat="45.717017" lon="9.8827856"><ele>318.79999999999995</ele><time>2026-05-01T06:33:15.958Z</time></trkpt><trkpt lat="45.717064" lon="9.8829078"><ele>321.4</ele><time>2026-05-01T06:33:17.953Z</time></trkpt><trkpt lat="45.7171157" lon="9.8830304"><ele>324.0</ele><time>2026-05-01T06:33:19.96Z</time></trkpt><trkpt lat="45.7171805" lon="9.883167"><ele>324.0</ele><time>2026-05-01T06:33:21.961Z</time></trkpt><trkpt lat="45.7172422" lon="9.8832919"><ele>324.0</ele><time>2026-05-01T06:33:23.961Z</time></trkpt><trkpt lat="45.7173087" lon="9.8834054"><ele>324.0</ele><time>2026-05-01T06:33:25.965Z</time></trkpt><trkpt lat="45.7173537" lon="9.8835314"><ele>324.0</ele><time>2026-05-01T06:33:27.959Z</time></trkpt><trkpt lat="45.7173771" lon="9.8836526"><ele>324.0</ele><time>2026-05-01T06:33:29.971Z</time></trkpt><trkpt lat="45.7173819" lon="9.8837842"><ele>322.0</ele><time>2026-05-01T06:33:31.968Z</time></trkpt><trkpt lat="45.7173854" lon="9.8839049"><ele>320.0</ele><time>2026-05-01T06:33:34.043Z</time></trkpt><trkpt lat="45.7173825" lon="9.8840221"><ele>318.0</ele><time>2026-05-01T06:33:35.972Z</time></trkpt><trkpt lat="45.7173793" lon="9.8841504"><ele>316.0</ele><time>2026-05-01T06:33:37.962Z</time></trkpt><trkpt lat="45.7173815" lon="9.8842913"><ele>314.0</ele><time>2026-05-01T06:33:39.958Z</time></trkpt><trkpt lat="45.7174029" lon="9.884452"><ele>311.75</ele><time>2026-05-01T06:33:42.03Z</time></trkpt><trkpt lat="45.7174517" lon="9.8845964"><ele>309.5</ele><time>2026-05-01T06:33:43.951Z</time></trkpt><trkpt lat="45.7175214" lon="9.8847154"><ele>307.25</ele><time>2026-05-01T06:33:45.952Z</time></trkpt><trkpt lat="45.7176203" lon="9.8848144"><ele>305.0</ele><time>2026-05-01T06:33:47.952Z</time></trkpt><trkpt lat="45.7177128" lon="9.8849018"><ele>305.6</ele><time>2026-05-01T06:33:50.049Z</time></trkpt><trkpt lat="45.717805" lon="9.8849894"><ele>306.2</ele><time>2026-05-01T06:33:52.038Z</time></trkpt><trkpt lat="45.7178868" lon="9.8850867"><ele>306.8</ele><time>2026-05-01T06:33:53.962Z</time></trkpt><trkpt lat="45.7179733" lon="9.8851907"><ele>307.4</ele><time>2026-05-01T06:33:55.958Z</time></trkpt><trkpt lat="45.7180468" lon="9.8853022"><ele>308.0</ele><time>2026-05-01T06:33:57.959Z</time></trkpt><trkpt lat="45.7181173" lon="9.8854286"><ele>308.0</ele><time>2026-05-01T06:33:59.99Z</time></trkpt><trkpt lat="45.718175" lon="9.8855753"><ele>308.0</ele><time>2026-05-01T06:34:02.034Z</time></trkpt><trkpt lat="45.7182436" lon="9.8857211"><ele>308.0</ele><time>2026-05-01T06:34:03.96Z</time></trkpt><trkpt lat="45.7183109" lon="9.8858546"><ele>308.0</ele><time>2026-05-01T06:34:06.038Z</time></trkpt><trkpt lat="45.718349" lon="9.8859267"><ele>308.0</ele><time>2026-05-01T06:34:07.031Z</time></trkpt><trkpt lat="45.7183804" lon="9.8860077"><ele>307.5</ele><time>2026-05-01T06:34:07.951Z</time></trkpt><trkpt lat="45.7184371" lon="9.8861641"><ele>307.0</ele><time>2026-05-01T06:34:09.962Z</time></trkpt><trkpt lat="45.718459" lon="9.8862559"><ele>306.5</ele><time>2026-05-01T06:34:11.032Z</time></trkpt><trkpt lat="45.7184801" lon="9.8863449"><ele>306.0</ele><time>2026-05-01T06:34:12.03Z</time></trkpt><trkpt lat="45.7184911" lon="9.8864378"><ele>305.5</ele><time>2026-05-01T06:34:12.96Z</time></trkpt><trkpt lat="45.7185003" lon="9.8865274"><ele>305.0</ele><time>2026-05-01T06:34:13.96Z</time></trkpt><trkpt lat="45.7185102" lon="9.8866228"><ele>305.0</ele><time>2026-05-01T06:34:15.062Z</time></trkpt><trkpt lat="45.7185226" lon="9.8867239"><ele>305.0</ele><time>2026-05-01T06:34:16.043Z</time></trkpt><trkpt lat="45.7185345" lon="9.8868276"><ele>305.0</ele><time>2026-05-01T06:34:17.03Z</time></trkpt><trkpt lat="45.7185435" lon="9.8869285"><ele>305.0</ele><time>2026-05-01T06:34:17.965Z</time></trkpt><trkpt lat="45.7185477" lon="9.8870342"><ele>305.0</ele><time>2026-05-01T06:34:18.968Z</time></trkpt><trkpt lat="45.7185385" lon="9.8871418"><ele>305.0</ele><time>2026-05-01T06:34:19.959Z</time></trkpt><trkpt lat="45.7185034" lon="9.8872517"><ele>303.33333333333337</ele><time>2026-05-01T06:34:20.964Z</time></trkpt><trkpt lat="45.7184661" lon="9.8873631"><ele>301.6666666666667</ele><time>2026-05-01T06:34:21.966Z</time></trkpt><trkpt lat="45.7184297" lon="9.8874735"><ele>300.0</ele><time>2026-05-01T06:34:22.962Z</time></trkpt><trkpt lat="45.7183987" lon="9.8875881"><ele>298.3333333333333</ele><time>2026-05-01T06:34:23.961Z</time></trkpt><trkpt lat="45.7183825" lon="9.887707"><ele>296.66666666666663</ele><time>2026-05-01T06:34:24.987Z</time></trkpt><trkpt lat="45.7183899" lon="9.8878312"><ele>295.0</ele><time>2026-05-01T06:34:25.965Z</time></trkpt><trkpt lat="45.7184144" lon="9.887962"><ele>295.0</ele><time>2026-05-01T06:34:26.962Z</time></trkpt><trkpt lat="45.7184545" lon="9.8880904"><ele>295.0</ele><time>2026-05-01T06:34:27.969Z</time></trkpt><trkpt lat="45.7184964" lon="9.8882111"><ele>295.0</ele><time>2026-05-01T06:34:28.965Z</time></trkpt><trkpt lat="45.7185407" lon="9.8883452"><ele>295.0</ele><time>2026-05-01T06:34:29.967Z</time></trkpt><trkpt lat="45.7185895" lon="9.8884748"><ele>295.0</ele><time>2026-05-01T06:34:30.968Z</time></trkpt><trkpt lat="45.7186448" lon="9.8886041"><ele>295.0</ele><time>2026-05-01T06:34:31.964Z</time></trkpt><trkpt lat="45.7187189" lon="9.8887192"><ele>295.0</ele><time>2026-05-01T06:34:32.97Z</time></trkpt><trkpt lat="45.718802" lon="9.8888041"><ele>295.0</ele><time>2026-05-01T06:34:33.956Z</time></trkpt><trkpt lat="45.7188938" lon="9.8888654"><ele>295.0</ele><time>2026-05-01T06:34:34.962Z</time></trkpt><trkpt lat="45.7189818" lon="9.888923"><ele>295.0</ele><time>2026-05-01T06:34:35.965Z</time></trkpt><trkpt lat="45.7190624" lon="9.8889596"><ele>295.0</ele><time>2026-05-01T06:34:36.961Z</time></trkpt><trkpt lat="45.7191346" lon="9.8889965"><ele>295.0</ele><time>2026-05-01T06:34:37.966Z</time></trkpt><trkpt lat="45.7191634" lon="9.8891671"><ele>295.0</ele><time>2026-05-01T06:34:39.953Z</time></trkpt><trkpt lat="45.7191044" lon="9.8892336"><ele>295.0</ele><time>2026-05-01T06:34:40.966Z</time></trkpt><trkpt lat="45.7190317" lon="9.8892538"><ele>295.0</ele><time>2026-05-01T06:34:41.961Z</time></trkpt><trkpt lat="45.7189634" lon="9.889238"><ele>295.0</ele><time>2026-05-01T06:34:42.965Z</time></trkpt><trkpt lat="45.7188427" lon="9.8892341"><ele>294.4</ele><time>2026-05-01T06:34:44.963Z</time></trkpt><trkpt lat="45.7187902" lon="9.8892845"><ele>293.8</ele><time>2026-05-01T06:34:45.964Z</time></trkpt><trkpt lat="45.7187293" lon="9.8894278"><ele>293.2</ele><time>2026-05-01T06:34:47.963Z</time></trkpt><trkpt lat="45.7187016" lon="9.8895797"><ele>292.6</ele><time>2026-05-01T06:34:49.966Z</time></trkpt><trkpt lat="45.7186507" lon="9.8897252"><ele>292.0</ele><time>2026-05-01T06:34:51.962Z</time></trkpt><trkpt lat="45.7185714" lon="9.8898386"><ele>290.8</ele><time>2026-05-01T06:34:53.962Z</time></trkpt><trkpt lat="45.7184952" lon="9.8899386"><ele>289.6</ele><time>2026-05-01T06:34:55.967Z</time></trkpt><trkpt lat="45.7184194" lon="9.8900433"><ele>288.40000000000003</ele><time>2026-05-01T06:34:57.969Z</time></trkpt><trkpt lat="45.718312" lon="9.8900567"><ele>287.2</ele><time>2026-05-01T06:34:59.964Z</time></trkpt><trkpt lat="45.7182249" lon="9.889938"><ele>286.0</ele><time>2026-05-01T06:35:01.967Z</time></trkpt><trkpt lat="45.7181746" lon="9.8898715"><ele>286.0</ele><time>2026-05-01T06:35:02.966Z</time></trkpt><trkpt lat="45.7181129" lon="9.8898213"><ele>286.0</ele><time>2026-05-01T06:35:03.969Z</time></trkpt><trkpt lat="45.718052" lon="9.889776"><ele>286.0</ele><time>2026-05-01T06:35:04.961Z</time></trkpt><trkpt lat="45.7179461" lon="9.889704"><ele>286.0</ele><time>2026-05-01T06:35:06.965Z</time></trkpt><trkpt lat="45.71786" lon="9.8897241"><ele>286.0</ele><time>2026-05-01T06:35:08.964Z</time></trkpt><trkpt lat="45.7178017" lon="9.8898056"><ele>286.0</ele><time>2026-05-01T06:35:10.962Z</time></trkpt><trkpt lat="45.7177646" lon="9.889883"><ele>285.99999999999994</ele><time>2026-05-01T06:35:12.964Z</time></trkpt><trkpt lat="45.717751" lon="9.8899749"><ele>286.0</ele><time>2026-05-01T06:35:14.967Z</time></trkpt><trkpt lat="45.7177513" lon="9.8900733"><ele>286.0</ele><time>2026-05-01T06:35:17.97Z</time></trkpt><trkpt lat="45.7177855" lon="9.8901596"><ele>286.0</ele><time>2026-05-01T06:38:34.962Z</time></trkpt><trkpt lat="45.717721" lon="9.8901884"><ele>286.0</ele><time>2026-05-01T06:40:18.971Z</time></trkpt><trkpt lat="45.7177661" lon="9.8901183"><ele>285.99999999999994</ele><time>2026-05-01T06:42:01.968Z</time></trkpt><trkpt lat="45.7177392" lon="9.8900266"><ele>286.0</ele><time>2026-05-01T06:42:05.95Z</time></trkpt><trkpt lat="45.7177833" lon="9.8899513"><ele>285.99999999999994</ele><time>2026-05-01T06:42:07.948Z</time></trkpt><trkpt lat="45.717831" lon="9.8898907"><ele>286.0</ele><time>2026-05-01T06:42:09.958Z</time></trkpt><trkpt lat="45.7178941" lon="9.8898067"><ele>286.0</ele><time>2026-05-01T06:42:12.954Z</time></trkpt><trkpt lat="45.7179588" lon="9.8898047"><ele>286.0</ele><time>2026-05-01T06:42:16.038Z</time></trkpt><trkpt lat="45.7180339" lon="9.8898256"><ele>286.0</ele><time>2026-05-01T06:42:18.966Z</time></trkpt><trkpt lat="45.718114" lon="9.889864"><ele>285.99999999999994</ele><time>2026-05-01T06:42:21.862Z</time></trkpt><trkpt lat="45.7181724" lon="9.8899112"><ele>286.0</ele><time>2026-05-01T06:42:23.974Z</time></trkpt><trkpt lat="45.7182237" lon="9.8899789"><ele>285.99999999999994</ele><time>2026-05-01T06:42:26.034Z</time></trkpt><trkpt lat="45.7182649" lon="9.8900481"><ele>286.0</ele><time>2026-05-01T06:42:27.954Z</time></trkpt><trkpt lat="45.718312" lon="9.890111"><ele>286.0</ele><time>2026-05-01T06:42:29.949Z</time></trkpt><trkpt lat="45.7183393" lon="9.8902004"><ele>286.0</ele><time>2026-05-01T06:42:31.94Z</time></trkpt><trkpt lat="45.7183081" lon="9.8903058"><ele>286.0</ele><time>2026-05-01T06:42:34.043Z</time></trkpt><trkpt lat="45.7182647" lon="9.8903892"><ele>285.99999999999994</ele><time>2026-05-01T06:42:35.97Z</time></trkpt><trkpt lat="45.7182322" lon="9.8904836"><ele>286.0</ele><time>2026-05-01T06:42:37.97Z</time></trkpt><trkpt lat="45.7182085" lon="9.8906008"><ele>286.66666666666663</ele><time>2026-05-01T06:42:39.965Z</time></trkpt><trkpt lat="45.7181993" lon="9.8907288"><ele>287.3333333333333</ele><time>2026-05-01T06:42:41.972Z</time></trkpt><trkpt lat="45.7182011" lon="9.8908549"><ele>288.0</ele><time>2026-05-01T06:42:44.036Z</time></trkpt><trkpt lat="45.7182161" lon="9.8909602"><ele>288.6666666666667</ele><time>2026-05-01T06:42:44.977Z</time></trkpt><trkpt lat="45.7182419" lon="9.891067"><ele>289.33333333333337</ele><time>2026-05-01T06:42:46.967Z</time></trkpt><trkpt lat="45.7182841" lon="9.8911584"><ele>290.0</ele><time>2026-05-01T06:42:48.97Z</time></trkpt><trkpt lat="45.7183309" lon="9.8912248"><ele>290.0</ele><time>2026-05-01T06:42:50.969Z</time></trkpt><trkpt lat="45.7183757" lon="9.8913317"><ele>290.0</ele><time>2026-05-01T06:42:53.033Z</time></trkpt><trkpt lat="45.7184233" lon="9.8914346"><ele>290.0</ele><time>2026-05-01T06:42:55.041Z</time></trkpt><trkpt lat="45.7184825" lon="9.8915406"><ele>290.0</ele><time>2026-05-01T06:42:57.018Z</time></trkpt><trkpt lat="45.7185449" lon="9.8916454"><ele>290.0</ele><time>2026-05-01T06:42:58.963Z</time></trkpt><trkpt lat="45.7186073" lon="9.8917399"><ele>290.0</ele><time>2026-05-01T06:43:00.97Z</time></trkpt><trkpt lat="45.718671" lon="9.8918435"><ele>290.0</ele><time>2026-05-01T06:43:03.028Z</time></trkpt><trkpt lat="45.718735" lon="9.891946"><ele>290.0</ele><time>2026-05-01T06:43:04.968Z</time></trkpt><trkpt lat="45.7187951" lon="9.8920474"><ele>290.0</ele><time>2026-05-01T06:43:06.953Z</time></trkpt><trkpt lat="45.7188638" lon="9.8921316"><ele>290.0</ele><time>2026-05-01T06:43:08.965Z</time></trkpt><trkpt lat="45.7189158" lon="9.8922439"><ele>290.0</ele><time>2026-05-01T06:43:11.034Z</time></trkpt><trkpt lat="45.7189859" lon="9.8923463"><ele>290.0</ele><time>2026-05-01T06:43:12.958Z</time></trkpt><trkpt lat="45.7190593" lon="9.8924422"><ele>290.0</ele><time>2026-05-01T06:43:14.978Z</time></trkpt><trkpt lat="45.7191335" lon="9.8925364"><ele>290.0</ele><time>2026-05-01T06:43:16.961Z</time></trkpt><trkpt lat="45.7192098" lon="9.8926231"><ele>290.0</ele><time>2026-05-01T06:43:19.041Z</time></trkpt><trkpt lat="45.7192936" lon="9.892714"><ele>290.4</ele><time>2026-05-01T06:43:21.031Z</time></trkpt><trkpt lat="45.7193778" lon="9.8927997"><ele>290.8</ele><time>2026-05-01T06:43:23.032Z</time></trkpt><trkpt lat="45.7194504" lon="9.8928929"><ele>291.2</ele><time>2026-05-01T06:43:25.032Z</time></trkpt><trkpt lat="45.7195302" lon="9.8929892"><ele>291.6</ele><time>2026-05-01T06:43:26.965Z</time></trkpt><trkpt lat="45.7196148" lon="9.8930747"><ele>292.0</ele><time>2026-05-01T06:43:29.063Z</time></trkpt><trkpt lat="45.7196852" lon="9.8931715"><ele>292.2</ele><time>2026-05-01T06:43:31.029Z</time></trkpt><trkpt lat="45.719774" lon="9.8932615"><ele>292.4</ele><time>2026-05-01T06:43:32.953Z</time></trkpt><trkpt lat="45.7198534" lon="9.89335"><ele>292.6</ele><time>2026-05-01T06:43:35.031Z</time></trkpt><trkpt lat="45.719935" lon="9.8934389"><ele>292.8</ele><time>2026-05-01T06:43:36.958Z</time></trkpt><trkpt lat="45.7200169" lon="9.8935346"><ele>293.0</ele><time>2026-05-01T06:43:38.957Z</time></trkpt><trkpt lat="45.7200963" lon="9.8936063"><ele>294.0</ele><time>2026-05-01T06:43:40.956Z</time></trkpt><trkpt lat="45.7201832" lon="9.8936631"><ele>295.0</ele><time>2026-05-01T06:43:42.963Z</time></trkpt><trkpt lat="45.7202746" lon="9.8937172"><ele>296.0</ele><time>2026-05-01T06:43:44.954Z</time></trkpt><trkpt lat="45.7203599" lon="9.8937702"><ele>297.0</ele><time>2026-05-01T06:43:46.961Z</time></trkpt><trkpt lat="45.720459" lon="9.8938242"><ele>298.0</ele><time>2026-05-01T06:43:48.95Z</time></trkpt><trkpt lat="45.7205527" lon="9.8938913"><ele>298.0</ele><time>2026-05-01T06:43:51.03Z</time></trkpt><trkpt lat="45.7206314" lon="9.8939855"><ele>298.0</ele><time>2026-05-01T06:43:52.962Z</time></trkpt><trkpt lat="45.7207083" lon="9.8940866"><ele>298.0</ele><time>2026-05-01T06:43:54.97Z</time></trkpt><trkpt lat="45.7207706" lon="9.8941899"><ele>298.0</ele><time>2026-05-01T06:43:57Z</time></trkpt><trkpt lat="45.7208286" lon="9.8943134"><ele>298.0</ele><time>2026-05-01T06:43:58.957Z</time></trkpt><trkpt lat="45.7208877" lon="9.8944354"><ele>298.6</ele><time>2026-05-01T06:44:00.976Z</time></trkpt><trkpt lat="45.7209369" lon="9.8945588"><ele>299.20000000000005</ele><time>2026-05-01T06:44:02.975Z</time></trkpt><trkpt lat="45.7209693" lon="9.8946948"><ele>299.8</ele><time>2026-05-01T06:44:04.971Z</time></trkpt><trkpt lat="45.7209949" lon="9.8948372"><ele>300.40000000000003</ele><time>2026-05-01T06:44:06.972Z</time></trkpt><trkpt lat="45.7210152" lon="9.8949698"><ele>301.0</ele><time>2026-05-01T06:44:08.963Z</time></trkpt><trkpt lat="45.7210207" lon="9.8950878"><ele>301.14285714285717</ele><time>2026-05-01T06:44:10.964Z</time></trkpt><trkpt lat="45.7210318" lon="9.8951878"><ele>301.2857142857143</ele><time>2026-05-01T06:44:12.969Z</time></trkpt><trkpt lat="45.7210321" lon="9.8952953"><ele>301.42857142857144</ele><time>2026-05-01T06:44:14.976Z</time></trkpt><trkpt lat="45.7210413" lon="9.8953941"><ele>301.57142857142856</ele><time>2026-05-01T06:44:16.973Z</time></trkpt><trkpt lat="45.7210355" lon="9.8954996"><ele>301.7142857142857</ele><time>2026-05-01T06:44:19.971Z</time></trkpt><trkpt lat="45.7210391" lon="9.8956134"><ele>301.8571428571429</ele><time>2026-05-01T06:44:23.97Z</time></trkpt><trkpt lat="45.7210476" lon="9.895725"><ele>302.0</ele><time>2026-05-01T06:44:26.976Z</time></trkpt><trkpt lat="45.7210665" lon="9.8958247"><ele>302.0</ele><time>2026-05-01T06:44:30.032Z</time></trkpt><trkpt lat="45.7210934" lon="9.8959076"><ele>302.0</ele><time>2026-05-01T06:44:31.965Z</time></trkpt><trkpt lat="45.7211262" lon="9.8960046"><ele>302.0</ele><time>2026-05-01T06:44:33.965Z</time></trkpt><trkpt lat="45.7211767" lon="9.8961229"><ele>302.0</ele><time>2026-05-01T06:44:35.976Z</time></trkpt><trkpt lat="45.7212014" lon="9.8962095"><ele>302.0</ele><time>2026-05-01T06:44:37.965Z</time></trkpt><trkpt lat="45.7212269" lon="9.8963029"><ele>302.0</ele><time>2026-05-01T06:44:39.961Z</time></trkpt><trkpt lat="45.7212509" lon="9.8964292"><ele>302.0</ele><time>2026-05-01T06:44:42.963Z</time></trkpt><trkpt lat="45.7212717" lon="9.8965576"><ele>302.0</ele><time>2026-05-01T06:44:45.965Z</time></trkpt><trkpt lat="45.7212973" lon="9.8966944"><ele>302.0</ele><time>2026-05-01T06:44:48.97Z</time></trkpt><trkpt lat="45.7213343" lon="9.8968113"><ele>302.0</ele><time>2026-05-01T06:44:50.96Z</time></trkpt><trkpt lat="45.7213571" lon="9.8969099"><ele>302.0</ele><time>2026-05-01T06:44:51.968Z</time></trkpt><trkpt lat="45.721388" lon="9.8969996"><ele>302.0</ele><time>2026-05-01T06:44:52.962Z</time></trkpt><trkpt lat="45.7214207" lon="9.897082"><ele>302.6</ele><time>2026-05-01T06:44:53.961Z</time></trkpt><trkpt lat="45.7214746" lon="9.8972202"><ele>303.2</ele><time>2026-05-01T06:44:55.963Z</time></trkpt><trkpt lat="45.7215401" lon="9.8973403"><ele>303.8</ele><time>2026-05-01T06:44:57.962Z</time></trkpt><trkpt lat="45.721596" lon="9.8974598"><ele>304.4</ele><time>2026-05-01T06:44:59.962Z</time></trkpt><trkpt lat="45.7216503" lon="9.8975743"><ele>305.0</ele><time>2026-05-01T06:45:01.96Z</time></trkpt><trkpt lat="45.7217024" lon="9.8976926"><ele>304.4</ele><time>2026-05-01T06:45:03.965Z</time></trkpt><trkpt lat="45.7217625" lon="9.8978097"><ele>303.8</ele><time>2026-05-01T06:45:05.957Z</time></trkpt><trkpt lat="45.7218193" lon="9.8979082"><ele>303.2</ele><time>2026-05-01T06:45:07.958Z</time></trkpt><trkpt lat="45.7218745" lon="9.8979995"><ele>302.6</ele><time>2026-05-01T06:45:09.961Z</time></trkpt><trkpt lat="45.7219519" lon="9.8981014"><ele>302.0</ele><time>2026-05-01T06:45:11.965Z</time></trkpt><trkpt lat="45.7220206" lon="9.8982082"><ele>302.0</ele><time>2026-05-01T06:45:13.963Z</time></trkpt><trkpt lat="45.7220996" lon="9.898295"><ele>302.0</ele><time>2026-05-01T06:45:15.961Z</time></trkpt><trkpt lat="45.7221722" lon="9.8983741"><ele>302.0</ele><time>2026-05-01T06:45:17.963Z</time></trkpt><trkpt lat="45.7222429" lon="9.8984526"><ele>302.0</ele><time>2026-05-01T06:45:19.965Z</time></trkpt><trkpt lat="45.7223198" lon="9.8985322"><ele>302.0</ele><time>2026-05-01T06:45:21.962Z</time></trkpt><trkpt lat="45.722403" lon="9.8986129"><ele>302.0</ele><time>2026-05-01T06:45:23.961Z</time></trkpt><trkpt lat="45.7224757" lon="9.8986768"><ele>302.0</ele><time>2026-05-01T06:45:25.962Z</time></trkpt><trkpt lat="45.722548" lon="9.8987517"><ele>302.0</ele><time>2026-05-01T06:45:27.968Z</time></trkpt><trkpt lat="45.7226279" lon="9.8988082"><ele>302.0</ele><time>2026-05-01T06:45:29.964Z</time></trkpt><trkpt lat="45.7226971" lon="9.8988646"><ele>302.0</ele><time>2026-05-01T06:45:31.963Z</time></trkpt><trkpt lat="45.7227509" lon="9.8989227"><ele>302.0</ele><time>2026-05-01T06:45:34.041Z</time></trkpt><trkpt lat="45.7228184" lon="9.8989764"><ele>302.0</ele><time>2026-05-01T06:45:35.958Z</time></trkpt><trkpt lat="45.7228808" lon="9.8990635"><ele>302.0</ele><time>2026-05-01T06:45:37.958Z</time></trkpt><trkpt lat="45.7229388" lon="9.8991593"><ele>302.0</ele><time>2026-05-01T06:45:39.954Z</time></trkpt><trkpt lat="45.7229806" lon="9.8992467"><ele>302.0</ele><time>2026-05-01T06:45:41.977Z</time></trkpt><trkpt lat="45.7230295" lon="9.899351"><ele>302.0</ele><time>2026-05-01T06:45:43.955Z</time></trkpt><trkpt lat="45.7230857" lon="9.8994571"><ele>302.0</ele><time>2026-05-01T06:45:45.959Z</time></trkpt><trkpt lat="45.7231459" lon="9.8995477"><ele>302.0</ele><time>2026-05-01T06:45:47.959Z</time></trkpt><trkpt lat="45.7232227" lon="9.8996067"><ele>302.0</ele><time>2026-05-01T06:45:49.969Z</time></trkpt><trkpt lat="45.7233081" lon="9.8996607"><ele>302.0</ele><time>2026-05-01T06:45:51.962Z</time></trkpt><trkpt lat="45.7233931" lon="9.8997116"><ele>302.0</ele><time>2026-05-01T06:45:53.973Z</time></trkpt><trkpt lat="45.723463" lon="9.8997964"><ele>302.0</ele><time>2026-05-01T06:45:55.967Z</time></trkpt><trkpt lat="45.7235256" lon="9.8999089"><ele>302.00000000000006</ele><time>2026-05-01T06:45:57.96Z</time></trkpt><trkpt lat="45.7235559" lon="9.900016"><ele>302.0</ele><time>2026-05-01T06:45:59.969Z</time></trkpt><trkpt lat="45.7235965" lon="9.9000951"><ele>302.0</ele><time>2026-05-01T06:46:01.969Z</time></trkpt><trkpt lat="45.7236675" lon="9.9001253"><ele>302.0</ele><time>2026-05-01T06:46:03.971Z</time></trkpt><trkpt lat="45.7237361" lon="9.9001542"><ele>302.0</ele><time>2026-05-01T06:46:05.964Z</time></trkpt><trkpt lat="45.7238034" lon="9.9001738"><ele>302.00000000000006</ele><time>2026-05-01T06:46:07.971Z</time></trkpt><trkpt lat="45.7237932" lon="9.9002754"><ele>302.0</ele><time>2026-05-01T06:46:11.97Z</time></trkpt><trkpt lat="45.7237541" lon="9.9003602"><ele>302.0</ele><time>2026-05-01T06:46:14.969Z</time></trkpt><trkpt lat="45.7238314" lon="9.9004104"><ele>302.0</ele><time>2026-05-01T06:46:18.027Z</time></trkpt><trkpt lat="45.723922" lon="9.900465"><ele>302.0</ele><time>2026-05-01T06:46:20.044Z</time></trkpt><trkpt lat="45.7240119" lon="9.9005243"><ele>302.0</ele><time>2026-05-01T06:46:21.956Z</time></trkpt><trkpt lat="45.7240899" lon="9.9006022"><ele>302.0</ele><time>2026-05-01T06:46:23.959Z</time></trkpt><trkpt lat="45.724157" lon="9.9006946"><ele>302.0</ele><time>2026-05-01T06:46:26.019Z</time></trkpt><trkpt lat="45.7242189" lon="9.9008012"><ele>302.0</ele><time>2026-05-01T06:46:27.957Z</time></trkpt><trkpt lat="45.7242805" lon="9.9009049"><ele>302.0</ele><time>2026-05-01T06:46:29.958Z</time></trkpt><trkpt lat="45.724346" lon="9.9010189"><ele>302.0</ele><time>2026-05-01T06:46:31.957Z</time></trkpt><trkpt lat="45.7244079" lon="9.9011344"><ele>302.0</ele><time>2026-05-01T06:46:33.958Z</time></trkpt><trkpt lat="45.7244745" lon="9.901211"><ele>302.5</ele><time>2026-05-01T06:46:35.964Z</time></trkpt><trkpt lat="45.7245471" lon="9.9012868"><ele>303.0</ele><time>2026-05-01T06:46:37.958Z</time></trkpt><trkpt lat="45.7246183" lon="9.9013347"><ele>303.5</ele><time>2026-05-01T06:46:39.956Z</time></trkpt><trkpt lat="45.7246931" lon="9.9013974"><ele>304.0</ele><time>2026-05-01T06:46:41.961Z</time></trkpt><trkpt lat="45.7247716" lon="9.9014517"><ele>304.5</ele><time>2026-05-01T06:46:43.958Z</time></trkpt><trkpt lat="45.7248498" lon="9.9015064"><ele>305.0</ele><time>2026-05-01T06:46:45.959Z</time></trkpt><trkpt lat="45.7249352" lon="9.9015496"><ele>305.0</ele><time>2026-05-01T06:46:47.953Z</time></trkpt><trkpt lat="45.7250168" lon="9.9015569"><ele>305.0</ele><time>2026-05-01T06:46:49.96Z</time></trkpt><trkpt lat="45.7250807" lon="9.9015525"><ele>305.0</ele><time>2026-05-01T06:46:51.961Z</time></trkpt><trkpt lat="45.7251511" lon="9.9016058"><ele>305.0</ele><time>2026-05-01T06:46:54.955Z</time></trkpt><trkpt lat="45.7252207" lon="9.9017177"><ele>305.0</ele><time>2026-05-01T06:46:56.956Z</time></trkpt><trkpt lat="45.725288" lon="9.9018184"><ele>305.0</ele><time>2026-05-01T06:46:58.956Z</time></trkpt><trkpt lat="45.7253598" lon="9.9019243"><ele>305.8</ele><time>2026-05-01T06:47:00.961Z</time></trkpt><trkpt lat="45.7254226" lon="9.90203"><ele>306.6</ele><time>2026-05-01T06:47:02.959Z</time></trkpt><trkpt lat="45.7254868" lon="9.9021286"><ele>307.4</ele><time>2026-05-01T06:47:04.96Z</time></trkpt><trkpt lat="45.725551" lon="9.9022228"><ele>308.2</ele><time>2026-05-01T06:47:06.953Z</time></trkpt><trkpt lat="45.7256116" lon="9.9023139"><ele>309.0</ele><time>2026-05-01T06:47:09.026Z</time></trkpt><trkpt lat="45.725673" lon="9.9024016"><ele>309.0</ele><time>2026-05-01T06:47:10.958Z</time></trkpt><trkpt lat="45.7257471" lon="9.9024882"><ele>309.0</ele><time>2026-05-01T06:47:12.959Z</time></trkpt><trkpt lat="45.7258162" lon="9.902576"><ele>309.0</ele><time>2026-05-01T06:47:14.968Z</time></trkpt><trkpt lat="45.7258794" lon="9.9026671"><ele>309.0</ele><time>2026-05-01T06:47:16.965Z</time></trkpt><trkpt lat="45.7259344" lon="9.9027692"><ele>309.0</ele><time>2026-05-01T06:47:18.979Z</time></trkpt><trkpt lat="45.7259864" lon="9.9028555"><ele>309.0</ele><time>2026-05-01T06:47:20.959Z</time></trkpt><trkpt lat="45.7260542" lon="9.9029501"><ele>309.59999999999997</ele><time>2026-05-01T06:47:22.944Z</time></trkpt><trkpt lat="45.7261078" lon="9.9030454"><ele>310.2</ele><time>2026-05-01T06:47:24.952Z</time></trkpt><trkpt lat="45.7261757" lon="9.9031521"><ele>310.79999999999995</ele><time>2026-05-01T06:47:26.944Z</time></trkpt><trkpt lat="45.7262603" lon="9.9032916"><ele>311.4</ele><time>2026-05-01T06:47:28.958Z</time></trkpt><trkpt lat="45.7263282" lon="9.9033701"><ele>312.0</ele><time>2026-05-01T06:47:31.965Z</time></trkpt><trkpt lat="45.7264207" lon="9.9033473"><ele>312.0</ele><time>2026-05-01T06:47:35.961Z</time></trkpt><trkpt lat="45.726492" lon="9.9032462"><ele>312.0</ele><time>2026-05-01T06:47:37.958Z</time></trkpt><trkpt lat="45.7265535" lon="9.9031354"><ele>312.0</ele><time>2026-05-01T06:47:39.945Z</time></trkpt><trkpt lat="45.7266354" lon="9.9029903"><ele>312.0</ele><time>2026-05-01T06:47:41.96Z</time></trkpt><trkpt lat="45.7266779" lon="9.9029038"><ele>312.0</ele><time>2026-05-01T06:47:42.96Z</time></trkpt><trkpt lat="45.7267206" lon="9.9028292"><ele>312.0</ele><time>2026-05-01T06:47:43.961Z</time></trkpt><trkpt lat="45.7267602" lon="9.9027584"><ele>312.0</ele><time>2026-05-01T06:47:44.959Z</time></trkpt><trkpt lat="45.7268353" lon="9.902625"><ele>312.0</ele><time>2026-05-01T06:47:46.962Z</time></trkpt><trkpt lat="45.7269289" lon="9.9025506"><ele>312.0</ele><time>2026-05-01T06:47:48.965Z</time></trkpt><trkpt lat="45.7270431" lon="9.9025822"><ele>312.0</ele><time>2026-05-01T06:47:50.96Z</time></trkpt><trkpt lat="45.7271412" lon="9.9026488"><ele>312.0</ele><time>2026-05-01T06:47:52.96Z</time></trkpt><trkpt lat="45.7272263" lon="9.9026662"><ele>312.0</ele><time>2026-05-01T06:47:54.956Z</time></trkpt><trkpt lat="45.7272695" lon="9.9025794"><ele>312.0</ele><time>2026-05-01T06:47:56.963Z</time></trkpt><trkpt lat="45.727308" lon="9.9024952"><ele>312.0</ele><time>2026-05-01T06:47:58.953Z</time></trkpt><trkpt lat="45.72738" lon="9.9025294"><ele>312.0</ele><time>2026-05-01T06:48:01.959Z</time></trkpt><trkpt lat="45.7274394" lon="9.9025841"><ele>312.0</ele><time>2026-05-01T06:48:03.96Z</time></trkpt><trkpt lat="45.7275073" lon="9.9026335"><ele>312.0</ele><time>2026-05-01T06:48:05.958Z</time></trkpt><trkpt lat="45.7275725" lon="9.9026961"><ele>312.0</ele><time>2026-05-01T06:48:07.955Z</time></trkpt><trkpt lat="45.7276528" lon="9.9027501"><ele>312.0</ele><time>2026-05-01T06:48:09.968Z</time></trkpt><trkpt lat="45.7277186" lon="9.9028022"><ele>312.0</ele><time>2026-05-01T06:48:11.957Z</time></trkpt><trkpt lat="45.7277773" lon="9.9028671"><ele>312.0</ele><time>2026-05-01T06:48:13.958Z</time></trkpt><trkpt lat="45.7278412" lon="9.9029091"><ele>312.0</ele><time>2026-05-01T06:48:15.961Z</time></trkpt><trkpt lat="45.7279071" lon="9.9029571"><ele>313.1666666666667</ele><time>2026-05-01T06:48:17.959Z</time></trkpt><trkpt lat="45.7279709" lon="9.9030136"><ele>314.3333333333333</ele><time>2026-05-01T06:48:20.032Z</time></trkpt><trkpt lat="45.7280474" lon="9.9030723"><ele>315.5</ele><time>2026-05-01T06:48:21.95Z</time></trkpt><trkpt lat="45.7281373" lon="9.9031277"><ele>316.66666666666663</ele><time>2026-05-01T06:48:23.96Z</time></trkpt><trkpt lat="45.7282119" lon="9.9032106"><ele>317.8333333333333</ele><time>2026-05-01T06:48:25.97Z</time></trkpt><trkpt lat="45.7282615" lon="9.9032968"><ele>319.0</ele><time>2026-05-01T06:48:27.961Z</time></trkpt><trkpt lat="45.7283117" lon="9.9033916"><ele>318.5</ele><time>2026-05-01T06:48:29.961Z</time></trkpt><trkpt lat="45.7283622" lon="9.9034771"><ele>318.0</ele><time>2026-05-01T06:48:31.961Z</time></trkpt><trkpt lat="45.728405" lon="9.9035749"><ele>317.5</ele><time>2026-05-01T06:48:33.975Z</time></trkpt><trkpt lat="45.728453" lon="9.9036664"><ele>317.0</ele><time>2026-05-01T06:48:35.967Z</time></trkpt><trkpt lat="45.7284923" lon="9.9037524"><ele>316.5</ele><time>2026-05-01T06:48:37.97Z</time></trkpt><trkpt lat="45.728531" lon="9.9038327"><ele>316.0</ele><time>2026-05-01T06:48:39.969Z</time></trkpt><trkpt lat="45.7285704" lon="9.9039363"><ele>316.0</ele><time>2026-05-01T06:48:41.972Z</time></trkpt><trkpt lat="45.7286172" lon="9.9040344"><ele>316.0</ele><time>2026-05-01T06:48:43.966Z</time></trkpt><trkpt lat="45.728652" lon="9.9041236"><ele>316.0</ele><time>2026-05-01T06:48:45.964Z</time></trkpt><trkpt lat="45.72868" lon="9.9042163"><ele>316.0</ele><time>2026-05-01T06:48:47.975Z</time></trkpt><trkpt lat="45.728698" lon="9.9043228"><ele>316.0</ele><time>2026-05-01T06:48:49.971Z</time></trkpt><trkpt lat="45.7287337" lon="9.9044385"><ele>316.0</ele><time>2026-05-01T06:48:51.954Z</time></trkpt><trkpt lat="45.7287784" lon="9.9045721"><ele>315.16666666666663</ele><time>2026-05-01T06:48:53.948Z</time></trkpt><trkpt lat="45.7288114" lon="9.90469"><ele>314.3333333333333</ele><time>2026-05-01T06:48:55.949Z</time></trkpt><trkpt lat="45.7288515" lon="9.9048039"><ele>313.5</ele><time>2026-05-01T06:48:57.952Z</time></trkpt><trkpt lat="45.7288903" lon="9.9049184"><ele>312.6666666666667</ele><time>2026-05-01T06:49:00.068Z</time></trkpt><trkpt lat="45.7289262" lon="9.9050738"><ele>311.83333333333337</ele><time>2026-05-01T06:49:01.953Z</time></trkpt><trkpt lat="45.7289484" lon="9.9051665"><ele>311.0</ele><time>2026-05-01T06:49:02.959Z</time></trkpt><trkpt lat="45.7289747" lon="9.9053345"><ele>311.0</ele><time>2026-05-01T06:49:04.952Z</time></trkpt><trkpt lat="45.7290055" lon="9.9054787"><ele>311.0</ele><time>2026-05-01T06:49:06.954Z</time></trkpt><trkpt lat="45.7290192" lon="9.9056128"><ele>311.0</ele><time>2026-05-01T06:49:08.953Z</time></trkpt><trkpt lat="45.7290377" lon="9.9057337"><ele>311.0</ele><time>2026-05-01T06:49:10.957Z</time></trkpt><trkpt lat="45.7290743" lon="9.9058431"><ele>311.0</ele><time>2026-05-01T06:49:12.954Z</time></trkpt><trkpt lat="45.7291133" lon="9.9059272"><ele>311.0</ele><time>2026-05-01T06:49:14.953Z</time></trkpt><trkpt lat="45.7291694" lon="9.9060291"><ele>310.8</ele><time>2026-05-01T06:49:16.95Z</time></trkpt><trkpt lat="45.7292029" lon="9.9061487"><ele>310.6</ele><time>2026-05-01T06:49:18.955Z</time></trkpt><trkpt lat="45.7292146" lon="9.9062827"><ele>310.4</ele><time>2026-05-01T06:49:20.956Z</time></trkpt><trkpt lat="45.7292224" lon="9.9064238"><ele>310.2</ele><time>2026-05-01T06:49:22.958Z</time></trkpt><trkpt lat="45.729219" lon="9.9065618"><ele>310.0</ele><time>2026-05-01T06:49:24.96Z</time></trkpt><trkpt lat="45.7291889" lon="9.9066527"><ele>310.0</ele><time>2026-05-01T06:49:26.957Z</time></trkpt><trkpt lat="45.7292015" lon="9.906744"><ele>310.0</ele><time>2026-05-01T06:49:30.031Z</time></trkpt><trkpt lat="45.7292606" lon="9.9067945"><ele>310.0</ele><time>2026-05-01T06:49:31.958Z</time></trkpt><trkpt lat="45.7293397" lon="9.9068511"><ele>310.0</ele><time>2026-05-01T06:49:33.966Z</time></trkpt><trkpt lat="45.7294119" lon="9.9069286"><ele>310.0</ele><time>2026-05-01T06:49:35.969Z</time></trkpt><trkpt lat="45.7294851" lon="9.9070135"><ele>310.0</ele><time>2026-05-01T06:49:37.966Z</time></trkpt><trkpt lat="45.7295468" lon="9.9071266"><ele>310.4</ele><time>2026-05-01T06:49:39.967Z</time></trkpt><trkpt lat="45.7296012" lon="9.9072474"><ele>310.8</ele><time>2026-05-01T06:49:41.971Z</time></trkpt><trkpt lat="45.7296581" lon="9.9073677"><ele>311.2</ele><time>2026-05-01T06:49:43.963Z</time></trkpt><trkpt lat="45.7297038" lon="9.907494"><ele>311.6</ele><time>2026-05-01T06:49:45.963Z</time></trkpt><trkpt lat="45.7297477" lon="9.9076018"><ele>312.0</ele><time>2026-05-01T06:49:47.969Z</time></trkpt><trkpt lat="45.7297813" lon="9.9077247"><ele>312.6</ele><time>2026-05-01T06:49:50.028Z</time></trkpt><trkpt lat="45.7298221" lon="9.9078468"><ele>313.2</ele><time>2026-05-01T06:49:51.957Z</time></trkpt><trkpt lat="45.7298792" lon="9.9079708"><ele>313.8</ele><time>2026-05-01T06:49:53.962Z</time></trkpt><trkpt lat="45.7299496" lon="9.9080562"><ele>314.4</ele><time>2026-05-01T06:49:56.028Z</time></trkpt><trkpt lat="45.7300372" lon="9.9081151"><ele>315.0</ele><time>2026-05-01T06:49:57.957Z</time></trkpt><trkpt lat="45.7301335" lon="9.908165"><ele>315.0</ele><time>2026-05-01T06:50:00.03Z</time></trkpt><trkpt lat="45.7302205" lon="9.9082151"><ele>315.0</ele><time>2026-05-01T06:50:01.948Z</time></trkpt><trkpt lat="45.730314" lon="9.9082456"><ele>315.0</ele><time>2026-05-01T06:50:03.955Z</time></trkpt><trkpt lat="45.7304048" lon="9.9082777"><ele>315.0</ele><time>2026-05-01T06:50:05.951Z</time></trkpt><trkpt lat="45.730476" lon="9.9083177"><ele>315.0</ele><time>2026-05-01T06:50:07.958Z</time></trkpt><trkpt lat="45.7305488" lon="9.9083709"><ele>315.0</ele><time>2026-05-01T06:50:09.949Z</time></trkpt><trkpt lat="45.7306379" lon="9.9084498"><ele>315.0</ele><time>2026-05-01T06:50:11.955Z</time></trkpt><trkpt lat="45.7307195" lon="9.9085504"><ele>315.0</ele><time>2026-05-01T06:50:14.033Z</time></trkpt><trkpt lat="45.7307808" lon="9.9086743"><ele>315.0</ele><time>2026-05-01T06:50:16.024Z</time></trkpt><trkpt lat="45.7308397" lon="9.9087852"><ele>315.0</ele><time>2026-05-01T06:50:17.964Z</time></trkpt><trkpt lat="45.7309385" lon="9.9089527"><ele>315.0</ele><time>2026-05-01T06:50:20.962Z</time></trkpt><trkpt lat="45.7310135" lon="9.9090417"><ele>315.0</ele><time>2026-05-01T06:50:22.943Z</time></trkpt><trkpt lat="45.7310988" lon="9.9091382"><ele>315.0</ele><time>2026-05-01T06:50:25.024Z</time></trkpt><trkpt lat="45.7311726" lon="9.9092395"><ele>315.0</ele><time>2026-05-01T06:50:26.965Z</time></trkpt><trkpt lat="45.7312347" lon="9.9093309"><ele>315.0</ele><time>2026-05-01T06:50:28.951Z</time></trkpt><trkpt lat="45.7313017" lon="9.9094096"><ele>315.4</ele><time>2026-05-01T06:50:30.957Z</time></trkpt><trkpt lat="45.7313759" lon="9.9094962"><ele>315.8</ele><time>2026-05-01T06:50:32.959Z</time></trkpt><trkpt lat="45.7314688" lon="9.9095746"><ele>316.2</ele><time>2026-05-01T06:50:34.959Z</time></trkpt><trkpt lat="45.7315709" lon="9.9096467"><ele>316.6</ele><time>2026-05-01T06:50:36.964Z</time></trkpt><trkpt lat="45.7316618" lon="9.9097137"><ele>317.0</ele><time>2026-05-01T06:50:38.957Z</time></trkpt><trkpt lat="45.731742" lon="9.9097898"><ele>317.0</ele><time>2026-05-01T06:50:40.995Z</time></trkpt><trkpt lat="45.7318348" lon="9.9098571"><ele>317.0</ele><time>2026-05-01T06:50:42.95Z</time></trkpt><trkpt lat="45.7319299" lon="9.9099365"><ele>317.0</ele><time>2026-05-01T06:50:45.027Z</time></trkpt><trkpt lat="45.7320144" lon="9.9100177"><ele>317.0</ele><time>2026-05-01T06:50:46.964Z</time></trkpt><trkpt lat="45.7320929" lon="9.9100993"><ele>317.0</ele><time>2026-05-01T06:50:48.968Z</time></trkpt><trkpt lat="45.7321658" lon="9.9101852"><ele>316.5</ele><time>2026-05-01T06:50:50.961Z</time></trkpt><trkpt lat="45.7322387" lon="9.9102828"><ele>316.0</ele><time>2026-05-01T06:50:52.967Z</time></trkpt><trkpt lat="45.7322929" lon="9.9103783"><ele>315.5</ele><time>2026-05-01T06:50:55.029Z</time></trkpt><trkpt lat="45.7323276" lon="9.9104731"><ele>315.0</ele><time>2026-05-01T06:50:56.963Z</time></trkpt><trkpt lat="45.7323669" lon="9.9105613"><ele>314.5</ele><time>2026-05-01T06:50:58.963Z</time></trkpt><trkpt lat="45.7324106" lon="9.9106619"><ele>314.0</ele><time>2026-05-01T06:51:00.965Z</time></trkpt><trkpt lat="45.732442" lon="9.9107795"><ele>314.0</ele><time>2026-05-01T06:51:02.959Z</time></trkpt><trkpt lat="45.7324765" lon="9.9108859"><ele>314.0</ele><time>2026-05-01T06:51:04.963Z</time></trkpt><trkpt lat="45.7325098" lon="9.9109983"><ele>314.0</ele><time>2026-05-01T06:51:06.968Z</time></trkpt><trkpt lat="45.7325478" lon="9.9111097"><ele>314.0</ele><time>2026-05-01T06:51:09.006Z</time></trkpt><trkpt lat="45.7325916" lon="9.9112111"><ele>314.0</ele><time>2026-05-01T06:51:10.96Z</time></trkpt><trkpt lat="45.7326426" lon="9.9112794"><ele>314.0</ele><time>2026-05-01T06:51:12.964Z</time></trkpt><trkpt lat="45.7326912" lon="9.9113428"><ele>314.6666666666667</ele><time>2026-05-01T06:51:14.953Z</time></trkpt><trkpt lat="45.7327435" lon="9.9114153"><ele>315.33333333333337</ele><time>2026-05-01T06:51:16.967Z</time></trkpt><trkpt lat="45.7327891" lon="9.9115131"><ele>316.0</ele><time>2026-05-01T06:51:18.963Z</time></trkpt><trkpt lat="45.7328798" lon="9.9115634"><ele>316.6666666666667</ele><time>2026-05-01T06:51:20.961Z</time></trkpt><trkpt lat="45.7329745" lon="9.9115566"><ele>317.3333333333333</ele><time>2026-05-01T06:51:22.97Z</time></trkpt><trkpt lat="45.733057" lon="9.9115451"><ele>318.0</ele><time>2026-05-01T06:51:24.966Z</time></trkpt><trkpt lat="45.7331478" lon="9.911513"><ele>318.0</ele><time>2026-05-01T06:51:26.955Z</time></trkpt><trkpt lat="45.7332034" lon="9.9114232"><ele>318.0</ele><time>2026-05-01T06:51:28.955Z</time></trkpt><trkpt lat="45.7332409" lon="9.9113045"><ele>318.0</ele><time>2026-05-01T06:51:31.028Z</time></trkpt><trkpt lat="45.7332699" lon="9.9111862"><ele>318.0</ele><time>2026-05-01T06:51:32.952Z</time></trkpt><trkpt lat="45.7332985" lon="9.9110476"><ele>318.0</ele><time>2026-05-01T06:51:34.952Z</time></trkpt><trkpt lat="45.7333271" lon="9.910922"><ele>317.4</ele><time>2026-05-01T06:51:36.954Z</time></trkpt><trkpt lat="45.7333587" lon="9.9107916"><ele>316.8</ele><time>2026-05-01T06:51:38.998Z</time></trkpt><trkpt lat="45.7333877" lon="9.9106621"><ele>316.2</ele><time>2026-05-01T06:51:41.036Z</time></trkpt><trkpt lat="45.7334226" lon="9.9105285"><ele>315.6</ele><time>2026-05-01T06:51:42.968Z</time></trkpt><trkpt lat="45.7334614" lon="9.910389"><ele>315.0</ele><time>2026-05-01T06:51:44.969Z</time></trkpt><trkpt lat="45.7334998" lon="9.9102497"><ele>315.0</ele><time>2026-05-01T06:51:46.966Z</time></trkpt><trkpt lat="45.7335284" lon="9.9101097"><ele>315.0</ele><time>2026-05-01T06:51:48.989Z</time></trkpt><trkpt lat="45.7335586" lon="9.9099751"><ele>315.0</ele><time>2026-05-01T06:51:51.03Z</time></trkpt><trkpt lat="45.733576" lon="9.9098457"><ele>315.0</ele><time>2026-05-01T06:51:52.966Z</time></trkpt><trkpt lat="45.7335732" lon="9.9097265"><ele>315.0</ele><time>2026-05-01T06:51:54.965Z</time></trkpt><trkpt lat="45.7335453" lon="9.9096189"><ele>314.8333333333333</ele><time>2026-05-01T06:51:56.963Z</time></trkpt><trkpt lat="45.733498" lon="9.9095536"><ele>314.6666666666667</ele><time>2026-05-01T06:51:58.97Z</time></trkpt><trkpt lat="45.7334188" lon="9.9095691"><ele>314.5</ele><time>2026-05-01T06:52:00.971Z</time></trkpt><trkpt lat="45.733323" lon="9.9095943"><ele>314.33333333333337</ele><time>2026-05-01T06:52:02.966Z</time></trkpt><trkpt lat="45.7332575" lon="9.9095986"><ele>314.1666666666667</ele><time>2026-05-01T06:52:05.034Z</time></trkpt><trkpt lat="45.733332" lon="9.9095862"><ele>314.0</ele><time>2026-05-01T06:56:38.944Z</time></trkpt><trkpt lat="45.7334029" lon="9.9095617"><ele>314.0</ele><time>2026-05-01T06:56:43.956Z</time></trkpt><trkpt lat="45.7334854" lon="9.909559"><ele>314.0</ele><time>2026-05-01T06:56:48.952Z</time></trkpt><trkpt lat="45.7335258" lon="9.9096597"><ele>314.0</ele><time>2026-05-01T06:56:52.948Z</time></trkpt><trkpt lat="45.7335399" lon="9.9097643"><ele>314.0</ele><time>2026-05-01T06:56:55.949Z</time></trkpt><trkpt lat="45.7335454" lon="9.9098804"><ele>314.0</ele><time>2026-05-01T06:56:58.949Z</time></trkpt><trkpt lat="45.7335217" lon="9.9099959"><ele>314.0</ele><time>2026-05-01T06:57:01.953Z</time></trkpt><trkpt lat="45.7335033" lon="9.9101104"><ele>314.1428571428571</ele><time>2026-05-01T06:57:04.957Z</time></trkpt><trkpt lat="45.7334774" lon="9.9102182"><ele>314.2857142857143</ele><time>2026-05-01T06:57:07.955Z</time></trkpt><trkpt lat="45.7334522" lon="9.9103401"><ele>314.42857142857144</ele><time>2026-05-01T06:57:10.956Z</time></trkpt><trkpt lat="45.7334277" lon="9.9104264"><ele>314.57142857142856</ele><time>2026-05-01T06:57:12.941Z</time></trkpt><trkpt lat="45.7333991" lon="9.9105174"><ele>314.7142857142857</ele><time>2026-05-01T06:57:14.949Z</time></trkpt><trkpt lat="45.7333788" lon="9.9106065"><ele>314.85714285714283</ele><time>2026-05-01T06:57:16.944Z</time></trkpt><trkpt lat="45.7333556" lon="9.9106978"><ele>315.0</ele><time>2026-05-01T06:57:18.954Z</time></trkpt><trkpt lat="45.7333304" lon="9.9107868"><ele>315.0</ele><time>2026-05-01T06:57:20.953Z</time></trkpt><trkpt lat="45.7333129" lon="9.9108836"><ele>315.0</ele><time>2026-05-01T06:57:22.951Z</time></trkpt><trkpt lat="45.7332911" lon="9.9109757"><ele>315.0</ele><time>2026-05-01T06:57:24.95Z</time></trkpt><trkpt lat="45.7332633" lon="9.9110755"><ele>315.0</ele><time>2026-05-01T06:57:26.955Z</time></trkpt><trkpt lat="45.7332405" lon="9.9111645"><ele>315.0</ele><time>2026-05-01T06:57:28.949Z</time></trkpt><trkpt lat="45.7332112" lon="9.911248"><ele>315.0</ele><time>2026-05-01T06:57:30.946Z</time></trkpt><trkpt lat="45.7331812" lon="9.9113316"><ele>315.0</ele><time>2026-05-01T06:57:32.954Z</time></trkpt><trkpt lat="45.7331174" lon="9.9114324"><ele>315.5</ele><time>2026-05-01T06:57:35.953Z</time></trkpt><trkpt lat="45.7330515" lon="9.9114707"><ele>316.0</ele><time>2026-05-01T06:57:37.956Z</time></trkpt><trkpt lat="45.7329614" lon="9.9115013"><ele>316.5</ele><time>2026-05-01T06:57:39.955Z</time></trkpt><trkpt lat="45.73288" lon="9.9115183"><ele>317.0</ele><time>2026-05-01T06:57:41.952Z</time></trkpt><trkpt lat="45.7328017" lon="9.911481"><ele>317.5</ele><time>2026-05-01T06:57:43.951Z</time></trkpt><trkpt lat="45.7327383" lon="9.9114195"><ele>318.0</ele><time>2026-05-01T06:57:45.952Z</time></trkpt><trkpt lat="45.7326961" lon="9.9113502"><ele>318.1666666666667</ele><time>2026-05-01T06:57:47.943Z</time></trkpt><trkpt lat="45.7326534" lon="9.9112809"><ele>318.3333333333333</ele><time>2026-05-01T06:57:49.96Z</time></trkpt><trkpt lat="45.7326036" lon="9.9111986"><ele>318.5</ele><time>2026-05-01T06:57:51.954Z</time></trkpt><trkpt lat="45.7325613" lon="9.9110817"><ele>318.66666666666663</ele><time>2026-05-01T06:57:53.953Z</time></trkpt><trkpt lat="45.7325142" lon="9.9109512"><ele>318.8333333333333</ele><time>2026-05-01T06:57:55.953Z</time></trkpt><trkpt lat="45.7324712" lon="9.9108454"><ele>319.0</ele><time>2026-05-01T06:57:57.953Z</time></trkpt><trkpt lat="45.7324278" lon="9.9107296"><ele>318.16666666666663</ele><time>2026-05-01T06:57:59.948Z</time></trkpt><trkpt lat="45.7323851" lon="9.9106161"><ele>317.3333333333333</ele><time>2026-05-01T06:58:01.954Z</time></trkpt><trkpt lat="45.732344" lon="9.9105092"><ele>316.5</ele><time>2026-05-01T06:58:03.958Z</time></trkpt><trkpt lat="45.7322831" lon="9.9104477"><ele>315.6666666666667</ele><time>2026-05-01T06:58:05.948Z</time></trkpt><trkpt lat="45.7322152" lon="9.9104341"><ele>314.83333333333337</ele><time>2026-05-01T06:58:07.945Z</time></trkpt><trkpt lat="45.7321302" lon="9.9104781"><ele>314.0</ele><time>2026-05-01T06:58:10.964Z</time></trkpt><trkpt lat="45.7320717" lon="9.9105143"><ele>314.0</ele><time>2026-05-01T06:58:12.955Z</time></trkpt><trkpt lat="45.7319973" lon="9.9105673"><ele>314.0</ele><time>2026-05-01T06:58:15.953Z</time></trkpt><trkpt lat="45.7319388" lon="9.9106319"><ele>314.0</ele><time>2026-05-01T06:58:18.952Z</time></trkpt><trkpt lat="45.7318685" lon="9.9106907"><ele>314.0</ele><time>2026-05-01T06:58:21.942Z</time></trkpt><trkpt lat="45.7318025" lon="9.9107616"><ele>314.0</ele><time>2026-05-01T06:58:24.955Z</time></trkpt><trkpt lat="45.7317472" lon="9.9108347"><ele>314.0</ele><time>2026-05-01T06:58:27.948Z</time></trkpt><trkpt lat="45.7316812" lon="9.9108928"><ele>316.5</ele><time>2026-05-01T06:58:30.942Z</time></trkpt><trkpt lat="45.7316228" lon="9.9109673"><ele>319.0</ele><time>2026-05-01T06:58:33.959Z</time></trkpt><trkpt lat="45.7315651" lon="9.9110278"><ele>321.5</ele><time>2026-05-01T06:58:36.958Z</time></trkpt><trkpt lat="45.731516" lon="9.9111007"><ele>324.0</ele><time>2026-05-01T06:58:39.959Z</time></trkpt><trkpt lat="45.7314828" lon="9.9111984"><ele>326.5</ele><time>2026-05-01T06:58:42.951Z</time></trkpt><trkpt lat="45.7314391" lon="9.9112915"><ele>329.0</ele><time>2026-05-01T06:58:45.957Z</time></trkpt><trkpt lat="45.731406" lon="9.9113892"><ele>329.0</ele><time>2026-05-01T06:58:48.957Z</time></trkpt><trkpt lat="45.7313856" lon="9.9114956"><ele>329.0</ele><time>2026-05-01T06:58:51.959Z</time></trkpt><trkpt lat="45.7313518" lon="9.9116023"><ele>329.0</ele><time>2026-05-01T06:58:54.95Z</time></trkpt><trkpt lat="45.7313221" lon="9.9117138"><ele>329.0</ele><time>2026-05-01T06:58:57.941Z</time></trkpt><trkpt lat="45.7312956" lon="9.9118127"><ele>329.0</ele><time>2026-05-01T06:59:00.948Z</time></trkpt><trkpt lat="45.731263" lon="9.911897"><ele>329.0</ele><time>2026-05-01T06:59:03.949Z</time></trkpt><trkpt lat="45.7312422" lon="9.9119961"><ele>331.0</ele><time>2026-05-01T06:59:06.954Z</time></trkpt><trkpt lat="45.7312102" lon="9.9120844"><ele>333.0</ele><time>2026-05-01T06:59:09.953Z</time></trkpt><trkpt lat="45.7311681" lon="9.9121519"><ele>335.0</ele><time>2026-05-01T06:59:12.952Z</time></trkpt><trkpt lat="45.7310895" lon="9.9121877"><ele>337.0</ele><time>2026-05-01T06:59:16.953Z</time></trkpt><trkpt lat="45.7310176" lon="9.9121786"><ele>339.0</ele><time>2026-05-01T06:59:19.947Z</time></trkpt><trkpt lat="45.7309476" lon="9.9121379"><ele>341.0</ele><time>2026-05-01T06:59:22.952Z</time></trkpt><trkpt lat="45.7308844" lon="9.9120921"><ele>343.0</ele><time>2026-05-01T06:59:25.952Z</time></trkpt><trkpt lat="45.730815" lon="9.9120758"><ele>346.14285714285717</ele><time>2026-05-01T06:59:28.959Z</time></trkpt><trkpt lat="45.7307471" lon="9.9120408"><ele>349.2857142857143</ele><time>2026-05-01T06:59:31.95Z</time></trkpt><trkpt lat="45.7306762" lon="9.9120369"><ele>352.42857142857144</ele><time>2026-05-01T06:59:34.939Z</time></trkpt><trkpt lat="45.7306011" lon="9.9120372"><ele>355.57142857142856</ele><time>2026-05-01T06:59:37.954Z</time></trkpt><trkpt lat="45.7305314" lon="9.9120374"><ele>358.7142857142857</ele><time>2026-05-01T06:59:40.959Z</time></trkpt><trkpt lat="45.7304502" lon="9.9120394"><ele>361.8571428571429</ele><time>2026-05-01T06:59:43.955Z</time></trkpt><trkpt lat="45.7303718" lon="9.9120292"><ele>365.0</ele><time>2026-05-01T06:59:46.952Z</time></trkpt><trkpt lat="45.7302915" lon="9.9120157"><ele>367.1666666666667</ele><time>2026-05-01T06:59:49.948Z</time></trkpt><trkpt lat="45.7302117" lon="9.9120078"><ele>369.33333333333337</ele><time>2026-05-01T06:59:52.96Z</time></trkpt><trkpt lat="45.7301277" lon="9.9119856"><ele>371.5</ele><time>2026-05-01T06:59:55.953Z</time></trkpt><trkpt lat="45.730055" lon="9.9119789"><ele>373.6666666666667</ele><time>2026-05-01T06:59:58.957Z</time></trkpt><trkpt lat="45.7299762" lon="9.911968"><ele>375.8333333333333</ele><time>2026-05-01T07:00:01.955Z</time></trkpt><trkpt lat="45.7299051" lon="9.9119581"><ele>378.0</ele><time>2026-05-01T07:00:04.95Z</time></trkpt><trkpt lat="45.7298389" lon="9.9119479"><ele>378.0</ele><time>2026-05-01T07:00:07.954Z</time></trkpt><trkpt lat="45.7297541" lon="9.9119415"><ele>378.0</ele><time>2026-05-01T07:00:11.962Z</time></trkpt><trkpt lat="45.7296677" lon="9.9119514"><ele>378.0</ele><time>2026-05-01T07:00:15.96Z</time></trkpt><trkpt lat="45.7295865" lon="9.9119348"><ele>378.0</ele><time>2026-05-01T07:00:18.954Z</time></trkpt><trkpt lat="45.7295075" lon="9.9119096"><ele>378.0</ele><time>2026-05-01T07:00:21.959Z</time></trkpt><trkpt lat="45.729429" lon="9.9118854"><ele>378.0</ele><time>2026-05-01T07:00:24.959Z</time></trkpt><trkpt lat="45.7293469" lon="9.9118597"><ele>376.1666666666667</ele><time>2026-05-01T07:00:27.963Z</time></trkpt><trkpt lat="45.729267" lon="9.9118254"><ele>374.3333333333333</ele><time>2026-05-01T07:00:30.971Z</time></trkpt><trkpt lat="45.7291884" lon="9.9117723"><ele>372.5</ele><time>2026-05-01T07:00:33.97Z</time></trkpt><trkpt lat="45.729116" lon="9.9117194"><ele>370.66666666666663</ele><time>2026-05-01T07:00:36.971Z</time></trkpt><trkpt lat="45.7290385" lon="9.9116747"><ele>368.8333333333333</ele><time>2026-05-01T07:00:39.963Z</time></trkpt><trkpt lat="45.7289603" lon="9.9116391"><ele>367.0</ele><time>2026-05-01T07:00:42.97Z</time></trkpt><trkpt lat="45.7288825" lon="9.9116021"><ele>367.0</ele><time>2026-05-01T07:00:45.966Z</time></trkpt><trkpt lat="45.7288104" lon="9.9115737"><ele>367.0</ele><time>2026-05-01T07:00:49.048Z</time></trkpt><trkpt lat="45.7287292" lon="9.9115497"><ele>367.0</ele><time>2026-05-01T07:00:51.941Z</time></trkpt><trkpt lat="45.7286491" lon="9.911533"><ele>367.0</ele><time>2026-05-01T07:00:54.955Z</time></trkpt><trkpt lat="45.7285612" lon="9.911508"><ele>367.0</ele><time>2026-05-01T07:00:57.951Z</time></trkpt><trkpt lat="45.7284931" lon="9.9114505"><ele>367.0</ele><time>2026-05-01T07:01:00.948Z</time></trkpt><trkpt lat="45.7284233" lon="9.9113798"><ele>370.16666666666663</ele><time>2026-05-01T07:01:03.951Z</time></trkpt><trkpt lat="45.7283487" lon="9.9113176"><ele>373.3333333333333</ele><time>2026-05-01T07:01:06.955Z</time></trkpt><trkpt lat="45.728283" lon="9.9112641"><ele>376.5</ele><time>2026-05-01T07:01:10.033Z</time></trkpt><trkpt lat="45.7282189" lon="9.9112029"><ele>379.66666666666663</ele><time>2026-05-01T07:01:12.954Z</time></trkpt><trkpt lat="45.7281671" lon="9.911124"><ele>382.8333333333333</ele><time>2026-05-01T07:01:15.965Z</time></trkpt><trkpt lat="45.7280982" lon="9.911053"><ele>386.0</ele><time>2026-05-01T07:01:18.955Z</time></trkpt><trkpt lat="45.7280472" lon="9.9109995"><ele>385.99999999999994</ele><time>2026-05-01T07:01:21.028Z</time></trkpt><trkpt lat="45.7279719" lon="9.9109382"><ele>386.0</ele><time>2026-05-01T07:01:23.968Z</time></trkpt><trkpt lat="45.7279051" lon="9.9108683"><ele>386.0</ele><time>2026-05-01T07:01:26.963Z</time></trkpt><trkpt lat="45.7278366" lon="9.9107927"><ele>386.0</ele><time>2026-05-01T07:01:30.025Z</time></trkpt><trkpt lat="45.7277698" lon="9.910717"><ele>385.99999999999994</ele><time>2026-05-01T07:01:32.954Z</time></trkpt><trkpt lat="45.7276999" lon="9.9106476"><ele>386.0</ele><time>2026-05-01T07:01:35.941Z</time></trkpt><trkpt lat="45.7276322" lon="9.9105866"><ele>385.8571428571429</ele><time>2026-05-01T07:01:38.954Z</time></trkpt><trkpt lat="45.7275632" lon="9.910543"><ele>385.7142857142857</ele><time>2026-05-01T07:01:41.951Z</time></trkpt><trkpt lat="45.7274936" lon="9.9105657"><ele>385.57142857142856</ele><time>2026-05-01T07:01:45.033Z</time></trkpt><trkpt lat="45.7274276" lon="9.9106203"><ele>385.42857142857144</ele><time>2026-05-01T07:01:47.964Z</time></trkpt><trkpt lat="45.7274024" lon="9.9107087"><ele>385.2857142857143</ele><time>2026-05-01T07:01:53.961Z</time></trkpt><trkpt lat="45.7274305" lon="9.9108015"><ele>385.14285714285717</ele><time>2026-05-01T07:02:35.961Z</time></trkpt><trkpt lat="45.7274854" lon="9.9108725"><ele>385.0</ele><time>2026-05-01T07:02:38.96Z</time></trkpt><trkpt lat="45.7275497" lon="9.910958"><ele>385.1666666666667</ele><time>2026-05-01T07:02:41.964Z</time></trkpt><trkpt lat="45.7276145" lon="9.9110563"><ele>385.33333333333337</ele><time>2026-05-01T07:02:44.959Z</time></trkpt><trkpt lat="45.7276681" lon="9.911146"><ele>385.5</ele><time>2026-05-01T07:02:47.957Z</time></trkpt><trkpt lat="45.7277008" lon="9.911235"><ele>385.66666666666663</ele><time>2026-05-01T07:02:50.951Z</time></trkpt><trkpt lat="45.727745" lon="9.9113194"><ele>385.8333333333333</ele><time>2026-05-01T07:02:55.954Z</time></trkpt><trkpt lat="45.7277843" lon="9.9113963"><ele>386.0</ele><time>2026-05-01T07:02:59.953Z</time></trkpt><trkpt lat="45.7278528" lon="9.9114509"><ele>386.00000000000006</ele><time>2026-05-01T07:03:06.951Z</time></trkpt><trkpt lat="45.7279024" lon="9.9115072"><ele>386.0</ele><time>2026-05-01T07:03:10.956Z</time></trkpt><trkpt lat="45.7279611" lon="9.9115583"><ele>386.0</ele><time>2026-05-01T07:03:13.956Z</time></trkpt><trkpt lat="45.7280291" lon="9.9116209"><ele>386.0</ele><time>2026-05-01T07:03:17.033Z</time></trkpt><trkpt lat="45.7280887" lon="9.9116862"><ele>386.0</ele><time>2026-05-01T07:03:19.962Z</time></trkpt><trkpt lat="45.7281309" lon="9.9117553"><ele>386.00000000000006</ele><time>2026-05-01T07:03:22.956Z</time></trkpt><trkpt lat="45.7280637" lon="9.9117301"><ele>386.0</ele><time>2026-05-01T07:03:28.952Z</time></trkpt><trkpt lat="45.7279978" lon="9.9116855"><ele>385.99999999999994</ele><time>2026-05-01T07:03:31.947Z</time></trkpt><trkpt lat="45.72794" lon="9.9116397"><ele>386.0</ele><time>2026-05-01T07:03:33.949Z</time></trkpt><trkpt lat="45.727914" lon="9.9117587"><ele>386.0</ele><time>2026-05-01T07:03:42.957Z</time></trkpt><trkpt lat="45.7278559" lon="9.9118716"><ele>386.0</ele><time>2026-05-01T07:03:44.953Z</time></trkpt><trkpt lat="45.7278011" lon="9.9119906"><ele>385.99999999999994</ele><time>2026-05-01T07:03:46.952Z</time></trkpt><trkpt lat="45.7277493" lon="9.9120901"><ele>386.0</ele><time>2026-05-01T07:03:48.954Z</time></trkpt><trkpt lat="45.7276949" lon="9.9121758"><ele>387.99999999999994</ele><time>2026-05-01T07:03:51.04Z</time></trkpt><trkpt lat="45.727648" lon="9.9122611"><ele>390.0</ele><time>2026-05-01T07:03:52.952Z</time></trkpt><trkpt lat="45.7275793" lon="9.9123339"><ele>392.0</ele><time>2026-05-01T07:03:55.948Z</time></trkpt><trkpt lat="45.7275282" lon="9.9123878"><ele>394.0</ele><time>2026-05-01T07:03:57.958Z</time></trkpt><trkpt lat="45.7274344" lon="9.9124104"><ele>395.99999999999994</ele><time>2026-05-01T07:03:59.948Z</time></trkpt><trkpt lat="45.727316" lon="9.9124327"><ele>398.0</ele><time>2026-05-01T07:04:01.943Z</time></trkpt><trkpt lat="45.7272439" lon="9.9124513"><ele>397.99999999999994</ele><time>2026-05-01T07:04:03.947Z</time></trkpt><trkpt lat="45.7271671" lon="9.9125363"><ele>398.0</ele><time>2026-05-01T07:04:06.944Z</time></trkpt><trkpt lat="45.7271403" lon="9.9126404"><ele>398.0</ele><time>2026-05-01T07:04:10.946Z</time></trkpt><trkpt lat="45.7271157" lon="9.9127467"><ele>398.0</ele><time>2026-05-01T07:04:14.949Z</time></trkpt><trkpt lat="45.7270871" lon="9.9128414"><ele>397.99999999999994</ele><time>2026-05-01T07:04:19.961Z</time></trkpt><trkpt lat="45.7270326" lon="9.9128916"><ele>398.0</ele><time>2026-05-01T07:04:22.958Z</time></trkpt><trkpt lat="45.7269722" lon="9.912941"><ele>402.99999999999994</ele><time>2026-05-01T07:04:27.963Z</time></trkpt><trkpt lat="45.7268989" lon="9.9129711"><ele>408.0</ele><time>2026-05-01T07:04:33.965Z</time></trkpt><trkpt lat="45.7268156" lon="9.912986"><ele>413.0</ele><time>2026-05-01T07:04:37.973Z</time></trkpt><trkpt lat="45.7267393" lon="9.9130132"><ele>418.0</ele><time>2026-05-01T07:04:41.965Z</time></trkpt><trkpt lat="45.7266662" lon="9.9130252"><ele>422.99999999999994</ele><time>2026-05-01T07:04:45.965Z</time></trkpt><trkpt lat="45.7266152" lon="9.913118"><ele>428.0</ele><time>2026-05-01T07:04:50.968Z</time></trkpt><trkpt lat="45.7265725" lon="9.9132071"><ele>428.00000000000006</ele><time>2026-05-01T07:04:54.963Z</time></trkpt><trkpt lat="45.7265235" lon="9.9132857"><ele>428.0</ele><time>2026-05-01T07:04:58.952Z</time></trkpt><trkpt lat="45.7264725" lon="9.9133568"><ele>428.0</ele><time>2026-05-01T07:05:02.957Z</time></trkpt><trkpt lat="45.7264229" lon="9.9134159"><ele>428.0</ele><time>2026-05-01T07:05:05.973Z</time></trkpt><trkpt lat="45.7263648" lon="9.9134614"><ele>428.0</ele><time>2026-05-01T07:05:08.969Z</time></trkpt><trkpt lat="45.7263056" lon="9.9135133"><ele>428.00000000000006</ele><time>2026-05-01T07:05:12.956Z</time></trkpt><trkpt lat="45.7262467" lon="9.9135729"><ele>428.0</ele><time>2026-05-01T07:05:15.959Z</time></trkpt><trkpt lat="45.7262046" lon="9.9136402"><ele>428.66666666666663</ele><time>2026-05-01T07:05:18.952Z</time></trkpt><trkpt lat="45.7261728" lon="9.913722"><ele>429.3333333333333</ele><time>2026-05-01T07:05:21.958Z</time></trkpt><trkpt lat="45.7261314" lon="9.9138058"><ele>430.0</ele><time>2026-05-01T07:05:25.95Z</time></trkpt><trkpt lat="45.7260904" lon="9.9139121"><ele>430.66666666666663</ele><time>2026-05-01T07:05:29.955Z</time></trkpt><trkpt lat="45.726068" lon="9.9140078"><ele>431.3333333333333</ele><time>2026-05-01T07:05:32.964Z</time></trkpt><trkpt lat="45.7260294" lon="9.9141051"><ele>432.0</ele><time>2026-05-01T07:05:36.958Z</time></trkpt><trkpt lat="45.7259821" lon="9.9141962"><ele>436.5</ele><time>2026-05-01T07:05:41.023Z</time></trkpt><trkpt lat="45.7259462" lon="9.914307"><ele>441.0</ele><time>2026-05-01T07:05:44.954Z</time></trkpt><trkpt lat="45.7259116" lon="9.9143918"><ele>445.5</ele><time>2026-05-01T07:05:47.961Z</time></trkpt><trkpt lat="45.7258877" lon="9.9144869"><ele>450.0</ele><time>2026-05-01T07:05:50.96Z</time></trkpt><trkpt lat="45.7258547" lon="9.914588"><ele>454.5</ele><time>2026-05-01T07:05:53.963Z</time></trkpt><trkpt lat="45.7258017" lon="9.9146788"><ele>459.0</ele><time>2026-05-01T07:05:56.952Z</time></trkpt><trkpt lat="45.7257508" lon="9.9147511"><ele>459.0</ele><time>2026-05-01T07:06:00.06Z</time></trkpt><trkpt lat="45.7256869" lon="9.9148085"><ele>459.0</ele><time>2026-05-01T07:06:03.966Z</time></trkpt><trkpt lat="45.7256239" lon="9.9148845"><ele>459.0</ele><time>2026-05-01T07:06:07.967Z</time></trkpt><trkpt lat="45.7255929" lon="9.9149662"><ele>459.0</ele><time>2026-05-01T07:06:11.984Z</time></trkpt><trkpt lat="45.725594" lon="9.9150754"><ele>459.0</ele><time>2026-05-01T07:06:15.964Z</time></trkpt><trkpt lat="45.7255781" lon="9.9151731"><ele>459.0</ele><time>2026-05-01T07:06:18.953Z</time></trkpt><trkpt lat="45.7255583" lon="9.9152617"><ele>459.0</ele><time>2026-05-01T07:06:22.031Z</time></trkpt><trkpt lat="45.7255351" lon="9.9153476"><ele>462.14285714285717</ele><time>2026-05-01T07:06:24.964Z</time></trkpt><trkpt lat="45.7255072" lon="9.9154325"><ele>465.2857142857142</ele><time>2026-05-01T07:06:27.963Z</time></trkpt><trkpt lat="45.7254927" lon="9.9155277"><ele>468.4285714285714</ele><time>2026-05-01T07:06:30.985Z</time></trkpt><trkpt lat="45.7254711" lon="9.9156257"><ele>471.57142857142856</ele><time>2026-05-01T07:06:33.961Z</time></trkpt><trkpt lat="45.7254652" lon="9.9157373"><ele>474.71428571428567</ele><time>2026-05-01T07:06:37.958Z</time></trkpt><trkpt lat="45.725464" lon="9.9158456"><ele>477.8571428571428</ele><time>2026-05-01T07:06:41.961Z</time></trkpt><trkpt lat="45.7254729" lon="9.9159409"><ele>480.99999999999994</ele><time>2026-05-01T07:06:45.954Z</time></trkpt><trkpt lat="45.7254601" lon="9.9160295"><ele>483.6666666666667</ele><time>2026-05-01T07:06:48.961Z</time></trkpt><trkpt lat="45.725444" lon="9.9161297"><ele>486.33333333333337</ele><time>2026-05-01T07:06:52.966Z</time></trkpt><trkpt lat="45.7254373" lon="9.9162517"><ele>489.0</ele><time>2026-05-01T07:06:56.965Z</time></trkpt><trkpt lat="45.7254318" lon="9.9163676"><ele>491.66666666666663</ele><time>2026-05-01T07:07:00.964Z</time></trkpt><trkpt lat="45.7254414" lon="9.9164794"><ele>494.3333333333333</ele><time>2026-05-01T07:07:04.965Z</time></trkpt><trkpt lat="45.7254664" lon="9.9165862"><ele>497.0</ele><time>2026-05-01T07:07:08.964Z</time></trkpt><trkpt lat="45.7254911" lon="9.9166909"><ele>497.1428571428571</ele><time>2026-05-01T07:07:12.965Z</time></trkpt><trkpt lat="45.7255346" lon="9.9167665"><ele>497.2857142857143</ele><time>2026-05-01T07:07:16.96Z</time></trkpt><trkpt lat="45.7255919" lon="9.9168175"><ele>497.42857142857144</ele><time>2026-05-01T07:07:21.029Z</time></trkpt><trkpt lat="45.7256683" lon="9.9168625"><ele>497.57142857142856</ele><time>2026-05-01T07:07:24.95Z</time></trkpt><trkpt lat="45.7257238" lon="9.9169254"><ele>497.71428571428567</ele><time>2026-05-01T07:07:27.952Z</time></trkpt><trkpt lat="45.7257717" lon="9.9170091"><ele>497.85714285714283</ele><time>2026-05-01T07:07:31.954Z</time></trkpt><trkpt lat="45.7258286" lon="9.9170792"><ele>498.0</ele><time>2026-05-01T07:07:35.951Z</time></trkpt><trkpt lat="45.7259039" lon="9.917119"><ele>498.0</ele><time>2026-05-01T07:07:40.027Z</time></trkpt><trkpt lat="45.7259784" lon="9.9171344"><ele>497.99999999999994</ele><time>2026-05-01T07:07:43.952Z</time></trkpt><trkpt lat="45.7260422" lon="9.9171792"><ele>498.0</ele><time>2026-05-01T07:07:47.966Z</time></trkpt><trkpt lat="45.726039" lon="9.9172867"><ele>498.0</ele><time>2026-05-01T07:07:52.958Z</time></trkpt><trkpt lat="45.7260288" lon="9.917399"><ele>497.99999999999994</ele><time>2026-05-01T07:07:57.955Z</time></trkpt><trkpt lat="45.7260194" lon="9.9175025"><ele>498.0</ele><time>2026-05-01T07:08:02.95Z</time></trkpt><trkpt lat="45.7260036" lon="9.9176039"><ele>498.0</ele><time>2026-05-01T07:08:06.954Z</time></trkpt><trkpt lat="45.7259957" lon="9.91771"><ele>498.57142857142856</ele><time>2026-05-01T07:08:10.961Z</time></trkpt><trkpt lat="45.7260008" lon="9.9178292"><ele>499.1428571428571</ele><time>2026-05-01T07:08:14.951Z</time></trkpt><trkpt lat="45.7259937" lon="9.9179251"><ele>499.71428571428567</ele><time>2026-05-01T07:08:17.967Z</time></trkpt><trkpt lat="45.7260002" lon="9.9180193"><ele>500.2857142857142</ele><time>2026-05-01T07:08:21.962Z</time></trkpt><trkpt lat="45.7260191" lon="9.9181188"><ele>500.85714285714283</ele><time>2026-05-01T07:08:25.967Z</time></trkpt><trkpt lat="45.7260358" lon="9.9182273"><ele>501.42857142857133</ele><time>2026-05-01T07:08:29.972Z</time></trkpt><trkpt lat="45.7260705" lon="9.9183228"><ele>501.99999999999994</ele><time>2026-05-01T07:08:33.961Z</time></trkpt><trkpt lat="45.7261001" lon="9.9184224"><ele>506.99999999999994</ele><time>2026-05-01T07:08:37.968Z</time></trkpt><trkpt lat="45.7261303" lon="9.9185121"><ele>512.0</ele><time>2026-05-01T07:08:41.966Z</time></trkpt><trkpt lat="45.7261607" lon="9.9186011"><ele>517.0</ele><time>2026-05-01T07:08:44.968Z</time></trkpt><trkpt lat="45.7261847" lon="9.9186908"><ele>522.0</ele><time>2026-05-01T07:08:47.949Z</time></trkpt><trkpt lat="45.7262119" lon="9.9187856"><ele>527.0</ele><time>2026-05-01T07:08:50.959Z</time></trkpt><trkpt lat="45.7262383" lon="9.9188799"><ele>531.9999999999999</ele><time>2026-05-01T07:08:53.966Z</time></trkpt><trkpt lat="45.7262804" lon="9.9189781"><ele>537.0</ele><time>2026-05-01T07:08:57.959Z</time></trkpt><trkpt lat="45.7263258" lon="9.9190715"><ele>536.9999999999999</ele><time>2026-05-01T07:09:01.963Z</time></trkpt><trkpt lat="45.7263745" lon="9.9191428"><ele>537.0</ele><time>2026-05-01T07:09:05.967Z</time></trkpt><trkpt lat="45.7264243" lon="9.9192034"><ele>537.0</ele><time>2026-05-01T07:09:08.962Z</time></trkpt><trkpt lat="45.7264774" lon="9.9192527"><ele>537.0</ele><time>2026-05-01T07:09:11.96Z</time></trkpt><trkpt lat="45.7265388" lon="9.9192973"><ele>537.0</ele><time>2026-05-01T07:09:15.965Z</time></trkpt><trkpt lat="45.726605" lon="9.9193214"><ele>536.9999999999999</ele><time>2026-05-01T07:09:18.966Z</time></trkpt><trkpt lat="45.7266758" lon="9.9193526"><ele>537.0</ele><time>2026-05-01T07:09:22.964Z</time></trkpt><trkpt lat="45.7267472" lon="9.9193772"><ele>538.8571428571428</ele><time>2026-05-01T07:09:26.965Z</time></trkpt><trkpt lat="45.7268096" lon="9.9194031"><ele>540.7142857142857</ele><time>2026-05-01T07:09:29.969Z</time></trkpt><trkpt lat="45.7268763" lon="9.9194421"><ele>542.5714285714286</ele><time>2026-05-01T07:09:33.96Z</time></trkpt><trkpt lat="45.7269463" lon="9.9194619"><ele>544.4285714285713</ele><time>2026-05-01T07:09:37.962Z</time></trkpt><trkpt lat="45.7270234" lon="9.91947"><ele>546.2857142857142</ele><time>2026-05-01T07:09:41.959Z</time></trkpt><trkpt lat="45.727095" lon="9.9194908"><ele>548.1428571428571</ele><time>2026-05-01T07:09:45.964Z</time></trkpt><trkpt lat="45.7271801" lon="9.9194832"><ele>550.0</ele><time>2026-05-01T07:09:49.964Z</time></trkpt><trkpt lat="45.727243" lon="9.9194758"><ele>550.0</ele><time>2026-05-01T07:09:52.955Z</time></trkpt><trkpt lat="45.7273365" lon="9.9194671"><ele>550.0</ele><time>2026-05-01T07:09:59.965Z</time></trkpt><trkpt lat="45.7274175" lon="9.9194433"><ele>550.0</ele><time>2026-05-01T07:10:04.963Z</time></trkpt><trkpt lat="45.727482" lon="9.9194882"><ele>550.0</ele><time>2026-05-01T07:10:08.963Z</time></trkpt><trkpt lat="45.7275383" lon="9.9195708"><ele>550.0</ele><time>2026-05-01T07:10:12.955Z</time></trkpt><trkpt lat="45.7275862" lon="9.9196569"><ele>550.0</ele><time>2026-05-01T07:10:16.961Z</time></trkpt><trkpt lat="45.7276477" lon="9.9197131"><ele>550.0</ele><time>2026-05-01T07:10:20.963Z</time></trkpt><trkpt lat="45.7277101" lon="9.9197604"><ele>550.0</ele><time>2026-05-01T07:10:23.959Z</time></trkpt><trkpt lat="45.7277726" lon="9.9197865"><ele>550.0</ele><time>2026-05-01T07:10:26.962Z</time></trkpt><trkpt lat="45.7278329" lon="9.9198158"><ele>550.0</ele><time>2026-05-01T07:10:29.96Z</time></trkpt><trkpt lat="45.7278956" lon="9.9198786"><ele>550.0</ele><time>2026-05-01T07:10:33.969Z</time></trkpt><trkpt lat="45.7279682" lon="9.9199317"><ele>550.0</ele><time>2026-05-01T07:10:37.957Z</time></trkpt><trkpt lat="45.7280399" lon="9.9199483"><ele>550.0</ele><time>2026-05-01T07:10:40.967Z</time></trkpt><trkpt lat="45.7281151" lon="9.9199818"><ele>550.3333333333334</ele><time>2026-05-01T07:10:43.963Z</time></trkpt><trkpt lat="45.7281867" lon="9.920026"><ele>550.6666666666667</ele><time>2026-05-01T07:10:46.968Z</time></trkpt><trkpt lat="45.7282624" lon="9.9200516"><ele>551.0</ele><time>2026-05-01T07:10:49.959Z</time></trkpt><trkpt lat="45.7283381" lon="9.9200759"><ele>551.3333333333334</ele><time>2026-05-01T07:10:52.962Z</time></trkpt><trkpt lat="45.7284006" lon="9.9201313"><ele>551.6666666666666</ele><time>2026-05-01T07:10:55.961Z</time></trkpt><trkpt lat="45.7284563" lon="9.9202203"><ele>552.0</ele><time>2026-05-01T07:10:58.962Z</time></trkpt><trkpt lat="45.7285113" lon="9.9203152"><ele>552.0</ele><time>2026-05-01T07:11:01.953Z</time></trkpt><trkpt lat="45.7285568" lon="9.9203826"><ele>552.0</ele><time>2026-05-01T07:11:03.957Z</time></trkpt><trkpt lat="45.728598" lon="9.9204639"><ele>552.0</ele><time>2026-05-01T07:11:05.96Z</time></trkpt><trkpt lat="45.7286511" lon="9.9205711"><ele>552.0</ele><time>2026-05-01T07:11:08.963Z</time></trkpt><trkpt lat="45.7287054" lon="9.9206683"><ele>552.0</ele><time>2026-05-01T07:11:11.96Z</time></trkpt><trkpt lat="45.7287573" lon="9.9207772"><ele>552.0</ele><time>2026-05-01T07:11:14.959Z</time></trkpt><trkpt lat="45.7288146" lon="9.9208763"><ele>555.0</ele><time>2026-05-01T07:11:17.955Z</time></trkpt><trkpt lat="45.7288733" lon="9.9209483"><ele>558.0</ele><time>2026-05-01T07:11:20.962Z</time></trkpt><trkpt lat="45.7289373" lon="9.9210103"><ele>561.0</ele><time>2026-05-01T07:11:23.956Z</time></trkpt><trkpt lat="45.7289983" lon="9.9210835"><ele>564.0</ele><time>2026-05-01T07:11:26.96Z</time></trkpt><trkpt lat="45.7290633" lon="9.9211446"><ele>567.0</ele><time>2026-05-01T07:11:29.967Z</time></trkpt><trkpt lat="45.7291315" lon="9.9211862"><ele>570.0</ele><time>2026-05-01T07:11:32.958Z</time></trkpt><trkpt lat="45.7291943" lon="9.9212317"><ele>570.0</ele><time>2026-05-01T07:11:35.967Z</time></trkpt><trkpt lat="45.7292646" lon="9.9212841"><ele>570.0</ele><time>2026-05-01T07:11:38.965Z</time></trkpt><trkpt lat="45.7293319" lon="9.9213569"><ele>570.0</ele><time>2026-05-01T07:11:41.957Z</time></trkpt><trkpt lat="45.7293909" lon="9.9214281"><ele>570.0</ele><time>2026-05-01T07:11:44.959Z</time></trkpt><trkpt lat="45.7294596" lon="9.9214267"><ele>570.0</ele><time>2026-05-01T07:11:49.958Z</time></trkpt><trkpt lat="45.7294824" lon="9.9213425"><ele>570.0</ele><time>2026-05-01T07:11:56.956Z</time></trkpt><trkpt lat="45.7295457" lon="9.9213699"><ele>570.0</ele><time>2026-05-01T07:11:59.959Z</time></trkpt><trkpt lat="45.7295946" lon="9.9214302"><ele>574.1666666666666</ele><time>2026-05-01T07:12:01.953Z</time></trkpt><trkpt lat="45.7296571" lon="9.9214853"><ele>578.3333333333334</ele><time>2026-05-01T07:12:04.95Z</time></trkpt><trkpt lat="45.7297061" lon="9.9215639"><ele>582.5</ele><time>2026-05-01T07:12:07.956Z</time></trkpt><trkpt lat="45.7297592" lon="9.9216439"><ele>586.6666666666667</ele><time>2026-05-01T07:12:11.961Z</time></trkpt><trkpt lat="45.7298347" lon="9.9216952"><ele>590.8333333333334</ele><time>2026-05-01T07:12:15.962Z</time></trkpt><trkpt lat="45.7299013" lon="9.9217395"><ele>595.0</ele><time>2026-05-01T07:12:18.959Z</time></trkpt><trkpt lat="45.7299642" lon="9.9217855"><ele>595.0</ele><time>2026-05-01T07:12:22.951Z</time></trkpt><trkpt lat="45.7300333" lon="9.9218376"><ele>595.0</ele><time>2026-05-01T07:12:25.961Z</time></trkpt><trkpt lat="45.730084" lon="9.9218978"><ele>595.0</ele><time>2026-05-01T07:12:28.96Z</time></trkpt><trkpt lat="45.7301384" lon="9.921964"><ele>595.0</ele><time>2026-05-01T07:12:32.969Z</time></trkpt><trkpt lat="45.7302003" lon="9.9220397"><ele>595.0</ele><time>2026-05-01T07:12:36.963Z</time></trkpt><trkpt lat="45.7302566" lon="9.922118"><ele>595.0</ele><time>2026-05-01T07:12:39.964Z</time></trkpt><trkpt lat="45.7303107" lon="9.9222135"><ele>601.1666666666667</ele><time>2026-05-01T07:12:42.957Z</time></trkpt><trkpt lat="45.7303578" lon="9.9223088"><ele>607.3333333333334</ele><time>2026-05-01T07:12:45.968Z</time></trkpt><trkpt lat="45.7303948" lon="9.9224018"><ele>613.5</ele><time>2026-05-01T07:12:48.964Z</time></trkpt><trkpt lat="45.7304423" lon="9.9224723"><ele>619.6666666666666</ele><time>2026-05-01T07:12:51.966Z</time></trkpt><trkpt lat="45.7305068" lon="9.9225479"><ele>625.8333333333333</ele><time>2026-05-01T07:12:54.962Z</time></trkpt><trkpt lat="45.7305636" lon="9.9226247"><ele>632.0</ele><time>2026-05-01T07:12:57.961Z</time></trkpt><trkpt lat="45.7306061" lon="9.9227004"><ele>632.0</ele><time>2026-05-01T07:13:00.963Z</time></trkpt><trkpt lat="45.7306509" lon="9.9227913"><ele>632.0</ele><time>2026-05-01T07:13:03.954Z</time></trkpt><trkpt lat="45.7306874" lon="9.9228944"><ele>632.0</ele><time>2026-05-01T07:13:06.965Z</time></trkpt><trkpt lat="45.7307234" lon="9.9230139"><ele>632.0</ele><time>2026-05-01T07:13:09.961Z</time></trkpt><trkpt lat="45.7307495" lon="9.9230967"><ele>632.0</ele><time>2026-05-01T07:13:11.959Z</time></trkpt><trkpt lat="45.7307864" lon="9.923215"><ele>632.0</ele><time>2026-05-01T07:13:14.961Z</time></trkpt><trkpt lat="45.730815" lon="9.9232959"><ele>632.0000000000001</ele><time>2026-05-01T07:13:16.963Z</time></trkpt><trkpt lat="45.730853" lon="9.9233756"><ele>632.0</ele><time>2026-05-01T07:13:18.963Z</time></trkpt><trkpt lat="45.7308966" lon="9.9234845"><ele>632.0</ele><time>2026-05-01T07:13:21.951Z</time></trkpt><trkpt lat="45.7309297" lon="9.9235626"><ele>632.0</ele><time>2026-05-01T07:13:23.971Z</time></trkpt><trkpt lat="45.7309653" lon="9.9236574"><ele>632.0</ele><time>2026-05-01T07:13:25.963Z</time></trkpt><trkpt lat="45.730992" lon="9.9237465"><ele>632.0000000000001</ele><time>2026-05-01T07:13:27.96Z</time></trkpt><trkpt lat="45.7310231" lon="9.9238346"><ele>632.0</ele><time>2026-05-01T07:13:29.969Z</time></trkpt><trkpt lat="45.7310615" lon="9.923948"><ele>640.5</ele><time>2026-05-01T07:13:32.961Z</time></trkpt><trkpt lat="45.7311136" lon="9.9240584"><ele>649.0</ele><time>2026-05-01T07:13:35.963Z</time></trkpt><trkpt lat="45.7311604" lon="9.924168"><ele>657.5</ele><time>2026-05-01T07:13:38.968Z</time></trkpt><trkpt lat="45.7312037" lon="9.9242732"><ele>666.0</ele><time>2026-05-01T07:13:41.967Z</time></trkpt><trkpt lat="45.7312524" lon="9.9243812"><ele>674.5</ele><time>2026-05-01T07:13:44.961Z</time></trkpt><trkpt lat="45.7312815" lon="9.9244867"><ele>683.0</ele><time>2026-05-01T07:13:47.968Z</time></trkpt><trkpt lat="45.7313055" lon="9.9245724"><ele>683.0</ele><time>2026-05-01T07:13:49.967Z</time></trkpt><trkpt lat="45.7313177" lon="9.9246962"><ele>683.0</ele><time>2026-05-01T07:13:52.967Z</time></trkpt><trkpt lat="45.7313405" lon="9.9248006"><ele>683.0</ele><time>2026-05-01T07:13:55.964Z</time></trkpt><trkpt lat="45.7313617" lon="9.9248977"><ele>683.0</ele><time>2026-05-01T07:13:59.026Z</time></trkpt><trkpt lat="45.7313714" lon="9.9249877"><ele>683.0</ele><time>2026-05-01T07:14:01.959Z</time></trkpt><trkpt lat="45.7313698" lon="9.9250887"><ele>683.0</ele><time>2026-05-01T07:14:04.957Z</time></trkpt><trkpt lat="45.7313722" lon="9.9251845"><ele>683.0</ele><time>2026-05-01T07:14:07.961Z</time></trkpt><trkpt lat="45.7313723" lon="9.9253025"><ele>683.0</ele><time>2026-05-01T07:14:10.966Z</time></trkpt><trkpt lat="45.7313897" lon="9.9254033"><ele>683.0</ele><time>2026-05-01T07:14:13.961Z</time></trkpt><trkpt lat="45.7314207" lon="9.9254938"><ele>683.0</ele><time>2026-05-01T07:14:17.027Z</time></trkpt><trkpt lat="45.7314553" lon="9.9255917"><ele>683.0</ele><time>2026-05-01T07:14:19.939Z</time></trkpt><trkpt lat="45.7314909" lon="9.9256981"><ele>683.0</ele><time>2026-05-01T07:14:22.946Z</time></trkpt><trkpt lat="45.7315283" lon="9.9257775"><ele>683.0</ele><time>2026-05-01T07:14:25.945Z</time></trkpt><trkpt lat="45.7315459" lon="9.9258867"><ele>683.0</ele><time>2026-05-01T07:14:28.953Z</time></trkpt><trkpt lat="45.7315628" lon="9.9259828"><ele>683.0</ele><time>2026-05-01T07:14:31.951Z</time></trkpt><trkpt lat="45.731586" lon="9.9260755"><ele>683.0</ele><time>2026-05-01T07:14:34.957Z</time></trkpt><trkpt lat="45.7316209" lon="9.9261636"><ele>683.0</ele><time>2026-05-01T07:14:37.951Z</time></trkpt><trkpt lat="45.7316633" lon="9.9262615"><ele>683.0</ele><time>2026-05-01T07:14:40.953Z</time></trkpt><trkpt lat="45.7316981" lon="9.9263414"><ele>683.0</ele><time>2026-05-01T07:14:43.953Z</time></trkpt><trkpt lat="45.7317199" lon="9.9264322"><ele>683.0</ele><time>2026-05-01T07:14:46.945Z</time></trkpt><trkpt lat="45.7317406" lon="9.9265312"><ele>683.0</ele><time>2026-05-01T07:14:49.952Z</time></trkpt><trkpt lat="45.7317522" lon="9.9266234"><ele>683.0</ele><time>2026-05-01T07:14:52.949Z</time></trkpt><trkpt lat="45.7317653" lon="9.9267251"><ele>683.0</ele><time>2026-05-01T07:14:55.955Z</time></trkpt><trkpt lat="45.7317828" lon="9.9268254"><ele>683.0</ele><time>2026-05-01T07:14:59.027Z</time></trkpt><trkpt lat="45.7318004" lon="9.9269178"><ele>683.0</ele><time>2026-05-01T07:15:01.957Z</time></trkpt><trkpt lat="45.7318251" lon="9.92701"><ele>683.0</ele><time>2026-05-01T07:15:04.951Z</time></trkpt><trkpt lat="45.7318485" lon="9.9271161"><ele>683.0</ele><time>2026-05-01T07:15:07.954Z</time></trkpt><trkpt lat="45.7318766" lon="9.9272241"><ele>683.0</ele><time>2026-05-01T07:15:10.956Z</time></trkpt><trkpt lat="45.7319028" lon="9.927327"><ele>691.8333333333333</ele><time>2026-05-01T07:15:13.953Z</time></trkpt><trkpt lat="45.7319154" lon="9.9274447"><ele>700.6666666666666</ele><time>2026-05-01T07:15:17.034Z</time></trkpt><trkpt lat="45.7319331" lon="9.9275682"><ele>709.5</ele><time>2026-05-01T07:15:19.959Z</time></trkpt><trkpt lat="45.731956" lon="9.927699"><ele>718.3333333333334</ele><time>2026-05-01T07:15:22.958Z</time></trkpt><trkpt lat="45.7319678" lon="9.9278226"><ele>727.1666666666667</ele><time>2026-05-01T07:15:25.962Z</time></trkpt><trkpt lat="45.7319925" lon="9.9279372"><ele>736.0</ele><time>2026-05-01T07:15:28.962Z</time></trkpt><trkpt lat="45.7320089" lon="9.928064"><ele>736.0</ele><time>2026-05-01T07:15:31.961Z</time></trkpt><trkpt lat="45.7320054" lon="9.9281587"><ele>736.0</ele><time>2026-05-01T07:15:33.967Z</time></trkpt><trkpt lat="45.7319962" lon="9.9282875"><ele>736.0</ele><time>2026-05-01T07:15:36.964Z</time></trkpt><trkpt lat="45.7319809" lon="9.928399"><ele>736.0</ele><time>2026-05-01T07:15:39.957Z</time></trkpt><trkpt lat="45.7319741" lon="9.9285158"><ele>736.0</ele><time>2026-05-01T07:15:43.958Z</time></trkpt><trkpt lat="45.7319796" lon="9.9286279"><ele>736.0</ele><time>2026-05-01T07:15:47.959Z</time></trkpt><trkpt lat="45.7319759" lon="9.9287407"><ele>736.7142857142858</ele><time>2026-05-01T07:15:51.951Z</time></trkpt><trkpt lat="45.7319859" lon="9.9288383"><ele>737.4285714285713</ele><time>2026-05-01T07:15:54.959Z</time></trkpt><trkpt lat="45.7320053" lon="9.9289279"><ele>738.1428571428571</ele><time>2026-05-01T07:15:57.956Z</time></trkpt><trkpt lat="45.7320236" lon="9.929038"><ele>738.8571428571429</ele><time>2026-05-01T07:16:01.958Z</time></trkpt><trkpt lat="45.7320287" lon="9.9291387"><ele>739.5714285714287</ele><time>2026-05-01T07:16:05.952Z</time></trkpt><trkpt lat="45.7320045" lon="9.9292501"><ele>740.2857142857142</ele><time>2026-05-01T07:16:09.958Z</time></trkpt><trkpt lat="45.7319943" lon="9.9293546"><ele>741.0</ele><time>2026-05-01T07:16:13.969Z</time></trkpt><trkpt lat="45.7320207" lon="9.9294446"><ele>741.0</ele><time>2026-05-01T07:16:17.965Z</time></trkpt><trkpt lat="45.7320513" lon="9.9295262"><ele>741.0</ele><time>2026-05-01T07:16:21.961Z</time></trkpt><trkpt lat="45.7321033" lon="9.929608"><ele>741.0</ele><time>2026-05-01T07:16:26.965Z</time></trkpt><trkpt lat="45.7321659" lon="9.9295918"><ele>741.0</ele><time>2026-05-01T07:16:32.965Z</time></trkpt><trkpt lat="45.7322324" lon="9.9296202"><ele>741.0</ele><time>2026-05-01T07:16:37.965Z</time></trkpt><trkpt lat="45.7322833" lon="9.9297032"><ele>741.0</ele><time>2026-05-01T07:16:40.961Z</time></trkpt><trkpt lat="45.7323454" lon="9.9297803"><ele>741.0</ele><time>2026-05-01T07:16:45.964Z</time></trkpt><trkpt lat="45.7323796" lon="9.9298668"><ele>741.0</ele><time>2026-05-01T07:16:48.958Z</time></trkpt><trkpt lat="45.7323982" lon="9.929979"><ele>741.0</ele><time>2026-05-01T07:16:52.957Z</time></trkpt><trkpt lat="45.7324077" lon="9.9300837"><ele>741.0</ele><time>2026-05-01T07:16:55.963Z</time></trkpt><trkpt lat="45.7324108" lon="9.9301986"><ele>741.0</ele><time>2026-05-01T07:16:58.966Z</time></trkpt><trkpt lat="45.7324152" lon="9.9302963"><ele>741.0</ele><time>2026-05-01T07:17:01.962Z</time></trkpt><trkpt lat="45.7324158" lon="9.9304011"><ele>741.0</ele><time>2026-05-01T07:17:05.968Z</time></trkpt><trkpt lat="45.7324065" lon="9.9305143"><ele>741.0</ele><time>2026-05-01T07:17:09.949Z</time></trkpt><trkpt lat="45.7323928" lon="9.9306101"><ele>741.0</ele><time>2026-05-01T07:17:12.97Z</time></trkpt><trkpt lat="45.7323849" lon="9.9307283"><ele>741.0</ele><time>2026-05-01T07:17:16.965Z</time></trkpt><trkpt lat="45.7324006" lon="9.9308466"><ele>741.0</ele><time>2026-05-01T07:17:19.959Z</time></trkpt><trkpt lat="45.7324238" lon="9.9309628"><ele>741.0</ele><time>2026-05-01T07:17:22.967Z</time></trkpt><trkpt lat="45.7324498" lon="9.9310848"><ele>741.0</ele><time>2026-05-01T07:17:25.964Z</time></trkpt><trkpt lat="45.7324568" lon="9.9311756"><ele>741.2857142857142</ele><time>2026-05-01T07:17:27.966Z</time></trkpt><trkpt lat="45.7324678" lon="9.9312698"><ele>741.5714285714287</ele><time>2026-05-01T07:17:29.965Z</time></trkpt><trkpt lat="45.7324778" lon="9.9313634"><ele>741.8571428571429</ele><time>2026-05-01T07:17:31.964Z</time></trkpt><trkpt lat="45.7324746" lon="9.9314967"><ele>742.1428571428571</ele><time>2026-05-01T07:17:34.966Z</time></trkpt><trkpt lat="45.7324752" lon="9.9315884"><ele>742.4285714285713</ele><time>2026-05-01T07:17:36.967Z</time></trkpt><trkpt lat="45.7324739" lon="9.9316837"><ele>742.7142857142858</ele><time>2026-05-01T07:17:38.965Z</time></trkpt><trkpt lat="45.7324659" lon="9.9317874"><ele>743.0</ele><time>2026-05-01T07:17:40.961Z</time></trkpt><trkpt lat="45.7324736" lon="9.9318793"><ele>743.3333333333333</ele><time>2026-05-01T07:17:42.965Z</time></trkpt><trkpt lat="45.7324913" lon="9.9320094"><ele>743.6666666666666</ele><time>2026-05-01T07:17:45.962Z</time></trkpt><trkpt lat="45.732507" lon="9.932102"><ele>744.0</ele><time>2026-05-01T07:17:47.97Z</time></trkpt><trkpt lat="45.7325281" lon="9.9322242"><ele>744.3333333333334</ele><time>2026-05-01T07:17:50.969Z</time></trkpt><trkpt lat="45.7325485" lon="9.93233"><ele>744.6666666666667</ele><time>2026-05-01T07:17:53.971Z</time></trkpt><trkpt lat="45.7325677" lon="9.932428"><ele>745.0</ele><time>2026-05-01T07:17:56.964Z</time></trkpt><trkpt lat="45.7325821" lon="9.9325376"><ele>745.6666666666667</ele><time>2026-05-01T07:17:59.965Z</time></trkpt><trkpt lat="45.7325845" lon="9.9326573"><ele>746.3333333333334</ele><time>2026-05-01T07:18:02.966Z</time></trkpt><trkpt lat="45.7325926" lon="9.9327774"><ele>747.0</ele><time>2026-05-01T07:18:05.964Z</time></trkpt><trkpt lat="45.7326067" lon="9.9329073"><ele>747.6666666666666</ele><time>2026-05-01T07:18:08.967Z</time></trkpt><trkpt lat="45.7326184" lon="9.9330018"><ele>748.3333333333333</ele><time>2026-05-01T07:18:10.961Z</time></trkpt><trkpt lat="45.7326303" lon="9.933098"><ele>749.0</ele><time>2026-05-01T07:18:12.972Z</time></trkpt><trkpt lat="45.7326394" lon="9.9332263"><ele>749.0</ele><time>2026-05-01T07:18:15.967Z</time></trkpt><trkpt lat="45.7326676" lon="9.9333526"><ele>749.0</ele><time>2026-05-01T07:18:18.966Z</time></trkpt><trkpt lat="45.7326915" lon="9.9334395"><ele>749.0</ele><time>2026-05-01T07:18:20.966Z</time></trkpt><trkpt lat="45.7327045" lon="9.9335602"><ele>749.0</ele><time>2026-05-01T07:18:23.962Z</time></trkpt><trkpt lat="45.7327059" lon="9.9336857"><ele>749.0</ele><time>2026-05-01T07:18:26.959Z</time></trkpt><trkpt lat="45.7327231" lon="9.9337773"><ele>749.0</ele><time>2026-05-01T07:18:29.959Z</time></trkpt><trkpt lat="45.7327386" lon="9.9338879"><ele>755.3333333333333</ele><time>2026-05-01T07:18:32.959Z</time></trkpt><trkpt lat="45.7327549" lon="9.9340068"><ele>761.6666666666666</ele><time>2026-05-01T07:18:35.955Z</time></trkpt><trkpt lat="45.7327782" lon="9.9341134"><ele>768.0</ele><time>2026-05-01T07:18:38.949Z</time></trkpt><trkpt lat="45.7328096" lon="9.9342242"><ele>774.3333333333333</ele><time>2026-05-01T07:18:41.955Z</time></trkpt><trkpt lat="45.7328261" lon="9.9343178"><ele>780.6666666666666</ele><time>2026-05-01T07:18:45.034Z</time></trkpt><trkpt lat="45.7328352" lon="9.934431"><ele>787.0</ele><time>2026-05-01T07:18:47.946Z</time></trkpt><trkpt lat="45.7328435" lon="9.9345339"><ele>787.2857142857142</ele><time>2026-05-01T07:18:50.953Z</time></trkpt><trkpt lat="45.7328708" lon="9.934632"><ele>787.5714285714286</ele><time>2026-05-01T07:18:53.948Z</time></trkpt><trkpt lat="45.7329065" lon="9.9347262"><ele>787.8571428571429</ele><time>2026-05-01T07:18:56.952Z</time></trkpt><trkpt lat="45.7329464" lon="9.9348056"><ele>788.1428571428571</ele><time>2026-05-01T07:18:59.955Z</time></trkpt><trkpt lat="45.732948" lon="9.9349064"><ele>788.4285714285714</ele><time>2026-05-01T07:19:02.944Z</time></trkpt><trkpt lat="45.7329133" lon="9.9349881"><ele>788.7142857142857</ele><time>2026-05-01T07:19:05.954Z</time></trkpt><trkpt lat="45.7328764" lon="9.9350845"><ele>789.0</ele><time>2026-05-01T07:19:08.949Z</time></trkpt><trkpt lat="45.7328619" lon="9.9351974"><ele>790.1666666666666</ele><time>2026-05-01T07:19:11.95Z</time></trkpt><trkpt lat="45.7328489" lon="9.935315"><ele>791.3333333333333</ele><time>2026-05-01T07:19:14.949Z</time></trkpt><trkpt lat="45.7328395" lon="9.9354127"><ele>792.5</ele><time>2026-05-01T07:19:17.958Z</time></trkpt><trkpt lat="45.7328238" lon="9.9355245"><ele>793.6666666666666</ele><time>2026-05-01T07:19:20.962Z</time></trkpt><trkpt lat="45.7328209" lon="9.9356564"><ele>794.8333333333333</ele><time>2026-05-01T07:19:23.951Z</time></trkpt><trkpt lat="45.7328197" lon="9.9357844"><ele>796.0</ele><time>2026-05-01T07:19:27.034Z</time></trkpt><trkpt lat="45.7328107" lon="9.9359156"><ele>796.6666666666666</ele><time>2026-05-01T07:19:29.959Z</time></trkpt><trkpt lat="45.7327982" lon="9.9360426"><ele>797.3333333333333</ele><time>2026-05-01T07:19:32.947Z</time></trkpt><trkpt lat="45.7327963" lon="9.9361693"><ele>798.0</ele><time>2026-05-01T07:19:35.956Z</time></trkpt><trkpt lat="45.7328019" lon="9.9362889"><ele>798.6666666666667</ele><time>2026-05-01T07:19:38.967Z</time></trkpt><trkpt lat="45.7327846" lon="9.9364243"><ele>799.3333333333334</ele><time>2026-05-01T07:19:41.966Z</time></trkpt><trkpt lat="45.7327813" lon="9.9365242"><ele>800.0</ele><time>2026-05-01T07:19:43.967Z</time></trkpt><trkpt lat="45.7327807" lon="9.9366291"><ele>798.6666666666667</ele><time>2026-05-01T07:19:45.954Z</time></trkpt><trkpt lat="45.7327969" lon="9.9367347"><ele>797.3333333333334</ele><time>2026-05-01T07:19:47.956Z</time></trkpt><trkpt lat="45.7328151" lon="9.9368332"><ele>796.0</ele><time>2026-05-01T07:19:50.032Z</time></trkpt><trkpt lat="45.7328377" lon="9.9369407"><ele>794.6666666666667</ele><time>2026-05-01T07:19:51.958Z</time></trkpt><trkpt lat="45.7328684" lon="9.9370431"><ele>793.3333333333334</ele><time>2026-05-01T07:19:53.955Z</time></trkpt><trkpt lat="45.7329057" lon="9.9371411"><ele>792.0</ele><time>2026-05-01T07:19:55.957Z</time></trkpt><trkpt lat="45.7329392" lon="9.93724"><ele>792.0</ele><time>2026-05-01T07:19:57.958Z</time></trkpt><trkpt lat="45.7329626" lon="9.9373377"><ele>792.0</ele><time>2026-05-01T07:20:00.05Z</time></trkpt><trkpt lat="45.7329733" lon="9.9374381"><ele>792.0</ele><time>2026-05-01T07:20:01.956Z</time></trkpt><trkpt lat="45.7329637" lon="9.9375724"><ele>792.0</ele><time>2026-05-01T07:20:04.956Z</time></trkpt><trkpt lat="45.7329515" lon="9.937691"><ele>792.0</ele><time>2026-05-01T07:20:07.953Z</time></trkpt><trkpt lat="45.7329648" lon="9.9378086"><ele>792.0</ele><time>2026-05-01T07:20:10.967Z</time></trkpt><trkpt lat="45.7329914" lon="9.937932"><ele>793.2</ele><time>2026-05-01T07:20:13.938Z</time></trkpt><trkpt lat="45.7330117" lon="9.9380467"><ele>794.4000000000001</ele><time>2026-05-01T07:20:16.945Z</time></trkpt><trkpt lat="45.7330209" lon="9.9381842"><ele>795.5999999999999</ele><time>2026-05-01T07:20:20.022Z</time></trkpt><trkpt lat="45.732981" lon="9.9383068"><ele>796.8</ele><time>2026-05-01T07:20:21.949Z</time></trkpt><trkpt lat="45.732873" lon="9.9383555"><ele>798.0</ele><time>2026-05-01T07:20:23.946Z</time></trkpt><trkpt lat="45.7327838" lon="9.9383102"><ele>798.0</ele><time>2026-05-01T07:20:26.033Z</time></trkpt><trkpt lat="45.7327267" lon="9.938234"><ele>798.0</ele><time>2026-05-01T07:20:27.98Z</time></trkpt><trkpt lat="45.7326806" lon="9.9381493"><ele>798.0</ele><time>2026-05-01T07:20:30.033Z</time></trkpt><trkpt lat="45.7326274" lon="9.9380615"><ele>798.0</ele><time>2026-05-01T07:20:31.966Z</time></trkpt><trkpt lat="45.7325718" lon="9.9379897"><ele>798.0</ele><time>2026-05-01T07:20:33.965Z</time></trkpt><trkpt lat="45.7325159" lon="9.9379401"><ele>798.0</ele><time>2026-05-01T07:20:35.966Z</time></trkpt><trkpt lat="45.7324255" lon="9.9379172"><ele>797.8333333333334</ele><time>2026-05-01T07:20:38.972Z</time></trkpt><trkpt lat="45.7323619" lon="9.9378994"><ele>797.6666666666667</ele><time>2026-05-01T07:20:40.959Z</time></trkpt><trkpt lat="45.7322885" lon="9.9378777"><ele>797.5</ele><time>2026-05-01T07:20:42.965Z</time></trkpt><trkpt lat="45.7322212" lon="9.9378532"><ele>797.3333333333334</ele><time>2026-05-01T07:20:44.969Z</time></trkpt><trkpt lat="45.7321304" lon="9.9378431"><ele>797.1666666666667</ele><time>2026-05-01T07:20:47.972Z</time></trkpt><trkpt lat="45.7320577" lon="9.9378395"><ele>797.0</ele><time>2026-05-01T07:20:49.962Z</time></trkpt><trkpt lat="45.7319797" lon="9.9378249"><ele>797.0000000000001</ele><time>2026-05-01T07:20:51.962Z</time></trkpt><trkpt lat="45.7319098" lon="9.937811"><ele>797.0</ele><time>2026-05-01T07:20:53.963Z</time></trkpt><trkpt lat="45.7318199" lon="9.9377828"><ele>797.0</ele><time>2026-05-01T07:20:56.969Z</time></trkpt><trkpt lat="45.7317572" lon="9.9378105"><ele>797.0</ele><time>2026-05-01T07:20:58.974Z</time></trkpt><trkpt lat="45.7316917" lon="9.9378621"><ele>797.0000000000001</ele><time>2026-05-01T07:21:00.972Z</time></trkpt><trkpt lat="45.7316139" lon="9.9379246"><ele>797.0</ele><time>2026-05-01T07:21:02.97Z</time></trkpt><trkpt lat="45.7315327" lon="9.9380324"><ele>796.75</ele><time>2026-05-01T07:21:04.969Z</time></trkpt><trkpt lat="45.7314531" lon="9.9381339"><ele>796.5</ele><time>2026-05-01T07:21:06.975Z</time></trkpt><trkpt lat="45.7313927" lon="9.9382849"><ele>796.25</ele><time>2026-05-01T07:21:08.973Z</time></trkpt><trkpt lat="45.7313433" lon="9.9384578"><ele>796.0</ele><time>2026-05-01T07:21:10.987Z</time></trkpt><trkpt lat="45.7312953" lon="9.9386129"><ele>795.9999999999999</ele><time>2026-05-01T07:21:12.957Z</time></trkpt><trkpt lat="45.7312461" lon="9.9386808"><ele>796.0</ele><time>2026-05-01T07:21:13.959Z</time></trkpt><trkpt lat="45.7311879" lon="9.9387212"><ele>796.0</ele><time>2026-05-01T07:21:14.969Z</time></trkpt><trkpt lat="45.7310896" lon="9.9387823"><ele>796.0</ele><time>2026-05-01T07:21:16.972Z</time></trkpt><trkpt lat="45.7310135" lon="9.9387525"><ele>795.9999999999999</ele><time>2026-05-01T07:21:19.966Z</time></trkpt><trkpt lat="45.7309428" lon="9.9386813"><ele>796.0</ele><time>2026-05-01T07:21:22.959Z</time></trkpt><trkpt lat="45.7308652" lon="9.9386228"><ele>795.9999999999999</ele><time>2026-05-01T07:21:25.971Z</time></trkpt><trkpt lat="45.7308624" lon="9.9387326"><ele>796.0</ele><time>2026-05-01T07:21:31.981Z</time></trkpt><trkpt lat="45.7309295" lon="9.9388215"><ele>796.0</ele><time>2026-05-01T07:21:34.973Z</time></trkpt><trkpt lat="45.7309781" lon="9.9388855"><ele>796.0</ele><time>2026-05-01T07:21:36.975Z</time></trkpt><trkpt lat="45.7310382" lon="9.9389308"><ele>795.9999999999999</ele><time>2026-05-01T07:21:38.972Z</time></trkpt><trkpt lat="45.7310944" lon="9.9389745"><ele>796.0</ele><time>2026-05-01T07:21:40.972Z</time></trkpt><trkpt lat="45.7311711" lon="9.9390455"><ele>795.9999999999999</ele><time>2026-05-01T07:21:43.962Z</time></trkpt><trkpt lat="45.731227" lon="9.939153"><ele>796.0</ele><time>2026-05-01T07:21:46.987Z</time></trkpt><trkpt lat="45.7313087" lon="9.9392033"><ele>796.0</ele><time>2026-05-01T07:21:49.958Z</time></trkpt><trkpt lat="45.7313712" lon="9.9392291"><ele>796.0</ele><time>2026-05-01T07:21:52.956Z</time></trkpt><trkpt lat="45.7313016" lon="9.9393278"><ele>795.9999999999999</ele><time>2026-05-01T07:21:56.961Z</time></trkpt><trkpt lat="45.7312329" lon="9.9393584"><ele>796.0</ele><time>2026-05-01T07:21:59.974Z</time></trkpt><trkpt lat="45.7311585" lon="9.9394077"><ele>794.9999999999999</ele><time>2026-05-01T07:22:03.958Z</time></trkpt><trkpt lat="45.7311056" lon="9.9394771"><ele>794.0</ele><time>2026-05-01T07:22:06.965Z</time></trkpt><trkpt lat="45.7310709" lon="9.9395691"><ele>793.0</ele><time>2026-05-01T07:22:09.977Z</time></trkpt><trkpt lat="45.7310115" lon="9.9396558"><ele>792.0</ele><time>2026-05-01T07:22:13.971Z</time></trkpt><trkpt lat="45.730985" lon="9.9397605"><ele>790.9999999999999</ele><time>2026-05-01T07:22:17.954Z</time></trkpt><trkpt lat="45.7309618" lon="9.9398812"><ele>790.0</ele><time>2026-05-01T07:22:20.957Z</time></trkpt><trkpt lat="45.7309448" lon="9.9399965"><ele>791.6666666666666</ele><time>2026-05-01T07:22:23.966Z</time></trkpt><trkpt lat="45.7309352" lon="9.9400878"><ele>793.3333333333333</ele><time>2026-05-01T07:22:25.961Z</time></trkpt><trkpt lat="45.7309135" lon="9.9402068"><ele>795.0</ele><time>2026-05-01T07:22:28.961Z</time></trkpt><trkpt lat="45.7309058" lon="9.9403213"><ele>796.6666666666667</ele><time>2026-05-01T07:22:31.951Z</time></trkpt><trkpt lat="45.7309064" lon="9.9404451"><ele>798.3333333333334</ele><time>2026-05-01T07:22:34.958Z</time></trkpt><trkpt lat="45.7308948" lon="9.9405608"><ele>800.0</ele><time>2026-05-01T07:22:37.96Z</time></trkpt><trkpt lat="45.7308816" lon="9.9406752"><ele>800.0000000000001</ele><time>2026-05-01T07:22:40.954Z</time></trkpt><trkpt lat="45.7308569" lon="9.9408039"><ele>800.0</ele><time>2026-05-01T07:22:43.957Z</time></trkpt><trkpt lat="45.7308393" lon="9.9409274"><ele>800.0</ele><time>2026-05-01T07:22:46.946Z</time></trkpt><trkpt lat="45.7308429" lon="9.9410482"><ele>800.0</ele><time>2026-05-01T07:22:49.961Z</time></trkpt><trkpt lat="45.7308986" lon="9.9411481"><ele>800.0000000000001</ele><time>2026-05-01T07:22:52.962Z</time></trkpt><trkpt lat="45.7309814" lon="9.9411876"><ele>800.0</ele><time>2026-05-01T07:22:55.962Z</time></trkpt><trkpt lat="45.7310678" lon="9.9411546"><ele>803.3333333333334</ele><time>2026-05-01T07:22:58.967Z</time></trkpt><trkpt lat="45.7311145" lon="9.9410873"><ele>806.6666666666667</ele><time>2026-05-01T07:23:00.961Z</time></trkpt><trkpt lat="45.7311633" lon="9.9409832"><ele>810.0</ele><time>2026-05-01T07:23:03.971Z</time></trkpt><trkpt lat="45.7312094" lon="9.940887"><ele>813.3333333333333</ele><time>2026-05-01T07:23:06.974Z</time></trkpt><trkpt lat="45.7312563" lon="9.9407882"><ele>816.6666666666666</ele><time>2026-05-01T07:23:09.972Z</time></trkpt><trkpt lat="45.731307" lon="9.9406978"><ele>820.0</ele><time>2026-05-01T07:23:12.969Z</time></trkpt><trkpt lat="45.731358" lon="9.9406125"><ele>819.9999999999999</ele><time>2026-05-01T07:23:15.97Z</time></trkpt><trkpt lat="45.7314226" lon="9.9405336"><ele>820.0</ele><time>2026-05-01T07:23:18.975Z</time></trkpt><trkpt lat="45.7314843" lon="9.9404521"><ele>820.0</ele><time>2026-05-01T07:23:21.963Z</time></trkpt><trkpt lat="45.7315433" lon="9.940385"><ele>820.0</ele><time>2026-05-01T07:23:24.97Z</time></trkpt><trkpt lat="45.7316178" lon="9.9403089"><ele>819.9999999999999</ele><time>2026-05-01T07:23:27.966Z</time></trkpt><trkpt lat="45.7316935" lon="9.9402902"><ele>820.0</ele><time>2026-05-01T07:23:30.974Z</time></trkpt><trkpt lat="45.7317713" lon="9.9402923"><ele>819.9999999999999</ele><time>2026-05-01T07:23:33.963Z</time></trkpt><trkpt lat="45.7318568" lon="9.9402951"><ele>820.0</ele><time>2026-05-01T07:23:36.967Z</time></trkpt><trkpt lat="45.7319424" lon="9.9403493"><ele>820.0</ele><time>2026-05-01T07:23:39.969Z</time></trkpt><trkpt lat="45.7319943" lon="9.9404019"><ele>820.0</ele><time>2026-05-01T07:23:41.971Z</time></trkpt><trkpt lat="45.7320683" lon="9.9404705"><ele>819.9999999999999</ele><time>2026-05-01T07:23:44.965Z</time></trkpt><trkpt lat="45.7321314" lon="9.9405472"><ele>820.0</ele><time>2026-05-01T07:23:47.968Z</time></trkpt><trkpt lat="45.7322019" lon="9.9406133"><ele>823.1666666666666</ele><time>2026-05-01T07:23:50.963Z</time></trkpt><trkpt lat="45.7322681" lon="9.9407015"><ele>826.3333333333333</ele><time>2026-05-01T07:23:53.961Z</time></trkpt><trkpt lat="45.7323202" lon="9.940776"><ele>829.5</ele><time>2026-05-01T07:23:56.971Z</time></trkpt><trkpt lat="45.732377" lon="9.940863"><ele>832.6666666666667</ele><time>2026-05-01T07:23:59.975Z</time></trkpt><trkpt lat="45.7324366" lon="9.9409549"><ele>835.8333333333334</ele><time>2026-05-01T07:24:02.966Z</time></trkpt><trkpt lat="45.7324811" lon="9.9410249"><ele>839.0</ele><time>2026-05-01T07:24:05.97Z</time></trkpt><trkpt lat="45.7325167" lon="9.9411241"><ele>839.0000000000001</ele><time>2026-05-01T07:24:08.959Z</time></trkpt><trkpt lat="45.7325572" lon="9.941206"><ele>839.0</ele><time>2026-05-01T07:24:11.966Z</time></trkpt><trkpt lat="45.732637" lon="9.9412248"><ele>839.0</ele><time>2026-05-01T07:24:15.964Z</time></trkpt><trkpt lat="45.7326901" lon="9.9411222"><ele>839.0</ele><time>2026-05-01T07:24:17.969Z</time></trkpt><trkpt lat="45.7327126" lon="9.9410085"><ele>839.0000000000001</ele><time>2026-05-01T07:24:19.958Z</time></trkpt><trkpt lat="45.732714" lon="9.940914"><ele>839.0</ele><time>2026-05-01T07:24:21.965Z</time></trkpt><trkpt lat="45.7327113" lon="9.9408195"><ele>839.0000000000001</ele><time>2026-05-01T07:24:23.957Z</time></trkpt><trkpt lat="45.7327023" lon="9.9406855"><ele>839.0</ele><time>2026-05-01T07:24:26.959Z</time></trkpt><trkpt lat="45.7327017" lon="9.9405611"><ele>839.0</ele><time>2026-05-01T07:24:29.961Z</time></trkpt><trkpt lat="45.7326803" lon="9.9404673"><ele>839.0</ele><time>2026-05-01T07:24:31.964Z</time></trkpt><trkpt lat="45.7326699" lon="9.9403712"><ele>839.0000000000001</ele><time>2026-05-01T07:24:33.965Z</time></trkpt><trkpt lat="45.7326685" lon="9.940251"><ele>839.0</ele><time>2026-05-01T07:24:36.966Z</time></trkpt><trkpt lat="45.7326743" lon="9.940126"><ele>839.3333333333334</ele><time>2026-05-01T07:24:39.968Z</time></trkpt><trkpt lat="45.732691" lon="9.9400151"><ele>839.6666666666667</ele><time>2026-05-01T07:24:42.971Z</time></trkpt><trkpt lat="45.7327295" lon="9.9399096"><ele>840.0</ele><time>2026-05-01T07:24:45.955Z</time></trkpt><trkpt lat="45.7327772" lon="9.9398112"><ele>840.3333333333333</ele><time>2026-05-01T07:24:48.975Z</time></trkpt><trkpt lat="45.7328254" lon="9.9397217"><ele>840.6666666666666</ele><time>2026-05-01T07:24:51.972Z</time></trkpt><trkpt lat="45.7328885" lon="9.9396463"><ele>841.0</ele><time>2026-05-01T07:24:54.97Z</time></trkpt><trkpt lat="45.7329681" lon="9.9396883"><ele>840.9999999999999</ele><time>2026-05-01T07:24:57.967Z</time></trkpt><trkpt lat="45.7329626" lon="9.9397815"><ele>841.0</ele><time>2026-05-01T07:25:00.971Z</time></trkpt><trkpt lat="45.7329323" lon="9.939883"><ele>841.0</ele><time>2026-05-01T07:25:03.967Z</time></trkpt><trkpt lat="45.7329101" lon="9.9400048"><ele>841.0</ele><time>2026-05-01T07:25:06.965Z</time></trkpt><trkpt lat="45.7329026" lon="9.9401159"><ele>840.9999999999999</ele><time>2026-05-01T07:25:09.969Z</time></trkpt><trkpt lat="45.7329147" lon="9.9402413"><ele>841.0</ele><time>2026-05-01T07:25:12.974Z</time></trkpt><trkpt lat="45.7329308" lon="9.9403479"><ele>843.8333333333333</ele><time>2026-05-01T07:25:15.954Z</time></trkpt><trkpt lat="45.7329405" lon="9.9404639"><ele>846.6666666666666</ele><time>2026-05-01T07:25:18.955Z</time></trkpt><trkpt lat="45.732955" lon="9.9405761"><ele>849.5</ele><time>2026-05-01T07:25:21.974Z</time></trkpt><trkpt lat="45.7329813" lon="9.9407072"><ele>852.3333333333333</ele><time>2026-05-01T07:25:24.969Z</time></trkpt><trkpt lat="45.7330015" lon="9.9407989"><ele>855.1666666666666</ele><time>2026-05-01T07:25:26.957Z</time></trkpt><trkpt lat="45.7330121" lon="9.9408899"><ele>858.0</ele><time>2026-05-01T07:25:28.983Z</time></trkpt><trkpt lat="45.7330283" lon="9.9410171"><ele>858.0</ele><time>2026-05-01T07:25:31.975Z</time></trkpt><trkpt lat="45.7330674" lon="9.9411279"><ele>858.0</ele><time>2026-05-01T07:25:34.967Z</time></trkpt><trkpt lat="45.733127" lon="9.941176"><ele>858.0</ele><time>2026-05-01T07:25:37.97Z</time></trkpt><trkpt lat="45.7331951" lon="9.9411382"><ele>858.0</ele><time>2026-05-01T07:25:40.969Z</time></trkpt><trkpt lat="45.7332527" lon="9.941068"><ele>858.0</ele><time>2026-05-01T07:25:43.967Z</time></trkpt><trkpt lat="45.7332709" lon="9.9409766"><ele>858.0</ele><time>2026-05-01T07:25:45.966Z</time></trkpt><trkpt lat="45.7332796" lon="9.9408746"><ele>858.0</ele><time>2026-05-01T07:25:47.973Z</time></trkpt><trkpt lat="45.7333001" lon="9.9407481"><ele>858.0</ele><time>2026-05-01T07:25:50.966Z</time></trkpt><trkpt lat="45.733354" lon="9.9406493"><ele>858.0</ele><time>2026-05-01T07:25:53.97Z</time></trkpt><trkpt lat="45.7334286" lon="9.9406404"><ele>858.0</ele><time>2026-05-01T07:25:56.965Z</time></trkpt><trkpt lat="45.7334648" lon="9.9407165"><ele>858.0</ele><time>2026-05-01T07:25:59.969Z</time></trkpt><trkpt lat="45.733444" lon="9.9408224"><ele>858.0</ele><time>2026-05-01T07:26:02.976Z</time></trkpt><trkpt lat="45.7334115" lon="9.9409381"><ele>858.0</ele><time>2026-05-01T07:26:06.047Z</time></trkpt><trkpt lat="45.7333886" lon="9.9410491"><ele>860.3333333333334</ele><time>2026-05-01T07:26:08.959Z</time></trkpt><trkpt lat="45.7333745" lon="9.9411529"><ele>862.6666666666667</ele><time>2026-05-01T07:26:11.962Z</time></trkpt><trkpt lat="45.7333557" lon="9.9412713"><ele>865.0</ele><time>2026-05-01T07:26:15.032Z</time></trkpt><trkpt lat="45.7333325" lon="9.9413894"><ele>867.3333333333334</ele><time>2026-05-01T07:26:17.965Z</time></trkpt><trkpt lat="45.733315" lon="9.9414805"><ele>869.6666666666667</ele><time>2026-05-01T07:26:19.961Z</time></trkpt><trkpt lat="45.7333072" lon="9.9415962"><ele>872.0</ele><time>2026-05-01T07:26:22.967Z</time></trkpt><trkpt lat="45.7332926" lon="9.9417009"><ele>873.3333333333334</ele><time>2026-05-01T07:26:25.961Z</time></trkpt><trkpt lat="45.7332739" lon="9.9418139"><ele>874.6666666666667</ele><time>2026-05-01T07:26:28.964Z</time></trkpt><trkpt lat="45.7332582" lon="9.9419313"><ele>876.0</ele><time>2026-05-01T07:26:31.964Z</time></trkpt><trkpt lat="45.7332459" lon="9.9420474"><ele>877.3333333333333</ele><time>2026-05-01T07:26:34.969Z</time></trkpt><trkpt lat="45.7332649" lon="9.942165"><ele>878.6666666666666</ele><time>2026-05-01T07:26:37.972Z</time></trkpt><trkpt lat="45.733317" lon="9.9422221"><ele>880.0</ele><time>2026-05-01T07:26:40.958Z</time></trkpt><trkpt lat="45.7333852" lon="9.9421985"><ele>879.9999999999999</ele><time>2026-05-01T07:26:42.966Z</time></trkpt><trkpt lat="45.7334389" lon="9.9421318"><ele>880.0</ele><time>2026-05-01T07:26:44.962Z</time></trkpt><trkpt lat="45.7334877" lon="9.9420165"><ele>880.0</ele><time>2026-05-01T07:26:47.969Z</time></trkpt><trkpt lat="45.7335175" lon="9.9418902"><ele>880.0</ele><time>2026-05-01T07:26:50.97Z</time></trkpt><trkpt lat="45.7335468" lon="9.9418053"><ele>879.9999999999999</ele><time>2026-05-01T07:26:52.964Z</time></trkpt><trkpt lat="45.7335695" lon="9.9417152"><ele>880.0</ele><time>2026-05-01T07:26:54.947Z</time></trkpt><trkpt lat="45.7335871" lon="9.9416015"><ele>882.1666666666666</ele><time>2026-05-01T07:26:56.957Z</time></trkpt><trkpt lat="45.7336392" lon="9.9415333"><ele>884.3333333333333</ele><time>2026-05-01T07:26:58.958Z</time></trkpt><trkpt lat="45.7337024" lon="9.9414516"><ele>886.5</ele><time>2026-05-01T07:27:01.963Z</time></trkpt><trkpt lat="45.7337786" lon="9.9413997"><ele>888.6666666666667</ele><time>2026-05-01T07:27:04.967Z</time></trkpt><trkpt lat="45.7338389" lon="9.9413074"><ele>890.8333333333334</ele><time>2026-05-01T07:27:07.958Z</time></trkpt><trkpt lat="45.733907" lon="9.9412533"><ele>893.0</ele><time>2026-05-01T07:27:10.966Z</time></trkpt><trkpt lat="45.7339577" lon="9.9413385"><ele>893.0000000000001</ele><time>2026-05-01T07:27:13.965Z</time></trkpt><trkpt lat="45.733952" lon="9.9414337"><ele>893.0</ele><time>2026-05-01T07:27:15.969Z</time></trkpt><trkpt lat="45.7338835" lon="9.9415298"><ele>893.0</ele><time>2026-05-01T07:27:18.967Z</time></trkpt><trkpt lat="45.7338193" lon="9.9416284"><ele>893.0</ele><time>2026-05-01T07:27:21.976Z</time></trkpt><trkpt lat="45.7337732" lon="9.9417368"><ele>893.0000000000001</ele><time>2026-05-01T07:27:24.957Z</time></trkpt><trkpt lat="45.7337355" lon="9.9418406"><ele>893.0</ele><time>2026-05-01T07:27:27.969Z</time></trkpt><trkpt lat="45.7337006" lon="9.9419419"><ele>892.1666666666667</ele><time>2026-05-01T07:27:31.03Z</time></trkpt><trkpt lat="45.7336634" lon="9.9420608"><ele>891.3333333333334</ele><time>2026-05-01T07:27:33.954Z</time></trkpt><trkpt lat="45.7336449" lon="9.9421475"><ele>890.5</ele><time>2026-05-01T07:27:35.967Z</time></trkpt><trkpt lat="45.7336193" lon="9.9422685"><ele>889.6666666666667</ele><time>2026-05-01T07:27:38.963Z</time></trkpt><trkpt lat="45.7336025" lon="9.9423566"><ele>888.8333333333334</ele><time>2026-05-01T07:27:40.961Z</time></trkpt><trkpt lat="45.7335761" lon="9.9424691"><ele>888.0</ele><time>2026-05-01T07:27:43.967Z</time></trkpt><trkpt lat="45.7335534" lon="9.9425563"><ele>888.0</ele><time>2026-05-01T07:27:45.971Z</time></trkpt><trkpt lat="45.7335338" lon="9.9426461"><ele>888.0</ele><time>2026-05-01T07:27:47.963Z</time></trkpt><trkpt lat="45.7335196" lon="9.9427794"><ele>888.0</ele><time>2026-05-01T07:27:50.97Z</time></trkpt><trkpt lat="45.7335144" lon="9.9429033"><ele>888.0</ele><time>2026-05-01T07:27:53.965Z</time></trkpt><trkpt lat="45.7335185" lon="9.9429966"><ele>888.0</ele><time>2026-05-01T07:27:55.967Z</time></trkpt><trkpt lat="45.7335457" lon="9.9431227"><ele>888.0</ele><time>2026-05-01T07:27:58.954Z</time></trkpt><trkpt lat="45.7335691" lon="9.9432159"><ele>892.1666666666666</ele><time>2026-05-01T07:28:00.963Z</time></trkpt><trkpt lat="45.7336034" lon="9.9433395"><ele>896.3333333333333</ele><time>2026-05-01T07:28:04.042Z</time></trkpt><trkpt lat="45.7336303" lon="9.9434258"><ele>900.5</ele><time>2026-05-01T07:28:06.03Z</time></trkpt><trkpt lat="45.7336633" lon="9.9435036"><ele>904.6666666666666</ele><time>2026-05-01T07:28:07.968Z</time></trkpt><trkpt lat="45.7336967" lon="9.9435832"><ele>908.8333333333333</ele><time>2026-05-01T07:28:09.97Z</time></trkpt><trkpt lat="45.7337313" lon="9.9437061"><ele>913.0</ele><time>2026-05-01T07:28:12.984Z</time></trkpt><trkpt lat="45.7337439" lon="9.9438375"><ele>914.1666666666666</ele><time>2026-05-01T07:28:15.95Z</time></trkpt><trkpt lat="45.7336925" lon="9.9439265"><ele>915.3333333333333</ele><time>2026-05-01T07:28:18.942Z</time></trkpt><trkpt lat="45.7336003" lon="9.9439341"><ele>916.5</ele><time>2026-05-01T07:28:21.948Z</time></trkpt><trkpt lat="45.7335367" lon="9.9439422"><ele>917.6666666666667</ele><time>2026-05-01T07:28:23.947Z</time></trkpt><trkpt lat="45.7334537" lon="9.94398"><ele>918.8333333333334</ele><time>2026-05-01T07:28:26.952Z</time></trkpt><trkpt lat="45.7333904" lon="9.9440567"><ele>920.0</ele><time>2026-05-01T07:28:30.037Z</time></trkpt><trkpt lat="45.7333421" lon="9.9441694"><ele>918.1666666666667</ele><time>2026-05-01T07:28:32.954Z</time></trkpt><trkpt lat="45.7333182" lon="9.9442879"><ele>916.3333333333334</ele><time>2026-05-01T07:28:35.951Z</time></trkpt><trkpt lat="45.7332865" lon="9.9444312"><ele>914.5</ele><time>2026-05-01T07:28:38.961Z</time></trkpt><trkpt lat="45.7332713" lon="9.9445265"><ele>912.6666666666667</ele><time>2026-05-01T07:28:40.955Z</time></trkpt><trkpt lat="45.7332513" lon="9.9446239"><ele>910.8333333333334</ele><time>2026-05-01T07:28:42.953Z</time></trkpt><trkpt lat="45.7332382" lon="9.9447368"><ele>909.0</ele><time>2026-05-01T07:28:44.954Z</time></trkpt><trkpt lat="45.7332377" lon="9.9448527"><ele>909.0</ele><time>2026-05-01T07:28:47.03Z</time></trkpt><trkpt lat="45.7332495" lon="9.9449601"><ele>909.0</ele><time>2026-05-01T07:28:48.968Z</time></trkpt><trkpt lat="45.7332635" lon="9.9450628"><ele>909.0</ele><time>2026-05-01T07:28:50.965Z</time></trkpt><trkpt lat="45.7332876" lon="9.9451552"><ele>909.0</ele><time>2026-05-01T07:28:52.966Z</time></trkpt><trkpt lat="45.7333068" lon="9.9452536"><ele>909.0</ele><time>2026-05-01T07:28:54.976Z</time></trkpt><trkpt lat="45.733291" lon="9.9453436"><ele>909.0</ele><time>2026-05-01T07:28:56.964Z</time></trkpt><trkpt lat="45.7332384" lon="9.9454066"><ele>909.0</ele><time>2026-05-01T07:28:58.963Z</time></trkpt><trkpt lat="45.7331573" lon="9.9453978"><ele>911.6666666666666</ele><time>2026-05-01T07:29:01.97Z</time></trkpt><trkpt lat="45.7330753" lon="9.9453673"><ele>914.3333333333333</ele><time>2026-05-01T07:29:04.953Z</time></trkpt><trkpt lat="45.7330009" lon="9.9453384"><ele>917.0</ele><time>2026-05-01T07:29:06.965Z</time></trkpt><trkpt lat="45.732925" lon="9.9452908"><ele>919.6666666666666</ele><time>2026-05-01T07:29:10.032Z</time></trkpt><trkpt lat="45.7328678" lon="9.9452502"><ele>922.3333333333333</ele><time>2026-05-01T07:29:12.035Z</time></trkpt><trkpt lat="45.7328088" lon="9.9452165"><ele>925.0</ele><time>2026-05-01T07:29:13.97Z</time></trkpt><trkpt lat="45.7327269" lon="9.9451628"><ele>921.9999999999999</ele><time>2026-05-01T07:29:16.964Z</time></trkpt><trkpt lat="45.732664" lon="9.9451509"><ele>919.0</ele><time>2026-05-01T07:29:18.967Z</time></trkpt><trkpt lat="45.7325818" lon="9.9451725"><ele>916.0</ele><time>2026-05-01T07:29:22.041Z</time></trkpt><trkpt lat="45.7325079" lon="9.9452109"><ele>913.0</ele><time>2026-05-01T07:29:26.958Z</time></trkpt><trkpt lat="45.7324486" lon="9.9452878"><ele>909.9999999999999</ele><time>2026-05-01T07:29:29.961Z</time></trkpt><trkpt lat="45.7324231" lon="9.9453838"><ele>907.0</ele><time>2026-05-01T07:29:32.033Z</time></trkpt><trkpt lat="45.7323999" lon="9.9454916"><ele>907.0</ele><time>2026-05-01T07:29:33.971Z</time></trkpt><trkpt lat="45.732379" lon="9.9456407"><ele>907.0</ele><time>2026-05-01T07:29:35.967Z</time></trkpt><trkpt lat="45.7323595" lon="9.9457848"><ele>907.0</ele><time>2026-05-01T07:29:37.968Z</time></trkpt><trkpt lat="45.7323311" lon="9.9459627"><ele>907.0</ele><time>2026-05-01T07:29:40.008Z</time></trkpt><trkpt lat="45.7323139" lon="9.9460618"><ele>907.0</ele><time>2026-05-01T07:29:40.975Z</time></trkpt><trkpt lat="45.7322941" lon="9.9461519"><ele>908.1666666666666</ele><time>2026-05-01T07:29:41.965Z</time></trkpt><trkpt lat="45.7322879" lon="9.9462426"><ele>909.3333333333333</ele><time>2026-05-01T07:29:42.961Z</time></trkpt><trkpt lat="45.7322926" lon="9.9464198"><ele>910.5</ele><time>2026-05-01T07:29:44.966Z</time></trkpt><trkpt lat="45.7322802" lon="9.9465545"><ele>911.6666666666667</ele><time>2026-05-01T07:29:46.965Z</time></trkpt><trkpt lat="45.7322158" lon="9.9465889"><ele>912.8333333333334</ele><time>2026-05-01T07:29:48.968Z</time></trkpt><trkpt lat="45.7321541" lon="9.9466335"><ele>914.0</ele><time>2026-05-01T07:29:50.97Z</time></trkpt><trkpt lat="45.7320826" lon="9.9466115"><ele>914.0</ele><time>2026-05-01T07:29:52.973Z</time></trkpt><trkpt lat="45.7320194" lon="9.9465388"><ele>914.0000000000001</ele><time>2026-05-01T07:29:54.967Z</time></trkpt><trkpt lat="45.7319374" lon="9.9464597"><ele>914.0000000000001</ele><time>2026-05-01T07:29:56.986Z</time></trkpt><trkpt lat="45.7318432" lon="9.9463992"><ele>914.0</ele><time>2026-05-01T07:29:58.967Z</time></trkpt><trkpt lat="45.7317535" lon="9.9463696"><ele>914.0</ele><time>2026-05-01T07:30:00.971Z</time></trkpt><trkpt lat="45.7316661" lon="9.9463461"><ele>911.6</ele><time>2026-05-01T07:30:02.962Z</time></trkpt><trkpt lat="45.7315666" lon="9.9463355"><ele>909.2</ele><time>2026-05-01T07:30:04.967Z</time></trkpt><trkpt lat="45.7314639" lon="9.946302"><ele>906.8000000000001</ele><time>2026-05-01T07:30:06.97Z</time></trkpt><trkpt lat="45.7313801" lon="9.9462485"><ele>904.4000000000001</ele><time>2026-05-01T07:30:08.963Z</time></trkpt><trkpt lat="45.7312838" lon="9.9461854"><ele>902.0</ele><time>2026-05-01T07:30:10.97Z</time></trkpt><trkpt lat="45.7311843" lon="9.9461324"><ele>902.0</ele><time>2026-05-01T07:30:12.963Z</time></trkpt><trkpt lat="45.7310777" lon="9.9461015"><ele>902.0</ele><time>2026-05-01T07:30:14.968Z</time></trkpt><trkpt lat="45.7309418" lon="9.9460953"><ele>902.0</ele><time>2026-05-01T07:30:16.974Z</time></trkpt><trkpt lat="45.7308782" lon="9.9461125"><ele>902.0</ele><time>2026-05-01T07:30:17.965Z</time></trkpt><trkpt lat="45.7308126" lon="9.9461513"><ele>902.0</ele><time>2026-05-01T07:30:18.966Z</time></trkpt><trkpt lat="45.7307544" lon="9.9462075"><ele>902.3333333333334</ele><time>2026-05-01T07:30:19.966Z</time></trkpt><trkpt lat="45.7306925" lon="9.9462808"><ele>902.6666666666667</ele><time>2026-05-01T07:30:20.965Z</time></trkpt><trkpt lat="45.7306324" lon="9.9463777"><ele>903.0</ele><time>2026-05-01T07:30:21.966Z</time></trkpt><trkpt lat="45.7305741" lon="9.9464719"><ele>903.3333333333333</ele><time>2026-05-01T07:30:22.966Z</time></trkpt><trkpt lat="45.730516" lon="9.9465814"><ele>903.6666666666666</ele><time>2026-05-01T07:30:23.968Z</time></trkpt><trkpt lat="45.7304607" lon="9.9466867"><ele>904.0</ele><time>2026-05-01T07:30:24.967Z</time></trkpt><trkpt lat="45.7304058" lon="9.9467901"><ele>903.9999999999999</ele><time>2026-05-01T07:30:25.973Z</time></trkpt><trkpt lat="45.7303529" lon="9.9468858"><ele>904.0</ele><time>2026-05-01T07:30:26.969Z</time></trkpt><trkpt lat="45.7303014" lon="9.9469814"><ele>904.0</ele><time>2026-05-01T07:30:27.971Z</time></trkpt><trkpt lat="45.7302613" lon="9.947067"><ele>904.0</ele><time>2026-05-01T07:30:28.962Z</time></trkpt><trkpt lat="45.7302008" lon="9.94716"><ele>903.9999999999999</ele><time>2026-05-01T07:30:30.969Z</time></trkpt><trkpt lat="45.7301348" lon="9.947107"><ele>904.0</ele><time>2026-05-01T07:30:33.972Z</time></trkpt><trkpt lat="45.7301555" lon="9.9469795"><ele>900.8333333333333</ele><time>2026-05-01T07:30:35.955Z</time></trkpt><trkpt lat="45.7301542" lon="9.9468425"><ele>897.6666666666666</ele><time>2026-05-01T07:30:37.979Z</time></trkpt><trkpt lat="45.730119" lon="9.9467359"><ele>894.5</ele><time>2026-05-01T07:30:39.956Z</time></trkpt><trkpt lat="45.7300697" lon="9.9466621"><ele>891.3333333333333</ele><time>2026-05-01T07:30:41.965Z</time></trkpt><trkpt lat="45.7299843" lon="9.9466047"><ele>888.1666666666666</ele><time>2026-05-01T07:30:44.949Z</time></trkpt><trkpt lat="45.7299049" lon="9.9465847"><ele>885.0</ele><time>2026-05-01T07:30:46.971Z</time></trkpt><trkpt lat="45.7298383" lon="9.9465571"><ele>883.3333333333334</ele><time>2026-05-01T07:30:47.963Z</time></trkpt><trkpt lat="45.7297699" lon="9.9465132"><ele>881.6666666666667</ele><time>2026-05-01T07:30:48.965Z</time></trkpt><trkpt lat="45.7297091" lon="9.9464628"><ele>880.0</ele><time>2026-05-01T07:30:49.968Z</time></trkpt><trkpt lat="45.7296336" lon="9.9463901"><ele>878.3333333333334</ele><time>2026-05-01T07:30:51.964Z</time></trkpt><trkpt lat="45.7295663" lon="9.9463038"><ele>876.6666666666667</ele><time>2026-05-01T07:30:54.971Z</time></trkpt><trkpt lat="45.7295058" lon="9.9462448"><ele>875.0</ele><time>2026-05-01T07:30:56.962Z</time></trkpt><trkpt lat="45.7294373" lon="9.946199"><ele>876.6666666666667</ele><time>2026-05-01T07:30:58.971Z</time></trkpt><trkpt lat="45.729377" lon="9.9461539"><ele>878.3333333333334</ele><time>2026-05-01T07:31:00.967Z</time></trkpt><trkpt lat="45.7292961" lon="9.9460975"><ele>880.0</ele><time>2026-05-01T07:31:03.964Z</time></trkpt><trkpt lat="45.7292107" lon="9.9460772"><ele>881.6666666666667</ele><time>2026-05-01T07:31:06.964Z</time></trkpt><trkpt lat="45.7291186" lon="9.9460759"><ele>883.3333333333334</ele><time>2026-05-01T07:31:09.963Z</time></trkpt><trkpt lat="45.7290223" lon="9.9460857"><ele>885.0</ele><time>2026-05-01T07:31:12.971Z</time></trkpt><trkpt lat="45.7289549" lon="9.9460801"><ele>885.0</ele><time>2026-05-01T07:31:14.966Z</time></trkpt><trkpt lat="45.7288589" lon="9.9460743"><ele>885.0</ele><time>2026-05-01T07:31:17.969Z</time></trkpt><trkpt lat="45.7287837" lon="9.9460678"><ele>885.0</ele><time>2026-05-01T07:31:19.961Z</time></trkpt><trkpt lat="45.7287146" lon="9.9460489"><ele>885.0</ele><time>2026-05-01T07:31:21.966Z</time></trkpt><trkpt lat="45.7286508" lon="9.9460096"><ele>885.0</ele><time>2026-05-01T07:31:23.965Z</time></trkpt><trkpt lat="45.728572" lon="9.9459588"><ele>885.0</ele><time>2026-05-01T07:31:25.973Z</time></trkpt><trkpt lat="45.7285264" lon="9.9458883"><ele>885.8333333333334</ele><time>2026-05-01T07:31:27.974Z</time></trkpt><trkpt lat="45.7284829" lon="9.9458093"><ele>886.6666666666667</ele><time>2026-05-01T07:31:29.973Z</time></trkpt><trkpt lat="45.7284503" lon="9.9457085"><ele>887.5</ele><time>2026-05-01T07:31:31.97Z</time></trkpt><trkpt lat="45.7284176" lon="9.9456121"><ele>888.3333333333334</ele><time>2026-05-01T07:31:33.968Z</time></trkpt><trkpt lat="45.7283793" lon="9.9455362"><ele>889.1666666666667</ele><time>2026-05-01T07:31:35.975Z</time></trkpt><trkpt lat="45.728338" lon="9.9454474"><ele>890.0</ele><time>2026-05-01T07:31:37.966Z</time></trkpt><trkpt lat="45.7282846" lon="9.945339"><ele>890.0000000000001</ele><time>2026-05-01T07:31:39.968Z</time></trkpt><trkpt lat="45.7282258" lon="9.9452331"><ele>890.0</ele><time>2026-05-01T07:31:41.966Z</time></trkpt><trkpt lat="45.7281567" lon="9.9451332"><ele>890.0</ele><time>2026-05-01T07:31:43.969Z</time></trkpt><trkpt lat="45.7281049" lon="9.9450558"><ele>890.0</ele><time>2026-05-01T07:31:45.974Z</time></trkpt><trkpt lat="45.7280516" lon="9.9449927"><ele>890.0000000000001</ele><time>2026-05-01T07:31:47.963Z</time></trkpt><trkpt lat="45.7279944" lon="9.9449246"><ele>890.0</ele><time>2026-05-01T07:31:50.969Z</time></trkpt><trkpt lat="45.7279446" lon="9.9448344"><ele>888.2857142857143</ele><time>2026-05-01T07:31:53.964Z</time></trkpt><trkpt lat="45.727892" lon="9.944744"><ele>886.5714285714286</ele><time>2026-05-01T07:31:56.97Z</time></trkpt><trkpt lat="45.7278366" lon="9.9446473"><ele>884.8571428571429</ele><time>2026-05-01T07:31:59.968Z</time></trkpt><trkpt lat="45.7278061" lon="9.9445612"><ele>883.1428571428571</ele><time>2026-05-01T07:32:01.971Z</time></trkpt><trkpt lat="45.727778" lon="9.9444661"><ele>881.4285714285713</ele><time>2026-05-01T07:32:03.97Z</time></trkpt><trkpt lat="45.727744" lon="9.9443837"><ele>879.7142857142857</ele><time>2026-05-01T07:32:05.976Z</time></trkpt><trkpt lat="45.727696" lon="9.944321"><ele>878.0</ele><time>2026-05-01T07:32:07.963Z</time></trkpt><trkpt lat="45.727644" lon="9.9442594"><ele>879.8571428571429</ele><time>2026-05-01T07:32:09.971Z</time></trkpt><trkpt lat="45.7275911" lon="9.9441961"><ele>881.7142857142857</ele><time>2026-05-01T07:32:11.962Z</time></trkpt><trkpt lat="45.727537" lon="9.9441383"><ele>883.5714285714287</ele><time>2026-05-01T07:32:13.968Z</time></trkpt><trkpt lat="45.7274777" lon="9.9440923"><ele>885.4285714285714</ele><time>2026-05-01T07:32:15.968Z</time></trkpt><trkpt lat="45.7274173" lon="9.9440555"><ele>887.2857142857143</ele><time>2026-05-01T07:32:17.96Z</time></trkpt><trkpt lat="45.7273372" lon="9.944019"><ele>889.1428571428572</ele><time>2026-05-01T07:32:20.963Z</time></trkpt><trkpt lat="45.7272549" lon="9.9439821"><ele>891.0</ele><time>2026-05-01T07:32:23.969Z</time></trkpt><trkpt lat="45.7271932" lon="9.9439613"><ele>891.0</ele><time>2026-05-01T07:32:25.965Z</time></trkpt><trkpt lat="45.7271096" lon="9.9439412"><ele>891.0</ele><time>2026-05-01T07:32:28.97Z</time></trkpt><trkpt lat="45.7270382" lon="9.9438948"><ele>891.0</ele><time>2026-05-01T07:32:32.961Z</time></trkpt><trkpt lat="45.7270018" lon="9.9438076"><ele>891.0</ele><time>2026-05-01T07:32:35.965Z</time></trkpt><trkpt lat="45.7269797" lon="9.9436885"><ele>891.0</ele><time>2026-05-01T07:32:38.97Z</time></trkpt><trkpt lat="45.7269587" lon="9.943603"><ele>891.0</ele><time>2026-05-01T07:32:40.959Z</time></trkpt><trkpt lat="45.7269351" lon="9.9434939"><ele>891.0</ele><time>2026-05-01T07:32:43.965Z</time></trkpt><trkpt lat="45.7269185" lon="9.9433999"><ele>891.0</ele><time>2026-05-01T07:32:46.965Z</time></trkpt><trkpt lat="45.7269032" lon="9.9433036"><ele>891.0</ele><time>2026-05-01T07:32:49.967Z</time></trkpt><trkpt lat="45.7268558" lon="9.9431509"><ele>891.0</ele><time>2026-05-01T07:32:54.973Z</time></trkpt><trkpt lat="45.7268283" lon="9.9430619"><ele>891.0</ele><time>2026-05-01T07:32:56.968Z</time></trkpt><trkpt lat="45.7267714" lon="9.9429813"><ele>891.0</ele><time>2026-05-01T07:32:58.969Z</time></trkpt><trkpt lat="45.7267123" lon="9.9429005"><ele>891.8571428571429</ele><time>2026-05-01T07:33:00.972Z</time></trkpt><trkpt lat="45.726655" lon="9.9428423"><ele>892.7142857142858</ele><time>2026-05-01T07:33:02.969Z</time></trkpt><trkpt lat="45.7265998" lon="9.9427793"><ele>893.5714285714287</ele><time>2026-05-01T07:33:04.962Z</time></trkpt><trkpt lat="45.7265503" lon="9.9427174"><ele>894.4285714285714</ele><time>2026-05-01T07:33:06.969Z</time></trkpt><trkpt lat="45.7265041" lon="9.9426555"><ele>895.2857142857142</ele><time>2026-05-01T07:33:08.963Z</time></trkpt><trkpt lat="45.7264572" lon="9.9425931"><ele>896.1428571428572</ele><time>2026-05-01T07:33:10.96Z</time></trkpt><trkpt lat="45.7264049" lon="9.9425206"><ele>897.0</ele><time>2026-05-01T07:33:12.964Z</time></trkpt><trkpt lat="45.7263551" lon="9.9424283"><ele>897.0</ele><time>2026-05-01T07:33:15.966Z</time></trkpt><trkpt lat="45.7263251" lon="9.94233"><ele>897.0</ele><time>2026-05-01T07:33:18.967Z</time></trkpt><trkpt lat="45.7262911" lon="9.9422421"><ele>897.0</ele><time>2026-05-01T07:33:21.973Z</time></trkpt><trkpt lat="45.7262636" lon="9.9421363"><ele>897.0</ele><time>2026-05-01T07:33:24.966Z</time></trkpt><trkpt lat="45.7262346" lon="9.9420293"><ele>897.0</ele><time>2026-05-01T07:33:27.966Z</time></trkpt><trkpt lat="45.7262224" lon="9.9419328"><ele>897.0</ele><time>2026-05-01T07:33:30.966Z</time></trkpt><trkpt lat="45.7261959" lon="9.9418333"><ele>897.0</ele><time>2026-05-01T07:33:33.968Z</time></trkpt><trkpt lat="45.7261607" lon="9.9417167"><ele>895.6666666666666</ele><time>2026-05-01T07:33:37.032Z</time></trkpt><trkpt lat="45.7261478" lon="9.9416272"><ele>894.3333333333333</ele><time>2026-05-01T07:33:38.989Z</time></trkpt><trkpt lat="45.7261279" lon="9.9415383"><ele>893.0</ele><time>2026-05-01T07:33:40.967Z</time></trkpt><trkpt lat="45.7261033" lon="9.9414195"><ele>891.6666666666666</ele><time>2026-05-01T07:33:43.965Z</time></trkpt><trkpt lat="45.7261217" lon="9.9413065"><ele>890.3333333333333</ele><time>2026-05-01T07:33:46.964Z</time></trkpt><trkpt lat="45.7261095" lon="9.9411782"><ele>889.0</ele><time>2026-05-01T07:33:50.032Z</time></trkpt><trkpt lat="45.7260993" lon="9.9410769"><ele>888.9999999999999</ele><time>2026-05-01T07:33:52.954Z</time></trkpt><trkpt lat="45.7260881" lon="9.9409657"><ele>889.0</ele><time>2026-05-01T07:33:55.966Z</time></trkpt><trkpt lat="45.726065" lon="9.9408444"><ele>889.0</ele><time>2026-05-01T07:33:58.96Z</time></trkpt><trkpt lat="45.7260283" lon="9.9407158"><ele>889.0</ele><time>2026-05-01T07:34:01.966Z</time></trkpt><trkpt lat="45.7259931" lon="9.9406292"><ele>888.9999999999999</ele><time>2026-05-01T07:34:03.959Z</time></trkpt><trkpt lat="45.7259499" lon="9.9405248"><ele>889.0</ele><time>2026-05-01T07:34:06.965Z</time></trkpt><trkpt lat="45.7259141" lon="9.9404493"><ele>894.6666666666666</ele><time>2026-05-01T07:34:08.959Z</time></trkpt><trkpt lat="45.7258736" lon="9.9403783"><ele>900.3333333333333</ele><time>2026-05-01T07:34:10.954Z</time></trkpt><trkpt lat="45.7258127" lon="9.9402705"><ele>906.0</ele><time>2026-05-01T07:34:13.964Z</time></trkpt><trkpt lat="45.72576" lon="9.9401736"><ele>911.6666666666667</ele><time>2026-05-01T07:34:16.961Z</time></trkpt><trkpt lat="45.7257047" lon="9.9400804"><ele>917.3333333333334</ele><time>2026-05-01T07:34:19.978Z</time></trkpt><trkpt lat="45.7256474" lon="9.9399867"><ele>923.0</ele><time>2026-05-01T07:34:22.958Z</time></trkpt><trkpt lat="45.7255968" lon="9.9398872"><ele>923.0000000000001</ele><time>2026-05-01T07:34:25.966Z</time></trkpt><trkpt lat="45.7255628" lon="9.9398046"><ele>923.0</ele><time>2026-05-01T07:34:27.959Z</time></trkpt><trkpt lat="45.725565" lon="9.939681"><ele>923.0</ele><time>2026-05-01T07:34:30.973Z</time></trkpt><trkpt lat="45.7255336" lon="9.9395417"><ele>923.0</ele><time>2026-05-01T07:34:33.963Z</time></trkpt><trkpt lat="45.7254928" lon="9.9394501"><ele>923.0000000000001</ele><time>2026-05-01T07:34:35.963Z</time></trkpt><trkpt lat="45.7254507" lon="9.9393646"><ele>923.0</ele><time>2026-05-01T07:34:37.959Z</time></trkpt><trkpt lat="45.7254155" lon="9.9392886"><ele>920.1666666666667</ele><time>2026-05-01T07:34:39.955Z</time></trkpt><trkpt lat="45.7253744" lon="9.9392164"><ele>917.3333333333334</ele><time>2026-05-01T07:34:41.959Z</time></trkpt><trkpt lat="45.7253231" lon="9.9391358"><ele>914.5</ele><time>2026-05-01T07:34:43.96Z</time></trkpt><trkpt lat="45.7252701" lon="9.9390482"><ele>911.6666666666667</ele><time>2026-05-01T07:34:46.961Z</time></trkpt><trkpt lat="45.7252198" lon="9.9389506"><ele>908.8333333333334</ele><time>2026-05-01T07:34:49.956Z</time></trkpt><trkpt lat="45.7251759" lon="9.9388502"><ele>906.0</ele><time>2026-05-01T07:34:53.963Z</time></trkpt><trkpt lat="45.7251253" lon="9.9387512"><ele>908.6666666666666</ele><time>2026-05-01T07:34:56.968Z</time></trkpt><trkpt lat="45.7250775" lon="9.9386904"><ele>911.3333333333333</ele><time>2026-05-01T07:34:59.031Z</time></trkpt><trkpt lat="45.7249973" lon="9.9386123"><ele>914.0</ele><time>2026-05-01T07:35:01.977Z</time></trkpt><trkpt lat="45.7249425" lon="9.9385424"><ele>916.6666666666666</ele><time>2026-05-01T07:35:03.969Z</time></trkpt><trkpt lat="45.7249034" lon="9.9384699"><ele>919.3333333333333</ele><time>2026-05-01T07:35:06.035Z</time></trkpt><trkpt lat="45.7248345" lon="9.9383902"><ele>922.0</ele><time>2026-05-01T07:35:08.973Z</time></trkpt><trkpt lat="45.7247683" lon="9.9383069"><ele>922.0</ele><time>2026-05-01T07:35:11.968Z</time></trkpt><trkpt lat="45.724705" lon="9.9382507"><ele>922.0000000000001</ele><time>2026-05-01T07:35:14.966Z</time></trkpt><trkpt lat="45.7246454" lon="9.938194"><ele>922.0</ele><time>2026-05-01T07:35:18.958Z</time></trkpt><trkpt lat="45.7245991" lon="9.9381268"><ele>922.0</ele><time>2026-05-01T07:36:40.963Z</time></trkpt><trkpt lat="45.7245293" lon="9.9380933"><ele>922.0000000000001</ele><time>2026-05-01T07:36:46.955Z</time></trkpt><trkpt lat="45.7244743" lon="9.9380384"><ele>922.0</ele><time>2026-05-01T07:36:50.964Z</time></trkpt><trkpt lat="45.724412" lon="9.9379685"><ele>922.0</ele><time>2026-05-01T07:36:54.961Z</time></trkpt><trkpt lat="45.7243455" lon="9.9378993"><ele>927.1666666666666</ele><time>2026-05-01T07:36:57.965Z</time></trkpt><trkpt lat="45.7242783" lon="9.9378349"><ele>932.3333333333333</ele><time>2026-05-01T07:37:00.963Z</time></trkpt><trkpt lat="45.7242158" lon="9.937806"><ele>937.5</ele><time>2026-05-01T07:37:05.961Z</time></trkpt><trkpt lat="45.7241331" lon="9.9377349"><ele>942.6666666666667</ele><time>2026-05-01T07:37:09.956Z</time></trkpt><trkpt lat="45.7240613" lon="9.9376844"><ele>947.8333333333334</ele><time>2026-05-01T07:37:11.962Z</time></trkpt><trkpt lat="45.7239684" lon="9.9376362"><ele>953.0</ele><time>2026-05-01T07:37:13.946Z</time></trkpt><trkpt lat="45.7238517" lon="9.9375876"><ele>949.0</ele><time>2026-05-01T07:37:15.952Z</time></trkpt><trkpt lat="45.7237434" lon="9.9375273"><ele>945.0</ele><time>2026-05-01T07:37:17.948Z</time></trkpt><trkpt lat="45.7236526" lon="9.9374386"><ele>941.0</ele><time>2026-05-01T07:37:18.951Z</time></trkpt><trkpt lat="45.723584" lon="9.9373487"><ele>937.0</ele><time>2026-05-01T07:37:19.959Z</time></trkpt><trkpt lat="45.7235053" lon="9.9372846"><ele>933.0</ele><time>2026-05-01T07:37:21.962Z</time></trkpt><trkpt lat="45.723434" lon="9.9372956"><ele>933.0</ele><time>2026-05-01T07:37:23.961Z</time></trkpt><trkpt lat="45.7233584" lon="9.9373128"><ele>933.0</ele><time>2026-05-01T07:37:25.948Z</time></trkpt><trkpt lat="45.7232949" lon="9.93734"><ele>933.0</ele><time>2026-05-01T07:37:27.963Z</time></trkpt><trkpt lat="45.7232377" lon="9.9373991"><ele>933.0</ele><time>2026-05-01T07:37:30.959Z</time></trkpt><trkpt lat="45.7231668" lon="9.9373883"><ele>933.0</ele><time>2026-05-01T07:37:33.963Z</time></trkpt><trkpt lat="45.7230783" lon="9.9373256"><ele>933.0</ele><time>2026-05-01T07:37:36.959Z</time></trkpt><trkpt lat="45.7229998" lon="9.9372906"><ele>933.0</ele><time>2026-05-01T07:37:38.96Z</time></trkpt><trkpt lat="45.7229466" lon="9.9371945"><ele>933.0</ele><time>2026-05-01T07:37:40.947Z</time></trkpt><trkpt lat="45.7228948" lon="9.9371209"><ele>933.0</ele><time>2026-05-01T07:37:42.966Z</time></trkpt><trkpt lat="45.7228407" lon="9.9370225"><ele>933.0</ele><time>2026-05-01T07:37:44.951Z</time></trkpt><trkpt lat="45.7227895" lon="9.9369438"><ele>933.0</ele><time>2026-05-01T07:37:46.956Z</time></trkpt><trkpt lat="45.7227622" lon="9.9368071"><ele>933.0</ele><time>2026-05-01T07:37:49.968Z</time></trkpt><trkpt lat="45.7227286" lon="9.9366973"><ele>933.7142857142857</ele><time>2026-05-01T07:37:51.977Z</time></trkpt><trkpt lat="45.7227221" lon="9.9366052"><ele>934.4285714285713</ele><time>2026-05-01T07:37:53.964Z</time></trkpt><trkpt lat="45.7227175" lon="9.9364923"><ele>935.1428571428571</ele><time>2026-05-01T07:37:55.964Z</time></trkpt><trkpt lat="45.722713" lon="9.9363924"><ele>935.8571428571429</ele><time>2026-05-01T07:37:57.964Z</time></trkpt><trkpt lat="45.7227001" lon="9.9362845"><ele>936.5714285714286</ele><time>2026-05-01T07:37:59.961Z</time></trkpt><trkpt lat="45.7226879" lon="9.9361677"><ele>937.2857142857142</ele><time>2026-05-01T07:38:01.959Z</time></trkpt><trkpt lat="45.72269" lon="9.9360605"><ele>938.0</ele><time>2026-05-01T07:38:03.97Z</time></trkpt><trkpt lat="45.7226887" lon="9.935912"><ele>936.5999999999999</ele><time>2026-05-01T07:38:05.966Z</time></trkpt><trkpt lat="45.7226696" lon="9.9357985"><ele>935.1999999999999</ele><time>2026-05-01T07:38:07.969Z</time></trkpt><trkpt lat="45.7226358" lon="9.9356737"><ele>933.8</ele><time>2026-05-01T07:38:09.963Z</time></trkpt><trkpt lat="45.7226014" lon="9.9354841"><ele>932.4</ele><time>2026-05-01T07:38:11.975Z</time></trkpt><trkpt lat="45.7225767" lon="9.9353827"><ele>931.0</ele><time>2026-05-01T07:38:12.974Z</time></trkpt><trkpt lat="45.7225525" lon="9.9352919"><ele>930.9999999999999</ele><time>2026-05-01T07:38:13.967Z</time></trkpt><trkpt lat="45.7225368" lon="9.9352008"><ele>931.0</ele><time>2026-05-01T07:38:14.971Z</time></trkpt><trkpt lat="45.7225199" lon="9.9351029"><ele>931.0</ele><time>2026-05-01T07:38:15.965Z</time></trkpt><trkpt lat="45.7224988" lon="9.9350154"><ele>931.0</ele><time>2026-05-01T07:38:16.967Z</time></trkpt><trkpt lat="45.722473" lon="9.9349283"><ele>930.9999999999999</ele><time>2026-05-01T07:38:17.964Z</time></trkpt><trkpt lat="45.7224073" lon="9.9347863"><ele>931.0</ele><time>2026-05-01T07:38:19.967Z</time></trkpt><trkpt lat="45.7223727" lon="9.9347027"><ele>928.4</ele><time>2026-05-01T07:38:20.967Z</time></trkpt><trkpt lat="45.7222885" lon="9.9345789"><ele>925.8</ele><time>2026-05-01T07:38:22.954Z</time></trkpt><trkpt lat="45.7222406" lon="9.9345103"><ele>923.1999999999999</ele><time>2026-05-01T07:38:23.965Z</time></trkpt><trkpt lat="45.7221981" lon="9.9344268"><ele>920.5999999999999</ele><time>2026-05-01T07:38:24.962Z</time></trkpt><trkpt lat="45.7221564" lon="9.9343458"><ele>918.0</ele><time>2026-05-01T07:38:25.968Z</time></trkpt><trkpt lat="45.7220626" lon="9.9342123"><ele>919.5999999999999</ele><time>2026-05-01T07:38:27.96Z</time></trkpt><trkpt lat="45.7219766" lon="9.9340847"><ele>921.1999999999999</ele><time>2026-05-01T07:38:29.967Z</time></trkpt><trkpt lat="45.7219328" lon="9.9340136"><ele>922.8</ele><time>2026-05-01T07:38:30.964Z</time></trkpt><trkpt lat="45.7218583" lon="9.9339089"><ele>924.4</ele><time>2026-05-01T07:38:32.963Z</time></trkpt><trkpt lat="45.7217781" lon="9.9338404"><ele>926.0</ele><time>2026-05-01T07:38:34.963Z</time></trkpt><trkpt lat="45.7216884" lon="9.9337834"><ele>926.0</ele><time>2026-05-01T07:38:36.965Z</time></trkpt><trkpt lat="45.7215923" lon="9.933712"><ele>925.9999999999999</ele><time>2026-05-01T07:38:38.963Z</time></trkpt><trkpt lat="45.7214852" lon="9.933654"><ele>925.9999999999999</ele><time>2026-05-01T07:38:40.96Z</time></trkpt><trkpt lat="45.7213696" lon="9.9336161"><ele>926.0</ele><time>2026-05-01T07:38:42.964Z</time></trkpt><trkpt lat="45.7212876" lon="9.9335894"><ele>926.0</ele><time>2026-05-01T07:38:45.038Z</time></trkpt><trkpt lat="45.7212117" lon="9.9335386"><ele>926.0</ele><time>2026-05-01T07:38:46.956Z</time></trkpt><trkpt lat="45.7211646" lon="9.933447"><ele>925.9999999999999</ele><time>2026-05-01T07:38:48.957Z</time></trkpt><trkpt lat="45.72113" lon="9.9333692"><ele>925.9999999999999</ele><time>2026-05-01T07:38:49.955Z</time></trkpt><trkpt lat="45.7210743" lon="9.933222"><ele>926.0</ele><time>2026-05-01T07:38:51.952Z</time></trkpt><trkpt lat="45.7210327" lon="9.9331405"><ele>926.0</ele><time>2026-05-01T07:38:52.957Z</time></trkpt><trkpt lat="45.7209589" lon="9.9329996"><ele>924.1999999999999</ele><time>2026-05-01T07:38:54.95Z</time></trkpt><trkpt lat="45.7209212" lon="9.9329208"><ele>922.3999999999999</ele><time>2026-05-01T07:38:55.955Z</time></trkpt><trkpt lat="45.7208435" lon="9.9327819"><ele>920.6</ele><time>2026-05-01T07:38:57.955Z</time></trkpt><trkpt lat="45.7207416" lon="9.9326833"><ele>918.8</ele><time>2026-05-01T07:38:59.952Z</time></trkpt><trkpt lat="45.720654" lon="9.9325864"><ele>917.0</ele><time>2026-05-01T07:39:02.031Z</time></trkpt><trkpt lat="45.7205802" lon="9.9325143"><ele>916.0000000000001</ele><time>2026-05-01T07:39:03.957Z</time></trkpt><trkpt lat="45.720502" lon="9.9324472"><ele>915.0</ele><time>2026-05-01T07:39:07.029Z</time></trkpt><trkpt lat="45.7204265" lon="9.932418"><ele>914.0</ele><time>2026-05-01T07:39:08.973Z</time></trkpt><trkpt lat="45.7203413" lon="9.9323725"><ele>913.0</ele><time>2026-05-01T07:39:11.967Z</time></trkpt><trkpt lat="45.7202649" lon="9.9323017"><ele>912.0000000000001</ele><time>2026-05-01T07:39:14.987Z</time></trkpt><trkpt lat="45.7201862" lon="9.9322569"><ele>911.0</ele><time>2026-05-01T07:39:17.965Z</time></trkpt><trkpt lat="45.7201442" lon="9.9321844"><ele>911.0</ele><time>2026-05-01T07:39:28.955Z</time></trkpt><trkpt lat="45.7200755" lon="9.9321328"><ele>911.0</ele><time>2026-05-01T07:39:32.958Z</time></trkpt><trkpt lat="45.7200014" lon="9.9321213"><ele>911.0</ele><time>2026-05-01T07:39:36.955Z</time></trkpt><trkpt lat="45.7199476" lon="9.9320586"><ele>911.0</ele><time>2026-05-01T07:42:28.961Z</time></trkpt><trkpt lat="45.7199145" lon="9.931954"><ele>911.0</ele><time>2026-05-01T07:42:32.967Z</time></trkpt><trkpt lat="45.7198725" lon="9.9318771"><ele>911.0</ele><time>2026-05-01T07:42:51.033Z</time></trkpt><trkpt lat="45.7198998" lon="9.9317764"><ele>911.0</ele><time>2026-05-01T07:43:06.968Z</time></trkpt><trkpt lat="45.7198845" lon="9.931684"><ele>907.6666666666667</ele><time>2026-05-01T07:43:11.969Z</time></trkpt><trkpt lat="45.7198628" lon="9.9315164"><ele>904.3333333333334</ele><time>2026-05-01T07:43:42.977Z</time></trkpt><trkpt lat="45.7198372" lon="9.9314271"><ele>901.0</ele><time>2026-05-01T07:43:46.978Z</time></trkpt><trkpt lat="45.7198421" lon="9.9313217"><ele>897.6666666666667</ele><time>2026-05-01T07:43:50.975Z</time></trkpt><trkpt lat="45.7198279" lon="9.9311643"><ele>894.3333333333334</ele><time>2026-05-01T07:43:56.976Z</time></trkpt><trkpt lat="45.7198208" lon="9.9310597"><ele>891.0</ele><time>2026-05-01T07:43:59.964Z</time></trkpt><trkpt lat="45.7198122" lon="9.9309557"><ele>889.8333333333334</ele><time>2026-05-01T07:44:03.972Z</time></trkpt><trkpt lat="45.7197885" lon="9.9308673"><ele>888.6666666666667</ele><time>2026-05-01T07:44:06.965Z</time></trkpt><trkpt lat="45.7197627" lon="9.9307483"><ele>887.5</ele><time>2026-05-01T07:44:10.975Z</time></trkpt><trkpt lat="45.7197098" lon="9.9305708"><ele>886.3333333333334</ele><time>2026-05-01T07:44:23.973Z</time></trkpt><trkpt lat="45.7197036" lon="9.9304584"><ele>885.1666666666667</ele><time>2026-05-01T07:44:27.975Z</time></trkpt><trkpt lat="45.7196669" lon="9.9303682"><ele>884.0</ele><time>2026-05-01T07:44:42.974Z</time></trkpt><trkpt lat="45.7196275" lon="9.9302945"><ele>884.0000000000001</ele><time>2026-05-01T07:44:54.972Z</time></trkpt><trkpt lat="45.7195692" lon="9.9302096"><ele>884.0</ele><time>2026-05-01T07:45:14.976Z</time></trkpt><trkpt lat="45.7195172" lon="9.9301546"><ele>884.0</ele><time>2026-05-01T07:45:16.971Z</time></trkpt><trkpt lat="45.7194579" lon="9.9300882"><ele>884.0</ele><time>2026-05-01T07:45:18.976Z</time></trkpt><trkpt lat="45.7193828" lon="9.9299849"><ele>884.0000000000001</ele><time>2026-05-01T07:45:20.981Z</time></trkpt><trkpt lat="45.7193241" lon="9.9298927"><ele>884.0</ele><time>2026-05-01T07:45:22.974Z</time></trkpt><trkpt lat="45.7192653" lon="9.9297951"><ele>886.3333333333334</ele><time>2026-05-01T07:45:24.964Z</time></trkpt><trkpt lat="45.7192249" lon="9.92971"><ele>888.6666666666667</ele><time>2026-05-01T07:45:26.973Z</time></trkpt><trkpt lat="45.7191908" lon="9.9296003"><ele>891.0</ele><time>2026-05-01T07:45:29.969Z</time></trkpt><trkpt lat="45.7191455" lon="9.9295275"><ele>893.3333333333333</ele><time>2026-05-01T07:45:31.965Z</time></trkpt><trkpt lat="45.7190877" lon="9.9294545"><ele>895.6666666666666</ele><time>2026-05-01T07:45:33.967Z</time></trkpt><trkpt lat="45.7190262" lon="9.9293748"><ele>898.0</ele><time>2026-05-01T07:45:35.969Z</time></trkpt><trkpt lat="45.7189427" lon="9.9293153"><ele>897.9999999999999</ele><time>2026-05-01T07:45:37.978Z</time></trkpt><trkpt lat="45.7188774" lon="9.9292831"><ele>898.0</ele><time>2026-05-01T07:45:40.972Z</time></trkpt><trkpt lat="45.718799" lon="9.9292422"><ele>898.0</ele><time>2026-05-01T07:45:43.968Z</time></trkpt><trkpt lat="45.7187308" lon="9.9291964"><ele>898.0</ele><time>2026-05-01T07:45:47.974Z</time></trkpt><trkpt lat="45.7186453" lon="9.9291437"><ele>897.9999999999999</ele><time>2026-05-01T07:45:50.984Z</time></trkpt><trkpt lat="45.7185609" lon="9.9290789"><ele>898.0</ele><time>2026-05-01T07:45:52.97Z</time></trkpt><trkpt lat="45.718469" lon="9.9290326"><ele>896.3333333333333</ele><time>2026-05-01T07:45:54.972Z</time></trkpt><trkpt lat="45.7184029" lon="9.9290152"><ele>894.6666666666666</ele><time>2026-05-01T07:45:56.962Z</time></trkpt><trkpt lat="45.7183397" lon="9.9289967"><ele>893.0</ele><time>2026-05-01T07:45:58.971Z</time></trkpt><trkpt lat="45.7182562" lon="9.9289374"><ele>891.3333333333333</ele><time>2026-05-01T07:46:02.975Z</time></trkpt><trkpt lat="45.7181955" lon="9.9288802"><ele>889.6666666666666</ele><time>2026-05-01T07:46:08.969Z</time></trkpt><trkpt lat="45.7181192" lon="9.9288518"><ele>888.0</ele><time>2026-05-01T07:46:11.972Z</time></trkpt><trkpt lat="45.7180515" lon="9.9288013"><ele>888.0</ele><time>2026-05-01T07:46:14.974Z</time></trkpt><trkpt lat="45.7179834" lon="9.9287775"><ele>888.0</ele><time>2026-05-01T07:46:18.977Z</time></trkpt><trkpt lat="45.7179406" lon="9.9286967"><ele>888.0</ele><time>2026-05-01T07:46:22.974Z</time></trkpt><trkpt lat="45.7178827" lon="9.9286093"><ele>888.0</ele><time>2026-05-01T07:46:26.967Z</time></trkpt><trkpt lat="45.717839" lon="9.9285303"><ele>888.0</ele><time>2026-05-01T07:46:29.973Z</time></trkpt><trkpt lat="45.7177757" lon="9.9284498"><ele>888.0</ele><time>2026-05-01T07:46:32.972Z</time></trkpt><trkpt lat="45.7176964" lon="9.9284014"><ele>886.1666666666666</ele><time>2026-05-01T07:46:35.97Z</time></trkpt><trkpt lat="45.717622" lon="9.9283478"><ele>884.3333333333333</ele><time>2026-05-01T07:46:38.973Z</time></trkpt><trkpt lat="45.7175629" lon="9.9282865"><ele>882.5</ele><time>2026-05-01T07:46:41.976Z</time></trkpt><trkpt lat="45.7175387" lon="9.9281859"><ele>880.6666666666666</ele><time>2026-05-01T07:46:44.971Z</time></trkpt><trkpt lat="45.7175082" lon="9.9280946"><ele>878.8333333333333</ele><time>2026-05-01T07:46:47.975Z</time></trkpt><trkpt lat="45.7174611" lon="9.9279599"><ele>877.0</ele><time>2026-05-01T07:46:50.975Z</time></trkpt><trkpt lat="45.7174139" lon="9.9278538"><ele>877.0</ele><time>2026-05-01T07:46:52.974Z</time></trkpt><trkpt lat="45.7173671" lon="9.9277496"><ele>877.0</ele><time>2026-05-01T07:46:54.977Z</time></trkpt><trkpt lat="45.7173246" lon="9.9276291"><ele>877.0</ele><time>2026-05-01T07:46:56.975Z</time></trkpt><trkpt lat="45.7172651" lon="9.9275158"><ele>877.0</ele><time>2026-05-01T07:46:58.971Z</time></trkpt><trkpt lat="45.7172199" lon="9.9273727"><ele>877.0</ele><time>2026-05-01T07:47:00.973Z</time></trkpt><trkpt lat="45.717182" lon="9.9272382"><ele>874.2</ele><time>2026-05-01T07:47:02.976Z</time></trkpt><trkpt lat="45.7171345" lon="9.9271137"><ele>871.4000000000001</ele><time>2026-05-01T07:47:04.978Z</time></trkpt><trkpt lat="45.7170779" lon="9.926973"><ele>868.5999999999999</ele><time>2026-05-01T07:47:06.972Z</time></trkpt><trkpt lat="45.717024" lon="9.9268418"><ele>865.8</ele><time>2026-05-01T07:47:08.976Z</time></trkpt><trkpt lat="45.7169687" lon="9.9267233"><ele>863.0</ele><time>2026-05-01T07:47:10.975Z</time></trkpt><trkpt lat="45.7169085" lon="9.9266163"><ele>864.0000000000001</ele><time>2026-05-01T07:47:12.977Z</time></trkpt><trkpt lat="45.716847" lon="9.9265329"><ele>865.0</ele><time>2026-05-01T07:47:14.984Z</time></trkpt><trkpt lat="45.7167901" lon="9.9264412"><ele>866.0</ele><time>2026-05-01T07:47:17.985Z</time></trkpt><trkpt lat="45.7167164" lon="9.9263545"><ele>867.0</ele><time>2026-05-01T07:47:20.978Z</time></trkpt><trkpt lat="45.7166432" lon="9.9262791"><ele>868.0000000000001</ele><time>2026-05-01T07:47:22.979Z</time></trkpt><trkpt lat="45.7165685" lon="9.9262031"><ele>869.0</ele><time>2026-05-01T07:47:24.976Z</time></trkpt><trkpt lat="45.7164897" lon="9.9261259"><ele>869.0000000000001</ele><time>2026-05-01T07:47:26.971Z</time></trkpt><trkpt lat="45.7164358" lon="9.9260382"><ele>869.0</ele><time>2026-05-01T07:47:28.982Z</time></trkpt><trkpt lat="45.7163954" lon="9.9259636"><ele>869.0</ele><time>2026-05-01T07:47:30.973Z</time></trkpt><trkpt lat="45.716342" lon="9.9258776"><ele>869.0</ele><time>2026-05-01T07:47:32.976Z</time></trkpt><trkpt lat="45.7162477" lon="9.9257533"><ele>869.0000000000001</ele><time>2026-05-01T07:47:34.973Z</time></trkpt><trkpt lat="45.7161812" lon="9.9256887"><ele>869.0</ele><time>2026-05-01T07:47:35.976Z</time></trkpt><trkpt lat="45.7161162" lon="9.9256264"><ele>866.2</ele><time>2026-05-01T07:47:36.977Z</time></trkpt><trkpt lat="45.7160458" lon="9.9255866"><ele>863.4000000000001</ele><time>2026-05-01T07:47:37.968Z</time></trkpt><trkpt lat="45.7159502" lon="9.9255404"><ele>860.6</ele><time>2026-05-01T07:47:39.974Z</time></trkpt><trkpt lat="45.7158674" lon="9.9255409"><ele>857.8</ele><time>2026-05-01T07:47:41.982Z</time></trkpt><trkpt lat="45.715744" lon="9.9256223"><ele>855.0</ele><time>2026-05-01T07:47:43.971Z</time></trkpt><trkpt lat="45.7156814" lon="9.925661"><ele>855.0</ele><time>2026-05-01T07:47:44.976Z</time></trkpt><trkpt lat="45.7156274" lon="9.9257165"><ele>855.0</ele><time>2026-05-01T07:47:45.977Z</time></trkpt><trkpt lat="45.7155447" lon="9.9257617"><ele>855.0</ele><time>2026-05-01T07:47:46.979Z</time></trkpt><trkpt lat="45.715444" lon="9.9257927"><ele>855.0</ele><time>2026-05-01T07:47:47.975Z</time></trkpt><trkpt lat="45.7153438" lon="9.9258234"><ele>855.0</ele><time>2026-05-01T07:47:48.973Z</time></trkpt><trkpt lat="45.7152485" lon="9.9258476"><ele>855.4</ele><time>2026-05-01T07:47:49.976Z</time></trkpt><trkpt lat="45.7151439" lon="9.9258557"><ele>855.8</ele><time>2026-05-01T07:47:50.974Z</time></trkpt><trkpt lat="45.7150374" lon="9.9258715"><ele>856.2</ele><time>2026-05-01T07:47:51.963Z</time></trkpt><trkpt lat="45.7149151" lon="9.9259114"><ele>856.6</ele><time>2026-05-01T07:47:52.968Z</time></trkpt><trkpt lat="45.7148051" lon="9.92593"><ele>857.0</ele><time>2026-05-01T07:47:53.976Z</time></trkpt><trkpt lat="45.7146807" lon="9.9259662"><ele>857.0</ele><time>2026-05-01T07:47:54.977Z</time></trkpt><trkpt lat="45.714585" lon="9.9260411"><ele>857.0</ele><time>2026-05-01T07:47:55.976Z</time></trkpt><trkpt lat="45.7145007" lon="9.9261362"><ele>857.0</ele><time>2026-05-01T07:47:56.975Z</time></trkpt><trkpt lat="45.714419" lon="9.9262244"><ele>857.0</ele><time>2026-05-01T07:47:57.974Z</time></trkpt><trkpt lat="45.7143411" lon="9.9262917"><ele>857.0</ele><time>2026-05-01T07:47:58.974Z</time></trkpt><trkpt lat="45.7142719" lon="9.9263382"><ele>851.2</ele><time>2026-05-01T07:47:59.967Z</time></trkpt><trkpt lat="45.7141848" lon="9.9263835"><ele>845.4000000000001</ele><time>2026-05-01T07:48:00.973Z</time></trkpt><trkpt lat="45.7140981" lon="9.926425"><ele>839.5999999999999</ele><time>2026-05-01T07:48:01.963Z</time></trkpt><trkpt lat="45.7140027" lon="9.9264605"><ele>833.8</ele><time>2026-05-01T07:48:02.969Z</time></trkpt><trkpt lat="45.713907" lon="9.9265031"><ele>828.0</ele><time>2026-05-01T07:48:03.974Z</time></trkpt><trkpt lat="45.7137955" lon="9.9265547"><ele>828.0</ele><time>2026-05-01T07:48:04.972Z</time></trkpt><trkpt lat="45.7136635" lon="9.9265977"><ele>828.0</ele><time>2026-05-01T07:48:05.97Z</time></trkpt><trkpt lat="45.7135213" lon="9.9266276"><ele>828.0</ele><time>2026-05-01T07:48:06.97Z</time></trkpt><trkpt lat="45.7133873" lon="9.9266412"><ele>828.0</ele><time>2026-05-01T07:48:07.976Z</time></trkpt><trkpt lat="45.7132886" lon="9.9266523"><ele>827.0</ele><time>2026-05-01T07:48:08.968Z</time></trkpt><trkpt lat="45.7132135" lon="9.9266703"><ele>826.0</ele><time>2026-05-01T07:48:09.973Z</time></trkpt><trkpt lat="45.7131433" lon="9.9267055"><ele>825.0</ele><time>2026-05-01T07:48:10.967Z</time></trkpt><trkpt lat="45.7130704" lon="9.9267634"><ele>824.0</ele><time>2026-05-01T07:48:11.977Z</time></trkpt><trkpt lat="45.7129799" lon="9.9268587"><ele>823.0</ele><time>2026-05-01T07:48:12.97Z</time></trkpt><trkpt lat="45.7128822" lon="9.9269538"><ele>823.0</ele><time>2026-05-01T07:48:13.971Z</time></trkpt><trkpt lat="45.7127948" lon="9.9270551"><ele>823.0</ele><time>2026-05-01T07:48:14.97Z</time></trkpt><trkpt lat="45.7127217" lon="9.9271488"><ele>823.0</ele><time>2026-05-01T07:48:15.966Z</time></trkpt><trkpt lat="45.7126507" lon="9.9272348"><ele>823.0</ele><time>2026-05-01T07:48:16.971Z</time></trkpt><trkpt lat="45.7125819" lon="9.92731"><ele>823.0</ele><time>2026-05-01T07:48:17.972Z</time></trkpt><trkpt lat="45.7125106" lon="9.9273785"><ele>818.8</ele><time>2026-05-01T07:48:18.972Z</time></trkpt><trkpt lat="45.7124783" lon="9.9275101"><ele>814.5999999999999</ele><time>2026-05-01T07:48:19.973Z</time></trkpt><trkpt lat="45.7124457" lon="9.9276587"><ele>810.4000000000001</ele><time>2026-05-01T07:48:20.969Z</time></trkpt><trkpt lat="45.712422" lon="9.9278151"><ele>806.2</ele><time>2026-05-01T07:48:21.971Z</time></trkpt><trkpt lat="45.7123849" lon="9.9279607"><ele>802.0</ele><time>2026-05-01T07:48:22.97Z</time></trkpt><trkpt lat="45.7123501" lon="9.928102"><ele>802.0</ele><time>2026-05-01T07:48:23.971Z</time></trkpt><trkpt lat="45.712307" lon="9.9282375"><ele>802.0</ele><time>2026-05-01T07:48:24.966Z</time></trkpt><trkpt lat="45.7122536" lon="9.9283778"><ele>802.0</ele><time>2026-05-01T07:48:25.967Z</time></trkpt><trkpt lat="45.7121758" lon="9.9284928"><ele>802.0</ele><time>2026-05-01T07:48:26.969Z</time></trkpt><trkpt lat="45.7120903" lon="9.928564"><ele>802.0</ele><time>2026-05-01T07:48:27.968Z</time></trkpt><trkpt lat="45.7120078" lon="9.9286414"><ele>800.3333333333333</ele><time>2026-05-01T07:48:28.971Z</time></trkpt><trkpt lat="45.7119391" lon="9.9287186"><ele>798.6666666666666</ele><time>2026-05-01T07:48:29.97Z</time></trkpt><trkpt lat="45.7118913" lon="9.9288164"><ele>797.0</ele><time>2026-05-01T07:48:30.969Z</time></trkpt><trkpt lat="45.7118482" lon="9.9289314"><ele>795.3333333333333</ele><time>2026-05-01T07:48:31.969Z</time></trkpt><trkpt lat="45.7118006" lon="9.929024"><ele>793.6666666666666</ele><time>2026-05-01T07:48:32.971Z</time></trkpt><trkpt lat="45.7117449" lon="9.9290991"><ele>792.0</ele><time>2026-05-01T07:48:33.966Z</time></trkpt><trkpt lat="45.7116419" lon="9.9291645"><ele>796.5</ele><time>2026-05-01T07:48:35.979Z</time></trkpt><trkpt lat="45.7115601" lon="9.9292378"><ele>801.0</ele><time>2026-05-01T07:48:37.976Z</time></trkpt><trkpt lat="45.7114793" lon="9.9292987"><ele>805.5</ele><time>2026-05-01T07:48:39.976Z</time></trkpt><trkpt lat="45.7113901" lon="9.929334"><ele>810.0</ele><time>2026-05-01T07:48:42.959Z</time></trkpt><trkpt lat="45.711326" lon="9.9293066"><ele>814.5</ele><time>2026-05-01T07:48:43.971Z</time></trkpt><trkpt lat="45.7112425" lon="9.9292667"><ele>819.0</ele><time>2026-05-01T07:48:44.974Z</time></trkpt><trkpt lat="45.7111491" lon="9.9292439"><ele>814.6666666666666</ele><time>2026-05-01T07:48:45.961Z</time></trkpt><trkpt lat="45.7110666" lon="9.9292338"><ele>810.3333333333333</ele><time>2026-05-01T07:48:46.976Z</time></trkpt><trkpt lat="45.7109736" lon="9.9292525"><ele>806.0</ele><time>2026-05-01T07:48:47.973Z</time></trkpt><trkpt lat="45.7108772" lon="9.9292789"><ele>801.6666666666666</ele><time>2026-05-01T07:48:48.975Z</time></trkpt><trkpt lat="45.7108021" lon="9.9293192"><ele>797.3333333333333</ele><time>2026-05-01T07:48:49.971Z</time></trkpt><trkpt lat="45.7107184" lon="9.9293402"><ele>793.0</ele><time>2026-05-01T07:48:50.978Z</time></trkpt><trkpt lat="45.7106357" lon="9.9293237"><ele>793.0</ele><time>2026-05-01T07:48:51.971Z</time></trkpt><trkpt lat="45.7105362" lon="9.9292842"><ele>793.0</ele><time>2026-05-01T07:48:52.981Z</time></trkpt><trkpt lat="45.7104401" lon="9.9292461"><ele>793.0</ele><time>2026-05-01T07:48:53.973Z</time></trkpt><trkpt lat="45.7103394" lon="9.9292046"><ele>793.0</ele><time>2026-05-01T07:48:54.973Z</time></trkpt><trkpt lat="45.7102524" lon="9.9291483"><ele>793.0</ele><time>2026-05-01T07:48:55.971Z</time></trkpt><trkpt lat="45.7101503" lon="9.9290716"><ele>787.4</ele><time>2026-05-01T07:48:56.966Z</time></trkpt><trkpt lat="45.7100751" lon="9.9289624"><ele>781.8</ele><time>2026-05-01T07:48:57.981Z</time></trkpt><trkpt lat="45.7100294" lon="9.9288629"><ele>776.2</ele><time>2026-05-01T07:48:58.974Z</time></trkpt><trkpt lat="45.71003" lon="9.928743"><ele>770.6</ele><time>2026-05-01T07:48:59.967Z</time></trkpt><trkpt lat="45.7100523" lon="9.9285962"><ele>765.0</ele><time>2026-05-01T07:49:00.974Z</time></trkpt><trkpt lat="45.7100893" lon="9.9284428"><ele>761.6666666666666</ele><time>2026-05-01T07:49:01.967Z</time></trkpt><trkpt lat="45.7101357" lon="9.9283024"><ele>758.3333333333334</ele><time>2026-05-01T07:49:02.968Z</time></trkpt><trkpt lat="45.7101781" lon="9.9281686"><ele>755.0</ele><time>2026-05-01T07:49:03.969Z</time></trkpt><trkpt lat="45.7102171" lon="9.9280722"><ele>751.6666666666667</ele><time>2026-05-01T07:49:04.968Z</time></trkpt><trkpt lat="45.7102545" lon="9.9279979"><ele>748.3333333333334</ele><time>2026-05-01T07:49:05.971Z</time></trkpt><trkpt lat="45.7102929" lon="9.9278877"><ele>745.0</ele><time>2026-05-01T07:49:07.976Z</time></trkpt><trkpt lat="45.7102254" lon="9.927876"><ele>744.1666666666667</ele><time>2026-05-01T07:50:17.974Z</time></trkpt><trkpt lat="45.7101589" lon="9.9279048"><ele>743.3333333333334</ele><time>2026-05-01T07:50:19.972Z</time></trkpt><trkpt lat="45.710073" lon="9.9279826"><ele>742.5</ele><time>2026-05-01T07:50:21.973Z</time></trkpt><trkpt lat="45.7100216" lon="9.9280445"><ele>741.6666666666666</ele><time>2026-05-01T07:50:22.973Z</time></trkpt><trkpt lat="45.7099571" lon="9.9281099"><ele>740.8333333333333</ele><time>2026-05-01T07:50:23.975Z</time></trkpt><trkpt lat="45.7098812" lon="9.9281858"><ele>740.0</ele><time>2026-05-01T07:50:24.974Z</time></trkpt><trkpt lat="45.7098012" lon="9.9282848"><ele>740.0</ele><time>2026-05-01T07:50:25.977Z</time></trkpt><trkpt lat="45.7097143" lon="9.9283883"><ele>740.0</ele><time>2026-05-01T07:50:26.971Z</time></trkpt><trkpt lat="45.7096203" lon="9.928491"><ele>740.0</ele><time>2026-05-01T07:50:27.973Z</time></trkpt><trkpt lat="45.7095237" lon="9.9285719"><ele>740.0</ele><time>2026-05-01T07:50:28.973Z</time></trkpt><trkpt lat="45.7094245" lon="9.9286373"><ele>738.75</ele><time>2026-05-01T07:50:29.976Z</time></trkpt><trkpt lat="45.7093292" lon="9.9287027"><ele>737.5</ele><time>2026-05-01T07:50:30.974Z</time></trkpt><trkpt lat="45.709217" lon="9.9287706"><ele>736.25</ele><time>2026-05-01T07:50:31.965Z</time></trkpt><trkpt lat="45.7091109" lon="9.9288234"><ele>735.0</ele><time>2026-05-01T07:50:32.98Z</time></trkpt><trkpt lat="45.7090039" lon="9.9288778"><ele>735.0</ele><time>2026-05-01T07:50:33.967Z</time></trkpt><trkpt lat="45.7088961" lon="9.9289309"><ele>735.0</ele><time>2026-05-01T07:50:34.971Z</time></trkpt><trkpt lat="45.7087876" lon="9.9289917"><ele>735.0</ele><time>2026-05-01T07:50:35.977Z</time></trkpt><trkpt lat="45.708685" lon="9.9290783"><ele>735.0</ele><time>2026-05-01T07:50:36.985Z</time></trkpt><trkpt lat="45.7085877" lon="9.9291914"><ele>725.5</ele><time>2026-05-01T07:50:37.959Z</time></trkpt><trkpt lat="45.7084724" lon="9.9292933"><ele>716.0</ele><time>2026-05-01T07:50:38.966Z</time></trkpt><trkpt lat="45.708374" lon="9.9294028"><ele>706.5</ele><time>2026-05-01T07:50:39.967Z</time></trkpt><trkpt lat="45.7082855" lon="9.9294763"><ele>697.0</ele><time>2026-05-01T07:50:40.964Z</time></trkpt><trkpt lat="45.7081791" lon="9.9295314"><ele>697.0</ele><time>2026-05-01T07:50:41.974Z</time></trkpt><trkpt lat="45.7080746" lon="9.9295912"><ele>697.0</ele><time>2026-05-01T07:50:42.975Z</time></trkpt><trkpt lat="45.707931" lon="9.9296189"><ele>697.0</ele><time>2026-05-01T07:50:43.976Z</time></trkpt><trkpt lat="45.7078078" lon="9.9296565"><ele>697.0</ele><time>2026-05-01T07:50:44.967Z</time></trkpt><trkpt lat="45.7076869" lon="9.9296829"><ele>691.8</ele><time>2026-05-01T07:50:45.972Z</time></trkpt><trkpt lat="45.707579" lon="9.9297043"><ele>686.6</ele><time>2026-05-01T07:50:46.97Z</time></trkpt><trkpt lat="45.7074819" lon="9.9297222"><ele>681.4</ele><time>2026-05-01T07:50:47.972Z</time></trkpt><trkpt lat="45.7074005" lon="9.9297389"><ele>676.1999999999999</ele><time>2026-05-01T07:50:48.975Z</time></trkpt><trkpt lat="45.7073337" lon="9.9297417"><ele>671.0</ele><time>2026-05-01T07:50:49.97Z</time></trkpt><trkpt lat="45.7072285" lon="9.9296767"><ele>671.0</ele><time>2026-05-01T07:50:51.976Z</time></trkpt><trkpt lat="45.7071839" lon="9.9295801"><ele>671.0</ele><time>2026-05-01T07:50:53.973Z</time></trkpt><trkpt lat="45.7072387" lon="9.9295311"><ele>671.0</ele><time>2026-05-01T07:51:00.974Z</time></trkpt><trkpt lat="45.7071952" lon="9.9294428"><ele>671.0</ele><time>2026-05-01T07:51:33.971Z</time></trkpt><trkpt lat="45.70713" lon="9.9293884"><ele>671.0</ele><time>2026-05-01T07:51:37.974Z</time></trkpt><trkpt lat="45.7070625" lon="9.9293344"><ele>671.0</ele><time>2026-05-01T07:51:41.984Z</time></trkpt><trkpt lat="45.7070121" lon="9.9292557"><ele>671.0</ele><time>2026-05-01T07:51:45.973Z</time></trkpt><trkpt lat="45.7069754" lon="9.9291821"><ele>671.5</ele><time>2026-05-01T07:51:48.977Z</time></trkpt><trkpt lat="45.7069212" lon="9.9291011"><ele>672.0</ele><time>2026-05-01T07:51:51.977Z</time></trkpt><trkpt lat="45.706876" lon="9.9290183"><ele>672.5</ele><time>2026-05-01T07:51:54.971Z</time></trkpt><trkpt lat="45.7068378" lon="9.9289245"><ele>673.0</ele><time>2026-05-01T07:51:57.979Z</time></trkpt><trkpt lat="45.7067878" lon="9.9288272"><ele>673.5</ele><time>2026-05-01T07:52:00.99Z</time></trkpt><trkpt lat="45.706742" lon="9.9287251"><ele>674.0</ele><time>2026-05-01T07:52:03.977Z</time></trkpt><trkpt lat="45.7067056" lon="9.928651"><ele>674.6666666666666</ele><time>2026-05-01T07:52:05.974Z</time></trkpt><trkpt lat="45.7066562" lon="9.9285631"><ele>675.3333333333333</ele><time>2026-05-01T07:52:08.976Z</time></trkpt><trkpt lat="45.7066065" lon="9.9284711"><ele>676.0</ele><time>2026-05-01T07:52:11.975Z</time></trkpt><trkpt lat="45.706555" lon="9.9283838"><ele>676.6666666666666</ele><time>2026-05-01T07:52:14.976Z</time></trkpt><trkpt lat="45.7065108" lon="9.9282836"><ele>677.3333333333334</ele><time>2026-05-01T07:52:17.978Z</time></trkpt><trkpt lat="45.706471" lon="9.9281879"><ele>678.0</ele><time>2026-05-01T07:52:20.973Z</time></trkpt><trkpt lat="45.7064373" lon="9.9280784"><ele>679.1428571428571</ele><time>2026-05-01T07:52:23.971Z</time></trkpt><trkpt lat="45.7064035" lon="9.9279976"><ele>680.2857142857143</ele><time>2026-05-01T07:52:25.971Z</time></trkpt><trkpt lat="45.7063497" lon="9.9278951"><ele>681.4285714285714</ele><time>2026-05-01T07:52:28.977Z</time></trkpt><trkpt lat="45.7063035" lon="9.9278207"><ele>682.5714285714286</ele><time>2026-05-01T07:52:31.976Z</time></trkpt><trkpt lat="45.7062509" lon="9.9277667"><ele>683.7142857142858</ele><time>2026-05-01T07:52:34.977Z</time></trkpt><trkpt lat="45.7062126" lon="9.9276841"><ele>684.8571428571429</ele><time>2026-05-01T07:52:37.973Z</time></trkpt><trkpt lat="45.7061794" lon="9.9276013"><ele>686.0</ele><time>2026-05-01T07:52:40.974Z</time></trkpt><trkpt lat="45.7061226" lon="9.9275095"><ele>685.7142857142857</ele><time>2026-05-01T07:52:44.961Z</time></trkpt><trkpt lat="45.7060756" lon="9.9274256"><ele>685.4285714285714</ele><time>2026-05-01T07:52:46.975Z</time></trkpt><trkpt lat="45.7060266" lon="9.9273436"><ele>685.1428571428571</ele><time>2026-05-01T07:52:49.97Z</time></trkpt><trkpt lat="45.7059925" lon="9.9272532"><ele>684.8571428571429</ele><time>2026-05-01T07:52:52.973Z</time></trkpt><trkpt lat="45.7059826" lon="9.9271366"><ele>684.5714285714286</ele><time>2026-05-01T07:52:55.973Z</time></trkpt><trkpt lat="45.7059846" lon="9.9270393"><ele>684.2857142857142</ele><time>2026-05-01T07:52:57.98Z</time></trkpt><trkpt lat="45.705982" lon="9.9269427"><ele>684.0</ele><time>2026-05-01T07:52:59.979Z</time></trkpt><trkpt lat="45.7059581" lon="9.9268176"><ele>685.8333333333334</ele><time>2026-05-01T07:53:02.975Z</time></trkpt><trkpt lat="45.7059474" lon="9.9266953"><ele>687.6666666666666</ele><time>2026-05-01T07:53:05.971Z</time></trkpt><trkpt lat="45.7059069" lon="9.926572"><ele>689.5</ele><time>2026-05-01T07:53:08.974Z</time></trkpt><trkpt lat="45.7058857" lon="9.9264854"><ele>691.3333333333333</ele><time>2026-05-01T07:53:10.961Z</time></trkpt><trkpt lat="45.7058505" lon="9.9263761"><ele>693.1666666666666</ele><time>2026-05-01T07:53:14.972Z</time></trkpt><trkpt lat="45.7058264" lon="9.926292"><ele>695.0</ele><time>2026-05-01T07:53:17.99Z</time></trkpt><trkpt lat="45.705793" lon="9.9261861"><ele>695.0</ele><time>2026-05-01T07:53:21.975Z</time></trkpt><trkpt lat="45.7057692" lon="9.9260668"><ele>695.0</ele><time>2026-05-01T07:53:25.975Z</time></trkpt><trkpt lat="45.7057366" lon="9.9259683"><ele>695.0</ele><time>2026-05-01T07:53:28.972Z</time></trkpt><trkpt lat="45.7057064" lon="9.9258771"><ele>695.0</ele><time>2026-05-01T07:53:31.967Z</time></trkpt><trkpt lat="45.7056906" lon="9.925759"><ele>695.0</ele><time>2026-05-01T07:53:35.972Z</time></trkpt><trkpt lat="45.7056735" lon="9.9256722"><ele>695.0</ele><time>2026-05-01T07:53:38.976Z</time></trkpt><trkpt lat="45.7056656" lon="9.9255582"><ele>696.6666666666666</ele><time>2026-05-01T07:53:42.969Z</time></trkpt><trkpt lat="45.7056433" lon="9.9254389"><ele>698.3333333333333</ele><time>2026-05-01T07:53:45.97Z</time></trkpt><trkpt lat="45.7056187" lon="9.9253059"><ele>700.0</ele><time>2026-05-01T07:53:48.962Z</time></trkpt><trkpt lat="45.7056009" lon="9.9251968"><ele>701.6666666666666</ele><time>2026-05-01T07:53:50.975Z</time></trkpt><trkpt lat="45.7056034" lon="9.9250747"><ele>703.3333333333334</ele><time>2026-05-01T07:53:52.97Z</time></trkpt><trkpt lat="45.70561" lon="9.9249436"><ele>705.0</ele><time>2026-05-01T07:53:54.978Z</time></trkpt><trkpt lat="45.7055973" lon="9.9248396"><ele>705.5</ele><time>2026-05-01T07:53:56.978Z</time></trkpt><trkpt lat="45.7055877" lon="9.9247199"><ele>706.0</ele><time>2026-05-01T07:53:58.97Z</time></trkpt><trkpt lat="45.70559" lon="9.9246076"><ele>706.5</ele><time>2026-05-01T07:54:00.971Z</time></trkpt><trkpt lat="45.705602" lon="9.9244816"><ele>707.0</ele><time>2026-05-01T07:54:02.975Z</time></trkpt><trkpt lat="45.7056188" lon="9.924342"><ele>707.5</ele><time>2026-05-01T07:54:04.973Z</time></trkpt><trkpt lat="45.7056213" lon="9.9242275"><ele>708.0</ele><time>2026-05-01T07:54:06.972Z</time></trkpt><trkpt lat="45.7056206" lon="9.9241129"><ele>707.0</ele><time>2026-05-01T07:54:08.975Z</time></trkpt><trkpt lat="45.7056204" lon="9.9240033"><ele>706.0</ele><time>2026-05-01T07:54:10.977Z</time></trkpt><trkpt lat="45.7056112" lon="9.9238931"><ele>705.0</ele><time>2026-05-01T07:54:12.973Z</time></trkpt><trkpt lat="45.7056215" lon="9.9237688"><ele>704.0</ele><time>2026-05-01T07:54:14.976Z</time></trkpt><trkpt lat="45.7056441" lon="9.9236468"><ele>703.0</ele><time>2026-05-01T07:54:16.975Z</time></trkpt><trkpt lat="45.7056816" lon="9.923507"><ele>702.0</ele><time>2026-05-01T07:54:18.972Z</time></trkpt><trkpt lat="45.7056902" lon="9.9233481"><ele>700.0</ele><time>2026-05-01T07:54:20.982Z</time></trkpt><trkpt lat="45.7056952" lon="9.9232577"><ele>698.0</ele><time>2026-05-01T07:54:21.959Z</time></trkpt><trkpt lat="45.7056976" lon="9.9231669"><ele>696.0</ele><time>2026-05-01T07:54:22.973Z</time></trkpt><trkpt lat="45.7057076" lon="9.9230572"><ele>694.0</ele><time>2026-05-01T07:54:23.967Z</time></trkpt><trkpt lat="45.7057081" lon="9.9229393"><ele>692.0</ele><time>2026-05-01T07:54:24.961Z</time></trkpt><trkpt lat="45.7057102" lon="9.9228033"><ele>690.0</ele><time>2026-05-01T07:54:25.976Z</time></trkpt><trkpt lat="45.705707" lon="9.9226797"><ele>688.1666666666666</ele><time>2026-05-01T07:54:26.969Z</time></trkpt><trkpt lat="45.7057073" lon="9.9225577"><ele>686.3333333333334</ele><time>2026-05-01T07:54:27.972Z</time></trkpt><trkpt lat="45.7057005" lon="9.9224342"><ele>684.5</ele><time>2026-05-01T07:54:28.972Z</time></trkpt><trkpt lat="45.7056867" lon="9.9223045"><ele>682.6666666666667</ele><time>2026-05-01T07:54:29.979Z</time></trkpt><trkpt lat="45.7056645" lon="9.9221856"><ele>680.8333333333334</ele><time>2026-05-01T07:54:30.974Z</time></trkpt><trkpt lat="45.7056599" lon="9.922063"><ele>679.0</ele><time>2026-05-01T07:54:31.972Z</time></trkpt><trkpt lat="45.7056515" lon="9.9219416"><ele>679.0</ele><time>2026-05-01T07:54:32.974Z</time></trkpt><trkpt lat="45.7056389" lon="9.9218289"><ele>679.0</ele><time>2026-05-01T07:54:33.974Z</time></trkpt><trkpt lat="45.7056267" lon="9.9217211"><ele>679.0</ele><time>2026-05-01T07:54:34.972Z</time></trkpt><trkpt lat="45.7056176" lon="9.9216025"><ele>679.0</ele><time>2026-05-01T07:54:35.972Z</time></trkpt><trkpt lat="45.7056071" lon="9.9214962"><ele>679.0</ele><time>2026-05-01T07:54:36.971Z</time></trkpt><trkpt lat="45.7056023" lon="9.9213891"><ele>679.0</ele><time>2026-05-01T07:54:37.971Z</time></trkpt><trkpt lat="45.7055894" lon="9.9212806"><ele>678.8333333333334</ele><time>2026-05-01T07:54:38.97Z</time></trkpt><trkpt lat="45.7055808" lon="9.9211816"><ele>678.6666666666667</ele><time>2026-05-01T07:54:39.988Z</time></trkpt><trkpt lat="45.7055612" lon="9.9210721"><ele>678.5</ele><time>2026-05-01T07:54:40.974Z</time></trkpt><trkpt lat="45.7055357" lon="9.920966"><ele>678.3333333333334</ele><time>2026-05-01T07:54:41.974Z</time></trkpt><trkpt lat="45.7055111" lon="9.9208576"><ele>678.1666666666666</ele><time>2026-05-01T07:54:42.974Z</time></trkpt><trkpt lat="45.7054796" lon="9.9207402"><ele>678.0</ele><time>2026-05-01T07:54:43.973Z</time></trkpt><trkpt lat="45.7054457" lon="9.9206317"><ele>679.0</ele><time>2026-05-01T07:54:44.97Z</time></trkpt><trkpt lat="45.7054112" lon="9.9205375"><ele>680.0</ele><time>2026-05-01T07:54:45.972Z</time></trkpt><trkpt lat="45.7053773" lon="9.9204567"><ele>681.0</ele><time>2026-05-01T07:54:46.975Z</time></trkpt><trkpt lat="45.7053153" lon="9.9203418"><ele>682.0</ele><time>2026-05-01T07:54:48.969Z</time></trkpt><trkpt lat="45.7052273" lon="9.9202915"><ele>683.0</ele><time>2026-05-01T07:54:50.96Z</time></trkpt><trkpt lat="45.7051278" lon="9.9202432"><ele>684.0</ele><time>2026-05-01T07:54:52.968Z</time></trkpt><trkpt lat="45.7050261" lon="9.9201825"><ele>685.8333333333334</ele><time>2026-05-01T07:54:54.978Z</time></trkpt><trkpt lat="45.7049651" lon="9.9201582"><ele>687.6666666666666</ele><time>2026-05-01T07:54:55.978Z</time></trkpt><trkpt lat="45.7048413" lon="9.920125"><ele>689.5</ele><time>2026-05-01T07:54:57.975Z</time></trkpt><trkpt lat="45.7047707" lon="9.9201101"><ele>691.3333333333333</ele><time>2026-05-01T07:54:58.976Z</time></trkpt><trkpt lat="45.7047054" lon="9.9200927"><ele>693.1666666666666</ele><time>2026-05-01T07:54:59.968Z</time></trkpt><trkpt lat="45.7046347" lon="9.9200692"><ele>695.0</ele><time>2026-05-01T07:55:00.967Z</time></trkpt><trkpt lat="45.7045596" lon="9.9200304"><ele>695.0</ele><time>2026-05-01T07:55:01.977Z</time></trkpt><trkpt lat="45.7044933" lon="9.9200069"><ele>695.0</ele><time>2026-05-01T07:55:02.963Z</time></trkpt><trkpt lat="45.7043851" lon="9.9199824"><ele>695.0</ele><time>2026-05-01T07:55:04.972Z</time></trkpt><trkpt lat="45.7043108" lon="9.9199782"><ele>695.0</ele><time>2026-05-01T07:55:06.972Z</time></trkpt><trkpt lat="45.7042231" lon="9.9199594"><ele>695.0</ele><time>2026-05-01T07:55:09.97Z</time></trkpt><trkpt lat="45.7041579" lon="9.9199412"><ele>695.0</ele><time>2026-05-01T07:55:12.981Z</time></trkpt><trkpt lat="45.7041081" lon="9.919883"><ele>690.8333333333333</ele><time>2026-05-01T07:55:18.971Z</time></trkpt><trkpt lat="45.7040931" lon="9.9197893"><ele>686.6666666666666</ele><time>2026-05-01T07:55:21.968Z</time></trkpt><trkpt lat="45.7040986" lon="9.9196902"><ele>682.5</ele><time>2026-05-01T07:55:24.979Z</time></trkpt><trkpt lat="45.7041444" lon="9.9195926"><ele>678.3333333333334</ele><time>2026-05-01T07:55:27.976Z</time></trkpt><trkpt lat="45.7041945" lon="9.9195196"><ele>674.1666666666667</ele><time>2026-05-01T07:55:31.975Z</time></trkpt><trkpt lat="45.7042289" lon="9.9194329"><ele>670.0</ele><time>2026-05-01T07:55:34.97Z</time></trkpt><trkpt lat="45.7042361" lon="9.9193031"><ele>670.4</ele><time>2026-05-01T07:55:38.973Z</time></trkpt><trkpt lat="45.7042699" lon="9.9192031"><ele>670.8</ele><time>2026-05-01T07:55:40.975Z</time></trkpt><trkpt lat="45.7043142" lon="9.9191082"><ele>671.2</ele><time>2026-05-01T07:55:42.977Z</time></trkpt><trkpt lat="45.7043561" lon="9.9189858"><ele>671.6</ele><time>2026-05-01T07:55:44.972Z</time></trkpt><trkpt lat="45.7043983" lon="9.9188678"><ele>672.0</ele><time>2026-05-01T07:55:46.962Z</time></trkpt><trkpt lat="45.7044267" lon="9.9187085"><ele>670.2857142857143</ele><time>2026-05-01T07:55:48.97Z</time></trkpt><trkpt lat="45.7044465" lon="9.918608"><ele>668.5714285714286</ele><time>2026-05-01T07:55:50.978Z</time></trkpt><trkpt lat="45.7044532" lon="9.9185166"><ele>666.8571428571429</ele><time>2026-05-01T07:55:52.963Z</time></trkpt><trkpt lat="45.7044482" lon="9.9184141"><ele>665.1428571428571</ele><time>2026-05-01T07:55:55.98Z</time></trkpt><trkpt lat="45.7044235" lon="9.9183195"><ele>663.4285714285714</ele><time>2026-05-01T07:56:03.972Z</time></trkpt><trkpt lat="45.7043908" lon="9.9182251"><ele>661.7142857142858</ele><time>2026-05-01T07:56:07.963Z</time></trkpt><trkpt lat="45.7043831" lon="9.9181013"><ele>660.0</ele><time>2026-05-01T07:56:10.969Z</time></trkpt><trkpt lat="45.7043853" lon="9.9179747"><ele>660.0</ele><time>2026-05-01T07:56:13.972Z</time></trkpt><trkpt lat="45.7043566" lon="9.9178874"><ele>660.0</ele><time>2026-05-01T07:56:15.986Z</time></trkpt><trkpt lat="45.7043167" lon="9.9178045"><ele>660.0</ele><time>2026-05-01T07:56:18.974Z</time></trkpt><trkpt lat="45.7043216" lon="9.917662"><ele>660.0</ele><time>2026-05-01T07:56:21.971Z</time></trkpt><trkpt lat="45.7043172" lon="9.9175465"><ele>660.0</ele><time>2026-05-01T07:56:23.962Z</time></trkpt><trkpt lat="45.70434" lon="9.9174515"><ele>660.0</ele><time>2026-05-01T07:56:25.972Z</time></trkpt><trkpt lat="45.7043792" lon="9.9173361"><ele>658.6666666666666</ele><time>2026-05-01T07:56:27.972Z</time></trkpt><trkpt lat="45.704405" lon="9.9171944"><ele>657.3333333333334</ele><time>2026-05-01T07:56:30.009Z</time></trkpt><trkpt lat="45.7044229" lon="9.9170762"><ele>656.0</ele><time>2026-05-01T07:56:32.03Z</time></trkpt><trkpt lat="45.7044408" lon="9.9169688"><ele>654.6666666666667</ele><time>2026-05-01T07:56:33.98Z</time></trkpt><trkpt lat="45.7044577" lon="9.9168403"><ele>653.3333333333334</ele><time>2026-05-01T07:56:35.977Z</time></trkpt><trkpt lat="45.704476" lon="9.9167204"><ele>652.0</ele><time>2026-05-01T07:56:37.977Z</time></trkpt><trkpt lat="45.7045039" lon="9.9165959"><ele>656.6666666666667</ele><time>2026-05-01T07:56:39.966Z</time></trkpt><trkpt lat="45.7044986" lon="9.9164692"><ele>661.3333333333334</ele><time>2026-05-01T07:56:41.967Z</time></trkpt><trkpt lat="45.7044946" lon="9.9163025"><ele>666.0</ele><time>2026-05-01T07:56:43.962Z</time></trkpt><trkpt lat="45.7044954" lon="9.9161878"><ele>670.6666666666666</ele><time>2026-05-01T07:56:44.967Z</time></trkpt><trkpt lat="45.704508" lon="9.9160723"><ele>675.3333333333333</ele><time>2026-05-01T07:56:45.978Z</time></trkpt><trkpt lat="45.704514" lon="9.9159621"><ele>680.0</ele><time>2026-05-01T07:56:47.042Z</time></trkpt><trkpt lat="45.7045153" lon="9.9158597"><ele>680.0</ele><time>2026-05-01T07:56:47.973Z</time></trkpt><trkpt lat="45.7045159" lon="9.9157654"><ele>680.0</ele><time>2026-05-01T07:56:48.973Z</time></trkpt><trkpt lat="45.7044913" lon="9.9156657"><ele>680.0</ele><time>2026-05-01T07:56:50.004Z</time></trkpt><trkpt lat="45.7044229" lon="9.9155369"><ele>680.0</ele><time>2026-05-01T07:56:51.971Z</time></trkpt><trkpt lat="45.7043788" lon="9.915449"><ele>680.0</ele><time>2026-05-01T07:56:52.976Z</time></trkpt><trkpt lat="45.7043347" lon="9.9153771"><ele>680.0</ele><time>2026-05-01T07:56:53.973Z</time></trkpt><trkpt lat="45.7042354" lon="9.9153154"><ele>672.25</ele><time>2026-05-01T07:56:55.974Z</time></trkpt><trkpt lat="45.704107" lon="9.9152993"><ele>664.5</ele><time>2026-05-01T07:56:57.963Z</time></trkpt><trkpt lat="45.7039947" lon="9.9153035"><ele>656.75</ele><time>2026-05-01T07:56:59.973Z</time></trkpt><trkpt lat="45.7038847" lon="9.9152541"><ele>649.0</ele><time>2026-05-01T07:57:01.98Z</time></trkpt><trkpt lat="45.7037976" lon="9.9151401"><ele>652.2</ele><time>2026-05-01T07:57:04.035Z</time></trkpt><trkpt lat="45.7037716" lon="9.9149842"><ele>655.4000000000001</ele><time>2026-05-01T07:57:05.975Z</time></trkpt><trkpt lat="45.7037707" lon="9.9148258"><ele>658.6</ele><time>2026-05-01T07:57:07.967Z</time></trkpt><trkpt lat="45.7037498" lon="9.9146679"><ele>661.8</ele><time>2026-05-01T07:57:09.972Z</time></trkpt><trkpt lat="45.703732" lon="9.9145652"><ele>665.0</ele><time>2026-05-01T07:57:11.035Z</time></trkpt><trkpt lat="45.7037146" lon="9.9144592"><ele>665.0</ele><time>2026-05-01T07:57:12.054Z</time></trkpt><trkpt lat="45.7036813" lon="9.9143647"><ele>665.0</ele><time>2026-05-01T07:57:12.966Z</time></trkpt><trkpt lat="45.7036435" lon="9.9142817"><ele>665.0</ele><time>2026-05-01T07:57:13.971Z</time></trkpt><trkpt lat="45.7035932" lon="9.9142165"><ele>665.0</ele><time>2026-05-01T07:57:14.964Z</time></trkpt><trkpt lat="45.7034999" lon="9.9141414"><ele>665.0</ele><time>2026-05-01T07:57:17.027Z</time></trkpt><trkpt lat="45.7034038" lon="9.9140725"><ele>665.0</ele><time>2026-05-01T07:57:18.959Z</time></trkpt><trkpt lat="45.7032859" lon="9.9140002"><ele>662.0</ele><time>2026-05-01T07:57:21.055Z</time></trkpt><trkpt lat="45.7032273" lon="9.913967"><ele>659.0</ele><time>2026-05-01T07:57:22.031Z</time></trkpt><trkpt lat="45.7031667" lon="9.9139328"><ele>656.0</ele><time>2026-05-01T07:57:22.958Z</time></trkpt><trkpt lat="45.7030872" lon="9.9138525"><ele>653.0</ele><time>2026-05-01T07:57:24.955Z</time></trkpt><trkpt lat="45.7030396" lon="9.9137382"><ele>650.0</ele><time>2026-05-01T07:57:26.951Z</time></trkpt><trkpt lat="45.7030046" lon="9.9135668"><ele>647.0</ele><time>2026-05-01T07:57:29.03Z</time></trkpt><trkpt lat="45.7029877" lon="9.9134691"><ele>647.5</ele><time>2026-05-01T07:57:30.04Z</time></trkpt><trkpt lat="45.7029709" lon="9.9133694"><ele>648.0</ele><time>2026-05-01T07:57:31.03Z</time></trkpt><trkpt lat="45.7029598" lon="9.9132764"><ele>648.5</ele><time>2026-05-01T07:57:31.969Z</time></trkpt><trkpt lat="45.7029586" lon="9.9131807"><ele>649.0</ele><time>2026-05-01T07:57:32.946Z</time></trkpt><trkpt lat="45.7029828" lon="9.9130208"><ele>649.5</ele><time>2026-05-01T07:57:34.953Z</time></trkpt><trkpt lat="45.7030107" lon="9.912872"><ele>650.0</ele><time>2026-05-01T07:57:36.968Z</time></trkpt><trkpt lat="45.7030448" lon="9.9127196"><ele>650.0</ele><time>2026-05-01T07:57:38.952Z</time></trkpt><trkpt lat="45.7030906" lon="9.9125729"><ele>650.0</ele><time>2026-05-01T07:57:40.954Z</time></trkpt><trkpt lat="45.7031346" lon="9.9124205"><ele>650.0</ele><time>2026-05-01T07:57:42.957Z</time></trkpt><trkpt lat="45.7031682" lon="9.9122905"><ele>650.0</ele><time>2026-05-01T07:57:44.959Z</time></trkpt><trkpt lat="45.7032046" lon="9.9121646"><ele>650.0</ele><time>2026-05-01T07:57:46.953Z</time></trkpt><trkpt lat="45.7032073" lon="9.9120281"><ele>647.5</ele><time>2026-05-01T07:57:48.957Z</time></trkpt><trkpt lat="45.7031832" lon="9.9118765"><ele>645.0</ele><time>2026-05-01T07:57:50.956Z</time></trkpt><trkpt lat="45.7031733" lon="9.9117127"><ele>642.5</ele><time>2026-05-01T07:57:52.952Z</time></trkpt><trkpt lat="45.7031744" lon="9.9116052"><ele>640.0</ele><time>2026-05-01T07:57:53.954Z</time></trkpt><trkpt lat="45.7031653" lon="9.9115124"><ele>637.5</ele><time>2026-05-01T07:57:54.949Z</time></trkpt><trkpt lat="45.7031627" lon="9.9113954"><ele>635.0</ele><time>2026-05-01T07:57:55.951Z</time></trkpt><trkpt lat="45.7031644" lon="9.9112868"><ele>633.5</ele><time>2026-05-01T07:57:56.952Z</time></trkpt><trkpt lat="45.7031789" lon="9.9111888"><ele>632.0</ele><time>2026-05-01T07:57:57.953Z</time></trkpt><trkpt lat="45.7032175" lon="9.9110571"><ele>630.5</ele><time>2026-05-01T07:57:58.953Z</time></trkpt><trkpt lat="45.7032527" lon="9.9109495"><ele>629.0</ele><time>2026-05-01T07:57:59.939Z</time></trkpt><trkpt lat="45.7032877" lon="9.9108318"><ele>627.5</ele><time>2026-05-01T07:58:00.957Z</time></trkpt><trkpt lat="45.7033151" lon="9.910718"><ele>626.0</ele><time>2026-05-01T07:58:01.957Z</time></trkpt><trkpt lat="45.7033382" lon="9.9106016"><ele>625.5</ele><time>2026-05-01T07:58:02.951Z</time></trkpt><trkpt lat="45.7033568" lon="9.9104878"><ele>625.0</ele><time>2026-05-01T07:58:03.96Z</time></trkpt><trkpt lat="45.7033615" lon="9.9103721"><ele>624.5</ele><time>2026-05-01T07:58:04.947Z</time></trkpt><trkpt lat="45.7033738" lon="9.9102517"><ele>624.0</ele><time>2026-05-01T07:58:05.956Z</time></trkpt><trkpt lat="45.7033836" lon="9.9101332"><ele>623.5</ele><time>2026-05-01T07:58:06.952Z</time></trkpt><trkpt lat="45.7033949" lon="9.9100302"><ele>623.0</ele><time>2026-05-01T07:58:07.953Z</time></trkpt><trkpt lat="45.7034438" lon="9.9098666"><ele>624.4</ele><time>2026-05-01T07:58:09.953Z</time></trkpt><trkpt lat="45.7034974" lon="9.9097297"><ele>625.8</ele><time>2026-05-01T07:58:11.954Z</time></trkpt><trkpt lat="45.7035584" lon="9.9095903"><ele>627.2</ele><time>2026-05-01T07:58:13.95Z</time></trkpt><trkpt lat="45.7036221" lon="9.9094081"><ele>628.6</ele><time>2026-05-01T07:58:15.954Z</time></trkpt><trkpt lat="45.7036583" lon="9.9093327"><ele>630.0</ele><time>2026-05-01T07:58:16.953Z</time></trkpt><trkpt lat="45.7037126" lon="9.9092262"><ele>630.0</ele><time>2026-05-01T07:58:19.953Z</time></trkpt><trkpt lat="45.7037611" lon="9.909135"><ele>630.0</ele><time>2026-05-01T07:59:19.96Z</time></trkpt><trkpt lat="45.703721" lon="9.9090397"><ele>630.0</ele><time>2026-05-01T07:59:23.957Z</time></trkpt><trkpt lat="45.7036796" lon="9.9089709"><ele>630.0</ele><time>2026-05-01T07:59:25.95Z</time></trkpt><trkpt lat="45.7036347" lon="9.9088992"><ele>630.0</ele><time>2026-05-01T07:59:27.955Z</time></trkpt><trkpt lat="45.7035762" lon="9.9088159"><ele>630.0</ele><time>2026-05-01T07:59:29.953Z</time></trkpt><trkpt lat="45.7035145" lon="9.9087489"><ele>630.0</ele><time>2026-05-01T07:59:31.956Z</time></trkpt><trkpt lat="45.703452" lon="9.9086474"><ele>630.0</ele><time>2026-05-01T07:59:34.955Z</time></trkpt><trkpt lat="45.7034077" lon="9.9085794"><ele>630.0</ele><time>2026-05-01T07:59:36.944Z</time></trkpt><trkpt lat="45.7033681" lon="9.9084988"><ele>630.0</ele><time>2026-05-01T07:59:38.959Z</time></trkpt><trkpt lat="45.7033234" lon="9.9084083"><ele>630.0</ele><time>2026-05-01T07:59:40.961Z</time></trkpt><trkpt lat="45.7032643" lon="9.9083125"><ele>630.0</ele><time>2026-05-01T07:59:42.957Z</time></trkpt><trkpt lat="45.7032259" lon="9.9082348"><ele>630.0</ele><time>2026-05-01T07:59:44.959Z</time></trkpt><trkpt lat="45.7031903" lon="9.9081504"><ele>630.0</ele><time>2026-05-01T07:59:46.961Z</time></trkpt><trkpt lat="45.7031472" lon="9.9080685"><ele>630.0</ele><time>2026-05-01T07:59:49.955Z</time></trkpt><trkpt lat="45.7030845" lon="9.908095"><ele>630.0</ele><time>2026-05-01T07:59:57.955Z</time></trkpt><trkpt lat="45.7030095" lon="9.9081402"><ele>630.0</ele><time>2026-05-01T08:00:01.956Z</time></trkpt><trkpt lat="45.7029506" lon="9.9082072"><ele>630.0</ele><time>2026-05-01T08:00:05.958Z</time></trkpt><trkpt lat="45.7029282" lon="9.9083122"><ele>630.0</ele><time>2026-05-01T08:00:09.961Z</time></trkpt><trkpt lat="45.7028788" lon="9.9084057"><ele>630.0</ele><time>2026-05-01T08:00:13.953Z</time></trkpt><trkpt lat="45.7028355" lon="9.9084759"><ele>630.0</ele><time>2026-05-01T08:00:16.953Z</time></trkpt><trkpt lat="45.7028041" lon="9.908589"><ele>628.0</ele><time>2026-05-01T08:00:22.945Z</time></trkpt><trkpt lat="45.7027403" lon="9.9086321"><ele>626.0</ele><time>2026-05-01T08:00:32.954Z</time></trkpt><trkpt lat="45.7027335" lon="9.9085369"><ele>624.0</ele><time>2026-05-01T08:00:36.952Z</time></trkpt><trkpt lat="45.702737" lon="9.9084412"><ele>622.0</ele><time>2026-05-01T08:00:40.952Z</time></trkpt><trkpt lat="45.7027394" lon="9.9083507"><ele>620.0</ele><time>2026-05-01T08:00:45.949Z</time></trkpt><trkpt lat="45.7027535" lon="9.9082529"><ele>618.0</ele><time>2026-05-01T08:00:49.955Z</time></trkpt><trkpt lat="45.7027161" lon="9.9081699"><ele>616.0</ele><time>2026-05-01T08:00:52.937Z</time></trkpt><trkpt lat="45.7026844" lon="9.908063"><ele>610.8333333333334</ele><time>2026-05-01T08:00:54.943Z</time></trkpt><trkpt lat="45.7026799" lon="9.9079583"><ele>605.6666666666667</ele><time>2026-05-01T08:00:56.949Z</time></trkpt><trkpt lat="45.7026526" lon="9.9078399"><ele>600.5</ele><time>2026-05-01T08:01:00.947Z</time></trkpt><trkpt lat="45.7026244" lon="9.9077503"><ele>595.3333333333334</ele><time>2026-05-01T08:01:02.951Z</time></trkpt><trkpt lat="45.7026197" lon="9.9076097"><ele>590.1666666666666</ele><time>2026-05-01T08:01:05.948Z</time></trkpt><trkpt lat="45.7026106" lon="9.9075058"><ele>585.0</ele><time>2026-05-01T08:01:08.951Z</time></trkpt><trkpt lat="45.7025849" lon="9.9073782"><ele>585.0</ele><time>2026-05-01T08:01:11.944Z</time></trkpt><trkpt lat="45.7025368" lon="9.9072841"><ele>585.0</ele><time>2026-05-01T08:01:14.953Z</time></trkpt><trkpt lat="45.7024879" lon="9.9071681"><ele>585.0</ele><time>2026-05-01T08:01:17.948Z</time></trkpt><trkpt lat="45.7024477" lon="9.9070672"><ele>585.0</ele><time>2026-05-01T08:01:19.946Z</time></trkpt><trkpt lat="45.7023771" lon="9.9069816"><ele>585.0</ele><time>2026-05-01T08:01:21.947Z</time></trkpt><trkpt lat="45.7023076" lon="9.9068972"><ele>585.0</ele><time>2026-05-01T08:01:23.945Z</time></trkpt><trkpt lat="45.7022454" lon="9.9068211"><ele>586.8333333333334</ele><time>2026-05-01T08:01:25.954Z</time></trkpt><trkpt lat="45.7022043" lon="9.9067068"><ele>588.6666666666666</ele><time>2026-05-01T08:01:28.952Z</time></trkpt><trkpt lat="45.702162" lon="9.9066345"><ele>590.5</ele><time>2026-05-01T08:01:30.958Z</time></trkpt><trkpt lat="45.7021291" lon="9.9065516"><ele>592.3333333333333</ele><time>2026-05-01T08:01:32.952Z</time></trkpt><trkpt lat="45.7021171" lon="9.9064525"><ele>594.1666666666666</ele><time>2026-05-01T08:01:35.959Z</time></trkpt><trkpt lat="45.7021399" lon="9.9063602"><ele>596.0</ele><time>2026-05-01T08:01:38.952Z</time></trkpt><trkpt lat="45.7021353" lon="9.9062312"><ele>596.0</ele><time>2026-05-01T08:01:41.957Z</time></trkpt><trkpt lat="45.7021331" lon="9.9061201"><ele>596.0</ele><time>2026-05-01T08:01:43.953Z</time></trkpt><trkpt lat="45.7021256" lon="9.9059902"><ele>596.0</ele><time>2026-05-01T08:01:45.946Z</time></trkpt><trkpt lat="45.7021132" lon="9.9058296"><ele>596.0</ele><time>2026-05-01T08:01:47.954Z</time></trkpt><trkpt lat="45.7020988" lon="9.9057353"><ele>596.0</ele><time>2026-05-01T08:01:48.951Z</time></trkpt><trkpt lat="45.7020895" lon="9.9056397"><ele>596.0</ele><time>2026-05-01T08:01:49.951Z</time></trkpt><trkpt lat="45.7020801" lon="9.9055442"><ele>597.1666666666666</ele><time>2026-05-01T08:01:50.951Z</time></trkpt><trkpt lat="45.7020619" lon="9.9054313"><ele>598.3333333333333</ele><time>2026-05-01T08:01:51.955Z</time></trkpt><trkpt lat="45.7020211" lon="9.9053015"><ele>599.5</ele><time>2026-05-01T08:01:53.958Z</time></trkpt><trkpt lat="45.7019836" lon="9.9051851"><ele>600.6666666666666</ele><time>2026-05-01T08:01:55.951Z</time></trkpt><trkpt lat="45.7019556" lon="9.9050841"><ele>601.8333333333334</ele><time>2026-05-01T08:01:57.943Z</time></trkpt><trkpt lat="45.7019174" lon="9.9049903"><ele>603.0</ele><time>2026-05-01T08:01:59.958Z</time></trkpt><trkpt lat="45.7018534" lon="9.9048743"><ele>596.0</ele><time>2026-05-01T08:02:01.952Z</time></trkpt><trkpt lat="45.7018028" lon="9.9047465"><ele>589.0</ele><time>2026-05-01T08:02:03.954Z</time></trkpt><trkpt lat="45.7017764" lon="9.9046529"><ele>582.0</ele><time>2026-05-01T08:02:05.952Z</time></trkpt><trkpt lat="45.7017256" lon="9.9045917"><ele>575.0</ele><time>2026-05-01T08:02:36.95Z</time></trkpt><trkpt lat="45.7016749" lon="9.9044749"><ele>568.0</ele><time>2026-05-01T08:02:39.954Z</time></trkpt><trkpt lat="45.7016138" lon="9.9043882"><ele>561.0</ele><time>2026-05-01T08:02:41.96Z</time></trkpt><trkpt lat="45.7015326" lon="9.9043332"><ele>561.0</ele><time>2026-05-01T08:02:43.947Z</time></trkpt><trkpt lat="45.7014211" lon="9.9042904"><ele>561.0</ele><time>2026-05-01T08:02:45.961Z</time></trkpt><trkpt lat="45.7012881" lon="9.9042728"><ele>561.0</ele><time>2026-05-01T08:02:47.947Z</time></trkpt><trkpt lat="45.7012132" lon="9.9042875"><ele>561.0</ele><time>2026-05-01T08:02:48.959Z</time></trkpt><trkpt lat="45.7010908" lon="9.9043279"><ele>556.8</ele><time>2026-05-01T08:02:50.947Z</time></trkpt><trkpt lat="45.7009789" lon="9.9043297"><ele>552.6</ele><time>2026-05-01T08:02:52.934Z</time></trkpt><trkpt lat="45.7008973" lon="9.9042366"><ele>548.4</ele><time>2026-05-01T08:02:54.942Z</time></trkpt><trkpt lat="45.7008309" lon="9.9040857"><ele>544.2</ele><time>2026-05-01T08:02:56.953Z</time></trkpt><trkpt lat="45.7007955" lon="9.9039917"><ele>540.0</ele><time>2026-05-01T08:02:57.956Z</time></trkpt><trkpt lat="45.7007568" lon="9.903838"><ele>540.0</ele><time>2026-05-01T08:02:59.953Z</time></trkpt><trkpt lat="45.7007897" lon="9.9036661"><ele>540.0</ele><time>2026-05-01T08:03:01.949Z</time></trkpt><trkpt lat="45.700803" lon="9.9035614"><ele>540.0</ele><time>2026-05-01T08:03:02.954Z</time></trkpt><trkpt lat="45.7008178" lon="9.9034613"><ele>540.0</ele><time>2026-05-01T08:03:03.958Z</time></trkpt><trkpt lat="45.7008321" lon="9.9032867"><ele>540.0</ele><time>2026-05-01T08:03:05.961Z</time></trkpt><trkpt lat="45.7008436" lon="9.9031968"><ele>540.3333333333334</ele><time>2026-05-01T08:03:06.959Z</time></trkpt><trkpt lat="45.700865" lon="9.9031014"><ele>540.6666666666666</ele><time>2026-05-01T08:03:07.967Z</time></trkpt><trkpt lat="45.7008857" lon="9.9030021"><ele>541.0</ele><time>2026-05-01T08:03:08.953Z</time></trkpt><trkpt lat="45.7009161" lon="9.9028278"><ele>541.3333333333333</ele><time>2026-05-01T08:03:10.954Z</time></trkpt><trkpt lat="45.700931" lon="9.9027342"><ele>541.6666666666666</ele><time>2026-05-01T08:03:11.957Z</time></trkpt><trkpt lat="45.7009536" lon="9.9026283"><ele>542.0</ele><time>2026-05-01T08:03:12.951Z</time></trkpt><trkpt lat="45.7009711" lon="9.9025384"><ele>540.8000000000001</ele><time>2026-05-01T08:03:13.958Z</time></trkpt><trkpt lat="45.700986" lon="9.9024081"><ele>539.6</ele><time>2026-05-01T08:03:15.953Z</time></trkpt><trkpt lat="45.7009759" lon="9.9022738"><ele>538.4000000000001</ele><time>2026-05-01T08:03:17.948Z</time></trkpt><trkpt lat="45.700961" lon="9.9021501"><ele>537.2</ele><time>2026-05-01T08:03:19.955Z</time></trkpt><trkpt lat="45.7009339" lon="9.9020302"><ele>536.0</ele><time>2026-05-01T08:03:21.958Z</time></trkpt><trkpt lat="45.7008903" lon="9.901886"><ele>536.0</ele><time>2026-05-01T08:03:23.956Z</time></trkpt><trkpt lat="45.7008707" lon="9.9017991"><ele>536.0</ele><time>2026-05-01T08:03:24.951Z</time></trkpt><trkpt lat="45.7008491" lon="9.9016952"><ele>536.0</ele><time>2026-05-01T08:03:25.951Z</time></trkpt><trkpt lat="45.7008277" lon="9.9015847"><ele>536.0</ele><time>2026-05-01T08:03:26.953Z</time></trkpt><trkpt lat="45.7008016" lon="9.9014741"><ele>536.0</ele><time>2026-05-01T08:03:27.952Z</time></trkpt><trkpt lat="45.7007629" lon="9.9013756"><ele>536.0</ele><time>2026-05-01T08:03:28.95Z</time></trkpt><trkpt lat="45.700719" lon="9.9012944"><ele>536.4</ele><time>2026-05-01T08:03:29.953Z</time></trkpt><trkpt lat="45.7006529" lon="9.9011531"><ele>536.8</ele><time>2026-05-01T08:03:31.957Z</time></trkpt><trkpt lat="45.700593" lon="9.9010398"><ele>537.1999999999999</ele><time>2026-05-01T08:03:33.955Z</time></trkpt><trkpt lat="45.7005607" lon="9.9008809"><ele>537.6</ele><time>2026-05-01T08:03:35.941Z</time></trkpt><trkpt lat="45.7005479" lon="9.9007905"><ele>538.0</ele><time>2026-05-01T08:03:36.947Z</time></trkpt><trkpt lat="45.7005404" lon="9.9007002"><ele>539.0</ele><time>2026-05-01T08:03:37.952Z</time></trkpt><trkpt lat="45.7005267" lon="9.9005954"><ele>540.0</ele><time>2026-05-01T08:03:38.955Z</time></trkpt><trkpt lat="45.7005093" lon="9.9004925"><ele>541.0</ele><time>2026-05-01T08:03:39.954Z</time></trkpt><trkpt lat="45.7004935" lon="9.9003963"><ele>542.0</ele><time>2026-05-01T08:03:40.948Z</time></trkpt><trkpt lat="45.7004796" lon="9.900304"><ele>543.0</ele><time>2026-05-01T08:03:41.954Z</time></trkpt><trkpt lat="45.7004434" lon="9.9002254"><ele>544.0</ele><time>2026-05-01T08:03:42.951Z</time></trkpt><trkpt lat="45.7003534" lon="9.9001513"><ele>545.4</ele><time>2026-05-01T08:03:44.954Z</time></trkpt><trkpt lat="45.7002723" lon="9.9000632"><ele>546.8</ele><time>2026-05-01T08:03:46.95Z</time></trkpt><trkpt lat="45.7002201" lon="9.8999884"><ele>548.2</ele><time>2026-05-01T08:03:47.951Z</time></trkpt><trkpt lat="45.7001563" lon="9.8998627"><ele>549.6</ele><time>2026-05-01T08:03:49.951Z</time></trkpt><trkpt lat="45.7001143" lon="9.89979"><ele>551.0</ele><time>2026-05-01T08:03:50.952Z</time></trkpt><trkpt lat="45.7000304" lon="9.8996643"><ele>546.4</ele><time>2026-05-01T08:03:52.955Z</time></trkpt><trkpt lat="45.6999481" lon="9.899556"><ele>541.8</ele><time>2026-05-01T08:03:54.949Z</time></trkpt><trkpt lat="45.6998768" lon="9.8994388"><ele>537.1999999999999</ele><time>2026-05-01T08:03:56.95Z</time></trkpt><trkpt lat="45.6998137" lon="9.8992985"><ele>532.6</ele><time>2026-05-01T08:03:58.952Z</time></trkpt><trkpt lat="45.6997978" lon="9.8992045"><ele>528.0</ele><time>2026-05-01T08:03:59.949Z</time></trkpt><trkpt lat="45.6997784" lon="9.8991063"><ele>528.0</ele><time>2026-05-01T08:04:00.954Z</time></trkpt><trkpt lat="45.6997695" lon="9.8990029"><ele>528.0</ele><time>2026-05-01T08:04:01.957Z</time></trkpt><trkpt lat="45.6997544" lon="9.898896"><ele>528.0</ele><time>2026-05-01T08:04:02.955Z</time></trkpt><trkpt lat="45.6997393" lon="9.8987835"><ele>528.0</ele><time>2026-05-01T08:04:04.029Z</time></trkpt><trkpt lat="45.6997258" lon="9.8986665"><ele>528.0</ele><time>2026-05-01T08:04:05.015Z</time></trkpt><trkpt lat="45.6997133" lon="9.8985505"><ele>528.0</ele><time>2026-05-01T08:04:06.024Z</time></trkpt><trkpt lat="45.6996989" lon="9.8984283"><ele>527.6666666666666</ele><time>2026-05-01T08:04:07.022Z</time></trkpt><trkpt lat="45.6996774" lon="9.898321"><ele>527.3333333333334</ele><time>2026-05-01T08:04:07.956Z</time></trkpt><trkpt lat="45.6996596" lon="9.8982227"><ele>527.0</ele><time>2026-05-01T08:04:08.963Z</time></trkpt><trkpt lat="45.6996369" lon="9.8980953"><ele>526.6666666666667</ele><time>2026-05-01T08:04:11.03Z</time></trkpt><trkpt lat="45.6996352" lon="9.8979578"><ele>526.3333333333334</ele><time>2026-05-01T08:04:12.968Z</time></trkpt><trkpt lat="45.6996537" lon="9.8978163"><ele>526.0</ele><time>2026-05-01T08:04:14.957Z</time></trkpt><trkpt lat="45.6995917" lon="9.8977036"><ele>526.0</ele><time>2026-05-01T08:04:17.026Z</time></trkpt><trkpt lat="45.6994816" lon="9.8977748"><ele>526.0</ele><time>2026-05-01T08:04:18.956Z</time></trkpt><trkpt lat="45.6993624" lon="9.8978389"><ele>526.0</ele><time>2026-05-01T08:04:21.028Z</time></trkpt><trkpt lat="45.699289" lon="9.897864"><ele>526.0</ele><time>2026-05-01T08:04:22.027Z</time></trkpt><trkpt lat="45.6992199" lon="9.8978859"><ele>526.0</ele><time>2026-05-01T08:04:22.951Z</time></trkpt><trkpt lat="45.6991581" lon="9.8979168"><ele>519.3333333333334</ele><time>2026-05-01T08:04:23.955Z</time></trkpt><trkpt lat="45.6990979" lon="9.897946"><ele>512.6666666666667</ele><time>2026-05-01T08:04:25.07Z</time></trkpt><trkpt lat="45.698986" lon="9.8979346"><ele>506.0</ele><time>2026-05-01T08:04:26.947Z</time></trkpt><trkpt lat="45.6989325" lon="9.8978824"><ele>499.33333333333337</ele><time>2026-05-01T08:04:27.948Z</time></trkpt><trkpt lat="45.6988771" lon="9.8978304"><ele>492.6666666666667</ele><time>2026-05-01T08:04:28.95Z</time></trkpt><trkpt lat="45.6987733" lon="9.8977467"><ele>486.0</ele><time>2026-05-01T08:04:30.956Z</time></trkpt><trkpt lat="45.6986672" lon="9.8977803"><ele>482.8333333333333</ele><time>2026-05-01T08:04:32.95Z</time></trkpt><trkpt lat="45.6985838" lon="9.8977952"><ele>479.66666666666663</ele><time>2026-05-01T08:04:34.962Z</time></trkpt><trkpt lat="45.6985615" lon="9.8976863"><ele>476.5</ele><time>2026-05-01T08:04:36.96Z</time></trkpt><trkpt lat="45.6985705" lon="9.8975663"><ele>473.3333333333333</ele><time>2026-05-01T08:04:39.965Z</time></trkpt><trkpt lat="45.6985494" lon="9.8974583"><ele>470.16666666666663</ele><time>2026-05-01T08:04:42.96Z</time></trkpt><trkpt lat="45.6985405" lon="9.8973578"><ele>467.0</ele><time>2026-05-01T08:04:45.994Z</time></trkpt><trkpt lat="45.6985196" lon="9.8972422"><ele>466.99999999999994</ele><time>2026-05-01T08:04:49.961Z</time></trkpt><trkpt lat="45.6985136" lon="9.8971468"><ele>467.0</ele><time>2026-05-01T08:04:52.951Z</time></trkpt><trkpt lat="45.6985025" lon="9.8970397"><ele>466.99999999999994</ele><time>2026-05-01T08:04:56.967Z</time></trkpt><trkpt lat="45.6984925" lon="9.8969413"><ele>466.99999999999994</ele><time>2026-05-01T08:04:59.947Z</time></trkpt><trkpt lat="45.6984783" lon="9.8968367"><ele>467.0</ele><time>2026-05-01T08:05:03.956Z</time></trkpt><trkpt lat="45.6984619" lon="9.8967211"><ele>466.99999999999994</ele><time>2026-05-01T08:05:07.96Z</time></trkpt><trkpt lat="45.6984429" lon="9.8966199"><ele>466.99999999999994</ele><time>2026-05-01T08:05:10.964Z</time></trkpt><trkpt lat="45.6984181" lon="9.8965306"><ele>468.42857142857133</ele><time>2026-05-01T08:05:13.958Z</time></trkpt><trkpt lat="45.6983899" lon="9.8964239"><ele>469.85714285714283</ele><time>2026-05-01T08:05:17.032Z</time></trkpt><trkpt lat="45.6983641" lon="9.8963267"><ele>471.2857142857142</ele><time>2026-05-01T08:05:19.958Z</time></trkpt><trkpt lat="45.6983656" lon="9.8962281"><ele>472.71428571428567</ele><time>2026-05-01T08:05:22.96Z</time></trkpt><trkpt lat="45.6984005" lon="9.8961423"><ele>474.1428571428571</ele><time>2026-05-01T08:05:25.963Z</time></trkpt><trkpt lat="45.6984804" lon="9.8961376"><ele>475.57142857142856</ele><time>2026-05-01T08:05:28.952Z</time></trkpt><trkpt lat="45.69855" lon="9.8961827"><ele>477.0</ele><time>2026-05-01T08:05:31.956Z</time></trkpt><trkpt lat="45.6986102" lon="9.8962408"><ele>480.6666666666667</ele><time>2026-05-01T08:05:34.958Z</time></trkpt><trkpt lat="45.6986727" lon="9.8963267"><ele>484.33333333333337</ele><time>2026-05-01T08:05:37.948Z</time></trkpt><trkpt lat="45.6987361" lon="9.8964027"><ele>488.0</ele><time>2026-05-01T08:05:40.96Z</time></trkpt><trkpt lat="45.698791" lon="9.8964506"><ele>491.6666666666667</ele><time>2026-05-01T08:05:42.956Z</time></trkpt><trkpt lat="45.6988422" lon="9.8963941"><ele>495.33333333333337</ele><time>2026-05-01T08:05:45.954Z</time></trkpt><trkpt lat="45.6988654" lon="9.8962811"><ele>499.0</ele><time>2026-05-01T08:05:50.038Z</time></trkpt><trkpt lat="45.6988368" lon="9.8961721"><ele>499.00000000000006</ele><time>2026-05-01T08:05:52.969Z</time></trkpt><trkpt lat="45.6987807" lon="9.8960683"><ele>499.0</ele><time>2026-05-01T08:05:55.968Z</time></trkpt><trkpt lat="45.6987396" lon="9.8959974"><ele>499.0</ele><time>2026-05-01T08:05:57.971Z</time></trkpt><trkpt lat="45.6986893" lon="9.8958979"><ele>499.0</ele><time>2026-05-01T08:06:00.968Z</time></trkpt><trkpt lat="45.6986465" lon="9.89579"><ele>499.00000000000006</ele><time>2026-05-01T08:06:03.962Z</time></trkpt><trkpt lat="45.6985986" lon="9.8956722"><ele>499.0</ele><time>2026-05-01T08:06:06.954Z</time></trkpt><trkpt lat="45.6985526" lon="9.8955648"><ele>499.83333333333337</ele><time>2026-05-01T08:06:10.033Z</time></trkpt><trkpt lat="45.6984958" lon="9.8954672"><ele>500.6666666666667</ele><time>2026-05-01T08:06:12.953Z</time></trkpt><trkpt lat="45.6984458" lon="9.8953581"><ele>501.5</ele><time>2026-05-01T08:06:15.951Z</time></trkpt><trkpt lat="45.6984021" lon="9.895272"><ele>502.33333333333337</ele><time>2026-05-01T08:06:18.954Z</time></trkpt><trkpt lat="45.6983583" lon="9.8951848"><ele>503.1666666666667</ele><time>2026-05-01T08:06:21.953Z</time></trkpt><trkpt lat="45.6983177" lon="9.8950905"><ele>504.0</ele><time>2026-05-01T08:06:24.959Z</time></trkpt><trkpt lat="45.6982832" lon="9.8950034"><ele>504.0</ele><time>2026-05-01T08:06:27.951Z</time></trkpt><trkpt lat="45.6982282" lon="9.8949206"><ele>504.0</ele><time>2026-05-01T08:06:31.953Z</time></trkpt><trkpt lat="45.6981643" lon="9.8948547"><ele>504.0</ele><time>2026-05-01T08:06:34.957Z</time></trkpt><trkpt lat="45.6981028" lon="9.8948027"><ele>504.0</ele><time>2026-05-01T08:06:36.959Z</time></trkpt><trkpt lat="45.6980392" lon="9.8947349"><ele>504.0</ele><time>2026-05-01T08:06:39.953Z</time></trkpt><trkpt lat="45.6979793" lon="9.8946677"><ele>504.0</ele><time>2026-05-01T08:06:42.95Z</time></trkpt><trkpt lat="45.6979177" lon="9.8945937"><ele>504.0</ele><time>2026-05-01T08:06:45.953Z</time></trkpt><trkpt lat="45.6978686" lon="9.8945309"><ele>504.0</ele><time>2026-05-01T08:06:47.953Z</time></trkpt><trkpt lat="45.6977996" lon="9.8944581"><ele>504.0</ele><time>2026-05-01T08:06:50.959Z</time></trkpt><trkpt lat="45.6977201" lon="9.894391"><ele>504.0</ele><time>2026-05-01T08:06:53.945Z</time></trkpt><trkpt lat="45.6976467" lon="9.8943271"><ele>504.0</ele><time>2026-05-01T08:06:56.955Z</time></trkpt><trkpt lat="45.6975797" lon="9.8942581"><ele>504.0</ele><time>2026-05-01T08:06:59.955Z</time></trkpt><trkpt lat="45.6975123" lon="9.8941932"><ele>505.57142857142856</ele><time>2026-05-01T08:07:02.957Z</time></trkpt><trkpt lat="45.697441" lon="9.8941346"><ele>507.1428571428571</ele><time>2026-05-01T08:07:05.962Z</time></trkpt><trkpt lat="45.6973725" lon="9.8940739"><ele>508.7142857142857</ele><time>2026-05-01T08:07:08.959Z</time></trkpt><trkpt lat="45.6973108" lon="9.8940143"><ele>510.2857142857143</ele><time>2026-05-01T08:07:11.954Z</time></trkpt><trkpt lat="45.6972466" lon="9.8939434"><ele>511.85714285714283</ele><time>2026-05-01T08:07:14.948Z</time></trkpt><trkpt lat="45.6971917" lon="9.8938967"><ele>513.4285714285714</ele><time>2026-05-01T08:07:16.956Z</time></trkpt><trkpt lat="45.6971364" lon="9.8938515"><ele>515.0</ele><time>2026-05-01T08:07:18.948Z</time></trkpt><trkpt lat="45.697078" lon="9.8938002"><ele>515.0</ele><time>2026-05-01T08:07:20.941Z</time></trkpt><trkpt lat="45.6970271" lon="9.8937382"><ele>515.0</ele><time>2026-05-01T08:07:22.957Z</time></trkpt><trkpt lat="45.6969685" lon="9.8936412"><ele>515.0</ele><time>2026-05-01T08:07:25.954Z</time></trkpt><trkpt lat="45.6969141" lon="9.8935378"><ele>515.0</ele><time>2026-05-01T08:07:28.954Z</time></trkpt><trkpt lat="45.6968596" lon="9.8934429"><ele>515.0</ele><time>2026-05-01T08:07:31.952Z</time></trkpt><trkpt lat="45.6968151" lon="9.8933422"><ele>515.0</ele><time>2026-05-01T08:07:34.944Z</time></trkpt><trkpt lat="45.6967682" lon="9.8932394"><ele>518.2857142857143</ele><time>2026-05-01T08:07:37.951Z</time></trkpt><trkpt lat="45.6967271" lon="9.8931686"><ele>521.5714285714286</ele><time>2026-05-01T08:07:39.957Z</time></trkpt><trkpt lat="45.6966621" lon="9.893113"><ele>524.8571428571429</ele><time>2026-05-01T08:07:42.949Z</time></trkpt><trkpt lat="45.6965958" lon="9.8930951"><ele>528.1428571428571</ele><time>2026-05-01T08:07:45.941Z</time></trkpt><trkpt lat="45.6965321" lon="9.8930946"><ele>531.4285714285714</ele><time>2026-05-01T08:07:47.95Z</time></trkpt><trkpt lat="45.6964603" lon="9.8930928"><ele>534.7142857142858</ele><time>2026-05-01T08:07:49.955Z</time></trkpt><trkpt lat="45.6963744" lon="9.8930922"><ele>538.0</ele><time>2026-05-01T08:07:52.954Z</time></trkpt><trkpt lat="45.6962945" lon="9.8931075"><ele>538.0</ele><time>2026-05-01T08:07:55.953Z</time></trkpt><trkpt lat="45.696222" lon="9.8931239"><ele>538.0</ele><time>2026-05-01T08:07:58.957Z</time></trkpt><trkpt lat="45.6961547" lon="9.8931323"><ele>538.0</ele><time>2026-05-01T08:08:00.958Z</time></trkpt><trkpt lat="45.696049" lon="9.8931524"><ele>538.0</ele><time>2026-05-01T08:08:02.962Z</time></trkpt><trkpt lat="45.6959165" lon="9.8931736"><ele>538.0</ele><time>2026-05-01T08:08:04.955Z</time></trkpt><trkpt lat="45.6958515" lon="9.8931871"><ele>538.0</ele><time>2026-05-01T08:08:05.951Z</time></trkpt><trkpt lat="45.6957336" lon="9.8931972"><ele>538.0</ele><time>2026-05-01T08:08:07.952Z</time></trkpt><trkpt lat="45.6956406" lon="9.8932557"><ele>538.0</ele><time>2026-05-01T08:08:09.948Z</time></trkpt><trkpt lat="45.695572" lon="9.8933731"><ele>538.0</ele><time>2026-05-01T08:08:11.943Z</time></trkpt><trkpt lat="45.6955266" lon="9.8935077"><ele>538.0</ele><time>2026-05-01T08:08:13.957Z</time></trkpt><trkpt lat="45.6954891" lon="9.893647"><ele>538.0</ele><time>2026-05-01T08:08:15.956Z</time></trkpt><trkpt lat="45.6954198" lon="9.8937712"><ele>534.1666666666667</ele><time>2026-05-01T08:08:17.955Z</time></trkpt><trkpt lat="45.6953225" lon="9.8938833"><ele>530.3333333333334</ele><time>2026-05-01T08:08:19.956Z</time></trkpt><trkpt lat="45.6952588" lon="9.8939179"><ele>526.5</ele><time>2026-05-01T08:08:20.957Z</time></trkpt><trkpt lat="45.6951838" lon="9.8939215"><ele>522.6666666666666</ele><time>2026-05-01T08:08:21.951Z</time></trkpt><trkpt lat="45.6951081" lon="9.8939194"><ele>518.8333333333333</ele><time>2026-05-01T08:08:22.956Z</time></trkpt><trkpt lat="45.6950399" lon="9.8939206"><ele>515.0</ele><time>2026-05-01T08:08:23.957Z</time></trkpt><trkpt lat="45.6949629" lon="9.8939247"><ele>515.0</ele><time>2026-05-01T08:08:24.948Z</time></trkpt><trkpt lat="45.69489" lon="9.893927"><ele>515.0</ele><time>2026-05-01T08:08:25.953Z</time></trkpt><trkpt lat="45.6948161" lon="9.8939003"><ele>515.0</ele><time>2026-05-01T08:08:26.955Z</time></trkpt><trkpt lat="45.6947522" lon="9.8938672"><ele>515.0</ele><time>2026-05-01T08:08:27.957Z</time></trkpt><trkpt lat="45.6946522" lon="9.8938055"><ele>515.0</ele><time>2026-05-01T08:08:29.96Z</time></trkpt><trkpt lat="45.6945846" lon="9.8937444"><ele>515.0</ele><time>2026-05-01T08:08:31.957Z</time></trkpt><trkpt lat="45.6945413" lon="9.893659"><ele>515.0</ele><time>2026-05-01T08:08:33.958Z</time></trkpt><trkpt lat="45.6944892" lon="9.893579"><ele>515.0</ele><time>2026-05-01T08:08:36.956Z</time></trkpt><trkpt lat="45.69443" lon="9.8935131"><ele>515.0</ele><time>2026-05-01T08:08:40.955Z</time></trkpt><trkpt lat="45.6943683" lon="9.8934613"><ele>515.0</ele><time>2026-05-01T08:08:44.956Z</time></trkpt><trkpt lat="45.694289" lon="9.8933926"><ele>515.0</ele><time>2026-05-01T08:08:48.951Z</time></trkpt><trkpt lat="45.6942195" lon="9.893366"><ele>515.0</ele><time>2026-05-01T08:08:50.956Z</time></trkpt><trkpt lat="45.6941528" lon="9.8933633"><ele>515.3333333333333</ele><time>2026-05-01T08:08:52.956Z</time></trkpt><trkpt lat="45.69405" lon="9.8933572"><ele>515.6666666666666</ele><time>2026-05-01T08:08:55.943Z</time></trkpt><trkpt lat="45.6939873" lon="9.8933931"><ele>516.0</ele><time>2026-05-01T08:08:56.941Z</time></trkpt><trkpt lat="45.6939127" lon="9.8934394"><ele>516.3333333333334</ele><time>2026-05-01T08:08:57.942Z</time></trkpt><trkpt lat="45.6938481" lon="9.8934597"><ele>516.6666666666667</ele><time>2026-05-01T08:08:58.94Z</time></trkpt><trkpt lat="45.6937595" lon="9.8934483"><ele>517.0</ele><time>2026-05-01T08:09:01.95Z</time></trkpt><trkpt lat="45.6936804" lon="9.8935144"><ele>517.0</ele><time>2026-05-01T08:09:04.957Z</time></trkpt><trkpt lat="45.6936208" lon="9.8936096"><ele>517.0</ele><time>2026-05-01T08:09:07.954Z</time></trkpt><trkpt lat="45.6935813" lon="9.8937063"><ele>517.0</ele><time>2026-05-01T08:09:10.956Z</time></trkpt><trkpt lat="45.6935296" lon="9.8938071"><ele>517.0</ele><time>2026-05-01T08:09:14.952Z</time></trkpt><trkpt lat="45.6934829" lon="9.8938844"><ele>517.0</ele><time>2026-05-01T08:09:17.957Z</time></trkpt><trkpt lat="45.6934139" lon="9.8939405"><ele>517.0</ele><time>2026-05-01T08:09:20.955Z</time></trkpt><trkpt lat="45.6933547" lon="9.8939769"><ele>519.6666666666667</ele><time>2026-05-01T08:09:22.951Z</time></trkpt><trkpt lat="45.6932846" lon="9.8940224"><ele>522.3333333333334</ele><time>2026-05-01T08:09:24.953Z</time></trkpt><trkpt lat="45.6932193" lon="9.8940652"><ele>525.0</ele><time>2026-05-01T08:09:26.959Z</time></trkpt><trkpt lat="45.6931286" lon="9.8941123"><ele>527.6666666666666</ele><time>2026-05-01T08:09:29.961Z</time></trkpt><trkpt lat="45.6930352" lon="9.8941447"><ele>530.3333333333333</ele><time>2026-05-01T08:09:32.973Z</time></trkpt><trkpt lat="45.6929531" lon="9.8941657"><ele>533.0</ele><time>2026-05-01T08:09:35.979Z</time></trkpt><trkpt lat="45.6928737" lon="9.8941743"><ele>533.0</ele><time>2026-05-01T08:09:38.969Z</time></trkpt><trkpt lat="45.6928025" lon="9.8941941"><ele>533.0</ele><time>2026-05-01T08:09:41.977Z</time></trkpt><trkpt lat="45.6927196" lon="9.8942055"><ele>533.0</ele><time>2026-05-01T08:09:46.037Z</time></trkpt><trkpt lat="45.6926455" lon="9.894234"><ele>533.0</ele><time>2026-05-01T08:09:48.958Z</time></trkpt><trkpt lat="45.6925705" lon="9.8942288"><ele>533.0</ele><time>2026-05-01T08:09:52.036Z</time></trkpt><trkpt lat="45.692473" lon="9.894232"><ele>533.0</ele><time>2026-05-01T08:09:55.959Z</time></trkpt><trkpt lat="45.6923846" lon="9.8942353"><ele>532.0</ele><time>2026-05-01T08:09:58.957Z</time></trkpt><trkpt lat="45.6923148" lon="9.8942445"><ele>531.0</ele><time>2026-05-01T08:10:01.036Z</time></trkpt><trkpt lat="45.6922083" lon="9.894278"><ele>530.0</ele><time>2026-05-01T08:10:03.965Z</time></trkpt><trkpt lat="45.6921442" lon="9.8942982"><ele>529.0</ele><time>2026-05-01T08:10:05.966Z</time></trkpt><trkpt lat="45.6920527" lon="9.8943236"><ele>528.0</ele><time>2026-05-01T08:10:09.04Z</time></trkpt><trkpt lat="45.6919604" lon="9.8943667"><ele>527.0</ele><time>2026-05-01T08:10:11.949Z</time></trkpt><trkpt lat="45.6918914" lon="9.8944062"><ele>530.6666666666666</ele><time>2026-05-01T08:10:13.952Z</time></trkpt><trkpt lat="45.6918203" lon="9.8944586"><ele>534.3333333333333</ele><time>2026-05-01T08:10:16.947Z</time></trkpt><trkpt lat="45.6917453" lon="9.8945041"><ele>538.0</ele><time>2026-05-01T08:10:19.949Z</time></trkpt><trkpt lat="45.6916764" lon="9.8945525"><ele>541.6666666666666</ele><time>2026-05-01T08:10:22.952Z</time></trkpt><trkpt lat="45.6916086" lon="9.8945976"><ele>545.3333333333334</ele><time>2026-05-01T08:10:26.03Z</time></trkpt><trkpt lat="45.6915448" lon="9.8946363"><ele>549.0</ele><time>2026-05-01T08:10:28.952Z</time></trkpt><trkpt lat="45.691461" lon="9.8946675"><ele>549.0</ele><time>2026-05-01T08:10:31.957Z</time></trkpt><trkpt lat="45.6913778" lon="9.8946978"><ele>549.0</ele><time>2026-05-01T08:10:35.028Z</time></trkpt><trkpt lat="45.6913014" lon="9.8947226"><ele>549.0</ele><time>2026-05-01T08:10:37.964Z</time></trkpt><trkpt lat="45.6912065" lon="9.8947395"><ele>549.0</ele><time>2026-05-01T08:10:40.96Z</time></trkpt><trkpt lat="45.6911208" lon="9.8947613"><ele>549.0</ele><time>2026-05-01T08:10:43.967Z</time></trkpt><trkpt lat="45.6910373" lon="9.8947799"><ele>549.0</ele><time>2026-05-01T08:10:46.961Z</time></trkpt><trkpt lat="45.6909565" lon="9.8947829"><ele>552.0</ele><time>2026-05-01T08:10:50.029Z</time></trkpt><trkpt lat="45.6908817" lon="9.8947857"><ele>555.0</ele><time>2026-05-01T08:10:52.962Z</time></trkpt><trkpt lat="45.6908056" lon="9.8947944"><ele>558.0</ele><time>2026-05-01T08:10:56.035Z</time></trkpt><trkpt lat="45.6907368" lon="9.8947986"><ele>561.0</ele><time>2026-05-01T08:10:57.963Z</time></trkpt><trkpt lat="45.6906633" lon="9.8948146"><ele>564.0</ele><time>2026-05-01T08:11:00.958Z</time></trkpt><trkpt lat="45.6905954" lon="9.8948183"><ele>567.0</ele><time>2026-05-01T08:11:03.954Z</time></trkpt><trkpt lat="45.6905286" lon="9.8948421"><ele>570.0</ele><time>2026-05-01T08:11:06.949Z</time></trkpt><trkpt lat="45.6904095" lon="9.89487"><ele>570.0</ele><time>2026-05-01T08:11:11.969Z</time></trkpt><trkpt lat="45.6903259" lon="9.8949234"><ele>570.0</ele><time>2026-05-01T08:11:14.97Z</time></trkpt><trkpt lat="45.6902544" lon="9.8949524"><ele>570.0</ele><time>2026-05-01T08:11:18.052Z</time></trkpt><trkpt lat="45.6901799" lon="9.8949897"><ele>570.0</ele><time>2026-05-01T08:11:20.962Z</time></trkpt><trkpt lat="45.6901143" lon="9.8950115"><ele>570.0</ele><time>2026-05-01T08:11:23.964Z</time></trkpt><trkpt lat="45.6900507" lon="9.8950312"><ele>570.0</ele><time>2026-05-01T08:11:27.036Z</time></trkpt><trkpt lat="45.6899781" lon="9.8950617"><ele>569.5</ele><time>2026-05-01T08:11:29.954Z</time></trkpt><trkpt lat="45.6899036" lon="9.8951164"><ele>569.0</ele><time>2026-05-01T08:11:32.958Z</time></trkpt><trkpt lat="45.6898346" lon="9.8951793"><ele>568.5</ele><time>2026-05-01T08:11:35.959Z</time></trkpt><trkpt lat="45.6897511" lon="9.8952348"><ele>568.0</ele><time>2026-05-01T08:11:38.961Z</time></trkpt><trkpt lat="45.689694" lon="9.8952765"><ele>567.5</ele><time>2026-05-01T08:11:40.962Z</time></trkpt><trkpt lat="45.6896319" lon="9.8953296"><ele>567.0</ele><time>2026-05-01T08:11:42.959Z</time></trkpt><trkpt lat="45.689569" lon="9.8953743"><ele>567.0</ele><time>2026-05-01T08:11:44.964Z</time></trkpt><trkpt lat="45.6895044" lon="9.8954358"><ele>567.0</ele><time>2026-05-01T08:11:47.029Z</time></trkpt><trkpt lat="45.6894422" lon="9.8954885"><ele>567.0</ele><time>2026-05-01T08:11:48.954Z</time></trkpt><trkpt lat="45.6893805" lon="9.8955478"><ele>567.0</ele><time>2026-05-01T08:11:50.955Z</time></trkpt><trkpt lat="45.6893234" lon="9.8956016"><ele>567.0</ele><time>2026-05-01T08:11:52.95Z</time></trkpt><trkpt lat="45.6892384" lon="9.8956738"><ele>567.0</ele><time>2026-05-01T08:11:56.017Z</time></trkpt><trkpt lat="45.6891791" lon="9.8957326"><ele>567.3333333333334</ele><time>2026-05-01T08:11:57.948Z</time></trkpt><trkpt lat="45.6891224" lon="9.8957982"><ele>567.6666666666666</ele><time>2026-05-01T08:11:59.953Z</time></trkpt><trkpt lat="45.6890715" lon="9.8958698"><ele>568.0</ele><time>2026-05-01T08:12:01.961Z</time></trkpt><trkpt lat="45.6890265" lon="9.8959593"><ele>568.3333333333333</ele><time>2026-05-01T08:12:03.978Z</time></trkpt><trkpt lat="45.6889806" lon="9.8960713"><ele>568.6666666666666</ele><time>2026-05-01T08:12:06.032Z</time></trkpt><trkpt lat="45.6889199" lon="9.8961367"><ele>569.0</ele><time>2026-05-01T08:12:07.961Z</time></trkpt><trkpt lat="45.6888635" lon="9.8961899"><ele>569.0</ele><time>2026-05-01T08:12:08.965Z</time></trkpt><trkpt lat="45.6888296" lon="9.8962954"><ele>569.0</ele><time>2026-05-01T08:12:09.965Z</time></trkpt><trkpt lat="45.6887482" lon="9.8963869"><ele>569.0</ele><time>2026-05-01T08:12:12.035Z</time></trkpt><trkpt lat="45.6886852" lon="9.8964733"><ele>569.0</ele><time>2026-05-01T08:12:13.969Z</time></trkpt><trkpt lat="45.6886196" lon="9.8965411"><ele>569.0</ele><time>2026-05-01T08:12:15.973Z</time></trkpt><trkpt lat="45.688554" lon="9.8965779"><ele>569.0</ele><time>2026-05-01T08:12:17.978Z</time></trkpt><trkpt lat="45.6884914" lon="9.8965919"><ele>568.5</ele><time>2026-05-01T08:12:19.96Z</time></trkpt><trkpt lat="45.6884068" lon="9.8965878"><ele>568.0</ele><time>2026-05-01T08:12:22.972Z</time></trkpt><trkpt lat="45.6883414" lon="9.8966241"><ele>567.5</ele><time>2026-05-01T08:12:25.028Z</time></trkpt><trkpt lat="45.6882812" lon="9.8966784"><ele>567.0</ele><time>2026-05-01T08:12:26.953Z</time></trkpt><trkpt lat="45.6882122" lon="9.8967196"><ele>566.5</ele><time>2026-05-01T08:12:28.962Z</time></trkpt><trkpt lat="45.688133" lon="9.8967322"><ele>566.0</ele><time>2026-05-01T08:12:30.957Z</time></trkpt><trkpt lat="45.6880387" lon="9.8967603"><ele>566.0</ele><time>2026-05-01T08:12:33.96Z</time></trkpt><trkpt lat="45.6879675" lon="9.8967753"><ele>566.0</ele><time>2026-05-01T08:12:35.957Z</time></trkpt><trkpt lat="45.6879024" lon="9.8967991"><ele>566.0</ele><time>2026-05-01T08:12:37.955Z</time></trkpt><trkpt lat="45.6878268" lon="9.8968463"><ele>566.0</ele><time>2026-05-01T08:12:40.97Z</time></trkpt><trkpt lat="45.6877509" lon="9.8968963"><ele>566.0</ele><time>2026-05-01T08:12:44.029Z</time></trkpt><trkpt lat="45.6876829" lon="9.8969344"><ele>566.0</ele><time>2026-05-01T08:12:46.948Z</time></trkpt><trkpt lat="45.6876124" lon="9.8969206"><ele>566.0</ele><time>2026-05-01T08:12:54.018Z</time></trkpt><trkpt lat="45.6876019" lon="9.8967918"><ele>568.0</ele><time>2026-05-01T08:12:57.961Z</time></trkpt><trkpt lat="45.6876049" lon="9.8966727"><ele>570.0</ele><time>2026-05-01T08:13:01.959Z</time></trkpt><trkpt lat="45.6876261" lon="9.8965554"><ele>572.0</ele><time>2026-05-01T08:13:03.951Z</time></trkpt><trkpt lat="45.6876752" lon="9.8964699"><ele>574.0</ele><time>2026-05-01T08:13:05.954Z</time></trkpt><trkpt lat="45.6877196" lon="9.8963839"><ele>576.0</ele><time>2026-05-01T08:13:07.953Z</time></trkpt><trkpt lat="45.6877661" lon="9.896265"><ele>578.0</ele><time>2026-05-01T08:13:10.958Z</time></trkpt><trkpt lat="45.6878125" lon="9.8961869"><ele>579.1999999999999</ele><time>2026-05-01T08:13:12.953Z</time></trkpt><trkpt lat="45.6878526" lon="9.8960442"><ele>580.4</ele><time>2026-05-01T08:13:14.959Z</time></trkpt><trkpt lat="45.6878719" lon="9.895879"><ele>581.5999999999999</ele><time>2026-05-01T08:13:17.038Z</time></trkpt><trkpt lat="45.6878872" lon="9.8957227"><ele>582.8</ele><time>2026-05-01T08:13:18.951Z</time></trkpt><trkpt lat="45.6878794" lon="9.8956088"><ele>584.0</ele><time>2026-05-01T08:13:20.956Z</time></trkpt><trkpt lat="45.6878659" lon="9.8954927"><ele>587.2</ele><time>2026-05-01T08:13:24.05Z</time></trkpt><trkpt lat="45.6878675" lon="9.8953668"><ele>590.4</ele><time>2026-05-01T08:13:26.954Z</time></trkpt><trkpt lat="45.6878572" lon="9.8952439"><ele>593.6</ele><time>2026-05-01T08:13:28.959Z</time></trkpt><trkpt lat="45.6878545" lon="9.8951095"><ele>596.8</ele><time>2026-05-01T08:13:30.956Z</time></trkpt><trkpt lat="45.6878446" lon="9.8949673"><ele>600.0</ele><time>2026-05-01T08:13:32.954Z</time></trkpt><trkpt lat="45.6878354" lon="9.8948067"><ele>601.6666666666666</ele><time>2026-05-01T08:13:34.958Z</time></trkpt><trkpt lat="45.6878453" lon="9.894702"><ele>603.3333333333334</ele><time>2026-05-01T08:13:36.955Z</time></trkpt><trkpt lat="45.6878924" lon="9.8945903"><ele>605.0</ele><time>2026-05-01T08:13:39.957Z</time></trkpt><trkpt lat="45.6879125" lon="9.8944717"><ele>606.6666666666667</ele><time>2026-05-01T08:13:42.954Z</time></trkpt><trkpt lat="45.6879272" lon="9.8943457"><ele>608.3333333333334</ele><time>2026-05-01T08:13:45.951Z</time></trkpt><trkpt lat="45.6879496" lon="9.8942311"><ele>610.0</ele><time>2026-05-01T08:13:47.95Z</time></trkpt><trkpt lat="45.687946" lon="9.8940959"><ele>610.0</ele><time>2026-05-01T08:13:50.023Z</time></trkpt><trkpt lat="45.6879403" lon="9.8939625"><ele>610.0</ele><time>2026-05-01T08:13:51.953Z</time></trkpt><trkpt lat="45.6879477" lon="9.8938719"><ele>610.0</ele><time>2026-05-01T08:13:53.955Z</time></trkpt><trkpt lat="45.6879541" lon="9.893754"><ele>610.0</ele><time>2026-05-01T08:13:57.027Z</time></trkpt><trkpt lat="45.6879724" lon="9.8936546"><ele>610.0</ele><time>2026-05-01T08:13:59.96Z</time></trkpt><trkpt lat="45.6880233" lon="9.8935862"><ele>610.0</ele><time>2026-05-01T08:14:02.947Z</time></trkpt><trkpt lat="45.6880949" lon="9.8934843"><ele>606.6</ele><time>2026-05-01T08:14:06.03Z</time></trkpt><trkpt lat="45.6881523" lon="9.8933342"><ele>603.2</ele><time>2026-05-01T08:14:07.951Z</time></trkpt><trkpt lat="45.6881693" lon="9.8931793"><ele>599.8</ele><time>2026-05-01T08:14:09.944Z</time></trkpt><trkpt lat="45.6881892" lon="9.8930907"><ele>596.4</ele><time>2026-05-01T08:14:11.952Z</time></trkpt><trkpt lat="45.6882112" lon="9.8929731"><ele>593.0</ele><time>2026-05-01T08:14:15.953Z</time></trkpt><trkpt lat="45.6882355" lon="9.8928645"><ele>593.0</ele><time>2026-05-01T08:14:17.953Z</time></trkpt><trkpt lat="45.6882377" lon="9.8927634"><ele>593.0</ele><time>2026-05-01T08:14:19.961Z</time></trkpt><trkpt lat="45.6882429" lon="9.8926518"><ele>593.0</ele><time>2026-05-01T08:14:22.96Z</time></trkpt><trkpt lat="45.6882392" lon="9.8925426"><ele>593.0</ele><time>2026-05-01T08:14:24.984Z</time></trkpt><trkpt lat="45.6882336" lon="9.8924261"><ele>593.0</ele><time>2026-05-01T08:14:27.008Z</time></trkpt><trkpt lat="45.6882336" lon="9.892322"><ele>593.0</ele><time>2026-05-01T08:14:28.956Z</time></trkpt><trkpt lat="45.6882518" lon="9.892223"><ele>590.0</ele><time>2026-05-01T08:14:30.951Z</time></trkpt><trkpt lat="45.6882694" lon="9.8921201"><ele>587.0</ele><time>2026-05-01T08:14:32.95Z</time></trkpt><trkpt lat="45.6882858" lon="9.8920016"><ele>584.0</ele><time>2026-05-01T08:14:35.948Z</time></trkpt><trkpt lat="45.6882867" lon="9.8916673"><ele>581.0</ele><time>2026-05-01T08:14:50.952Z</time></trkpt><trkpt lat="45.6882819" lon="9.8915763"><ele>579.1666666666666</ele><time>2026-05-01T08:14:53.956Z</time></trkpt><trkpt lat="45.6882597" lon="9.8914614"><ele>577.3333333333333</ele><time>2026-05-01T08:14:57.958Z</time></trkpt><trkpt lat="45.6882291" lon="9.8913767"><ele>575.5</ele><time>2026-05-01T08:15:02.952Z</time></trkpt><trkpt lat="45.6882034" lon="9.8912928"><ele>573.6666666666666</ele><time>2026-05-01T08:15:09.943Z</time></trkpt><trkpt lat="45.6882242" lon="9.891171"><ele>571.8333333333334</ele><time>2026-05-01T08:15:12.961Z</time></trkpt><trkpt lat="45.6882469" lon="9.8910665"><ele>570.0</ele><time>2026-05-01T08:15:14.958Z</time></trkpt><trkpt lat="45.6882772" lon="9.890949"><ele>567.6666666666666</ele><time>2026-05-01T08:15:17.033Z</time></trkpt><trkpt lat="45.6883242" lon="9.890834"><ele>565.3333333333334</ele><time>2026-05-01T08:15:19.949Z</time></trkpt><trkpt lat="45.6883235" lon="9.8906999"><ele>563.0</ele><time>2026-05-01T08:15:21.954Z</time></trkpt><trkpt lat="45.6883306" lon="9.8905878"><ele>560.6666666666667</ele><time>2026-05-01T08:15:23.941Z</time></trkpt><trkpt lat="45.6883398" lon="9.8904976"><ele>558.3333333333334</ele><time>2026-05-01T08:15:27.955Z</time></trkpt><trkpt lat="45.68838" lon="9.8904035"><ele>556.0</ele><time>2026-05-01T08:15:32.01Z</time></trkpt><trkpt lat="45.6884096" lon="9.890316"><ele>556.0</ele><time>2026-05-01T08:15:34.949Z</time></trkpt><trkpt lat="45.6884486" lon="9.890213"><ele>556.0</ele><time>2026-05-01T08:15:38.953Z</time></trkpt><trkpt lat="45.688458" lon="9.8901025"><ele>556.0</ele><time>2026-05-01T08:15:42.951Z</time></trkpt><trkpt lat="45.6884875" lon="9.890021"><ele>556.0</ele><time>2026-05-01T08:15:45.952Z</time></trkpt><trkpt lat="45.6885248" lon="9.8899258"><ele>556.0</ele><time>2026-05-01T08:15:48.964Z</time></trkpt><trkpt lat="45.6885609" lon="9.8898454"><ele>556.0</ele><time>2026-05-01T08:15:51.938Z</time></trkpt><trkpt lat="45.6885969" lon="9.8897445"><ele>556.0</ele><time>2026-05-01T08:15:54.955Z</time></trkpt><trkpt lat="45.688638" lon="9.8896395"><ele>559.8571428571429</ele><time>2026-05-01T08:15:58.953Z</time></trkpt><trkpt lat="45.6886741" lon="9.8895526"><ele>563.7142857142858</ele><time>2026-05-01T08:16:01.957Z</time></trkpt><trkpt lat="45.6887201" lon="9.8894829"><ele>567.5714285714287</ele><time>2026-05-01T08:16:05.955Z</time></trkpt><trkpt lat="45.688777" lon="9.8894121"><ele>571.4285714285714</ele><time>2026-05-01T08:16:09.029Z</time></trkpt><trkpt lat="45.6888297" lon="9.8893352"><ele>575.2857142857143</ele><time>2026-05-01T08:16:11.957Z</time></trkpt><trkpt lat="45.6888608" lon="9.8892218"><ele>579.1428571428572</ele><time>2026-05-01T08:16:14.948Z</time></trkpt><trkpt lat="45.6888753" lon="9.889131"><ele>583.0</ele><time>2026-05-01T08:16:16.943Z</time></trkpt><trkpt lat="45.688906" lon="9.8890357"><ele>583.0000000000001</ele><time>2026-05-01T08:16:19.956Z</time></trkpt><trkpt lat="45.6889253" lon="9.8889275"><ele>583.0</ele><time>2026-05-01T08:16:23.953Z</time></trkpt><trkpt lat="45.6889265" lon="9.8888208"><ele>583.0</ele><time>2026-05-01T08:16:26.955Z</time></trkpt><trkpt lat="45.6889117" lon="9.8887266"><ele>583.0</ele><time>2026-05-01T08:16:29.956Z</time></trkpt><trkpt lat="45.6889334" lon="9.8886198"><ele>583.0</ele><time>2026-05-01T08:16:36.024Z</time></trkpt><trkpt lat="45.6889549" lon="9.8885218"><ele>583.0000000000001</ele><time>2026-05-01T08:16:38.947Z</time></trkpt><trkpt lat="45.6889786" lon="9.8884322"><ele>583.0</ele><time>2026-05-01T08:16:41.943Z</time></trkpt><trkpt lat="45.6889852" lon="9.8883279"><ele>582.6666666666667</ele><time>2026-05-01T08:16:44.948Z</time></trkpt><trkpt lat="45.6889976" lon="9.8882172"><ele>582.3333333333334</ele><time>2026-05-01T08:16:47.944Z</time></trkpt><trkpt lat="45.6890268" lon="9.8881144"><ele>582.0</ele><time>2026-05-01T08:16:50.952Z</time></trkpt><trkpt lat="45.6890782" lon="9.8880469"><ele>581.6666666666666</ele><time>2026-05-01T08:16:54.962Z</time></trkpt><trkpt lat="45.6891874" lon="9.8879993"><ele>581.3333333333333</ele><time>2026-05-01T08:17:02.962Z</time></trkpt><trkpt lat="45.6892616" lon="9.8879132"><ele>581.0</ele><time>2026-05-01T08:17:12.942Z</time></trkpt><trkpt lat="45.6893055" lon="9.887822"><ele>581.0</ele><time>2026-05-01T08:17:19.952Z</time></trkpt><trkpt lat="45.6893288" lon="9.8877335"><ele>581.0</ele><time>2026-05-01T08:17:24.956Z</time></trkpt><trkpt lat="45.6893324" lon="9.8875914"><ele>581.0</ele><time>2026-05-01T08:17:28.956Z</time></trkpt><trkpt lat="45.6893323" lon="9.88749"><ele>581.0</ele><time>2026-05-01T08:17:30.96Z</time></trkpt><trkpt lat="45.6893356" lon="9.8873537"><ele>581.0</ele><time>2026-05-01T08:17:33.958Z</time></trkpt><trkpt lat="45.6893343" lon="9.8872527"><ele>581.0</ele><time>2026-05-01T08:17:35.958Z</time></trkpt><trkpt lat="45.689328" lon="9.8871588"><ele>580.8333333333333</ele><time>2026-05-01T08:17:37.954Z</time></trkpt><trkpt lat="45.6893016" lon="9.8870712"><ele>580.6666666666666</ele><time>2026-05-01T08:17:40.953Z</time></trkpt><trkpt lat="45.6892754" lon="9.8869685"><ele>580.5</ele><time>2026-05-01T08:17:44.961Z</time></trkpt><trkpt lat="45.6893084" lon="9.8868827"><ele>580.3333333333334</ele><time>2026-05-01T08:17:51.957Z</time></trkpt><trkpt lat="45.6892999" lon="9.8867382"><ele>580.1666666666667</ele><time>2026-05-01T08:18:41.962Z</time></trkpt><trkpt lat="45.6893466" lon="9.8866303"><ele>580.0</ele><time>2026-05-01T08:18:45.958Z</time></trkpt><trkpt lat="45.6893888" lon="9.886529"><ele>582.8333333333334</ele><time>2026-05-01T08:18:48.96Z</time></trkpt><trkpt lat="45.6894261" lon="9.8864407"><ele>585.6666666666667</ele><time>2026-05-01T08:18:51.959Z</time></trkpt><trkpt lat="45.6894703" lon="9.8863523"><ele>588.5</ele><time>2026-05-01T08:18:55.959Z</time></trkpt><trkpt lat="45.6895078" lon="9.8862271"><ele>591.3333333333334</ele><time>2026-05-01T08:18:58.959Z</time></trkpt><trkpt lat="45.6895405" lon="9.8861101"><ele>594.1666666666666</ele><time>2026-05-01T08:19:00.967Z</time></trkpt><trkpt lat="45.689575" lon="9.8860049"><ele>597.0</ele><time>2026-05-01T08:19:02.95Z</time></trkpt><trkpt lat="45.6896151" lon="9.8859331"><ele>596.2857142857143</ele><time>2026-05-01T08:19:04.956Z</time></trkpt><trkpt lat="45.6896553" lon="9.8858604"><ele>595.5714285714286</ele><time>2026-05-01T08:19:06.957Z</time></trkpt><trkpt lat="45.6897025" lon="9.8857697"><ele>594.8571428571429</ele><time>2026-05-01T08:19:09.955Z</time></trkpt><trkpt lat="45.6897364" lon="9.8856817"><ele>594.1428571428571</ele><time>2026-05-01T08:19:12.952Z</time></trkpt><trkpt lat="45.6897658" lon="9.8855643"><ele>593.4285714285714</ele><time>2026-05-01T08:19:15.953Z</time></trkpt><trkpt lat="45.6897945" lon="9.8854806"><ele>592.7142857142858</ele><time>2026-05-01T08:19:17.952Z</time></trkpt><trkpt lat="45.6898402" lon="9.8853995"><ele>592.0</ele><time>2026-05-01T08:19:19.951Z</time></trkpt><trkpt lat="45.6898948" lon="9.8853087"><ele>592.0</ele><time>2026-05-01T08:19:22.941Z</time></trkpt><trkpt lat="45.6899422" lon="9.88524"><ele>592.0</ele><time>2026-05-01T08:19:25.96Z</time></trkpt><trkpt lat="45.6899952" lon="9.8851748"><ele>592.0</ele><time>2026-05-01T08:19:27.956Z</time></trkpt><trkpt lat="45.6900849" lon="9.8850592"><ele>592.0</ele><time>2026-05-01T08:19:29.954Z</time></trkpt><trkpt lat="45.6901677" lon="9.8849304"><ele>592.0</ele><time>2026-05-01T08:19:31.955Z</time></trkpt><trkpt lat="45.6902129" lon="9.8848475"><ele>591.1666666666667</ele><time>2026-05-01T08:19:32.953Z</time></trkpt><trkpt lat="45.6902566" lon="9.88477"><ele>590.3333333333334</ele><time>2026-05-01T08:19:33.958Z</time></trkpt><trkpt lat="45.6902977" lon="9.8846903"><ele>589.5</ele><time>2026-05-01T08:19:34.945Z</time></trkpt><trkpt lat="45.6903442" lon="9.8845988"><ele>588.6666666666666</ele><time>2026-05-01T08:19:35.946Z</time></trkpt><trkpt lat="45.6903921" lon="9.8844854"><ele>587.8333333333333</ele><time>2026-05-01T08:19:36.961Z</time></trkpt><trkpt lat="45.6904427" lon="9.8843668"><ele>587.0</ele><time>2026-05-01T08:19:37.959Z</time></trkpt><trkpt lat="45.6904888" lon="9.8842476"><ele>589.6666666666666</ele><time>2026-05-01T08:19:38.948Z</time></trkpt><trkpt lat="45.6905364" lon="9.8841321"><ele>592.3333333333333</ele><time>2026-05-01T08:19:39.95Z</time></trkpt><trkpt lat="45.6905844" lon="9.8840224"><ele>595.0</ele><time>2026-05-01T08:19:40.952Z</time></trkpt><trkpt lat="45.6906161" lon="9.8839199"><ele>597.6666666666666</ele><time>2026-05-01T08:19:41.95Z</time></trkpt><trkpt lat="45.6906136" lon="9.8838283"><ele>600.3333333333334</ele><time>2026-05-01T08:19:42.956Z</time></trkpt><trkpt lat="45.6905909" lon="9.8837432"><ele>603.0</ele><time>2026-05-01T08:19:44.018Z</time></trkpt><trkpt lat="45.6905572" lon="9.883627"><ele>603.0</ele><time>2026-05-01T08:19:44.953Z</time></trkpt><trkpt lat="45.6905072" lon="9.8835405"><ele>603.0</ele><time>2026-05-01T08:19:45.952Z</time></trkpt><trkpt lat="45.6904589" lon="9.8834646"><ele>603.0</ele><time>2026-05-01T08:19:46.953Z</time></trkpt><trkpt lat="45.6904017" lon="9.8833852"><ele>603.0</ele><time>2026-05-01T08:19:47.95Z</time></trkpt><trkpt lat="45.6903592" lon="9.8832708"><ele>603.0</ele><time>2026-05-01T08:19:48.951Z</time></trkpt><trkpt lat="45.6903236" lon="9.8831443"><ele>603.0</ele><time>2026-05-01T08:19:49.972Z</time></trkpt><trkpt lat="45.6902875" lon="9.8830128"><ele>601.3333333333334</ele><time>2026-05-01T08:19:50.952Z</time></trkpt><trkpt lat="45.6902649" lon="9.8828885"><ele>599.6666666666666</ele><time>2026-05-01T08:19:51.953Z</time></trkpt><trkpt lat="45.6902521" lon="9.88278"><ele>598.0</ele><time>2026-05-01T08:19:52.955Z</time></trkpt><trkpt lat="45.6902506" lon="9.8826554"><ele>596.3333333333333</ele><time>2026-05-01T08:19:53.957Z</time></trkpt><trkpt lat="45.6902632" lon="9.8825225"><ele>594.6666666666666</ele><time>2026-05-01T08:19:54.95Z</time></trkpt><trkpt lat="45.6902539" lon="9.8823939"><ele>593.0</ele><time>2026-05-01T08:19:55.993Z</time></trkpt><trkpt lat="45.690216" lon="9.8822604"><ele>586.6</ele><time>2026-05-01T08:19:56.953Z</time></trkpt><trkpt lat="45.6901633" lon="9.8821344"><ele>580.1999999999999</ele><time>2026-05-01T08:19:57.96Z</time></trkpt><trkpt lat="45.6901037" lon="9.8820275"><ele>573.8</ele><time>2026-05-01T08:19:58.955Z</time></trkpt><trkpt lat="45.6900657" lon="9.8819084"><ele>567.4</ele><time>2026-05-01T08:19:59.958Z</time></trkpt><trkpt lat="45.6900333" lon="9.8817779"><ele>561.0</ele><time>2026-05-01T08:20:00.951Z</time></trkpt><trkpt lat="45.6900072" lon="9.8816629"><ele>560.5</ele><time>2026-05-01T08:20:01.951Z</time></trkpt><trkpt lat="45.6899818" lon="9.8815495"><ele>560.0</ele><time>2026-05-01T08:20:02.951Z</time></trkpt><trkpt lat="45.6899454" lon="9.8814267"><ele>559.5</ele><time>2026-05-01T08:20:03.962Z</time></trkpt><trkpt lat="45.689907" lon="9.8813145"><ele>559.0</ele><time>2026-05-01T08:20:05.035Z</time></trkpt><trkpt lat="45.6898616" lon="9.8812198"><ele>558.5</ele><time>2026-05-01T08:20:05.967Z</time></trkpt><trkpt lat="45.6898281" lon="9.8811173"><ele>558.0</ele><time>2026-05-01T08:20:06.963Z</time></trkpt><trkpt lat="45.6897941" lon="9.8810333"><ele>558.0</ele><time>2026-05-01T08:20:07.954Z</time></trkpt><trkpt lat="45.6897602" lon="9.8809491"><ele>558.0</ele><time>2026-05-01T08:20:08.948Z</time></trkpt><trkpt lat="45.6897123" lon="9.880793"><ele>558.0</ele><time>2026-05-01T08:20:11.043Z</time></trkpt><trkpt lat="45.6896796" lon="9.8806454"><ele>558.0</ele><time>2026-05-01T08:20:12.953Z</time></trkpt><trkpt lat="45.6896692" lon="9.8804667"><ele>558.0</ele><time>2026-05-01T08:20:14.95Z</time></trkpt><trkpt lat="45.6896883" lon="9.8803782"><ele>557.8333333333334</ele><time>2026-05-01T08:20:16.023Z</time></trkpt><trkpt lat="45.6897361" lon="9.880282"><ele>557.6666666666666</ele><time>2026-05-01T08:20:16.959Z</time></trkpt><trkpt lat="45.6897817" lon="9.8801935"><ele>557.5</ele><time>2026-05-01T08:20:17.954Z</time></trkpt><trkpt lat="45.689823" lon="9.8801187"><ele>557.3333333333333</ele><time>2026-05-01T08:20:18.957Z</time></trkpt><trkpt lat="45.6898778" lon="9.8800487"><ele>557.1666666666666</ele><time>2026-05-01T08:20:19.954Z</time></trkpt><trkpt lat="45.6899249" lon="9.8799784"><ele>557.0</ele><time>2026-05-01T08:20:20.949Z</time></trkpt><trkpt lat="45.6900097" lon="9.8798448"><ele>557.0</ele><time>2026-05-01T08:20:22.958Z</time></trkpt><trkpt lat="45.6900822" lon="9.8797028"><ele>557.0</ele><time>2026-05-01T08:20:24.95Z</time></trkpt><trkpt lat="45.6901321" lon="9.8795601"><ele>557.0</ele><time>2026-05-01T08:20:26.956Z</time></trkpt><trkpt lat="45.6901869" lon="9.8794047"><ele>557.0</ele><time>2026-05-01T08:20:28.954Z</time></trkpt><trkpt lat="45.6902143" lon="9.8793179"><ele>557.0</ele><time>2026-05-01T08:20:29.952Z</time></trkpt><trkpt lat="45.6902337" lon="9.8792125"><ele>555.0</ele><time>2026-05-01T08:20:30.948Z</time></trkpt><trkpt lat="45.6902087" lon="9.8790856"><ele>553.0</ele><time>2026-05-01T08:20:31.959Z</time></trkpt><trkpt lat="45.6901785" lon="9.8789691"><ele>551.0</ele><time>2026-05-01T08:20:32.949Z</time></trkpt><trkpt lat="45.6901695" lon="9.878862"><ele>549.0</ele><time>2026-05-01T08:20:33.956Z</time></trkpt><trkpt lat="45.6901872" lon="9.8787715"><ele>547.0</ele><time>2026-05-01T08:20:34.956Z</time></trkpt><trkpt lat="45.6902944" lon="9.8787345"><ele>545.0</ele><time>2026-05-01T08:20:36.955Z</time></trkpt><trkpt lat="45.6903877" lon="9.8788405"><ele>543.75</ele><time>2026-05-01T08:20:38.962Z</time></trkpt><trkpt lat="45.6905128" lon="9.8789365"><ele>542.5</ele><time>2026-05-01T08:20:41.027Z</time></trkpt><trkpt lat="45.6905983" lon="9.8790342"><ele>541.25</ele><time>2026-05-01T08:20:42.016Z</time></trkpt><trkpt lat="45.69068" lon="9.8791837"><ele>540.0</ele><time>2026-05-01T08:20:42.959Z</time></trkpt><trkpt lat="45.6907562" lon="9.879321"><ele>542.5</ele><time>2026-05-01T08:20:43.958Z</time></trkpt><trkpt lat="45.6908529" lon="9.8794307"><ele>545.0</ele><time>2026-05-01T08:20:45.016Z</time></trkpt><trkpt lat="45.6909691" lon="9.8795367"><ele>547.5</ele><time>2026-05-01T08:20:46.023Z</time></trkpt><trkpt lat="45.6910886" lon="9.8796322"><ele>550.0</ele><time>2026-05-01T08:20:46.963Z</time></trkpt><trkpt lat="45.6912254" lon="9.8796898"><ele>544.5</ele><time>2026-05-01T08:20:47.959Z</time></trkpt><trkpt lat="45.6913521" lon="9.8797325"><ele>539.0</ele><time>2026-05-01T08:20:48.963Z</time></trkpt><trkpt lat="45.6914783" lon="9.8797335"><ele>533.5</ele><time>2026-05-01T08:20:50.038Z</time></trkpt><trkpt lat="45.6916099" lon="9.8797134"><ele>528.0</ele><time>2026-05-01T08:20:51.024Z</time></trkpt><trkpt lat="45.6917374" lon="9.8796984"><ele>528.0</ele><time>2026-05-01T08:20:52.049Z</time></trkpt><trkpt lat="45.6918489" lon="9.8796928"><ele>528.0</ele><time>2026-05-01T08:20:52.952Z</time></trkpt><trkpt lat="45.6919559" lon="9.8796831"><ele>528.0</ele><time>2026-05-01T08:20:53.956Z</time></trkpt><trkpt lat="45.6920583" lon="9.8796543"><ele>528.0</ele><time>2026-05-01T08:20:54.962Z</time></trkpt><trkpt lat="45.6921605" lon="9.8795709"><ele>528.0</ele><time>2026-05-01T08:20:56.015Z</time></trkpt><trkpt lat="45.6922314" lon="9.8794475"><ele>526.4</ele><time>2026-05-01T08:20:57.014Z</time></trkpt><trkpt lat="45.6922969" lon="9.8793265"><ele>524.8</ele><time>2026-05-01T08:20:57.952Z</time></trkpt><trkpt lat="45.6923621" lon="9.879208"><ele>523.2</ele><time>2026-05-01T08:20:58.956Z</time></trkpt><trkpt lat="45.6924154" lon="9.8790886"><ele>521.6</ele><time>2026-05-01T08:20:59.961Z</time></trkpt><trkpt lat="45.6924657" lon="9.8789742"><ele>520.0</ele><time>2026-05-01T08:21:00.956Z</time></trkpt><trkpt lat="45.692518" lon="9.8788622"><ele>520.0</ele><time>2026-05-01T08:21:01.959Z</time></trkpt><trkpt lat="45.6925713" lon="9.8787518"><ele>520.0</ele><time>2026-05-01T08:21:02.958Z</time></trkpt><trkpt lat="45.6926187" lon="9.8786387"><ele>520.0</ele><time>2026-05-01T08:21:03.963Z</time></trkpt><trkpt lat="45.6926521" lon="9.8785217"><ele>520.0</ele><time>2026-05-01T08:21:04.945Z</time></trkpt><trkpt lat="45.6926706" lon="9.8784098"><ele>520.0</ele><time>2026-05-01T08:21:06.037Z</time></trkpt><trkpt lat="45.6926677" lon="9.8783007"><ele>520.0</ele><time>2026-05-01T08:21:06.956Z</time></trkpt><trkpt lat="45.6926581" lon="9.8781859"><ele>520.1666666666667</ele><time>2026-05-01T08:21:07.958Z</time></trkpt><trkpt lat="45.6926485" lon="9.8780788"><ele>520.3333333333334</ele><time>2026-05-01T08:21:08.95Z</time></trkpt><trkpt lat="45.6926408" lon="9.8779805"><ele>520.5</ele><time>2026-05-01T08:21:10.02Z</time></trkpt><trkpt lat="45.6926312" lon="9.8778884"><ele>520.6666666666666</ele><time>2026-05-01T08:21:10.941Z</time></trkpt><trkpt lat="45.6926336" lon="9.8777353"><ele>520.8333333333333</ele><time>2026-05-01T08:21:12.961Z</time></trkpt><trkpt lat="45.6926482" lon="9.8776032"><ele>521.0</ele><time>2026-05-01T08:21:15.018Z</time></trkpt><trkpt lat="45.6926693" lon="9.8774971"><ele>521.1666666666666</ele><time>2026-05-01T08:21:16.952Z</time></trkpt><trkpt lat="45.6926928" lon="9.8773906"><ele>521.3333333333333</ele><time>2026-05-01T08:21:19.016Z</time></trkpt><trkpt lat="45.6927203" lon="9.8772836"><ele>521.5</ele><time>2026-05-01T08:21:20.96Z</time></trkpt><trkpt lat="45.6927426" lon="9.8771655"><ele>521.6666666666666</ele><time>2026-05-01T08:21:22.948Z</time></trkpt><trkpt lat="45.6927777" lon="9.877047"><ele>521.8333333333334</ele><time>2026-05-01T08:21:24.957Z</time></trkpt><trkpt lat="45.692817" lon="9.8769285"><ele>522.0</ele><time>2026-05-01T08:21:26.97Z</time></trkpt><trkpt lat="45.6928591" lon="9.8767953"><ele>522.2</ele><time>2026-05-01T08:21:28.953Z</time></trkpt><trkpt lat="45.6929061" lon="9.8766576"><ele>522.4000000000001</ele><time>2026-05-01T08:21:30.95Z</time></trkpt><trkpt lat="45.6929486" lon="9.8765372"><ele>522.5999999999999</ele><time>2026-05-01T08:21:32.94Z</time></trkpt><trkpt lat="45.6930031" lon="9.8764011"><ele>522.8</ele><time>2026-05-01T08:21:34.959Z</time></trkpt><trkpt lat="45.6930511" lon="9.8762844"><ele>523.0</ele><time>2026-05-01T08:21:36.975Z</time></trkpt><trkpt lat="45.6931093" lon="9.8761666"><ele>523.0</ele><time>2026-05-01T08:21:38.948Z</time></trkpt><trkpt lat="45.6931654" lon="9.8760254"><ele>523.0</ele><time>2026-05-01T08:21:40.951Z</time></trkpt><trkpt lat="45.6932329" lon="9.875903"><ele>523.0</ele><time>2026-05-01T08:21:42.955Z</time></trkpt><trkpt lat="45.6933016" lon="9.8757752"><ele>523.0</ele><time>2026-05-01T08:21:44.955Z</time></trkpt><trkpt lat="45.6933706" lon="9.8756686"><ele>523.0</ele><time>2026-05-01T08:21:46.947Z</time></trkpt><trkpt lat="45.6934385" lon="9.8755981"><ele>522.4</ele><time>2026-05-01T08:21:48.958Z</time></trkpt><trkpt lat="45.6935082" lon="9.8755333"><ele>521.8</ele><time>2026-05-01T08:21:50.96Z</time></trkpt><trkpt lat="45.6935764" lon="9.8754679"><ele>521.2</ele><time>2026-05-01T08:21:52.962Z</time></trkpt><trkpt lat="45.6936493" lon="9.8754178"><ele>520.6</ele><time>2026-05-01T08:21:54.964Z</time></trkpt><trkpt lat="45.6937324" lon="9.8753404"><ele>520.0</ele><time>2026-05-01T08:21:56.96Z</time></trkpt><trkpt lat="45.6938302" lon="9.8752468"><ele>518.3333333333334</ele><time>2026-05-01T08:21:58.949Z</time></trkpt><trkpt lat="45.6938936" lon="9.8751893"><ele>516.6666666666667</ele><time>2026-05-01T08:21:59.963Z</time></trkpt><trkpt lat="45.6939591" lon="9.8751196"><ele>515.0</ele><time>2026-05-01T08:22:00.959Z</time></trkpt><trkpt lat="45.6940169" lon="9.8750387"><ele>513.3333333333334</ele><time>2026-05-01T08:22:01.969Z</time></trkpt><trkpt lat="45.694078" lon="9.874949"><ele>511.6666666666667</ele><time>2026-05-01T08:22:02.956Z</time></trkpt><trkpt lat="45.6941373" lon="9.8748553"><ele>510.0</ele><time>2026-05-01T08:22:03.957Z</time></trkpt><trkpt lat="45.6941955" lon="9.8747432"><ele>510.0</ele><time>2026-05-01T08:22:04.943Z</time></trkpt><trkpt lat="45.6942292" lon="9.8746134"><ele>510.0</ele><time>2026-05-01T08:22:05.961Z</time></trkpt><trkpt lat="45.69426" lon="9.8744686"><ele>510.0</ele><time>2026-05-01T08:22:06.956Z</time></trkpt><trkpt lat="45.6943059" lon="9.8743087"><ele>510.0</ele><time>2026-05-01T08:22:07.96Z</time></trkpt><trkpt lat="45.6943664" lon="9.8741468"><ele>504.5</ele><time>2026-05-01T08:22:08.954Z</time></trkpt><trkpt lat="45.6944361" lon="9.8739894"><ele>499.0</ele><time>2026-05-01T08:22:10.028Z</time></trkpt><trkpt lat="45.6945265" lon="9.8738485"><ele>493.5</ele><time>2026-05-01T08:22:11.033Z</time></trkpt><trkpt lat="45.6946354" lon="9.8737136"><ele>488.0</ele><time>2026-05-01T08:22:11.96Z</time></trkpt><trkpt lat="45.6947388" lon="9.8736084"><ele>488.0</ele><time>2026-05-01T08:22:12.963Z</time></trkpt><trkpt lat="45.694846" lon="9.8735313"><ele>487.99999999999994</ele><time>2026-05-01T08:22:13.957Z</time></trkpt><trkpt lat="45.694949" lon="9.8734556"><ele>487.99999999999994</ele><time>2026-05-01T08:22:14.964Z</time></trkpt><trkpt lat="45.6950367" lon="9.873407"><ele>488.0</ele><time>2026-05-01T08:22:15.972Z</time></trkpt><trkpt lat="45.6951278" lon="9.873354"><ele>488.0</ele><time>2026-05-01T08:22:16.964Z</time></trkpt><trkpt lat="45.6952016" lon="9.873314"><ele>487.2</ele><time>2026-05-01T08:22:17.965Z</time></trkpt><trkpt lat="45.6953157" lon="9.8732431"><ele>486.4</ele><time>2026-05-01T08:22:19.969Z</time></trkpt><trkpt lat="45.6953637" lon="9.8731836"><ele>485.59999999999997</ele><time>2026-05-01T08:22:20.965Z</time></trkpt><trkpt lat="45.6953509" lon="9.87303"><ele>484.79999999999995</ele><time>2026-05-01T08:22:22.963Z</time></trkpt><trkpt lat="45.6952708" lon="9.8729089"><ele>484.0</ele><time>2026-05-01T08:22:24.967Z</time></trkpt><trkpt lat="45.6952049" lon="9.8728124"><ele>484.0</ele><time>2026-05-01T08:22:27.039Z</time></trkpt><trkpt lat="45.6951062" lon="9.8727396"><ele>484.0</ele><time>2026-05-01T08:22:28.968Z</time></trkpt><trkpt lat="45.6950448" lon="9.8727185"><ele>484.0</ele><time>2026-05-01T08:22:29.97Z</time></trkpt><trkpt lat="45.6949476" lon="9.8726718"><ele>484.0</ele><time>2026-05-01T08:22:32.052Z</time></trkpt><trkpt lat="45.6948261" lon="9.8726185"><ele>484.0</ele><time>2026-05-01T08:22:33.964Z</time></trkpt><trkpt lat="45.6947613" lon="9.8725786"><ele>483.0</ele><time>2026-05-01T08:22:34.991Z</time></trkpt><trkpt lat="45.6946961" lon="9.8725181"><ele>481.99999999999994</ele><time>2026-05-01T08:22:36.032Z</time></trkpt><trkpt lat="45.6946493" lon="9.8724505"><ele>481.0</ele><time>2026-05-01T08:22:36.965Z</time></trkpt><trkpt lat="45.6946201" lon="9.8723659"><ele>480.0</ele><time>2026-05-01T08:22:37.965Z</time></trkpt><trkpt lat="45.6946082" lon="9.8722632"><ele>478.99999999999994</ele><time>2026-05-01T08:22:38.971Z</time></trkpt><trkpt lat="45.6946101" lon="9.87215"><ele>478.0</ele><time>2026-05-01T08:22:39.962Z</time></trkpt><trkpt lat="45.6946076" lon="9.8720441"><ele>477.0</ele><time>2026-05-01T08:22:40.967Z</time></trkpt><trkpt lat="45.6946125" lon="9.871949"><ele>477.0</ele><time>2026-05-01T08:22:42.047Z</time></trkpt><trkpt lat="45.6946164" lon="9.8718439"><ele>476.99999999999994</ele><time>2026-05-01T08:22:42.949Z</time></trkpt><trkpt lat="45.6946221" lon="9.8717407"><ele>477.0</ele><time>2026-05-01T08:22:44.04Z</time></trkpt><trkpt lat="45.694626" lon="9.8716283"><ele>477.0</ele><time>2026-05-01T08:22:44.972Z</time></trkpt><trkpt lat="45.6946302" lon="9.8715224"><ele>476.99999999999994</ele><time>2026-05-01T08:22:45.976Z</time></trkpt><trkpt lat="45.6946245" lon="9.8714182"><ele>477.0</ele><time>2026-05-01T08:22:46.968Z</time></trkpt><trkpt lat="45.694618" lon="9.871327"><ele>477.0</ele><time>2026-05-01T08:22:47.97Z</time></trkpt><trkpt lat="45.6945674" lon="9.8711639"><ele>476.3333333333333</ele><time>2026-05-01T08:22:49.973Z</time></trkpt><trkpt lat="45.6945184" lon="9.8710197"><ele>475.66666666666663</ele><time>2026-05-01T08:22:52.029Z</time></trkpt><trkpt lat="45.6944933" lon="9.8709116"><ele>475.0</ele><time>2026-05-01T08:22:53.968Z</time></trkpt><trkpt lat="45.6944828" lon="9.8708159"><ele>474.3333333333333</ele><time>2026-05-01T08:22:57.049Z</time></trkpt><trkpt lat="45.6945443" lon="9.8708676"><ele>473.66666666666663</ele><time>2026-05-01T08:23:00.968Z</time></trkpt><trkpt lat="45.6946386" lon="9.8709317"><ele>473.0</ele><time>2026-05-01T08:23:03.965Z</time></trkpt><trkpt lat="45.6947273" lon="9.8710153"><ele>473.0</ele><time>2026-05-01T08:23:06.026Z</time></trkpt><trkpt lat="45.6947734" lon="9.8711319"><ele>472.99999999999994</ele><time>2026-05-01T08:23:07.952Z</time></trkpt><trkpt lat="45.6948032" lon="9.8713013"><ele>472.99999999999994</ele><time>2026-05-01T08:23:09.96Z</time></trkpt><trkpt lat="45.6948455" lon="9.8714275"><ele>473.0</ele><time>2026-05-01T08:23:11.961Z</time></trkpt><trkpt lat="45.6948753" lon="9.8715099"><ele>473.0</ele><time>2026-05-01T08:23:13.958Z</time></trkpt><trkpt lat="45.6949586" lon="9.8714515"><ele>472.99999999999994</ele><time>2026-05-01T08:23:17.031Z</time></trkpt><trkpt lat="45.6950259" lon="9.8714195"><ele>473.0</ele><time>2026-05-01T08:23:18.964Z</time></trkpt><trkpt lat="45.6951218" lon="9.8713939"><ele>473.0</ele><time>2026-05-01T08:23:20.964Z</time></trkpt><trkpt lat="45.6952056" lon="9.871399"><ele>473.0</ele><time>2026-05-01T08:23:22.966Z</time></trkpt><trkpt lat="45.6952702" lon="9.8713884"><ele>472.99999999999994</ele><time>2026-05-01T08:23:25.042Z</time></trkpt><trkpt lat="45.6953365" lon="9.8714387"><ele>473.0</ele><time>2026-05-01T08:23:27.95Z</time></trkpt><trkpt lat="45.6953709" lon="9.8715437"><ele>472.7142857142857</ele><time>2026-05-01T08:23:30.955Z</time></trkpt><trkpt lat="45.6954151" lon="9.87161"><ele>472.42857142857144</ele><time>2026-05-01T08:23:32.943Z</time></trkpt><trkpt lat="45.695466" lon="9.8716834"><ele>472.14285714285717</ele><time>2026-05-01T08:23:34.951Z</time></trkpt><trkpt lat="45.6955193" lon="9.8717454"><ele>471.8571428571429</ele><time>2026-05-01T08:23:37.03Z</time></trkpt><trkpt lat="45.6955753" lon="9.8718022"><ele>471.57142857142856</ele><time>2026-05-01T08:23:38.967Z</time></trkpt><trkpt lat="45.6956316" lon="9.8718891"><ele>471.28571428571433</ele><time>2026-05-01T08:23:40.971Z</time></trkpt><trkpt lat="45.6957038" lon="9.8719609"><ele>471.00000000000006</ele><time>2026-05-01T08:23:42.974Z</time></trkpt><trkpt lat="45.6957777" lon="9.8720248"><ele>471.0</ele><time>2026-05-01T08:23:45.036Z</time></trkpt><trkpt lat="45.6958607" lon="9.8720909"><ele>471.0</ele><time>2026-05-01T08:23:47.015Z</time></trkpt><trkpt lat="45.6959308" lon="9.8721616"><ele>471.0</ele><time>2026-05-01T08:23:48.963Z</time></trkpt><trkpt lat="45.696003" lon="9.8722548"><ele>471.0</ele><time>2026-05-01T08:23:50.965Z</time></trkpt><trkpt lat="45.6960817" lon="9.8723408"><ele>471.0</ele><time>2026-05-01T08:23:52.961Z</time></trkpt><trkpt lat="45.6961508" lon="9.8724154"><ele>470.1666666666667</ele><time>2026-05-01T08:23:54.972Z</time></trkpt><trkpt lat="45.6962445" lon="9.8724808"><ele>469.33333333333337</ele><time>2026-05-01T08:23:56.97Z</time></trkpt><trkpt lat="45.6963207" lon="9.8725302"><ele>468.5</ele><time>2026-05-01T08:23:58.971Z</time></trkpt><trkpt lat="45.6964059" lon="9.872576"><ele>467.6666666666667</ele><time>2026-05-01T08:24:01.967Z</time></trkpt><trkpt lat="45.6964839" lon="9.8725957"><ele>466.83333333333337</ele><time>2026-05-01T08:24:05.013Z</time></trkpt><trkpt lat="45.6965672" lon="9.8726135"><ele>466.0</ele><time>2026-05-01T08:24:07.972Z</time></trkpt><trkpt lat="45.6966292" lon="9.8725938"><ele>465.20000000000005</ele><time>2026-05-01T08:24:09.969Z</time></trkpt><trkpt lat="45.696721" lon="9.8725595"><ele>464.40000000000003</ele><time>2026-05-01T08:24:11.975Z</time></trkpt><trkpt lat="45.6968015" lon="9.8725356"><ele>463.6</ele><time>2026-05-01T08:24:14.028Z</time></trkpt><trkpt lat="45.6969229" lon="9.8725122"><ele>462.8</ele><time>2026-05-01T08:24:16.032Z</time></trkpt><trkpt lat="45.6970213" lon="9.8725065"><ele>462.0</ele><time>2026-05-01T08:24:17.96Z</time></trkpt><trkpt lat="45.6970897" lon="9.8724946"><ele>460.0</ele><time>2026-05-01T08:24:18.961Z</time></trkpt><trkpt lat="45.6971731" lon="9.8724764"><ele>458.0</ele><time>2026-05-01T08:24:20.96Z</time></trkpt><trkpt lat="45.6972524" lon="9.8724678"><ele>456.0</ele><time>2026-05-01T08:24:22.96Z</time></trkpt><trkpt lat="45.6973321" lon="9.8724584"><ele>454.0</ele><time>2026-05-01T08:24:24.959Z</time></trkpt><trkpt lat="45.6974328" lon="9.8725079"><ele>452.0</ele><time>2026-05-01T08:24:27.029Z</time></trkpt><trkpt lat="45.6975165" lon="9.8725438"><ele>450.0</ele><time>2026-05-01T08:24:28.96Z</time></trkpt><trkpt lat="45.6975906" lon="9.8725899"><ele>450.5</ele><time>2026-05-01T08:24:30.957Z</time></trkpt><trkpt lat="45.6976573" lon="9.8726741"><ele>451.0</ele><time>2026-05-01T08:24:32.959Z</time></trkpt><trkpt lat="45.6977053" lon="9.8727604"><ele>451.5</ele><time>2026-05-01T08:24:35.033Z</time></trkpt><trkpt lat="45.69777" lon="9.872789"><ele>452.0</ele><time>2026-05-01T08:24:37.966Z</time></trkpt><trkpt lat="45.6978691" lon="9.8727998"><ele>452.5</ele><time>2026-05-01T08:25:03.953Z</time></trkpt><trkpt lat="45.6979537" lon="9.8728114"><ele>453.0</ele><time>2026-05-01T08:25:11.944Z</time></trkpt><trkpt lat="45.6980244" lon="9.8728436"><ele>450.3333333333333</ele><time>2026-05-01T08:25:14.953Z</time></trkpt><trkpt lat="45.6980888" lon="9.8729624"><ele>447.66666666666663</ele><time>2026-05-01T08:25:24.953Z</time></trkpt><trkpt lat="45.6981298" lon="9.8730572"><ele>445.0</ele><time>2026-05-01T08:25:27.951Z</time></trkpt><trkpt lat="45.6981713" lon="9.8731508"><ele>442.3333333333333</ele><time>2026-05-01T08:25:30.951Z</time></trkpt><trkpt lat="45.6982111" lon="9.8732672"><ele>439.66666666666663</ele><time>2026-05-01T08:25:33.951Z</time></trkpt><trkpt lat="45.6982463" lon="9.8733485"><ele>437.0</ele><time>2026-05-01T08:25:35.965Z</time></trkpt><trkpt lat="45.698296" lon="9.8734169"><ele>435.57142857142856</ele><time>2026-05-01T08:25:37.969Z</time></trkpt><trkpt lat="45.6983567" lon="9.8734912"><ele>434.14285714285717</ele><time>2026-05-01T08:25:39.97Z</time></trkpt><trkpt lat="45.6984039" lon="9.873556"><ele>432.7142857142857</ele><time>2026-05-01T08:25:42.032Z</time></trkpt><trkpt lat="45.6984469" lon="9.8736287"><ele>431.2857142857143</ele><time>2026-05-01T08:25:43.964Z</time></trkpt><trkpt lat="45.6984938" lon="9.8736981"><ele>429.8571428571429</ele><time>2026-05-01T08:25:45.97Z</time></trkpt><trkpt lat="45.6985425" lon="9.8737634"><ele>428.42857142857144</ele><time>2026-05-01T08:25:47.969Z</time></trkpt><trkpt lat="45.6985973" lon="9.8738226"><ele>427.0</ele><time>2026-05-01T08:25:49.965Z</time></trkpt><trkpt lat="45.6986473" lon="9.8738795"><ele>424.00000000000006</ele><time>2026-05-01T08:25:51.962Z</time></trkpt><trkpt lat="45.698703" lon="9.8739358"><ele>421.0</ele><time>2026-05-01T08:25:53.97Z</time></trkpt><trkpt lat="45.6987202" lon="9.8740665"><ele>418.0</ele><time>2026-05-01T08:25:56.968Z</time></trkpt><trkpt lat="45.6986981" lon="9.8742019"><ele>415.0</ele><time>2026-05-01T08:25:59.964Z</time></trkpt><trkpt lat="45.6986829" lon="9.8743061"><ele>412.00000000000006</ele><time>2026-05-01T08:26:01.967Z</time></trkpt><trkpt lat="45.6986829" lon="9.8744154"><ele>409.0</ele><time>2026-05-01T08:26:03.963Z</time></trkpt><trkpt lat="45.6987294" lon="9.8745242"><ele>407.33333333333337</ele><time>2026-05-01T08:26:06.96Z</time></trkpt><trkpt lat="45.6987797" lon="9.8746325"><ele>405.6666666666667</ele><time>2026-05-01T08:26:08.956Z</time></trkpt><trkpt lat="45.698833" lon="9.8747309"><ele>404.0</ele><time>2026-05-01T08:26:10.968Z</time></trkpt><trkpt lat="45.6988871" lon="9.8747783"><ele>402.33333333333337</ele><time>2026-05-01T08:26:13.971Z</time></trkpt><trkpt lat="45.6989449" lon="9.874836"><ele>400.6666666666667</ele><time>2026-05-01T08:26:15.965Z</time></trkpt><trkpt lat="45.6990194" lon="9.8748517"><ele>399.0</ele><time>2026-05-01T08:26:17.965Z</time></trkpt><trkpt lat="45.6991058" lon="9.8749506"><ele>399.0</ele><time>2026-05-01T08:26:19.968Z</time></trkpt><trkpt lat="45.699184" lon="9.8749646"><ele>399.0</ele><time>2026-05-01T08:26:21.967Z</time></trkpt><trkpt lat="45.6992634" lon="9.8749201"><ele>399.0</ele><time>2026-05-01T08:26:23.96Z</time></trkpt><trkpt lat="45.6993607" lon="9.8748645"><ele>399.0</ele><time>2026-05-01T08:26:25.966Z</time></trkpt><trkpt lat="45.6994607" lon="9.8748065"><ele>399.0</ele><time>2026-05-01T08:26:27.961Z</time></trkpt><trkpt lat="45.6995313" lon="9.8747186"><ele>396.5</ele><time>2026-05-01T08:26:29.963Z</time></trkpt><trkpt lat="45.6995947" lon="9.8746314"><ele>394.0</ele><time>2026-05-01T08:26:31.96Z</time></trkpt><trkpt lat="45.6996394" lon="9.8745226"><ele>391.5</ele><time>2026-05-01T08:26:34.962Z</time></trkpt><trkpt lat="45.6996049" lon="9.8744389"><ele>389.0</ele><time>2026-05-01T08:26:37.961Z</time></trkpt><trkpt lat="45.6995505" lon="9.8743569"><ele>386.5</ele><time>2026-05-01T08:26:39.957Z</time></trkpt><trkpt lat="45.6995406" lon="9.8742538"><ele>384.0</ele><time>2026-05-01T08:26:41.966Z</time></trkpt><trkpt lat="45.6995608" lon="9.8741476"><ele>384.0</ele><time>2026-05-01T08:26:43.962Z</time></trkpt><trkpt lat="45.6995669" lon="9.8740448"><ele>384.0</ele><time>2026-05-01T08:26:46.962Z</time></trkpt><trkpt lat="45.6995815" lon="9.8739322"><ele>384.0</ele><time>2026-05-01T08:26:49.965Z</time></trkpt><trkpt lat="45.6995646" lon="9.87383"><ele>384.0</ele><time>2026-05-01T08:26:52.973Z</time></trkpt><trkpt lat="45.6995681" lon="9.8737254"><ele>384.0</ele><time>2026-05-01T08:26:56.966Z</time></trkpt><trkpt lat="45.6996052" lon="9.8735939"><ele>384.0</ele><time>2026-05-01T08:26:59.951Z</time></trkpt><trkpt lat="45.6996335" lon="9.8735103"><ele>386.1666666666667</ele><time>2026-05-01T08:27:01.959Z</time></trkpt><trkpt lat="45.6996734" lon="9.8734004"><ele>388.33333333333337</ele><time>2026-05-01T08:27:04.965Z</time></trkpt><trkpt lat="45.6997092" lon="9.8733196"><ele>390.5</ele><time>2026-05-01T08:27:07.965Z</time></trkpt><trkpt lat="45.6997699" lon="9.873229"><ele>392.6666666666667</ele><time>2026-05-01T08:27:11.972Z</time></trkpt><trkpt lat="45.6998251" lon="9.87313"><ele>394.83333333333337</ele><time>2026-05-01T08:27:14.964Z</time></trkpt><trkpt lat="45.6998657" lon="9.8730274"><ele>397.0</ele><time>2026-05-01T08:27:16.974Z</time></trkpt><trkpt lat="45.6999071" lon="9.872952"><ele>397.00000000000006</ele><time>2026-05-01T08:27:18.963Z</time></trkpt><trkpt lat="45.6999805" lon="9.8728846"><ele>397.0</ele><time>2026-05-01T08:27:21.961Z</time></trkpt><trkpt lat="45.7000395" lon="9.8728038"><ele>397.0</ele><time>2026-05-01T08:27:24.969Z</time></trkpt><trkpt lat="45.7000908" lon="9.8727319"><ele>397.0</ele><time>2026-05-01T08:27:28.965Z</time></trkpt><trkpt lat="45.7001539" lon="9.8726105"><ele>397.00000000000006</ele><time>2026-05-01T08:27:30.961Z</time></trkpt><trkpt lat="45.7002146" lon="9.8724967"><ele>397.0</ele><time>2026-05-01T08:27:32.964Z</time></trkpt><trkpt lat="45.7002933" lon="9.8723876"><ele>395.6</ele><time>2026-05-01T08:27:34.959Z</time></trkpt><trkpt lat="45.7003731" lon="9.8723002"><ele>394.20000000000005</ele><time>2026-05-01T08:27:36.96Z</time></trkpt><trkpt lat="45.7004471" lon="9.8722069"><ele>392.8</ele><time>2026-05-01T08:27:38.972Z</time></trkpt><trkpt lat="45.7005246" lon="9.8721346"><ele>391.4</ele><time>2026-05-01T08:27:40.965Z</time></trkpt><trkpt lat="45.7005965" lon="9.8720624"><ele>390.0</ele><time>2026-05-01T08:27:42.957Z</time></trkpt><trkpt lat="45.700672" lon="9.8719739"><ele>390.0</ele><time>2026-05-01T08:27:44.957Z</time></trkpt><trkpt lat="45.7007538" lon="9.8718865"><ele>390.0</ele><time>2026-05-01T08:27:47.032Z</time></trkpt><trkpt lat="45.700833" lon="9.8718046"><ele>390.0</ele><time>2026-05-01T08:27:48.974Z</time></trkpt><trkpt lat="45.7009061" lon="9.8717148"><ele>390.0</ele><time>2026-05-01T08:27:50.961Z</time></trkpt><trkpt lat="45.7009835" lon="9.8716247"><ele>390.0</ele><time>2026-05-01T08:27:52.974Z</time></trkpt><trkpt lat="45.7010626" lon="9.8715526"><ele>387.0</ele><time>2026-05-01T08:27:53.969Z</time></trkpt><trkpt lat="45.7011144" lon="9.8714861"><ele>384.0</ele><time>2026-05-01T08:27:54.957Z</time></trkpt><trkpt lat="45.7011905" lon="9.8714324"><ele>381.0</ele><time>2026-05-01T08:27:55.968Z</time></trkpt><trkpt lat="45.7013138" lon="9.8713454"><ele>378.0</ele><time>2026-05-01T08:27:57.969Z</time></trkpt><trkpt lat="45.7013892" lon="9.8712848"><ele>375.0</ele><time>2026-05-01T08:27:58.968Z</time></trkpt><trkpt lat="45.7014606" lon="9.871226"><ele>375.0</ele><time>2026-05-01T08:27:59.963Z</time></trkpt><trkpt lat="45.7015217" lon="9.8711657"><ele>375.0</ele><time>2026-05-01T08:28:00.967Z</time></trkpt><trkpt lat="45.7015822" lon="9.8711036"><ele>375.0</ele><time>2026-05-01T08:28:01.964Z</time></trkpt><trkpt lat="45.7016324" lon="9.8710394"><ele>375.0</ele><time>2026-05-01T08:28:02.964Z</time></trkpt><trkpt lat="45.7016888" lon="9.8709745"><ele>375.0</ele><time>2026-05-01T08:28:03.966Z</time></trkpt><trkpt lat="45.7017344" lon="9.8708944"><ele>375.0</ele><time>2026-05-01T08:28:04.962Z</time></trkpt><trkpt lat="45.7017826" lon="9.8708295"><ele>375.0</ele><time>2026-05-01T08:28:05.969Z</time></trkpt><trkpt lat="45.7018747" lon="9.8707035"><ele>370.1666666666667</ele><time>2026-05-01T08:28:07.96Z</time></trkpt><trkpt lat="45.7019229" lon="9.8706319"><ele>365.3333333333333</ele><time>2026-05-01T08:28:08.97Z</time></trkpt><trkpt lat="45.7019724" lon="9.8705685"><ele>360.5</ele><time>2026-05-01T08:28:09.967Z</time></trkpt><trkpt lat="45.7020159" lon="9.8704982"><ele>355.66666666666663</ele><time>2026-05-01T08:28:10.96Z</time></trkpt><trkpt lat="45.7020822" lon="9.8703817"><ele>350.8333333333333</ele><time>2026-05-01T08:28:12.967Z</time></trkpt><trkpt lat="45.7021385" lon="9.8702761"><ele>346.0</ele><time>2026-05-01T08:28:14.965Z</time></trkpt><trkpt lat="45.7021685" lon="9.8701956"><ele>347.8</ele><time>2026-05-01T08:28:16.969Z</time></trkpt><trkpt lat="45.7022089" lon="9.8701039"><ele>349.6</ele><time>2026-05-01T08:28:18.964Z</time></trkpt><trkpt lat="45.7022692" lon="9.8699904"><ele>351.4</ele><time>2026-05-01T08:28:20.973Z</time></trkpt><trkpt lat="45.7023382" lon="9.8698767"><ele>353.2</ele><time>2026-05-01T08:28:22.965Z</time></trkpt><trkpt lat="45.7024192" lon="9.8697779"><ele>355.0</ele><time>2026-05-01T08:28:24.966Z</time></trkpt><trkpt lat="45.7024643" lon="9.8697117"><ele>355.0</ele><time>2026-05-01T08:28:25.968Z</time></trkpt><trkpt lat="45.7025676" lon="9.8696248"><ele>355.0</ele><time>2026-05-01T08:28:27.966Z</time></trkpt><trkpt lat="45.7026545" lon="9.869547"><ele>355.0</ele><time>2026-05-01T08:28:29.964Z</time></trkpt><trkpt lat="45.7027087" lon="9.8694514"><ele>355.0</ele><time>2026-05-01T08:28:31.959Z</time></trkpt><trkpt lat="45.702779" lon="9.8693112"><ele>355.0</ele><time>2026-05-01T08:28:33.964Z</time></trkpt><trkpt lat="45.7028246" lon="9.8692357"><ele>351.0</ele><time>2026-05-01T08:28:35.969Z</time></trkpt><trkpt lat="45.7028833" lon="9.8691913"><ele>347.0</ele><time>2026-05-01T08:28:37.964Z</time></trkpt><trkpt lat="45.7029599" lon="9.8691133"><ele>343.0</ele><time>2026-05-01T08:28:39.957Z</time></trkpt><trkpt lat="45.7030162" lon="9.8690462"><ele>339.0</ele><time>2026-05-01T08:28:40.965Z</time></trkpt><trkpt lat="45.7030746" lon="9.8689621"><ele>335.0</ele><time>2026-05-01T08:28:41.971Z</time></trkpt><trkpt lat="45.7031125" lon="9.8688738"><ele>331.0</ele><time>2026-05-01T08:28:42.962Z</time></trkpt><trkpt lat="45.7031828" lon="9.8687422"><ele>331.0</ele><time>2026-05-01T08:28:44.965Z</time></trkpt><trkpt lat="45.7032651" lon="9.8685947"><ele>331.0</ele><time>2026-05-01T08:28:46.965Z</time></trkpt><trkpt lat="45.7033268" lon="9.8685038"><ele>331.0</ele><time>2026-05-01T08:28:47.965Z</time></trkpt><trkpt lat="45.7033712" lon="9.8684049"><ele>331.0</ele><time>2026-05-01T08:28:48.964Z</time></trkpt><trkpt lat="45.7033882" lon="9.8682916"><ele>331.0</ele><time>2026-05-01T08:28:49.96Z</time></trkpt><trkpt lat="45.7034167" lon="9.8681808"><ele>331.0</ele><time>2026-05-01T08:28:50.962Z</time></trkpt><trkpt lat="45.7034348" lon="9.8680677"><ele>331.0</ele><time>2026-05-01T08:28:51.967Z</time></trkpt><trkpt lat="45.7034513" lon="9.8679686"><ele>331.0</ele><time>2026-05-01T08:28:52.962Z</time></trkpt><trkpt lat="45.7034917" lon="9.8678319"><ele>331.0</ele><time>2026-05-01T08:28:54.97Z</time></trkpt><trkpt lat="45.7035645" lon="9.8676897"><ele>331.0</ele><time>2026-05-01T08:28:56.965Z</time></trkpt><trkpt lat="45.7036435" lon="9.8675887"><ele>324.66666666666663</ele><time>2026-05-01T08:28:58.975Z</time></trkpt><trkpt lat="45.7036453" lon="9.8674787"><ele>318.3333333333333</ele><time>2026-05-01T08:29:01.969Z</time></trkpt><trkpt lat="45.7036435" lon="9.8673812"><ele>312.0</ele><time>2026-05-01T08:29:26.969Z</time></trkpt><trkpt lat="45.7036528" lon="9.8672904"><ele>305.6666666666667</ele><time>2026-05-01T08:29:28.958Z</time></trkpt><trkpt lat="45.7036621" lon="9.86714"><ele>299.33333333333337</ele><time>2026-05-01T08:29:30.969Z</time></trkpt><trkpt lat="45.7036914" lon="9.8669906"><ele>293.0</ele><time>2026-05-01T08:29:32.96Z</time></trkpt><trkpt lat="45.7036914" lon="9.8668371"><ele>293.0</ele><time>2026-05-01T08:29:34.968Z</time></trkpt><trkpt lat="45.7036714" lon="9.8666877"><ele>293.0</ele><time>2026-05-01T08:29:36.96Z</time></trkpt><trkpt lat="45.7036892" lon="9.8665603"><ele>293.0</ele><time>2026-05-01T08:29:38.964Z</time></trkpt><trkpt lat="45.7037699" lon="9.8665644"><ele>293.0</ele><time>2026-05-01T08:29:40.957Z</time></trkpt><trkpt lat="45.7038375" lon="9.8667282"><ele>293.0</ele><time>2026-05-01T08:29:42.965Z</time></trkpt><trkpt lat="45.7038682" lon="9.8668286"><ele>293.0</ele><time>2026-05-01T08:29:43.966Z</time></trkpt><trkpt lat="45.7039003" lon="9.8669424"><ele>293.0</ele><time>2026-05-01T08:29:44.965Z</time></trkpt><trkpt lat="45.7039201" lon="9.8670745"><ele>293.0</ele><time>2026-05-01T08:29:45.966Z</time></trkpt><trkpt lat="45.7039393" lon="9.8672149"><ele>293.0</ele><time>2026-05-01T08:29:46.967Z</time></trkpt><trkpt lat="45.7039528" lon="9.8673733"><ele>293.0</ele><time>2026-05-01T08:29:47.964Z</time></trkpt><trkpt lat="45.7039656" lon="9.8675363"><ele>292.75</ele><time>2026-05-01T08:29:48.972Z</time></trkpt><trkpt lat="45.7039702" lon="9.867705"><ele>292.5</ele><time>2026-05-01T08:29:50.032Z</time></trkpt><trkpt lat="45.7039798" lon="9.8678692"><ele>292.25</ele><time>2026-05-01T08:29:51.04Z</time></trkpt><trkpt lat="45.7039811" lon="9.8680437"><ele>292.0</ele><time>2026-05-01T08:29:52.029Z</time></trkpt><trkpt lat="45.7039888" lon="9.8682069"><ele>292.0</ele><time>2026-05-01T08:29:52.952Z</time></trkpt><trkpt lat="45.7039978" lon="9.8683698"><ele>292.0</ele><time>2026-05-01T08:29:54.029Z</time></trkpt><trkpt lat="45.7040079" lon="9.8685378"><ele>292.0</ele><time>2026-05-01T08:29:55.033Z</time></trkpt><trkpt lat="45.7040238" lon="9.8686971"><ele>292.0</ele><time>2026-05-01T08:29:56.028Z</time></trkpt><trkpt lat="45.7040395" lon="9.868855"><ele>291.0</ele><time>2026-05-01T08:29:56.953Z</time></trkpt><trkpt lat="45.7040553" lon="9.8690288"><ele>290.0</ele><time>2026-05-01T08:29:57.957Z</time></trkpt><trkpt lat="45.7040702" lon="9.8691923"><ele>289.0</ele><time>2026-05-01T08:29:58.958Z</time></trkpt><trkpt lat="45.704079" lon="9.8693526"><ele>288.0</ele><time>2026-05-01T08:30:00.026Z</time></trkpt><trkpt lat="45.7040891" lon="9.8694986"><ele>287.0</ele><time>2026-05-01T08:30:01.028Z</time></trkpt><trkpt lat="45.7041102" lon="9.8696212"><ele>286.0</ele><time>2026-05-01T08:30:02.028Z</time></trkpt><trkpt lat="45.7041372" lon="9.8697191"><ele>285.0</ele><time>2026-05-01T08:30:02.955Z</time></trkpt><trkpt lat="45.7041801" lon="9.8697914"><ele>284.0</ele><time>2026-05-01T08:30:04.026Z</time></trkpt><trkpt lat="45.704287" lon="9.8698398"><ele>283.0</ele><time>2026-05-01T08:30:06.047Z</time></trkpt><trkpt lat="45.7044058" lon="9.8698709"><ele>281.16666666666663</ele><time>2026-05-01T08:30:07.957Z</time></trkpt><trkpt lat="45.7044613" lon="9.8699402"><ele>279.3333333333333</ele><time>2026-05-01T08:30:09.04Z</time></trkpt><trkpt lat="45.7044918" lon="9.8700544"><ele>277.5</ele><time>2026-05-01T08:30:10.031Z</time></trkpt><trkpt lat="45.7045172" lon="9.8701778"><ele>275.6666666666667</ele><time>2026-05-01T08:30:10.955Z</time></trkpt><trkpt lat="45.7045309" lon="9.8703171"><ele>273.83333333333337</ele><time>2026-05-01T08:30:12.025Z</time></trkpt><trkpt lat="45.7045455" lon="9.8704492"><ele>272.0</ele><time>2026-05-01T08:30:12.963Z</time></trkpt><trkpt lat="45.704556" lon="9.870563"><ele>271.85714285714283</ele><time>2026-05-01T08:30:13.967Z</time></trkpt><trkpt lat="45.7045802" lon="9.8706548"><ele>271.7142857142857</ele><time>2026-05-01T08:30:14.958Z</time></trkpt><trkpt lat="45.7046301" lon="9.8707303"><ele>271.57142857142856</ele><time>2026-05-01T08:30:16.963Z</time></trkpt><trkpt lat="45.7046934" lon="9.8707454"><ele>271.42857142857144</ele><time>2026-05-01T08:30:19.976Z</time></trkpt><trkpt lat="45.7047492" lon="9.8706759"><ele>271.2857142857143</ele><time>2026-05-01T08:30:22.967Z</time></trkpt><trkpt lat="45.7047919" lon="9.870561"><ele>271.1428571428571</ele><time>2026-05-01T08:30:25.959Z</time></trkpt><trkpt lat="45.7048154" lon="9.8704747"><ele>271.0</ele><time>2026-05-01T08:30:27.992Z</time></trkpt><trkpt lat="45.7048271" lon="9.8703816"><ele>271.0</ele><time>2026-05-01T08:30:29.951Z</time></trkpt><trkpt lat="45.7048368" lon="9.8702822"><ele>271.0</ele><time>2026-05-01T08:30:31.957Z</time></trkpt><trkpt lat="45.7048357" lon="9.8701608"><ele>271.0</ele><time>2026-05-01T08:30:33.96Z</time></trkpt><trkpt lat="45.7048326" lon="9.870032"><ele>271.0</ele><time>2026-05-01T08:30:35.956Z</time></trkpt><trkpt lat="45.7048267" lon="9.8699077"><ele>271.0</ele><time>2026-05-01T08:30:37.951Z</time></trkpt><trkpt lat="45.7048216" lon="9.8697772"><ele>271.0</ele><time>2026-05-01T08:30:40.047Z</time></trkpt><trkpt lat="45.7048189" lon="9.8696497"><ele>271.0</ele><time>2026-05-01T08:30:41.971Z</time></trkpt><trkpt lat="45.7048074" lon="9.8695194"><ele>271.0</ele><time>2026-05-01T08:30:43.97Z</time></trkpt><trkpt lat="45.7047974" lon="9.8693845"><ele>271.0</ele><time>2026-05-01T08:30:45.967Z</time></trkpt><trkpt lat="45.7047926" lon="9.8692375"><ele>271.0</ele><time>2026-05-01T08:30:47.972Z</time></trkpt><trkpt lat="45.7047839" lon="9.8690995"><ele>271.0</ele><time>2026-05-01T08:30:49.966Z</time></trkpt><trkpt lat="45.7047992" lon="9.8689583"><ele>271.0</ele><time>2026-05-01T08:30:51.965Z</time></trkpt><trkpt lat="45.704853" lon="9.8688392"><ele>271.0</ele><time>2026-05-01T08:30:53.964Z</time></trkpt><trkpt lat="45.7049477" lon="9.8687611"><ele>271.0</ele><time>2026-05-01T08:30:55.964Z</time></trkpt><trkpt lat="45.705046" lon="9.8687591"><ele>271.0</ele><time>2026-05-01T08:30:57.965Z</time></trkpt><trkpt lat="45.7051414" lon="9.86881"><ele>271.0</ele><time>2026-05-01T08:30:59.963Z</time></trkpt><trkpt lat="45.7052137" lon="9.8688912"><ele>270.66666666666663</ele><time>2026-05-01T08:31:01.966Z</time></trkpt><trkpt lat="45.7052493" lon="9.8689782"><ele>270.3333333333333</ele><time>2026-05-01T08:31:03.966Z</time></trkpt><trkpt lat="45.7052711" lon="9.8691006"><ele>270.0</ele><time>2026-05-01T08:31:06.965Z</time></trkpt><trkpt lat="45.7052936" lon="9.8692166"><ele>269.6666666666667</ele><time>2026-05-01T08:31:09.962Z</time></trkpt><trkpt lat="45.7053225" lon="9.8693442"><ele>269.33333333333337</ele><time>2026-05-01T08:31:12.969Z</time></trkpt><trkpt lat="45.7053423" lon="9.8694404"><ele>269.0</ele><time>2026-05-01T08:31:14.963Z</time></trkpt><trkpt lat="45.7053596" lon="9.8695414"><ele>269.0</ele><time>2026-05-01T08:31:16.968Z</time></trkpt><trkpt lat="45.7053762" lon="9.8696437"><ele>269.0</ele><time>2026-05-01T08:31:18.97Z</time></trkpt><trkpt lat="45.7054032" lon="9.8697494"><ele>269.0</ele><time>2026-05-01T08:31:20.967Z</time></trkpt><trkpt lat="45.7054343" lon="9.8698682"><ele>269.0</ele><time>2026-05-01T08:31:22.968Z</time></trkpt><trkpt lat="45.7054562" lon="9.8699896"><ele>269.0</ele><time>2026-05-01T08:31:25.036Z</time></trkpt><trkpt lat="45.7054727" lon="9.8701065"><ele>269.0</ele><time>2026-05-01T08:31:27.033Z</time></trkpt><trkpt lat="45.7055032" lon="9.8702287"><ele>269.2</ele><time>2026-05-01T08:31:28.97Z</time></trkpt><trkpt lat="45.7055359" lon="9.8703525"><ele>269.4</ele><time>2026-05-01T08:31:30.965Z</time></trkpt><trkpt lat="45.7055633" lon="9.8704724"><ele>269.6</ele><time>2026-05-01T08:31:32.967Z</time></trkpt><trkpt lat="45.7055897" lon="9.8705932"><ele>269.8</ele><time>2026-05-01T08:31:34.967Z</time></trkpt><trkpt lat="45.7056236" lon="9.8707189"><ele>270.0</ele><time>2026-05-01T08:31:36.959Z</time></trkpt><trkpt lat="45.7056559" lon="9.8708412"><ele>270.0</ele><time>2026-05-01T08:31:39.041Z</time></trkpt><trkpt lat="45.7056967" lon="9.8709589"><ele>270.0</ele><time>2026-05-01T08:31:40.961Z</time></trkpt><trkpt lat="45.7057422" lon="9.8710764"><ele>270.0</ele><time>2026-05-01T08:31:42.956Z</time></trkpt><trkpt lat="45.7057915" lon="9.8711929"><ele>270.0</ele><time>2026-05-01T08:31:44.961Z</time></trkpt><trkpt lat="45.7058374" lon="9.8713192"><ele>270.0</ele><time>2026-05-01T08:31:47.04Z</time></trkpt><trkpt lat="45.705882" lon="9.8714401"><ele>270.0</ele><time>2026-05-01T08:31:48.966Z</time></trkpt><trkpt lat="45.7059215" lon="9.8715656"><ele>270.0</ele><time>2026-05-01T08:31:51.028Z</time></trkpt><trkpt lat="45.705966" lon="9.8716892"><ele>270.0</ele><time>2026-05-01T08:31:52.968Z</time></trkpt><trkpt lat="45.7060059" lon="9.8718039"><ele>270.0</ele><time>2026-05-01T08:31:54.999Z</time></trkpt><trkpt lat="45.7060467" lon="9.8719217"><ele>270.0</ele><time>2026-05-01T08:31:57.028Z</time></trkpt><trkpt lat="45.706088" lon="9.8720426"><ele>270.0</ele><time>2026-05-01T08:31:58.964Z</time></trkpt><trkpt lat="45.706132" lon="9.8721585"><ele>270.0</ele><time>2026-05-01T08:32:00.967Z</time></trkpt><trkpt lat="45.7061735" lon="9.8722781"><ele>270.0</ele><time>2026-05-01T08:32:02.961Z</time></trkpt><trkpt lat="45.7062098" lon="9.8723892"><ele>270.0</ele><time>2026-05-01T08:32:04.967Z</time></trkpt><trkpt lat="45.706255" lon="9.8725064"><ele>270.0</ele><time>2026-05-01T08:32:06.968Z</time></trkpt><trkpt lat="45.7063016" lon="9.8726186"><ele>270.1666666666667</ele><time>2026-05-01T08:32:08.968Z</time></trkpt><trkpt lat="45.7063447" lon="9.8727275"><ele>270.3333333333333</ele><time>2026-05-01T08:32:11.029Z</time></trkpt><trkpt lat="45.706388" lon="9.8728416"><ele>270.5</ele><time>2026-05-01T08:32:12.959Z</time></trkpt><trkpt lat="45.7064344" lon="9.8729551"><ele>270.66666666666663</ele><time>2026-05-01T08:32:14.964Z</time></trkpt><trkpt lat="45.7064703" lon="9.8730646"><ele>270.8333333333333</ele><time>2026-05-01T08:32:16.966Z</time></trkpt><trkpt lat="45.7065059" lon="9.8731735"><ele>271.0</ele><time>2026-05-01T08:32:18.954Z</time></trkpt><trkpt lat="45.7065429" lon="9.8732817"><ele>271.0</ele><time>2026-05-01T08:32:20.965Z</time></trkpt><trkpt lat="45.7065811" lon="9.8733906"><ele>271.0</ele><time>2026-05-01T08:32:22.985Z</time></trkpt><trkpt lat="45.7066232" lon="9.873498"><ele>271.0</ele><time>2026-05-01T08:32:24.965Z</time></trkpt><trkpt lat="45.7066638" lon="9.8736104"><ele>271.0</ele><time>2026-05-01T08:32:26.962Z</time></trkpt><trkpt lat="45.7067118" lon="9.87371"><ele>271.0</ele><time>2026-05-01T08:32:28.962Z</time></trkpt><trkpt lat="45.7067557" lon="9.8738249"><ele>271.0</ele><time>2026-05-01T08:32:30.992Z</time></trkpt><trkpt lat="45.7067938" lon="9.8739373"><ele>271.5</ele><time>2026-05-01T08:32:32.97Z</time></trkpt><trkpt lat="45.7068291" lon="9.8740433"><ele>272.0</ele><time>2026-05-01T08:32:34.963Z</time></trkpt><trkpt lat="45.7068648" lon="9.8741509"><ele>272.5</ele><time>2026-05-01T08:32:36.968Z</time></trkpt><trkpt lat="45.7069037" lon="9.8742606"><ele>273.0</ele><time>2026-05-01T08:32:38.972Z</time></trkpt><trkpt lat="45.7069341" lon="9.8743668"><ele>273.5</ele><time>2026-05-01T08:32:40.963Z</time></trkpt><trkpt lat="45.7069757" lon="9.8744759"><ele>274.0</ele><time>2026-05-01T08:32:42.966Z</time></trkpt><trkpt lat="45.7070176" lon="9.8745865"><ele>274.0</ele><time>2026-05-01T08:32:44.961Z</time></trkpt><trkpt lat="45.7070528" lon="9.8746916"><ele>274.0</ele><time>2026-05-01T08:32:46.962Z</time></trkpt><trkpt lat="45.7070937" lon="9.8747999"><ele>274.0</ele><time>2026-05-01T08:32:49.042Z</time></trkpt><trkpt lat="45.7071246" lon="9.8749052"><ele>274.0</ele><time>2026-05-01T08:32:50.962Z</time></trkpt><trkpt lat="45.707164" lon="9.8750082"><ele>274.0</ele><time>2026-05-01T08:32:52.956Z</time></trkpt><trkpt lat="45.7072023" lon="9.8751074"><ele>274.0</ele><time>2026-05-01T08:32:54.958Z</time></trkpt><trkpt lat="45.7072273" lon="9.8752042"><ele>274.16666666666663</ele><time>2026-05-01T08:32:57.049Z</time></trkpt><trkpt lat="45.7072466" lon="9.8753292"><ele>274.3333333333333</ele><time>2026-05-01T08:32:59.961Z</time></trkpt><trkpt lat="45.707297" lon="9.8753969"><ele>274.5</ele><time>2026-05-01T08:33:01.968Z</time></trkpt><trkpt lat="45.7073589" lon="9.8754845"><ele>274.6666666666667</ele><time>2026-05-01T08:33:04.042Z</time></trkpt><trkpt lat="45.7074346" lon="9.8755918"><ele>274.83333333333337</ele><time>2026-05-01T08:33:06.031Z</time></trkpt><trkpt lat="45.7074934" lon="9.8756763"><ele>275.0</ele><time>2026-05-01T08:33:07.957Z</time></trkpt><trkpt lat="45.7075541" lon="9.8757602"><ele>275.0</ele><time>2026-05-01T08:33:09.957Z</time></trkpt><trkpt lat="45.7076149" lon="9.8758491"><ele>275.0</ele><time>2026-05-01T08:33:11.97Z</time></trkpt><trkpt lat="45.7076803" lon="9.8759447"><ele>275.0</ele><time>2026-05-01T08:33:13.964Z</time></trkpt><trkpt lat="45.707734" lon="9.8760298"><ele>275.0</ele><time>2026-05-01T08:33:15.946Z</time></trkpt><trkpt lat="45.7077981" lon="9.8761171"><ele>275.0</ele><time>2026-05-01T08:33:17.963Z</time></trkpt><trkpt lat="45.7078581" lon="9.8762088"><ele>275.0</ele><time>2026-05-01T08:33:19.96Z</time></trkpt><trkpt lat="45.7079175" lon="9.876273"><ele>275.8</ele><time>2026-05-01T08:33:21.97Z</time></trkpt><trkpt lat="45.7079942" lon="9.8763288"><ele>276.6</ele><time>2026-05-01T08:33:23.965Z</time></trkpt><trkpt lat="45.7080702" lon="9.876381"><ele>277.4</ele><time>2026-05-01T08:33:25.967Z</time></trkpt><trkpt lat="45.708159" lon="9.8764416"><ele>278.2</ele><time>2026-05-01T08:33:27.97Z</time></trkpt><trkpt lat="45.7082433" lon="9.8765169"><ele>279.0</ele><time>2026-05-01T08:33:29.969Z</time></trkpt><trkpt lat="45.7083372" lon="9.8765881"><ele>279.0</ele><time>2026-05-01T08:33:32.032Z</time></trkpt><trkpt lat="45.7084365" lon="9.8766483"><ele>279.0</ele><time>2026-05-01T08:33:33.961Z</time></trkpt><trkpt lat="45.708521" lon="9.87672"><ele>279.0</ele><time>2026-05-01T08:33:35.955Z</time></trkpt><trkpt lat="45.7086074" lon="9.8767919"><ele>279.0</ele><time>2026-05-01T08:33:37.956Z</time></trkpt><trkpt lat="45.7086987" lon="9.8768563"><ele>279.0</ele><time>2026-05-01T08:33:40.031Z</time></trkpt><trkpt lat="45.7087845" lon="9.8769255"><ele>280.0</ele><time>2026-05-01T08:33:42.037Z</time></trkpt><trkpt lat="45.7088649" lon="9.8769949"><ele>281.0</ele><time>2026-05-01T08:33:43.969Z</time></trkpt><trkpt lat="45.7089464" lon="9.8770703"><ele>282.0</ele><time>2026-05-01T08:33:46.027Z</time></trkpt><trkpt lat="45.7090272" lon="9.8771369"><ele>283.0</ele><time>2026-05-01T08:33:47.957Z</time></trkpt><trkpt lat="45.709111" lon="9.877209"><ele>284.0</ele><time>2026-05-01T08:33:50.048Z</time></trkpt><trkpt lat="45.7091849" lon="9.8772849"><ele>284.0</ele><time>2026-05-01T08:33:51.976Z</time></trkpt><trkpt lat="45.7092654" lon="9.8773638"><ele>284.0</ele><time>2026-05-01T08:33:53.966Z</time></trkpt><trkpt lat="45.7093398" lon="9.8774433"><ele>284.0</ele><time>2026-05-01T08:33:55.972Z</time></trkpt><trkpt lat="45.7094148" lon="9.8775239"><ele>284.0</ele><time>2026-05-01T08:33:58.008Z</time></trkpt><trkpt lat="45.709498" lon="9.877597"><ele>284.0</ele><time>2026-05-01T08:33:59.967Z</time></trkpt><trkpt lat="45.7095736" lon="9.8776738"><ele>283.6666666666667</ele><time>2026-05-01T08:34:02.042Z</time></trkpt><trkpt lat="45.7096439" lon="9.8777478"><ele>283.33333333333337</ele><time>2026-05-01T08:34:03.963Z</time></trkpt><trkpt lat="45.7097141" lon="9.8778037"><ele>283.0</ele><time>2026-05-01T08:34:05.964Z</time></trkpt><trkpt lat="45.7097866" lon="9.877852"><ele>282.6666666666667</ele><time>2026-05-01T08:34:07.957Z</time></trkpt><trkpt lat="45.7098477" lon="9.8779358"><ele>282.3333333333333</ele><time>2026-05-01T08:34:10.031Z</time></trkpt><trkpt lat="45.7099101" lon="9.8780426"><ele>282.0</ele><time>2026-05-01T08:34:11.961Z</time></trkpt><trkpt lat="45.7099749" lon="9.8781378"><ele>282.0</ele><time>2026-05-01T08:34:13.965Z</time></trkpt><trkpt lat="45.7100577" lon="9.8782223"><ele>282.0</ele><time>2026-05-01T08:34:16Z</time></trkpt><trkpt lat="45.7101423" lon="9.8783043"><ele>282.0</ele><time>2026-05-01T08:34:17.956Z</time></trkpt><trkpt lat="45.710228" lon="9.8783798"><ele>282.0</ele><time>2026-05-01T08:34:19.979Z</time></trkpt><trkpt lat="45.7103151" lon="9.8784544"><ele>282.0</ele><time>2026-05-01T08:34:22.028Z</time></trkpt><trkpt lat="45.7103972" lon="9.8785169"><ele>281.6</ele><time>2026-05-01T08:34:23.957Z</time></trkpt><trkpt lat="45.7104865" lon="9.8785786"><ele>281.2</ele><time>2026-05-01T08:34:26.037Z</time></trkpt><trkpt lat="45.7105634" lon="9.8786483"><ele>280.8</ele><time>2026-05-01T08:34:27.956Z</time></trkpt><trkpt lat="45.7106285" lon="9.8787373"><ele>280.4</ele><time>2026-05-01T08:34:29.976Z</time></trkpt><trkpt lat="45.7107298" lon="9.8788799"><ele>280.0</ele><time>2026-05-01T08:34:32.952Z</time></trkpt><trkpt lat="45.7107894" lon="9.878975"><ele>280.0</ele><time>2026-05-01T08:34:34.962Z</time></trkpt><trkpt lat="45.710835" lon="9.8790812"><ele>280.0</ele><time>2026-05-01T08:34:36.956Z</time></trkpt><trkpt lat="45.7108799" lon="9.8791923"><ele>280.0</ele><time>2026-05-01T08:34:38.954Z</time></trkpt><trkpt lat="45.71093" lon="9.8793025"><ele>280.0</ele><time>2026-05-01T08:34:40.957Z</time></trkpt><trkpt lat="45.7109777" lon="9.879398"><ele>280.0</ele><time>2026-05-01T08:34:42.952Z</time></trkpt><trkpt lat="45.711043" lon="9.8794769"><ele>280.0</ele><time>2026-05-01T08:34:44.952Z</time></trkpt><trkpt lat="45.711117" lon="9.8794932"><ele>280.0</ele><time>2026-05-01T08:34:46.946Z</time></trkpt><trkpt lat="45.7111986" lon="9.8795026"><ele>280.0</ele><time>2026-05-01T08:34:48.955Z</time></trkpt><trkpt lat="45.7112749" lon="9.8795616"><ele>280.0</ele><time>2026-05-01T08:34:50.954Z</time></trkpt><trkpt lat="45.7113304" lon="9.8796631"><ele>280.0</ele><time>2026-05-01T08:34:52.955Z</time></trkpt><trkpt lat="45.7113666" lon="9.879782"><ele>280.0</ele><time>2026-05-01T08:34:54.964Z</time></trkpt><trkpt lat="45.7113901" lon="9.8799118"><ele>280.0</ele><time>2026-05-01T08:34:56.959Z</time></trkpt><trkpt lat="45.7114229" lon="9.8800396"><ele>281.0</ele><time>2026-05-01T08:34:58.954Z</time></trkpt><trkpt lat="45.7114613" lon="9.880182"><ele>282.0</ele><time>2026-05-01T08:35:00.948Z</time></trkpt><trkpt lat="45.7114962" lon="9.8803126"><ele>283.0</ele><time>2026-05-01T08:35:02.955Z</time></trkpt><trkpt lat="45.7115323" lon="9.8804512"><ele>284.0</ele><time>2026-05-01T08:35:05.028Z</time></trkpt><trkpt lat="45.7115707" lon="9.8805954"><ele>285.0</ele><time>2026-05-01T08:35:07.026Z</time></trkpt><trkpt lat="45.7116245" lon="9.8807209"><ele>285.0</ele><time>2026-05-01T08:35:08.966Z</time></trkpt><trkpt lat="45.711693" lon="9.8808284"><ele>285.0</ele><time>2026-05-01T08:35:11.024Z</time></trkpt><trkpt lat="45.7117802" lon="9.880902"><ele>285.0</ele><time>2026-05-01T08:35:12.952Z</time></trkpt><trkpt lat="45.7118814" lon="9.8809608"><ele>285.0</ele><time>2026-05-01T08:35:14.977Z</time></trkpt><trkpt lat="45.711978" lon="9.8809916"><ele>285.0</ele><time>2026-05-01T08:35:17.036Z</time></trkpt><trkpt lat="45.7120899" lon="9.8810055"><ele>283.75</ele><time>2026-05-01T08:35:18.954Z</time></trkpt><trkpt lat="45.7122021" lon="9.8810118"><ele>282.5</ele><time>2026-05-01T08:35:21.037Z</time></trkpt><trkpt lat="45.712325" lon="9.8810109"><ele>281.25</ele><time>2026-05-01T08:35:22.954Z</time></trkpt><trkpt lat="45.712443" lon="9.8810029"><ele>280.0</ele><time>2026-05-01T08:35:25.032Z</time></trkpt><trkpt lat="45.7125555" lon="9.8810074"><ele>280.0</ele><time>2026-05-01T08:35:27.034Z</time></trkpt><trkpt lat="45.7126664" lon="9.8810168"><ele>280.0</ele><time>2026-05-01T08:35:28.958Z</time></trkpt><trkpt lat="45.7127602" lon="9.8810437"><ele>280.0</ele><time>2026-05-01T08:35:30.948Z</time></trkpt><trkpt lat="45.7128493" lon="9.8810863"><ele>280.0</ele><time>2026-05-01T08:35:32.951Z</time></trkpt><trkpt lat="45.712929" lon="9.8811526"><ele>280.0</ele><time>2026-05-01T08:35:34.976Z</time></trkpt><trkpt lat="45.7129832" lon="9.8812645"><ele>280.4</ele><time>2026-05-01T08:35:36.956Z</time></trkpt><trkpt lat="45.7130242" lon="9.8813647"><ele>280.8</ele><time>2026-05-01T08:35:38.948Z</time></trkpt><trkpt lat="45.7130501" lon="9.881493"><ele>281.2</ele><time>2026-05-01T08:35:40.95Z</time></trkpt><trkpt lat="45.7130688" lon="9.8816399"><ele>281.6</ele><time>2026-05-01T08:35:42.957Z</time></trkpt><trkpt lat="45.7130695" lon="9.8817863"><ele>282.0</ele><time>2026-05-01T08:35:44.955Z</time></trkpt><trkpt lat="45.7130614" lon="9.8819342"><ele>282.2</ele><time>2026-05-01T08:35:46.954Z</time></trkpt><trkpt lat="45.7130522" lon="9.8820918"><ele>282.4</ele><time>2026-05-01T08:35:48.954Z</time></trkpt><trkpt lat="45.71305" lon="9.8822405"><ele>282.6</ele><time>2026-05-01T08:35:50.952Z</time></trkpt><trkpt lat="45.7130416" lon="9.8823934"><ele>282.8</ele><time>2026-05-01T08:35:52.945Z</time></trkpt><trkpt lat="45.7130363" lon="9.8825394"><ele>283.0</ele><time>2026-05-01T08:35:54.946Z</time></trkpt><trkpt lat="45.713028" lon="9.882679"><ele>283.0</ele><time>2026-05-01T08:35:56.958Z</time></trkpt><trkpt lat="45.7130262" lon="9.8828371"><ele>283.0</ele><time>2026-05-01T08:35:58.952Z</time></trkpt><trkpt lat="45.7130325" lon="9.8829879"><ele>283.0</ele><time>2026-05-01T08:36:00.957Z</time></trkpt><trkpt lat="45.7130538" lon="9.8831274"><ele>283.0</ele><time>2026-05-01T08:36:02.954Z</time></trkpt><trkpt lat="45.7130625" lon="9.8832568"><ele>283.0</ele><time>2026-05-01T08:36:04.952Z</time></trkpt><trkpt lat="45.7130738" lon="9.8833888"><ele>284.0</ele><time>2026-05-01T08:36:06.953Z</time></trkpt><trkpt lat="45.7131149" lon="9.8834967"><ele>285.0</ele><time>2026-05-01T08:36:08.948Z</time></trkpt><trkpt lat="45.7131777" lon="9.8835948"><ele>286.0</ele><time>2026-05-01T08:36:10.949Z</time></trkpt><trkpt lat="45.7132541" lon="9.8836774"><ele>287.0</ele><time>2026-05-01T08:36:12.958Z</time></trkpt><trkpt lat="45.7133381" lon="9.8837734"><ele>288.0</ele><time>2026-05-01T08:36:14.954Z</time></trkpt><trkpt lat="45.7134018" lon="9.8838766"><ele>288.0</ele><time>2026-05-01T08:36:16.954Z</time></trkpt><trkpt lat="45.7134656" lon="9.8839886"><ele>288.0</ele><time>2026-05-01T08:36:18.954Z</time></trkpt><trkpt lat="45.7135114" lon="9.8841178"><ele>288.0</ele><time>2026-05-01T08:36:20.956Z</time></trkpt><trkpt lat="45.7135466" lon="9.8842556"><ele>288.0</ele><time>2026-05-01T08:36:22.949Z</time></trkpt><trkpt lat="45.7135706" lon="9.884394"><ele>288.0</ele><time>2026-05-01T08:36:24.95Z</time></trkpt><trkpt lat="45.7135912" lon="9.8845005"><ele>287.5</ele><time>2026-05-01T08:36:26.951Z</time></trkpt><trkpt lat="45.7136181" lon="9.8845919"><ele>287.0</ele><time>2026-05-01T08:36:28.952Z</time></trkpt><trkpt lat="45.7136423" lon="9.8846864"><ele>286.5</ele><time>2026-05-01T08:36:31.033Z</time></trkpt><trkpt lat="45.7136683" lon="9.8848008"><ele>286.0</ele><time>2026-05-01T08:36:32.956Z</time></trkpt><trkpt lat="45.7136897" lon="9.8849055"><ele>285.5</ele><time>2026-05-01T08:36:34.956Z</time></trkpt><trkpt lat="45.7137258" lon="9.8850022"><ele>285.0</ele><time>2026-05-01T08:36:36.96Z</time></trkpt><trkpt lat="45.7137683" lon="9.8850938"><ele>285.4</ele><time>2026-05-01T08:36:38.951Z</time></trkpt><trkpt lat="45.713817" lon="9.8852029"><ele>285.8</ele><time>2026-05-01T08:36:40.964Z</time></trkpt><trkpt lat="45.7138546" lon="9.8853239"><ele>286.2</ele><time>2026-05-01T08:36:42.961Z</time></trkpt><trkpt lat="45.7138825" lon="9.8854466"><ele>286.6</ele><time>2026-05-01T08:36:44.964Z</time></trkpt><trkpt lat="45.7139093" lon="9.885574"><ele>287.0</ele><time>2026-05-01T08:36:46.954Z</time></trkpt><trkpt lat="45.713951" lon="9.8856898"><ele>287.0</ele><time>2026-05-01T08:36:48.959Z</time></trkpt><trkpt lat="45.7140118" lon="9.8857894"><ele>287.0</ele><time>2026-05-01T08:36:51.043Z</time></trkpt><trkpt lat="45.714081" lon="9.8859015"><ele>287.0</ele><time>2026-05-01T08:36:52.963Z</time></trkpt><trkpt lat="45.714146" lon="9.8860149"><ele>287.0</ele><time>2026-05-01T08:36:54.962Z</time></trkpt><trkpt lat="45.7142072" lon="9.8861375"><ele>287.0</ele><time>2026-05-01T08:36:56.962Z</time></trkpt><trkpt lat="45.7142882" lon="9.8862744"><ele>286.5</ele><time>2026-05-01T08:36:59.044Z</time></trkpt><trkpt lat="45.7143319" lon="9.8863406"><ele>286.0</ele><time>2026-05-01T08:37:00.034Z</time></trkpt><trkpt lat="45.714373" lon="9.8864108"><ele>285.5</ele><time>2026-05-01T08:37:01.029Z</time></trkpt><trkpt lat="45.7144616" lon="9.8865341"><ele>285.0</ele><time>2026-05-01T08:37:02.97Z</time></trkpt><trkpt lat="45.7145471" lon="9.8866345"><ele>284.5</ele><time>2026-05-01T08:37:04.971Z</time></trkpt><trkpt lat="45.7146226" lon="9.8866984"><ele>284.0</ele><time>2026-05-01T08:37:06.965Z</time></trkpt><trkpt lat="45.7146963" lon="9.8867411"><ele>284.2</ele><time>2026-05-01T08:37:08.971Z</time></trkpt><trkpt lat="45.7147624" lon="9.8867798"><ele>284.4</ele><time>2026-05-01T08:37:10.959Z</time></trkpt><trkpt lat="45.7148696" lon="9.8868505"><ele>284.6</ele><time>2026-05-01T08:37:12.966Z</time></trkpt><trkpt lat="45.7149646" lon="9.886948"><ele>284.8</ele><time>2026-05-01T08:37:14.973Z</time></trkpt><trkpt lat="45.7150585" lon="9.8870309"><ele>285.0</ele><time>2026-05-01T08:37:16.989Z</time></trkpt><trkpt lat="45.7151332" lon="9.8871245"><ele>285.0</ele><time>2026-05-01T08:37:18.962Z</time></trkpt><trkpt lat="45.7152143" lon="9.8872083"><ele>285.0</ele><time>2026-05-01T08:37:21.011Z</time></trkpt><trkpt lat="45.7152909" lon="9.8873056"><ele>285.0</ele><time>2026-05-01T08:37:22.951Z</time></trkpt><trkpt lat="45.7153678" lon="9.887417"><ele>285.0</ele><time>2026-05-01T08:37:24.988Z</time></trkpt><trkpt lat="45.7154387" lon="9.8875315"><ele>285.0</ele><time>2026-05-01T08:37:27.032Z</time></trkpt><trkpt lat="45.7155093" lon="9.8876587"><ele>285.2</ele><time>2026-05-01T08:37:29.03Z</time></trkpt><trkpt lat="45.7155787" lon="9.8877762"><ele>285.4</ele><time>2026-05-01T08:37:31.032Z</time></trkpt><trkpt lat="45.7156527" lon="9.8878845"><ele>285.6</ele><time>2026-05-01T08:37:32.973Z</time></trkpt><trkpt lat="45.7157357" lon="9.8879965"><ele>285.8</ele><time>2026-05-01T08:37:35.025Z</time></trkpt><trkpt lat="45.715818" lon="9.8880866"><ele>286.0</ele><time>2026-05-01T08:37:36.966Z</time></trkpt><trkpt lat="45.7159047" lon="9.8881782"><ele>286.0</ele><time>2026-05-01T08:37:38.969Z</time></trkpt><trkpt lat="45.7159926" lon="9.8882649"><ele>286.0</ele><time>2026-05-01T08:37:41.036Z</time></trkpt><trkpt lat="45.7160816" lon="9.8883504"><ele>286.0</ele><time>2026-05-01T08:37:42.972Z</time></trkpt><trkpt lat="45.7161747" lon="9.8884201"><ele>286.0</ele><time>2026-05-01T08:37:44.97Z</time></trkpt><trkpt lat="45.7162688" lon="9.8884921"><ele>286.0</ele><time>2026-05-01T08:37:46.97Z</time></trkpt><trkpt lat="45.7163612" lon="9.8885483"><ele>286.40000000000003</ele><time>2026-05-01T08:37:49.034Z</time></trkpt><trkpt lat="45.716456" lon="9.8886037"><ele>286.8</ele><time>2026-05-01T08:37:50.967Z</time></trkpt><trkpt lat="45.7165495" lon="9.8886632"><ele>287.20000000000005</ele><time>2026-05-01T08:37:52.958Z</time></trkpt><trkpt lat="45.7166464" lon="9.8887172"><ele>287.6</ele><time>2026-05-01T08:37:55.029Z</time></trkpt><trkpt lat="45.7167474" lon="9.8887841"><ele>288.0</ele><time>2026-05-01T08:37:57.014Z</time></trkpt><trkpt lat="45.7168364" lon="9.8888693"><ele>287.8</ele><time>2026-05-01T08:37:58.961Z</time></trkpt><trkpt lat="45.7169175" lon="9.8889683"><ele>287.6</ele><time>2026-05-01T08:38:00.986Z</time></trkpt><trkpt lat="45.7169843" lon="9.889059"><ele>287.4</ele><time>2026-05-01T08:38:02.958Z</time></trkpt><trkpt lat="45.7170567" lon="9.8891523"><ele>287.2</ele><time>2026-05-01T08:38:05.062Z</time></trkpt><trkpt lat="45.7171241" lon="9.8892517"><ele>287.0</ele><time>2026-05-01T08:38:07.032Z</time></trkpt><trkpt lat="45.7172056" lon="9.8893391"><ele>287.0</ele><time>2026-05-01T08:38:08.967Z</time></trkpt><trkpt lat="45.7172779" lon="9.8894267"><ele>287.0</ele><time>2026-05-01T08:38:11.033Z</time></trkpt><trkpt lat="45.7173561" lon="9.8894997"><ele>287.0</ele><time>2026-05-01T08:38:12.959Z</time></trkpt><trkpt lat="45.71743" lon="9.8895483"><ele>287.0</ele><time>2026-05-01T08:38:14.952Z</time></trkpt><trkpt lat="45.7175144" lon="9.889596"><ele>287.0</ele><time>2026-05-01T08:38:16.97Z</time></trkpt><trkpt lat="45.7175917" lon="9.88963"><ele>287.0</ele><time>2026-05-01T08:38:18.966Z</time></trkpt><trkpt lat="45.7176682" lon="9.8896501"><ele>286.85714285714283</ele><time>2026-05-01T08:38:20.962Z</time></trkpt><trkpt lat="45.7177373" lon="9.8896611"><ele>286.7142857142857</ele><time>2026-05-01T08:38:22.949Z</time></trkpt><trkpt lat="45.7178243" lon="9.8896855"><ele>286.57142857142856</ele><time>2026-05-01T08:38:26.032Z</time></trkpt><trkpt lat="45.7178833" lon="9.8897234"><ele>286.42857142857144</ele><time>2026-05-01T08:38:28.964Z</time></trkpt><trkpt lat="45.7179203" lon="9.8898019"><ele>286.2857142857143</ele><time>2026-05-01T08:38:32.961Z</time></trkpt><trkpt lat="45.71799" lon="9.8897988"><ele>286.1428571428571</ele><time>2026-05-01T08:38:36.963Z</time></trkpt><trkpt lat="45.7180535" lon="9.8898059"><ele>286.0</ele><time>2026-05-01T08:38:39.963Z</time></trkpt><trkpt lat="45.718132" lon="9.8897773"><ele>286.0</ele><time>2026-05-01T08:49:14.953Z</time></trkpt><trkpt lat="45.7180643" lon="9.8898224"><ele>286.0</ele><time>2026-05-01T08:50:26.968Z</time></trkpt><trkpt lat="45.7180995" lon="9.8899013"><ele>286.0</ele><time>2026-05-01T08:50:30.975Z</time></trkpt><trkpt lat="45.7181696" lon="9.889979"><ele>286.0</ele><time>2026-05-01T08:50:34.971Z</time></trkpt><trkpt lat="45.7182402" lon="9.8900646"><ele>286.0</ele><time>2026-05-01T08:50:37.977Z</time></trkpt><trkpt lat="45.7182937" lon="9.8901196"><ele>286.0</ele><time>2026-05-01T08:50:39.969Z</time></trkpt><trkpt lat="45.7183757" lon="9.8901529"><ele>286.0</ele><time>2026-05-01T08:50:42.969Z</time></trkpt><trkpt lat="45.7184447" lon="9.8901085"><ele>286.0</ele><time>2026-05-01T08:50:44.972Z</time></trkpt><trkpt lat="45.7185108" lon="9.8900448"><ele>286.0</ele><time>2026-05-01T08:50:46.97Z</time></trkpt><trkpt lat="45.7185771" lon="9.8899712"><ele>286.0</ele><time>2026-05-01T08:50:48.974Z</time></trkpt><trkpt lat="45.7186233" lon="9.889898"><ele>286.0</ele><time>2026-05-01T08:50:50.969Z</time></trkpt><trkpt lat="45.7186733" lon="9.889822"><ele>286.0</ele><time>2026-05-01T08:50:52.961Z</time></trkpt><trkpt lat="45.7187416" lon="9.8897313"><ele>287.0</ele><time>2026-05-01T08:50:55.975Z</time></trkpt><trkpt lat="45.7188186" lon="9.8897007"><ele>288.0</ele><time>2026-05-01T08:50:59.977Z</time></trkpt><trkpt lat="45.7188969" lon="9.8897113"><ele>289.0</ele><time>2026-05-01T08:51:03.973Z</time></trkpt><trkpt lat="45.7189823" lon="9.88967"><ele>290.0</ele><time>2026-05-01T08:51:06.967Z</time></trkpt><trkpt lat="45.719058" lon="9.8895886"><ele>291.0</ele><time>2026-05-01T08:51:08.963Z</time></trkpt><trkpt lat="45.7191079" lon="9.8894619"><ele>292.0</ele><time>2026-05-01T08:51:10.972Z</time></trkpt><trkpt lat="45.7191559" lon="9.8893373"><ele>292.6</ele><time>2026-05-01T08:51:12.971Z</time></trkpt><trkpt lat="45.7192019" lon="9.8892051"><ele>293.2</ele><time>2026-05-01T08:51:14.968Z</time></trkpt><trkpt lat="45.7192093" lon="9.8890609"><ele>293.8</ele><time>2026-05-01T08:51:16.969Z</time></trkpt><trkpt lat="45.7191511" lon="9.8889435"><ele>294.4</ele><time>2026-05-01T08:51:18.959Z</time></trkpt><trkpt lat="45.7190574" lon="9.8888733"><ele>295.0</ele><time>2026-05-01T08:51:20.973Z</time></trkpt><trkpt lat="45.7189672" lon="9.8888291"><ele>295.0</ele><time>2026-05-01T08:51:22.971Z</time></trkpt><trkpt lat="45.7188785" lon="9.8887808"><ele>295.0</ele><time>2026-05-01T08:51:24.969Z</time></trkpt><trkpt lat="45.718782" lon="9.8887154"><ele>295.0</ele><time>2026-05-01T08:51:26.972Z</time></trkpt><trkpt lat="45.718704" lon="9.8886279"><ele>295.0</ele><time>2026-05-01T08:51:28.976Z</time></trkpt><trkpt lat="45.7186484" lon="9.8885213"><ele>295.0</ele><time>2026-05-01T08:51:30.969Z</time></trkpt><trkpt lat="45.7186013" lon="9.8884005"><ele>294.4</ele><time>2026-05-01T08:51:32.972Z</time></trkpt><trkpt lat="45.7185586" lon="9.8882793"><ele>293.8</ele><time>2026-05-01T08:51:34.975Z</time></trkpt><trkpt lat="45.7185237" lon="9.8881649"><ele>293.2</ele><time>2026-05-01T08:51:36.979Z</time></trkpt><trkpt lat="45.718474" lon="9.8880462"><ele>292.6</ele><time>2026-05-01T08:51:38.974Z</time></trkpt><trkpt lat="45.7184405" lon="9.8879211"><ele>292.0</ele><time>2026-05-01T08:51:40.968Z</time></trkpt><trkpt lat="45.7184296" lon="9.8877956"><ele>292.0</ele><time>2026-05-01T08:51:42.96Z</time></trkpt><trkpt lat="45.7184357" lon="9.8876682"><ele>292.0</ele><time>2026-05-01T08:51:44.973Z</time></trkpt><trkpt lat="45.7184636" lon="9.8875501"><ele>292.0</ele><time>2026-05-01T08:51:46.975Z</time></trkpt><trkpt lat="45.7185095" lon="9.8874438"><ele>292.0</ele><time>2026-05-01T08:51:48.974Z</time></trkpt><trkpt lat="45.7185457" lon="9.8873241"><ele>292.0</ele><time>2026-05-01T08:51:50.966Z</time></trkpt><trkpt lat="45.7185873" lon="9.8871994"><ele>294.6</ele><time>2026-05-01T08:51:52.975Z</time></trkpt><trkpt lat="45.7186097" lon="9.887061"><ele>297.2</ele><time>2026-05-01T08:51:54.972Z</time></trkpt><trkpt lat="45.7186077" lon="9.8869229"><ele>299.8</ele><time>2026-05-01T08:51:56.975Z</time></trkpt><trkpt lat="45.7185854" lon="9.886776"><ele>302.4</ele><time>2026-05-01T08:51:58.975Z</time></trkpt><trkpt lat="45.7185723" lon="9.8866313"><ele>305.0</ele><time>2026-05-01T08:52:00.968Z</time></trkpt><trkpt lat="45.718552" lon="9.8864895"><ele>305.0</ele><time>2026-05-01T08:52:02.971Z</time></trkpt><trkpt lat="45.7185319" lon="9.8863634"><ele>305.0</ele><time>2026-05-01T08:52:04.969Z</time></trkpt><trkpt lat="45.7184971" lon="9.8862357"><ele>305.0</ele><time>2026-05-01T08:52:06.968Z</time></trkpt><trkpt lat="45.7184644" lon="9.8860992"><ele>305.0</ele><time>2026-05-01T08:52:08.97Z</time></trkpt><trkpt lat="45.7184275" lon="9.8859659"><ele>305.0</ele><time>2026-05-01T08:52:10.972Z</time></trkpt><trkpt lat="45.7183799" lon="9.8858411"><ele>305.6</ele><time>2026-05-01T08:52:12.974Z</time></trkpt><trkpt lat="45.7183315" lon="9.8857349"><ele>306.2</ele><time>2026-05-01T08:52:14.972Z</time></trkpt><trkpt lat="45.7182639" lon="9.8856257"><ele>306.8</ele><time>2026-05-01T08:52:16.961Z</time></trkpt><trkpt lat="45.7182068" lon="9.8855094"><ele>307.4</ele><time>2026-05-01T08:52:18.972Z</time></trkpt><trkpt lat="45.7181499" lon="9.8853981"><ele>308.0</ele><time>2026-05-01T08:52:20.975Z</time></trkpt><trkpt lat="45.7180859" lon="9.8852879"><ele>308.0</ele><time>2026-05-01T08:52:22.975Z</time></trkpt><trkpt lat="45.7180204" lon="9.8851723"><ele>308.0</ele><time>2026-05-01T08:52:24.972Z</time></trkpt><trkpt lat="45.7179492" lon="9.8850766"><ele>308.0</ele><time>2026-05-01T08:52:26.973Z</time></trkpt><trkpt lat="45.7178854" lon="9.8849815"><ele>308.0</ele><time>2026-05-01T08:52:28.96Z</time></trkpt><trkpt lat="45.7178154" lon="9.8849022"><ele>308.0</ele><time>2026-05-01T08:52:30.97Z</time></trkpt><trkpt lat="45.7177266" lon="9.8848264"><ele>307.4</ele><time>2026-05-01T08:52:32.974Z</time></trkpt><trkpt lat="45.717642" lon="9.8847432"><ele>306.8</ele><time>2026-05-01T08:52:34.963Z</time></trkpt><trkpt lat="45.717576" lon="9.8846418"><ele>306.2</ele><time>2026-05-01T08:52:36.973Z</time></trkpt><trkpt lat="45.7175138" lon="9.8845451"><ele>305.6</ele><time>2026-05-01T08:52:38.968Z</time></trkpt><trkpt lat="45.7174695" lon="9.8844181"><ele>305.0</ele><time>2026-05-01T08:52:40.972Z</time></trkpt><trkpt lat="45.7174519" lon="9.8842726"><ele>306.8</ele><time>2026-05-01T08:52:42.977Z</time></trkpt><trkpt lat="45.7174547" lon="9.884138"><ele>308.6</ele><time>2026-05-01T08:52:44.969Z</time></trkpt><trkpt lat="45.7174413" lon="9.884002"><ele>310.4</ele><time>2026-05-01T08:52:46.975Z</time></trkpt><trkpt lat="45.7174234" lon="9.8838602"><ele>312.2</ele><time>2026-05-01T08:52:48.978Z</time></trkpt><trkpt lat="45.7174114" lon="9.8837277"><ele>314.0</ele><time>2026-05-01T08:52:50.973Z</time></trkpt><trkpt lat="45.7173935" lon="9.883589"><ele>314.0</ele><time>2026-05-01T08:52:52.974Z</time></trkpt><trkpt lat="45.7173572" lon="9.8834609"><ele>314.0</ele><time>2026-05-01T08:52:54.975Z</time></trkpt><trkpt lat="45.7173094" lon="9.8833392"><ele>314.0</ele><time>2026-05-01T08:52:56.975Z</time></trkpt><trkpt lat="45.7172527" lon="9.8832285"><ele>314.0</ele><time>2026-05-01T08:52:58.971Z</time></trkpt><trkpt lat="45.7171964" lon="9.883114"><ele>314.0</ele><time>2026-05-01T08:53:00.976Z</time></trkpt><trkpt lat="45.7171374" lon="9.8829835"><ele>316.0</ele><time>2026-05-01T08:53:02.976Z</time></trkpt><trkpt lat="45.7170796" lon="9.8828559"><ele>318.0</ele><time>2026-05-01T08:53:04.96Z</time></trkpt><trkpt lat="45.7170229" lon="9.8827166"><ele>320.0</ele><time>2026-05-01T08:53:06.973Z</time></trkpt><trkpt lat="45.7169916" lon="9.8825796"><ele>322.0</ele><time>2026-05-01T08:53:08.974Z</time></trkpt><trkpt lat="45.7169665" lon="9.8824396"><ele>324.0</ele><time>2026-05-01T08:53:10.97Z</time></trkpt><trkpt lat="45.7169446" lon="9.8822854"><ele>325.0</ele><time>2026-05-01T08:53:12.98Z</time></trkpt><trkpt lat="45.7169208" lon="9.882126"><ele>326.0</ele><time>2026-05-01T08:53:14.975Z</time></trkpt><trkpt lat="45.7169038" lon="9.8819633"><ele>327.0</ele><time>2026-05-01T08:53:16.976Z</time></trkpt><trkpt lat="45.7168853" lon="9.8818034"><ele>328.0</ele><time>2026-05-01T08:53:18.973Z</time></trkpt><trkpt lat="45.7168673" lon="9.8816582"><ele>329.0</ele><time>2026-05-01T08:53:20.976Z</time></trkpt><trkpt lat="45.7168593" lon="9.8815161"><ele>326.8</ele><time>2026-05-01T08:53:22.975Z</time></trkpt><trkpt lat="45.7168499" lon="9.8813687"><ele>324.59999999999997</ele><time>2026-05-01T08:53:24.978Z</time></trkpt><trkpt lat="45.7168428" lon="9.8812174"><ele>322.4</ele><time>2026-05-01T08:53:27.03Z</time></trkpt><trkpt lat="45.7168183" lon="9.8810616"><ele>320.2</ele><time>2026-05-01T08:53:28.954Z</time></trkpt><trkpt lat="45.7168035" lon="9.8809195"><ele>318.0</ele><time>2026-05-01T08:53:30.962Z</time></trkpt><trkpt lat="45.7167905" lon="9.8807812"><ele>318.0</ele><time>2026-05-01T08:53:32.966Z</time></trkpt><trkpt lat="45.7167636" lon="9.8806362"><ele>318.0</ele><time>2026-05-01T08:53:35.049Z</time></trkpt><trkpt lat="45.7167345" lon="9.8804955"><ele>318.0</ele><time>2026-05-01T08:53:36.97Z</time></trkpt><trkpt lat="45.7167105" lon="9.8803533"><ele>318.0</ele><time>2026-05-01T08:53:39.025Z</time></trkpt><trkpt lat="45.7166832" lon="9.8802124"><ele>318.0</ele><time>2026-05-01T08:53:40.969Z</time></trkpt><trkpt lat="45.7166958" lon="9.8800792"><ele>318.0</ele><time>2026-05-01T08:53:42.963Z</time></trkpt><trkpt lat="45.7167385" lon="9.8799584"><ele>318.0</ele><time>2026-05-01T08:53:44.995Z</time></trkpt><trkpt lat="45.7167841" lon="9.8798287"><ele>318.0</ele><time>2026-05-01T08:53:46.966Z</time></trkpt><trkpt lat="45.7168234" lon="9.8797059"><ele>318.0</ele><time>2026-05-01T08:53:48.962Z</time></trkpt><trkpt lat="45.7168742" lon="9.8795936"><ele>318.0</ele><time>2026-05-01T08:53:50.962Z</time></trkpt><trkpt lat="45.7169299" lon="9.8794935"><ele>320.2857142857143</ele><time>2026-05-01T08:53:52.975Z</time></trkpt><trkpt lat="45.7169779" lon="9.8794128"><ele>322.5714285714286</ele><time>2026-05-01T08:53:54.968Z</time></trkpt><trkpt lat="45.7170257" lon="9.8793308"><ele>324.8571428571429</ele><time>2026-05-01T08:53:56.963Z</time></trkpt><trkpt lat="45.7170643" lon="9.8792457"><ele>327.1428571428571</ele><time>2026-05-01T08:53:58.962Z</time></trkpt><trkpt lat="45.7171063" lon="9.879156"><ele>329.42857142857144</ele><time>2026-05-01T08:54:00.965Z</time></trkpt><trkpt lat="45.7171385" lon="9.879059"><ele>331.7142857142857</ele><time>2026-05-01T08:54:02.95Z</time></trkpt><trkpt lat="45.7171654" lon="9.8789684"><ele>334.0</ele><time>2026-05-01T08:54:04.956Z</time></trkpt><trkpt lat="45.7171912" lon="9.8788773"><ele>334.2857142857143</ele><time>2026-05-01T08:54:06.953Z</time></trkpt><trkpt lat="45.717225" lon="9.8787866"><ele>334.57142857142856</ele><time>2026-05-01T08:54:08.953Z</time></trkpt><trkpt lat="45.7172602" lon="9.8786985"><ele>334.8571428571429</ele><time>2026-05-01T08:54:11.038Z</time></trkpt><trkpt lat="45.7172953" lon="9.8786012"><ele>335.1428571428571</ele><time>2026-05-01T08:54:12.958Z</time></trkpt><trkpt lat="45.7173372" lon="9.8785206"><ele>335.42857142857144</ele><time>2026-05-01T08:54:14.962Z</time></trkpt><trkpt lat="45.7173854" lon="9.8784439"><ele>335.7142857142857</ele><time>2026-05-01T08:54:16.96Z</time></trkpt><trkpt lat="45.717433" lon="9.8783573"><ele>336.0</ele><time>2026-05-01T08:54:19.032Z</time></trkpt><trkpt lat="45.7174756" lon="9.8782628"><ele>335.1666666666667</ele><time>2026-05-01T08:54:21.036Z</time></trkpt><trkpt lat="45.7175209" lon="9.8781839"><ele>334.3333333333333</ele><time>2026-05-01T08:54:22.961Z</time></trkpt><trkpt lat="45.7175639" lon="9.8780871"><ele>333.5</ele><time>2026-05-01T08:54:24.96Z</time></trkpt><trkpt lat="45.7176085" lon="9.8779985"><ele>332.66666666666663</ele><time>2026-05-01T08:54:27.026Z</time></trkpt><trkpt lat="45.717662" lon="9.8779025"><ele>331.8333333333333</ele><time>2026-05-01T08:54:28.964Z</time></trkpt><trkpt lat="45.7177131" lon="9.8778119"><ele>331.0</ele><time>2026-05-01T08:54:30.958Z</time></trkpt><trkpt lat="45.7177616" lon="9.8777451"><ele>334.2857142857143</ele><time>2026-05-01T08:54:32.958Z</time></trkpt><trkpt lat="45.7178198" lon="9.8776994"><ele>337.57142857142856</ele><time>2026-05-01T08:54:35.015Z</time></trkpt><trkpt lat="45.7178809" lon="9.8776693"><ele>340.8571428571429</ele><time>2026-05-01T08:54:36.962Z</time></trkpt><trkpt lat="45.7179448" lon="9.8776461"><ele>344.1428571428571</ele><time>2026-05-01T08:54:39.035Z</time></trkpt><trkpt lat="45.7180374" lon="9.8776389"><ele>347.4285714285714</ele><time>2026-05-01T08:54:41.948Z</time></trkpt><trkpt lat="45.7181023" lon="9.8776411"><ele>350.7142857142857</ele><time>2026-05-01T08:54:43.952Z</time></trkpt><trkpt lat="45.7181872" lon="9.8776652"><ele>354.0</ele><time>2026-05-01T08:54:46.976Z</time></trkpt><trkpt lat="45.7182747" lon="9.8776853"><ele>354.0</ele><time>2026-05-01T08:54:49.957Z</time></trkpt><trkpt lat="45.7183568" lon="9.877715"><ele>354.0</ele><time>2026-05-01T08:54:52.968Z</time></trkpt><trkpt lat="45.7184376" lon="9.877725"><ele>354.0</ele><time>2026-05-01T08:54:55.964Z</time></trkpt><trkpt lat="45.7185195" lon="9.8777052"><ele>354.0</ele><time>2026-05-01T08:54:59.036Z</time></trkpt><trkpt lat="45.7185858" lon="9.8776128"><ele>354.0</ele><time>2026-05-01T08:55:01.968Z</time></trkpt><trkpt lat="45.7186496" lon="9.8776472"><ele>354.0</ele><time>2026-05-01T08:55:04.963Z</time></trkpt><trkpt lat="45.718627" lon="9.8777443"><ele>354.0</ele><time>2026-05-01T08:55:07.963Z</time></trkpt><trkpt lat="45.7186161" lon="9.8778436"><ele>354.0</ele><time>2026-05-01T08:55:10.994Z</time></trkpt><trkpt lat="45.7185825" lon="9.8779501"><ele>354.0</ele><time>2026-05-01T08:55:13.961Z</time></trkpt><trkpt lat="45.7185584" lon="9.8780638"><ele>354.0</ele><time>2026-05-01T08:55:16.965Z</time></trkpt><trkpt lat="45.7185291" lon="9.8781801"><ele>354.0</ele><time>2026-05-01T08:55:19.964Z</time></trkpt><trkpt lat="45.7185034" lon="9.8782944"><ele>354.0</ele><time>2026-05-01T08:55:22.968Z</time></trkpt><trkpt lat="45.7184778" lon="9.8783843"><ele>354.5714285714286</ele><time>2026-05-01T08:55:24.953Z</time></trkpt><trkpt lat="45.718477" lon="9.8784774"><ele>355.1428571428571</ele><time>2026-05-01T08:55:26.952Z</time></trkpt><trkpt lat="45.7184705" lon="9.8785883"><ele>355.7142857142857</ele><time>2026-05-01T08:55:29.951Z</time></trkpt><trkpt lat="45.7184384" lon="9.8786785"><ele>356.28571428571433</ele><time>2026-05-01T08:55:52.958Z</time></trkpt><trkpt lat="45.7183728" lon="9.8786709"><ele>356.8571428571429</ele><time>2026-05-01T08:55:55.956Z</time></trkpt><trkpt lat="45.7183146" lon="9.878727"><ele>357.42857142857144</ele><time>2026-05-01T08:55:57.957Z</time></trkpt><trkpt lat="45.7183634" lon="9.87883"><ele>358.0</ele><time>2026-05-01T08:55:59.963Z</time></trkpt><trkpt lat="45.7183935" lon="9.8789211"><ele>358.0</ele><time>2026-05-01T08:56:20.96Z</time></trkpt><trkpt lat="45.7183422" lon="9.8789879"><ele>358.0</ele><time>2026-05-01T08:56:26.961Z</time></trkpt><trkpt lat="45.7183485" lon="9.8788918"><ele>358.0</ele><time>2026-05-01T08:56:44.949Z</time></trkpt><trkpt lat="45.7183137" lon="9.87898"><ele>358.0</ele><time>2026-05-01T08:56:59.956Z</time></trkpt><trkpt lat="45.7183328" lon="9.879067"><ele>358.0</ele><time>2026-05-01T08:57:03.952Z</time></trkpt><trkpt lat="45.7183432" lon="9.8791685"><ele>358.0</ele><time>2026-05-01T08:57:07.952Z</time></trkpt><trkpt lat="45.718314" lon="9.8789611"><ele>358.0</ele><time>2026-05-01T08:57:18.084Z</time></trkpt><trkpt lat="45.718358" lon="9.8788848"><ele>358.0</ele><time>2026-05-01T08:57:53.818Z</time></trkpt><trkpt lat="45.7183628" lon="9.8787189"><ele>358.0</ele><time>2026-05-01T08:57:56.128Z</time></trkpt></trkseg></trk></gpx>